<?xml version='1.0' encoding='UTF-8'?><gpx version="1.1" creator="JPX - https://github.com/jenetics/jpx" xmlns="http://www.topografix.com/GPX/1/1"><trk><trkseg><trkpt lat="43.47386151795471" lon="12.264173398608628"><ele>338.0</ele><time>2026-04-24T07:27:57.999Z</time></trkpt><trkpt lat="43.473930580512416" lon="12.264131542211"><ele>338.0</ele><time>2026-04-24T07:27:59.999Z</time></trkpt><trkpt lat="43.474005144650135" lon="12.264074381880704"><ele>338.0</ele><time>2026-04-24T07:28:01.999Z</time></trkpt><trkpt lat="43.47407810738108" lon="12.263999302564137"><ele>338.0</ele><time>2026-04-24T07:28:03.999Z</time></trkpt><trkpt lat="43.474149651872864" lon="12.263927151370044"><ele>338.0</ele><time>2026-04-24T07:28:05.999Z</time></trkpt><trkpt lat="43.47420249412454" lon="12.263875752572604"><ele>338.0</ele><time>2026-04-24T07:28:06.999Z</time></trkpt><trkpt lat="43.47425396326427" lon="12.263820151329822"><ele>337.6666666666667</ele><time>2026-04-24T07:28:07.999Z</time></trkpt><trkpt lat="43.47431477664124" lon="12.263788403887409"><ele>337.33333333333337</ele><time>2026-04-24T07:28:09Z</time></trkpt><trkpt lat="43.4744019674747" lon="12.263672110611145"><ele>337.0</ele><time>2026-04-24T07:28:11Z</time></trkpt><trkpt lat="43.474503133039754" lon="12.263568509587703"><ele>336.6666666666667</ele><time>2026-04-24T07:28:13Z</time></trkpt><trkpt lat="43.474555632072594" lon="12.263513820042334"><ele>336.3333333333333</ele><time>2026-04-24T07:28:14Z</time></trkpt><trkpt lat="43.47460837350442" lon="12.263462707773337"><ele>336.0</ele><time>2026-04-24T07:28:15Z</time></trkpt><trkpt lat="43.47469179254073" lon="12.263400959006256"><ele>335.6</ele><time>2026-04-24T07:28:17Z</time></trkpt><trkpt lat="43.47475053930646" lon="12.263340587127285"><ele>335.20000000000005</ele><time>2026-04-24T07:28:19Z</time></trkpt><trkpt lat="43.47483246009767" lon="12.263265973498815"><ele>334.79999999999995</ele><time>2026-04-24T07:28:23Z</time></trkpt><trkpt lat="43.47479575111255" lon="12.263089498299317"><ele>334.4</ele><time>2026-04-24T07:28:24Z</time></trkpt><trkpt lat="43.47476536816947" lon="12.262985221323776"><ele>334.0</ele><time>2026-04-24T07:28:25Z</time></trkpt><trkpt lat="43.47471347556543" lon="12.26289669962253"><ele>334.0</ele><time>2026-04-24T07:28:26Z</time></trkpt><trkpt lat="43.47464272606975" lon="12.26280139696955"><ele>334.0</ele><time>2026-04-24T07:28:27Z</time></trkpt><trkpt lat="43.47456970670055" lon="12.262708653205136"><ele>334.0</ele><time>2026-04-24T07:28:28Z</time></trkpt><trkpt lat="43.4744963964305" lon="12.262613566748232"><ele>334.0</ele><time>2026-04-24T07:28:29Z</time></trkpt><trkpt lat="43.474420485636024" lon="12.262512700144885"><ele>334.0</ele><time>2026-04-24T07:28:30Z</time></trkpt><trkpt lat="43.47434169798218" lon="12.262401032440179"><ele>333.75</ele><time>2026-04-24T07:28:31Z</time></trkpt><trkpt lat="43.47426028109503" lon="12.262292858076492"><ele>333.5</ele><time>2026-04-24T07:28:32Z</time></trkpt><trkpt lat="43.47417726337969" lon="12.262183108372861"><ele>333.25</ele><time>2026-04-24T07:28:33Z</time></trkpt><trkpt lat="43.47409480498909" lon="12.262068979248852"><ele>333.0</ele><time>2026-04-24T07:28:34Z</time></trkpt><trkpt lat="43.47401508525842" lon="12.261964137321595"><ele>332.0</ele><time>2026-04-24T07:28:35Z</time></trkpt><trkpt lat="43.473939065966654" lon="12.261853217029303"><ele>331.0</ele><time>2026-04-24T07:28:36Z</time></trkpt><trkpt lat="43.473858473240504" lon="12.261748074130686"><ele>330.0</ele><time>2026-04-24T07:28:37Z</time></trkpt><trkpt lat="43.47377269292433" lon="12.261633710409996"><ele>329.0</ele><time>2026-04-24T07:28:38Z</time></trkpt><trkpt lat="43.473682881856746" lon="12.261516879561285"><ele>327.5</ele><time>2026-04-24T07:28:39Z</time></trkpt><trkpt lat="43.47359154868338" lon="12.261391402934729"><ele>326.0</ele><time>2026-04-24T07:28:40Z</time></trkpt><trkpt lat="43.47349563681711" lon="12.26126565494388"><ele>324.5</ele><time>2026-04-24T07:28:41Z</time></trkpt><trkpt lat="43.473401158354044" lon="12.261135833552512"><ele>323.0</ele><time>2026-04-24T07:28:42Z</time></trkpt><trkpt lat="43.47330665386301" lon="12.261014063021104"><ele>323.0</ele><time>2026-04-24T07:28:43Z</time></trkpt><trkpt lat="43.473214421084826" lon="12.26088889497022"><ele>323.0</ele><time>2026-04-24T07:28:44Z</time></trkpt><trkpt lat="43.47312445111131" lon="12.260767213857722"><ele>323.0</ele><time>2026-04-24T07:28:45Z</time></trkpt><trkpt lat="43.47303528298789" lon="12.260645830146824"><ele>323.0</ele><time>2026-04-24T07:28:46Z</time></trkpt><trkpt lat="43.47295050935723" lon="12.260533315433818"><ele>322.25</ele><time>2026-04-24T07:28:47Z</time></trkpt><trkpt lat="43.47287268520522" lon="12.260423237157623"><ele>321.5</ele><time>2026-04-24T07:28:48Z</time></trkpt><trkpt lat="43.472795652140455" lon="12.260314591943002"><ele>320.75</ele><time>2026-04-24T07:28:49Z</time></trkpt><trkpt lat="43.4727143212243" lon="12.260205697238657"><ele>320.0</ele><time>2026-04-24T07:28:50Z</time></trkpt><trkpt lat="43.47263212945193" lon="12.260094617837654"><ele>320.0</ele><time>2026-04-24T07:28:51Z</time></trkpt><trkpt lat="43.4725518565171" lon="12.259982621243516"><ele>320.0</ele><time>2026-04-24T07:28:52Z</time></trkpt><trkpt lat="43.47247505368719" lon="12.259876537212836"><ele>320.0</ele><time>2026-04-24T07:28:53Z</time></trkpt><trkpt lat="43.47240219734628" lon="12.259781293653958"><ele>320.0</ele><time>2026-04-24T07:28:54Z</time></trkpt><trkpt lat="43.472330423453634" lon="12.259687392138899"><ele>320.0</ele><time>2026-04-24T07:28:55Z</time></trkpt><trkpt lat="43.47226453114403" lon="12.259595066893311"><ele>320.1666666666667</ele><time>2026-04-24T07:28:56Z</time></trkpt><trkpt lat="43.47219646650564" lon="12.259504016657537"><ele>320.33333333333337</ele><time>2026-04-24T07:28:57Z</time></trkpt><trkpt lat="43.47212250611285" lon="12.259427853207953"><ele>320.5</ele><time>2026-04-24T07:28:58Z</time></trkpt><trkpt lat="43.47207970177062" lon="12.259338765941342"><ele>320.6666666666667</ele><time>2026-04-24T07:28:59Z</time></trkpt><trkpt lat="43.47203428690442" lon="12.259271714890357"><ele>320.8333333333333</ele><time>2026-04-24T07:29:00Z</time></trkpt><trkpt lat="43.47197803052916" lon="12.259181689642675"><ele>321.0</ele><time>2026-04-24T07:29:02Z</time></trkpt><trkpt lat="43.47192938268737" lon="12.259099303401996"><ele>319.8</ele><time>2026-04-24T07:29:06Z</time></trkpt><trkpt lat="43.471879740088305" lon="12.25900703850714"><ele>318.6</ele><time>2026-04-24T07:29:08Z</time></trkpt><trkpt lat="43.47182205997322" lon="12.258885914617828"><ele>317.4</ele><time>2026-04-24T07:29:10Z</time></trkpt><trkpt lat="43.47176036950642" lon="12.258729146190246"><ele>316.2</ele><time>2026-04-24T07:29:12Z</time></trkpt><trkpt lat="43.47172302173313" lon="12.258625189288894"><ele>315.0</ele><time>2026-04-24T07:29:13Z</time></trkpt><trkpt lat="43.471698915724275" lon="12.258543812118445"><ele>314.5</ele><time>2026-04-24T07:29:14Z</time></trkpt><trkpt lat="43.47166813066056" lon="12.258443487657418"><ele>314.0</ele><time>2026-04-24T07:29:15Z</time></trkpt><trkpt lat="43.471644133511276" lon="12.25835023017877"><ele>313.5</ele><time>2026-04-24T07:29:16Z</time></trkpt><trkpt lat="43.47161308040973" lon="12.258232785515073"><ele>313.0</ele><time>2026-04-24T07:29:17Z</time></trkpt><trkpt lat="43.47159280138583" lon="12.258128911883519"><ele>312.5</ele><time>2026-04-24T07:29:18Z</time></trkpt><trkpt lat="43.47156189141153" lon="12.258025347269252"><ele>312.0</ele><time>2026-04-24T07:29:19Z</time></trkpt><trkpt lat="43.471524703614996" lon="12.257904394905374"><ele>311.25</ele><time>2026-04-24T07:29:20Z</time></trkpt><trkpt lat="43.47148913263257" lon="12.257796382069184"><ele>310.5</ele><time>2026-04-24T07:29:21Z</time></trkpt><trkpt lat="43.47144853394511" lon="12.257677954004421"><ele>309.75</ele><time>2026-04-24T07:29:22Z</time></trkpt><trkpt lat="43.471407779996674" lon="12.257573564259776"><ele>309.0</ele><time>2026-04-24T07:29:23Z</time></trkpt><trkpt lat="43.47078644319393" lon="12.257647873772473"><ele>309.0</ele><time>2026-04-24T07:29:24Z</time></trkpt><trkpt lat="43.47070809929555" lon="12.25754560505056"><ele>309.0</ele><time>2026-04-24T07:29:25Z</time></trkpt><trkpt lat="43.470633639412675" lon="12.257439206849234"><ele>309.0</ele><time>2026-04-24T07:29:26Z</time></trkpt><trkpt lat="43.4705566615723" lon="12.257334086813424"><ele>309.0</ele><time>2026-04-24T07:29:27Z</time></trkpt><trkpt lat="43.47047756123868" lon="12.257230606691365"><ele>309.0</ele><time>2026-04-24T07:29:28Z</time></trkpt><trkpt lat="43.470400880005506" lon="12.257123192309152"><ele>308.59999999999997</ele><time>2026-04-24T07:29:29Z</time></trkpt><trkpt lat="43.470325324686556" lon="12.257013766573648"><ele>308.2</ele><time>2026-04-24T07:29:30Z</time></trkpt><trkpt lat="43.47025221054025" lon="12.256911953630686"><ele>307.79999999999995</ele><time>2026-04-24T07:29:31Z</time></trkpt><trkpt lat="43.47018535141864" lon="12.256820945423513"><ele>307.4</ele><time>2026-04-24T07:29:31.999Z</time></trkpt><trkpt lat="43.47013489760828" lon="12.25675101679107"><ele>307.0</ele><time>2026-04-24T07:29:32.999Z</time></trkpt><trkpt lat="43.47007438977177" lon="12.256614999886668"><ele>307.0</ele><time>2026-04-24T07:29:34.999Z</time></trkpt><trkpt lat="43.470062880381576" lon="12.25652890948954"><ele>307.0</ele><time>2026-04-24T07:29:35.999Z</time></trkpt><trkpt lat="43.470050192500125" lon="12.25644083644731"><ele>307.0</ele><time>2026-04-24T07:29:36.999Z</time></trkpt><trkpt lat="43.470018402097494" lon="12.256363893181923"><ele>307.0</ele><time>2026-04-24T07:29:37.999Z</time></trkpt><trkpt lat="43.46989087444523" lon="12.25635244117796"><ele>307.0</ele><time>2026-04-24T07:29:39.999Z</time></trkpt><trkpt lat="43.46981370143944" lon="12.256411682315573"><ele>307.0</ele><time>2026-04-24T07:29:40.999Z</time></trkpt><trkpt lat="43.46973791672058" lon="12.256499928160293"><ele>307.0</ele><time>2026-04-24T07:29:41.999Z</time></trkpt><trkpt lat="43.46965595454955" lon="12.256568117992948"><ele>307.0</ele><time>2026-04-24T07:29:42.999Z</time></trkpt><trkpt lat="43.46956191821087" lon="12.256613401018955"><ele>307.0</ele><time>2026-04-24T07:29:43.999Z</time></trkpt><trkpt lat="43.469470857316345" lon="12.25665190198333"><ele>307.0</ele><time>2026-04-24T07:29:44.999Z</time></trkpt><trkpt lat="43.46938442125183" lon="12.256710273029482"><ele>307.0</ele><time>2026-04-24T07:29:45.999Z</time></trkpt><trkpt lat="43.469292031092245" lon="12.256788246932295"><ele>306.75</ele><time>2026-04-24T07:29:46.999Z</time></trkpt><trkpt lat="43.46919151569109" lon="12.256864985000787"><ele>306.5</ele><time>2026-04-24T07:29:47.999Z</time></trkpt><trkpt lat="43.46909500082121" lon="12.256945531748743"><ele>306.25</ele><time>2026-04-24T07:29:48.999Z</time></trkpt><trkpt lat="43.468994389938416" lon="12.25701764890713"><ele>306.0</ele><time>2026-04-24T07:29:49.999Z</time></trkpt><trkpt lat="43.46888686194043" lon="12.257095214435118"><ele>306.0</ele><time>2026-04-24T07:29:50.999Z</time></trkpt><trkpt lat="43.46877940657494" lon="12.257172027059779"><ele>306.0</ele><time>2026-04-24T07:29:51.999Z</time></trkpt><trkpt lat="43.468677620947226" lon="12.257254808157194"><ele>306.0</ele><time>2026-04-24T07:29:52.999Z</time></trkpt><trkpt lat="43.46857120451874" lon="12.257343311755015"><ele>306.0</ele><time>2026-04-24T07:29:53.999Z</time></trkpt><trkpt lat="43.4684611539394" lon="12.257430152813297"><ele>306.40000000000003</ele><time>2026-04-24T07:29:54.999Z</time></trkpt><trkpt lat="43.468349630972405" lon="12.257511867762542"><ele>306.8</ele><time>2026-04-24T07:29:55.999Z</time></trkpt><trkpt lat="43.468246284756994" lon="12.257586712880533"><ele>307.20000000000005</ele><time>2026-04-24T07:29:56.999Z</time></trkpt><trkpt lat="43.46815220777003" lon="12.257655233348078"><ele>307.6</ele><time>2026-04-24T07:29:57.999Z</time></trkpt><trkpt lat="43.468068789992905" lon="12.257724719935869"><ele>308.0</ele><time>2026-04-24T07:29:58.999Z</time></trkpt><trkpt lat="43.46798285850762" lon="12.257801376765247"><ele>308.0</ele><time>2026-04-24T07:29:59.999Z</time></trkpt><trkpt lat="43.46788689956368" lon="12.257875142371262"><ele>308.0</ele><time>2026-04-24T07:30:00.999Z</time></trkpt><trkpt lat="43.46778144974754" lon="12.257932833306668"><ele>308.0</ele><time>2026-04-24T07:30:01.999Z</time></trkpt><trkpt lat="43.46766963907413" lon="12.25798707959376"><ele>308.0</ele><time>2026-04-24T07:30:02.999Z</time></trkpt><trkpt lat="43.46755417077326" lon="12.258041334362591"><ele>308.0</ele><time>2026-04-24T07:30:03.999Z</time></trkpt><trkpt lat="43.4674410636785" lon="12.258094585705148"><ele>308.0</ele><time>2026-04-24T07:30:04.999Z</time></trkpt><trkpt lat="43.46732611253782" lon="12.258141617052276"><ele>308.0</ele><time>2026-04-24T07:30:05.999Z</time></trkpt><trkpt lat="43.46721129826768" lon="12.258178070962465"><ele>308.0</ele><time>2026-04-24T07:30:06.999Z</time></trkpt><trkpt lat="43.46711007425868" lon="12.258201235315665"><ele>308.1666666666667</ele><time>2026-04-24T07:30:07.999Z</time></trkpt><trkpt lat="43.46702754909581" lon="12.258219185668013"><ele>308.33333333333337</ele><time>2026-04-24T07:30:08.999Z</time></trkpt><trkpt lat="43.46696197605261" lon="12.258250014616854"><ele>308.5</ele><time>2026-04-24T07:30:09.999Z</time></trkpt><trkpt lat="43.46689804179623" lon="12.258402631985339"><ele>308.6666666666667</ele><time>2026-04-24T07:30:11.999Z</time></trkpt><trkpt lat="43.466906480078805" lon="12.25849933541801"><ele>308.8333333333333</ele><time>2026-04-24T07:30:12.999Z</time></trkpt><trkpt lat="43.46695386697657" lon="12.258598608796028"><ele>309.0</ele><time>2026-04-24T07:30:13.999Z</time></trkpt><trkpt lat="43.46701307021321" lon="12.258699990456305"><ele>309.0</ele><time>2026-04-24T07:30:14.999Z</time></trkpt><trkpt lat="43.46706955521482" lon="12.25880972705728"><ele>309.0</ele><time>2026-04-24T07:30:15.999Z</time></trkpt><trkpt lat="43.46711633513176" lon="12.258924437902635"><ele>309.0</ele><time>2026-04-24T07:30:16.999Z</time></trkpt><trkpt lat="43.46714273570244" lon="12.259024373850114"><ele>309.0</ele><time>2026-04-24T07:30:17.999Z</time></trkpt><trkpt lat="43.467139224227104" lon="12.259133876301123"><ele>309.0</ele><time>2026-04-24T07:30:18.999Z</time></trkpt><trkpt lat="43.467107475812035" lon="12.259250999447994"><ele>309.0</ele><time>2026-04-24T07:30:19.999Z</time></trkpt><trkpt lat="43.46706208524715" lon="12.259355601066654"><ele>309.2</ele><time>2026-04-24T07:30:21Z</time></trkpt><trkpt lat="43.46700697495447" lon="12.25947885610916"><ele>309.4</ele><time>2026-04-24T07:30:22Z</time></trkpt><trkpt lat="43.4669574204921" lon="12.259607460278152"><ele>309.6</ele><time>2026-04-24T07:30:23Z</time></trkpt><trkpt lat="43.46691338642524" lon="12.259738176794109"><ele>309.8</ele><time>2026-04-24T07:30:24Z</time></trkpt><trkpt lat="43.4668639417916" lon="12.25987665232395"><ele>310.0</ele><time>2026-04-24T07:30:25Z</time></trkpt><trkpt lat="43.46681628372403" lon="12.260010829219645"><ele>310.4</ele><time>2026-04-24T07:30:26Z</time></trkpt><trkpt lat="43.46676595358747" lon="12.26014667977396"><ele>310.8</ele><time>2026-04-24T07:30:27Z</time></trkpt><trkpt lat="43.466720092520596" lon="12.260279541031814"><ele>311.2</ele><time>2026-04-24T07:30:28Z</time></trkpt><trkpt lat="43.46667402084995" lon="12.260408500886554"><ele>311.6</ele><time>2026-04-24T07:30:29Z</time></trkpt><trkpt lat="43.466634064988135" lon="12.260525826346559"><ele>312.0</ele><time>2026-04-24T07:30:30Z</time></trkpt><trkpt lat="43.46659776341701" lon="12.260643795891172"><ele>312.8</ele><time>2026-04-24T07:30:31Z</time></trkpt><trkpt lat="43.4665780524137" lon="12.260768257903804"><ele>313.6</ele><time>2026-04-24T07:30:32Z</time></trkpt><trkpt lat="43.46657893532791" lon="12.260873010334096"><ele>314.40000000000003</ele><time>2026-04-24T07:30:33Z</time></trkpt><trkpt lat="43.466595211987695" lon="12.260993237070338"><ele>315.2</ele><time>2026-04-24T07:30:34Z</time></trkpt><trkpt lat="43.46662145975586" lon="12.261121520787244"><ele>316.0</ele><time>2026-04-24T07:30:35Z</time></trkpt><trkpt lat="43.466651664647635" lon="12.261254613064843"><ele>316.0</ele><time>2026-04-24T07:30:36Z</time></trkpt><trkpt lat="43.46667458485294" lon="12.261388918522853"><ele>316.0</ele><time>2026-04-24T07:30:37Z</time></trkpt><trkpt lat="43.466695939983" lon="12.261530031708613"><ele>316.0</ele><time>2026-04-24T07:30:38Z</time></trkpt><trkpt lat="43.466718011015764" lon="12.261667054422633"><ele>316.0</ele><time>2026-04-24T07:30:39Z</time></trkpt><trkpt lat="43.466738377873334" lon="12.261808858089866"><ele>316.0</ele><time>2026-04-24T07:30:40Z</time></trkpt><trkpt lat="43.466765827734605" lon="12.261933001833228"><ele>317.20000000000005</ele><time>2026-04-24T07:30:41Z</time></trkpt><trkpt lat="43.46680843527088" lon="12.262037063095857"><ele>318.40000000000003</ele><time>2026-04-24T07:30:42Z</time></trkpt><trkpt lat="43.46685921839794" lon="12.262121123323839"><ele>319.6</ele><time>2026-04-24T07:30:43Z</time></trkpt><trkpt lat="43.46689627498695" lon="12.262198456664741"><ele>320.8</ele><time>2026-04-24T07:30:44Z</time></trkpt><trkpt lat="43.46691457123481" lon="12.262358053674582"><ele>322.0</ele><time>2026-04-24T07:30:46Z</time></trkpt><trkpt lat="43.46680444736855" lon="12.262465370251865"><ele>323.66666666666663</ele><time>2026-04-24T07:30:48Z</time></trkpt><trkpt lat="43.46673678046522" lon="12.262509110050962"><ele>325.3333333333333</ele><time>2026-04-24T07:30:49Z</time></trkpt><trkpt lat="43.46668931852098" lon="12.2625847570415"><ele>327.0</ele><time>2026-04-24T07:30:50Z</time></trkpt><trkpt lat="43.4666382238094" lon="12.262678905344709"><ele>328.6666666666667</ele><time>2026-04-24T07:30:51Z</time></trkpt><trkpt lat="43.466590921728816" lon="12.262792433394335"><ele>330.33333333333337</ele><time>2026-04-24T07:30:52Z</time></trkpt><trkpt lat="43.46654488964106" lon="12.262901246846512"><ele>332.0</ele><time>2026-04-24T07:30:53Z</time></trkpt><trkpt lat="43.466500718507916" lon="12.263017660470943"><ele>334.20000000000005</ele><time>2026-04-24T07:30:54Z</time></trkpt><trkpt lat="43.46646095512689" lon="12.26314273187052"><ele>336.4</ele><time>2026-04-24T07:30:55Z</time></trkpt><trkpt lat="43.46641733792541" lon="12.263261130467162"><ele>338.6</ele><time>2026-04-24T07:30:56Z</time></trkpt><trkpt lat="43.46637270158938" lon="12.263381819817827"><ele>340.79999999999995</ele><time>2026-04-24T07:30:57Z</time></trkpt><trkpt lat="43.46634606523281" lon="12.263509144427413"><ele>343.0</ele><time>2026-04-24T07:30:58Z</time></trkpt><trkpt lat="43.46632446542986" lon="12.263647194800502"><ele>343.0</ele><time>2026-04-24T07:30:59Z</time></trkpt><trkpt lat="43.46629904991715" lon="12.26378394391478"><ele>343.0</ele><time>2026-04-24T07:31:00Z</time></trkpt><trkpt lat="43.46627779845374" lon="12.263920141697692"><ele>343.0</ele><time>2026-04-24T07:31:01Z</time></trkpt><trkpt lat="43.466264296954655" lon="12.264039892845936"><ele>343.0</ele><time>2026-04-24T07:31:02Z</time></trkpt><trkpt lat="43.466249480802624" lon="12.26417576904535"><ele>343.0</ele><time>2026-04-24T07:31:03Z</time></trkpt><trkpt lat="43.466237589947234" lon="12.26430367467324"><ele>344.4</ele><time>2026-04-24T07:31:04Z</time></trkpt><trkpt lat="43.466225004184466" lon="12.264420747976716"><ele>345.79999999999995</ele><time>2026-04-24T07:31:05Z</time></trkpt><trkpt lat="43.46622889120298" lon="12.264545821324988"><ele>347.2</ele><time>2026-04-24T07:31:06Z</time></trkpt><trkpt lat="43.46625069262148" lon="12.264682319448857"><ele>348.6</ele><time>2026-04-24T07:31:06.999Z</time></trkpt><trkpt lat="43.46628790857375" lon="12.264821732084584"><ele>350.0</ele><time>2026-04-24T07:31:07.999Z</time></trkpt><trkpt lat="43.466333016431975" lon="12.264949489098688"><ele>350.0</ele><time>2026-04-24T07:31:08.999Z</time></trkpt><trkpt lat="43.466396676048056" lon="12.265071035172594"><ele>350.0</ele><time>2026-04-24T07:31:09.999Z</time></trkpt><trkpt lat="43.46646967061002" lon="12.265203586607145"><ele>350.0</ele><time>2026-04-24T07:31:10.999Z</time></trkpt><trkpt lat="43.46654489513272" lon="12.265337216794288"><ele>350.0</ele><time>2026-04-24T07:31:11.999Z</time></trkpt><trkpt lat="43.46661906590489" lon="12.265473965308612"><ele>347.5</ele><time>2026-04-24T07:31:12.999Z</time></trkpt><trkpt lat="43.466683855939394" lon="12.265624905740408"><ele>345.0</ele><time>2026-04-24T07:31:13.999Z</time></trkpt><trkpt lat="43.46674071881735" lon="12.26577762721468"><ele>342.5</ele><time>2026-04-24T07:31:14.999Z</time></trkpt><trkpt lat="43.46679455600807" lon="12.265918211587055"><ele>340.0</ele><time>2026-04-24T07:31:15.999Z</time></trkpt><trkpt lat="43.4668419093016" lon="12.266049401336725"><ele>340.0</ele><time>2026-04-24T07:31:16.999Z</time></trkpt><trkpt lat="43.46687512711564" lon="12.266184304795042"><ele>340.0</ele><time>2026-04-24T07:31:17.999Z</time></trkpt><trkpt lat="43.46689098851552" lon="12.266332904862704"><ele>340.0</ele><time>2026-04-24T07:31:18.999Z</time></trkpt><trkpt lat="43.46689954080146" lon="12.266479861817547"><ele>340.0</ele><time>2026-04-24T07:31:19.999Z</time></trkpt><trkpt lat="43.46689995628166" lon="12.266627583314516"><ele>340.0</ele><time>2026-04-24T07:31:20.999Z</time></trkpt><trkpt lat="43.46692071184234" lon="12.26677364401005"><ele>340.0</ele><time>2026-04-24T07:31:21.999Z</time></trkpt><trkpt lat="43.46695189582785" lon="12.266924023371802"><ele>340.0</ele><time>2026-04-24T07:31:22.999Z</time></trkpt><trkpt lat="43.46699100088035" lon="12.267083132879844"><ele>340.0</ele><time>2026-04-24T07:31:23.999Z</time></trkpt><trkpt lat="43.46702820203372" lon="12.267234822543047"><ele>340.0</ele><time>2026-04-24T07:31:24.999Z</time></trkpt><trkpt lat="43.46707086798881" lon="12.267390168788507"><ele>345.25</ele><time>2026-04-24T07:31:25.999Z</time></trkpt><trkpt lat="43.46711257320943" lon="12.267545693581651"><ele>350.5</ele><time>2026-04-24T07:31:26.999Z</time></trkpt><trkpt lat="43.467162689460935" lon="12.267689290062064"><ele>355.75</ele><time>2026-04-24T07:31:27.999Z</time></trkpt><trkpt lat="43.46720957746128" lon="12.26783579614917"><ele>361.0</ele><time>2026-04-24T07:31:28.999Z</time></trkpt><trkpt lat="43.46723946176667" lon="12.267982878379252"><ele>361.0</ele><time>2026-04-24T07:31:29.999Z</time></trkpt><trkpt lat="43.46725307607372" lon="12.268126997805181"><ele>361.0</ele><time>2026-04-24T07:31:30.999Z</time></trkpt><trkpt lat="43.46726479148811" lon="12.268272529402"><ele>361.0</ele><time>2026-04-24T07:31:31.999Z</time></trkpt><trkpt lat="43.46727461618113" lon="12.268422704677253"><ele>361.0</ele><time>2026-04-24T07:31:32.999Z</time></trkpt><trkpt lat="43.46727233600525" lon="12.268572617502295"><ele>361.0</ele><time>2026-04-24T07:31:33.999Z</time></trkpt><trkpt lat="43.467272550340226" lon="12.268706827872192"><ele>361.0</ele><time>2026-04-24T07:31:34.999Z</time></trkpt><trkpt lat="43.46728817664642" lon="12.268822988770259"><ele>361.0</ele><time>2026-04-24T07:31:35.999Z</time></trkpt><trkpt lat="43.46732553697523" lon="12.268929498391854"><ele>361.0</ele><time>2026-04-24T07:31:36.999Z</time></trkpt><trkpt lat="43.467364731936684" lon="12.269029893730263"><ele>361.0</ele><time>2026-04-24T07:31:37.999Z</time></trkpt><trkpt lat="43.46741027448305" lon="12.269137772327355"><ele>361.0</ele><time>2026-04-24T07:31:38.999Z</time></trkpt><trkpt lat="43.46744440944126" lon="12.269271884843974"><ele>361.0</ele><time>2026-04-24T07:31:39.999Z</time></trkpt><trkpt lat="43.46745722419123" lon="12.269416613935254"><ele>360.8</ele><time>2026-04-24T07:31:40.999Z</time></trkpt><trkpt lat="43.46745211018724" lon="12.269556741158967"><ele>360.6</ele><time>2026-04-24T07:31:41.999Z</time></trkpt><trkpt lat="43.4674261155056" lon="12.269665955738008"><ele>360.4</ele><time>2026-04-24T07:31:42.999Z</time></trkpt><trkpt lat="43.46739382365636" lon="12.269753723327058"><ele>360.2</ele><time>2026-04-24T07:31:43.999Z</time></trkpt><trkpt lat="43.4673938800659" lon="12.269917081382157"><ele>360.0</ele><time>2026-04-24T07:31:45.999Z</time></trkpt><trkpt lat="43.46744611835419" lon="12.270033424855114"><ele>360.0</ele><time>2026-04-24T07:31:46.999Z</time></trkpt><trkpt lat="43.46751103820956" lon="12.270157810467344"><ele>360.0</ele><time>2026-04-24T07:31:47.999Z</time></trkpt><trkpt lat="43.467574483489535" lon="12.270290290916012"><ele>360.0</ele><time>2026-04-24T07:31:48.999Z</time></trkpt><trkpt lat="43.46764911558073" lon="12.270435998436408"><ele>360.0</ele><time>2026-04-24T07:31:49.999Z</time></trkpt><trkpt lat="43.46771834538199" lon="12.270570359126205"><ele>359.5</ele><time>2026-04-24T07:31:50.999Z</time></trkpt><trkpt lat="43.46778107127658" lon="12.270713127091376"><ele>359.0</ele><time>2026-04-24T07:31:51.999Z</time></trkpt><trkpt lat="43.46785133131337" lon="12.270856820663052"><ele>358.5</ele><time>2026-04-24T07:31:52.999Z</time></trkpt><trkpt lat="43.467932675299636" lon="12.27098465061539"><ele>358.0</ele><time>2026-04-24T07:31:53.999Z</time></trkpt><trkpt lat="43.468011552222514" lon="12.271102730049476"><ele>362.79999999999995</ele><time>2026-04-24T07:31:54.999Z</time></trkpt><trkpt lat="43.46810189593294" lon="12.271200278555918"><ele>367.6</ele><time>2026-04-24T07:31:55.999Z</time></trkpt><trkpt lat="43.46818912517659" lon="12.271283785005856"><ele>372.4</ele><time>2026-04-24T07:31:56.999Z</time></trkpt><trkpt lat="43.46829018631907" lon="12.271344629472672"><ele>377.20000000000005</ele><time>2026-04-24T07:31:57.999Z</time></trkpt><trkpt lat="43.46839774172261" lon="12.271375824445187"><ele>382.0</ele><time>2026-04-24T07:31:58.999Z</time></trkpt><trkpt lat="43.46851407586792" lon="12.271397614384696"><ele>382.0</ele><time>2026-04-24T07:31:59.999Z</time></trkpt><trkpt lat="43.46863276022407" lon="12.271407359005801"><ele>382.0</ele><time>2026-04-24T07:32:00.999Z</time></trkpt><trkpt lat="43.46875182896601" lon="12.271403048863124"><ele>382.0</ele><time>2026-04-24T07:32:01.999Z</time></trkpt><trkpt lat="43.46885630771828" lon="12.271371628558054"><ele>382.0</ele><time>2026-04-24T07:32:02.999Z</time></trkpt><trkpt lat="43.46895382287356" lon="12.271322496576978"><ele>382.0</ele><time>2026-04-24T07:32:03.999Z</time></trkpt><trkpt lat="43.46904501603675" lon="12.271245230401826"><ele>384.75</ele><time>2026-04-24T07:32:04.999Z</time></trkpt><trkpt lat="43.469141468199744" lon="12.271164241184108"><ele>387.5</ele><time>2026-04-24T07:32:05.999Z</time></trkpt><trkpt lat="43.46924152910259" lon="12.271088517295734"><ele>390.25</ele><time>2026-04-24T07:32:06.999Z</time></trkpt><trkpt lat="43.46934999146356" lon="12.27101353806051"><ele>393.0</ele><time>2026-04-24T07:32:07.999Z</time></trkpt><trkpt lat="43.469460320962135" lon="12.270943492727683"><ele>393.0</ele><time>2026-04-24T07:32:08.999Z</time></trkpt><trkpt lat="43.46957265967519" lon="12.270868578395477"><ele>393.0</ele><time>2026-04-24T07:32:09.999Z</time></trkpt><trkpt lat="43.4696855221692" lon="12.270800204854865"><ele>393.0</ele><time>2026-04-24T07:32:10.999Z</time></trkpt><trkpt lat="43.46979858448069" lon="12.270723720626231"><ele>393.0</ele><time>2026-04-24T07:32:11.999Z</time></trkpt><trkpt lat="43.469908786054965" lon="12.27065468465258"><ele>398.5</ele><time>2026-04-24T07:32:12.999Z</time></trkpt><trkpt lat="43.47001645587489" lon="12.270579872995995"><ele>404.0</ele><time>2026-04-24T07:32:13.999Z</time></trkpt><trkpt lat="43.470127127787485" lon="12.270530927678026"><ele>409.5</ele><time>2026-04-24T07:32:14.999Z</time></trkpt><trkpt lat="43.47023951425971" lon="12.27050521875273"><ele>415.0</ele><time>2026-04-24T07:32:15.999Z</time></trkpt><trkpt lat="43.47035433471315" lon="12.270500743768102"><ele>413.0</ele><time>2026-04-24T07:32:16.999Z</time></trkpt><trkpt lat="43.47046405576811" lon="12.270530166309937"><ele>411.0</ele><time>2026-04-24T07:32:17.999Z</time></trkpt><trkpt lat="43.47057664938311" lon="12.270577010330843"><ele>409.0</ele><time>2026-04-24T07:32:18.999Z</time></trkpt><trkpt lat="43.47068427423409" lon="12.270617082044383"><ele>407.0</ele><time>2026-04-24T07:32:19.999Z</time></trkpt><trkpt lat="43.47078322346544" lon="12.270672019479084"><ele>405.0</ele><time>2026-04-24T07:32:20.999Z</time></trkpt><trkpt lat="43.470869883810884" lon="12.270755496091956"><ele>405.0</ele><time>2026-04-24T07:32:21.999Z</time></trkpt><trkpt lat="43.47094400556124" lon="12.270873383371155"><ele>405.0</ele><time>2026-04-24T07:32:22.999Z</time></trkpt><trkpt lat="43.470989857568334" lon="12.271004280315571"><ele>405.0</ele><time>2026-04-24T07:32:23.999Z</time></trkpt><trkpt lat="43.47102837204989" lon="12.27115726738641"><ele>405.0</ele><time>2026-04-24T07:32:24.999Z</time></trkpt><trkpt lat="43.47108923228197" lon="12.271286464011485"><ele>405.0</ele><time>2026-04-24T07:32:25.999Z</time></trkpt><trkpt lat="43.47117110696519" lon="12.271401038578881"><ele>404.0</ele><time>2026-04-24T07:32:27Z</time></trkpt><trkpt lat="43.47126853194115" lon="12.27149785975438"><ele>403.0</ele><time>2026-04-24T07:32:28Z</time></trkpt><trkpt lat="43.47137126803817" lon="12.271605505663706"><ele>402.0</ele><time>2026-04-24T07:32:29Z</time></trkpt><trkpt lat="43.47147831521156" lon="12.271725667361446"><ele>401.0</ele><time>2026-04-24T07:32:30Z</time></trkpt><trkpt lat="43.47157975303524" lon="12.271851752708555"><ele>403.20000000000005</ele><time>2026-04-24T07:32:31Z</time></trkpt><trkpt lat="43.47165793560075" lon="12.271988689795666"><ele>405.40000000000003</ele><time>2026-04-24T07:32:32Z</time></trkpt><trkpt lat="43.47170309864322" lon="12.272102104134015"><ele>407.6</ele><time>2026-04-24T07:32:33Z</time></trkpt><trkpt lat="43.47175569774077" lon="12.272184149130648"><ele>409.8</ele><time>2026-04-24T07:32:34Z</time></trkpt><trkpt lat="43.47182800280354" lon="12.272247185880833"><ele>412.0</ele><time>2026-04-24T07:32:35Z</time></trkpt><trkpt lat="43.47191625367833" lon="12.272287577701714"><ele>412.0</ele><time>2026-04-24T07:32:36Z</time></trkpt><trkpt lat="43.472025529591626" lon="12.272312572460054"><ele>412.0</ele><time>2026-04-24T07:32:37Z</time></trkpt><trkpt lat="43.47213408180045" lon="12.27233593853938"><ele>412.0</ele><time>2026-04-24T07:32:38Z</time></trkpt><trkpt lat="43.47224664310367" lon="12.272370431835693"><ele>412.0</ele><time>2026-04-24T07:32:39Z</time></trkpt><trkpt lat="43.47235771288155" lon="12.272397499055696"><ele>412.0</ele><time>2026-04-24T07:32:40Z</time></trkpt><trkpt lat="43.47247523228253" lon="12.272428827816011"><ele>414.75</ele><time>2026-04-24T07:32:41Z</time></trkpt><trkpt lat="43.472592707491636" lon="12.27246864719945"><ele>417.5</ele><time>2026-04-24T07:32:42Z</time></trkpt><trkpt lat="43.47270067962199" lon="12.272518449852946"><ele>420.25</ele><time>2026-04-24T07:32:43Z</time></trkpt><trkpt lat="43.4727947714353" lon="12.272591086301212"><ele>423.0</ele><time>2026-04-24T07:32:44Z</time></trkpt><trkpt lat="43.47288163549222" lon="12.272687630339012"><ele>423.4</ele><time>2026-04-24T07:32:45Z</time></trkpt><trkpt lat="43.472958433020835" lon="12.272786896567224"><ele>423.79999999999995</ele><time>2026-04-24T07:32:46Z</time></trkpt><trkpt lat="43.47304715227567" lon="12.27287952142097"><ele>424.2</ele><time>2026-04-24T07:32:47Z</time></trkpt><trkpt lat="43.47313533730607" lon="12.272955109198318"><ele>424.6</ele><time>2026-04-24T07:32:48Z</time></trkpt><trkpt lat="43.473218163641654" lon="12.273033964870415"><ele>425.0</ele><time>2026-04-24T07:32:49Z</time></trkpt><trkpt lat="43.473290387510346" lon="12.273115155800111"><ele>425.6</ele><time>2026-04-24T07:32:50Z</time></trkpt><trkpt lat="43.4733535026814" lon="12.27319781179374"><ele>426.2</ele><time>2026-04-24T07:32:51Z</time></trkpt><trkpt lat="43.47341136133059" lon="12.273287743045046"><ele>426.79999999999995</ele><time>2026-04-24T07:32:52Z</time></trkpt><trkpt lat="43.473492546195864" lon="12.273358013951364"><ele>427.4</ele><time>2026-04-24T07:32:53Z</time></trkpt><trkpt lat="43.47357556450448" lon="12.273419089073093"><ele>428.0</ele><time>2026-04-24T07:32:54Z</time></trkpt><trkpt lat="43.47364833189087" lon="12.273505856554442"><ele>427.99999999999994</ele><time>2026-04-24T07:32:55Z</time></trkpt><trkpt lat="43.47370341561157" lon="12.273561035541166"><ele>428.0</ele><time>2026-04-24T07:32:56Z</time></trkpt><trkpt lat="43.47377987537751" lon="12.273645594688176"><ele>428.0</ele><time>2026-04-24T07:32:57Z</time></trkpt><trkpt lat="43.47385924791692" lon="12.27371015996232"><ele>428.0</ele><time>2026-04-24T07:32:58Z</time></trkpt><trkpt lat="43.473930882269684" lon="12.273772714171288"><ele>427.99999999999994</ele><time>2026-04-24T07:32:59Z</time></trkpt><trkpt lat="43.47400685515452" lon="12.27385340527611"><ele>428.0</ele><time>2026-04-24T07:33:00Z</time></trkpt><trkpt lat="43.47408680893537" lon="12.273938380929046"><ele>429.16666666666663</ele><time>2026-04-24T07:33:01Z</time></trkpt><trkpt lat="43.474150484825856" lon="12.274024779868755"><ele>430.3333333333333</ele><time>2026-04-24T07:33:02Z</time></trkpt><trkpt lat="43.474198792374665" lon="12.2741025280663"><ele>431.5</ele><time>2026-04-24T07:33:03Z</time></trkpt><trkpt lat="43.47425020092908" lon="12.274167559792813"><ele>432.66666666666663</ele><time>2026-04-24T07:33:04Z</time></trkpt><trkpt lat="43.474315918670875" lon="12.274220185535354"><ele>433.8333333333333</ele><time>2026-04-24T07:33:05Z</time></trkpt><trkpt lat="43.474373446977594" lon="12.274290650172533"><ele>435.0</ele><time>2026-04-24T07:33:06Z</time></trkpt><trkpt lat="43.47442659834196" lon="12.274342343642987"><ele>435.0</ele><time>2026-04-24T07:33:07Z</time></trkpt><trkpt lat="43.474493493820326" lon="12.274429298978186"><ele>435.0</ele><time>2026-04-24T07:33:09Z</time></trkpt><trkpt lat="43.474547466787904" lon="12.274474160894497"><ele>435.0</ele><time>2026-04-24T07:33:10Z</time></trkpt><trkpt lat="43.47458796918734" lon="12.274565802814223"><ele>435.0</ele><time>2026-04-24T07:33:12Z</time></trkpt><trkpt lat="43.47462946306542" lon="12.274646888646934"><ele>435.0</ele><time>2026-04-24T07:33:14Z</time></trkpt><trkpt lat="43.474725234802094" lon="12.27470576406984"><ele>435.0</ele><time>2026-04-24T07:33:16Z</time></trkpt><trkpt lat="43.47479153694173" lon="12.274743747403072"><ele>435.0</ele><time>2026-04-24T07:33:17Z</time></trkpt><trkpt lat="43.47486965921031" lon="12.274762250363677"><ele>435.0</ele><time>2026-04-24T07:33:18Z</time></trkpt><trkpt lat="43.4749374789475" lon="12.274778919477207"><ele>435.0</ele><time>2026-04-24T07:33:19Z</time></trkpt><trkpt lat="43.475036559424254" lon="12.274890138276797"><ele>435.0</ele><time>2026-04-24T07:33:21Z</time></trkpt><trkpt lat="43.47512517338763" lon="12.275004691077207"><ele>435.0</ele><time>2026-04-24T07:33:23Z</time></trkpt><trkpt lat="43.47520817482117" lon="12.275065116496709"><ele>435.0</ele><time>2026-04-24T07:33:25Z</time></trkpt><trkpt lat="43.47526956705089" lon="12.275113836221134"><ele>435.0</ele><time>2026-04-24T07:33:26Z</time></trkpt><trkpt lat="43.47536108396983" lon="12.275163391749219"><ele>435.0</ele><time>2026-04-24T07:33:28Z</time></trkpt><trkpt lat="43.47541516856997" lon="12.27521574886209"><ele>435.0</ele><time>2026-04-24T07:33:30Z</time></trkpt><trkpt lat="43.47547950557362" lon="12.275240888050682"><ele>435.0</ele><time>2026-04-24T07:33:32Z</time></trkpt><trkpt lat="43.47555871265027" lon="12.27527938270977"><ele>435.0</ele><time>2026-04-24T07:33:34Z</time></trkpt><trkpt lat="43.47565656049742" lon="12.275355486163422"><ele>435.1666666666667</ele><time>2026-04-24T07:33:36Z</time></trkpt><trkpt lat="43.47575508431494" lon="12.27544747743394"><ele>435.33333333333337</ele><time>2026-04-24T07:33:38Z</time></trkpt><trkpt lat="43.47584681462573" lon="12.275513834959886"><ele>435.5</ele><time>2026-04-24T07:33:40Z</time></trkpt><trkpt lat="43.47590305119267" lon="12.275564714414516"><ele>435.6666666666667</ele><time>2026-04-24T07:33:41Z</time></trkpt><trkpt lat="43.47595628256305" lon="12.275611353908761"><ele>435.83333333333337</ele><time>2026-04-24T07:33:41.999Z</time></trkpt><trkpt lat="43.47603144194345" lon="12.275671361362592"><ele>436.0</ele><time>2026-04-24T07:33:42.999Z</time></trkpt><trkpt lat="43.47612528311446" lon="12.27576649388408"><ele>436.00000000000006</ele><time>2026-04-24T07:33:44.999Z</time></trkpt><trkpt lat="43.47621574313028" lon="12.275856634731316"><ele>436.0</ele><time>2026-04-24T07:33:46.999Z</time></trkpt><trkpt lat="43.476310456089216" lon="12.275909759299305"><ele>436.0</ele><time>2026-04-24T07:33:48.999Z</time></trkpt><trkpt lat="43.476394230699505" lon="12.275955485135036"><ele>436.0</ele><time>2026-04-24T07:33:50.999Z</time></trkpt><trkpt lat="43.47644924047032" lon="12.275999153360452"><ele>436.00000000000006</ele><time>2026-04-24T07:33:51.999Z</time></trkpt><trkpt lat="43.47650739571131" lon="12.276051033113772"><ele>436.0</ele><time>2026-04-24T07:33:52.999Z</time></trkpt><trkpt lat="43.47656142039025" lon="12.27611840722211"><ele>434.8</ele><time>2026-04-24T07:33:53.999Z</time></trkpt><trkpt lat="43.476632400148574" lon="12.276207417123663"><ele>433.6</ele><time>2026-04-24T07:33:55.999Z</time></trkpt><trkpt lat="43.47673140506818" lon="12.276194122910018"><ele>432.4</ele><time>2026-04-24T07:33:57.999Z</time></trkpt><trkpt lat="43.47680524916427" lon="12.276266032660297"><ele>431.2</ele><time>2026-04-24T07:34:00.999Z</time></trkpt><trkpt lat="43.47691627759052" lon="12.276314722747038"><ele>430.0</ele><time>2026-04-24T07:34:02.999Z</time></trkpt><trkpt lat="43.477035270424096" lon="12.276404900884065"><ele>430.1666666666667</ele><time>2026-04-24T07:34:04.999Z</time></trkpt><trkpt lat="43.47712957405812" lon="12.276542177224375"><ele>430.33333333333337</ele><time>2026-04-24T07:34:06.999Z</time></trkpt><trkpt lat="43.47717571087697" lon="12.276607364498057"><ele>430.5</ele><time>2026-04-24T07:34:07.999Z</time></trkpt><trkpt lat="43.47723092598438" lon="12.276674388836698"><ele>430.66666666666663</ele><time>2026-04-24T07:34:08.999Z</time></trkpt><trkpt lat="43.4772846682201" lon="12.276733811449576"><ele>430.8333333333333</ele><time>2026-04-24T07:34:09.999Z</time></trkpt><trkpt lat="43.477350217708995" lon="12.276778553081035"><ele>431.0</ele><time>2026-04-24T07:34:10.999Z</time></trkpt><trkpt lat="43.47740395337029" lon="12.276825437817747"><ele>430.99999999999994</ele><time>2026-04-24T07:34:11.999Z</time></trkpt><trkpt lat="43.477464078404324" lon="12.276860864610002"><ele>431.0</ele><time>2026-04-24T07:34:12.999Z</time></trkpt><trkpt lat="43.47756369618407" lon="12.276943760448592"><ele>431.0</ele><time>2026-04-24T07:34:14.999Z</time></trkpt><trkpt lat="43.47763167999547" lon="12.276982969398734"><ele>431.0</ele><time>2026-04-24T07:34:15.999Z</time></trkpt><trkpt lat="43.477684601979526" lon="12.27703485097292"><ele>430.99999999999994</ele><time>2026-04-24T07:34:16.999Z</time></trkpt><trkpt lat="43.4777405391212" lon="12.277095152436372"><ele>431.0</ele><time>2026-04-24T07:34:17.999Z</time></trkpt><trkpt lat="43.47779092228939" lon="12.2771526669331"><ele>431.0</ele><time>2026-04-24T07:34:18.999Z</time></trkpt><trkpt lat="43.477832984432084" lon="12.277230134563213"><ele>431.0</ele><time>2026-04-24T07:34:20.999Z</time></trkpt><trkpt lat="43.477880916847454" lon="12.277311984644111"><ele>431.0</ele><time>2026-04-24T07:34:22.999Z</time></trkpt><trkpt lat="43.47797803536773" lon="12.277398374018404"><ele>431.0</ele><time>2026-04-24T07:34:24.999Z</time></trkpt><trkpt lat="43.47801886412901" lon="12.277533225822177"><ele>431.0</ele><time>2026-04-24T07:34:27Z</time></trkpt><trkpt lat="43.47808146611146" lon="12.277645087112589"><ele>432.3333333333333</ele><time>2026-04-24T07:34:29Z</time></trkpt><trkpt lat="43.4781500162319" lon="12.277754728775854"><ele>433.66666666666663</ele><time>2026-04-24T07:34:31Z</time></trkpt><trkpt lat="43.47818721241693" lon="12.27784861125958"><ele>435.0</ele><time>2026-04-24T07:34:33Z</time></trkpt><trkpt lat="43.47822415259676" lon="12.277943821618637"><ele>436.33333333333337</ele><time>2026-04-24T07:34:35Z</time></trkpt><trkpt lat="43.478236419703066" lon="12.278052471347284"><ele>437.6666666666667</ele><time>2026-04-24T07:34:37Z</time></trkpt><trkpt lat="43.47826871303465" lon="12.278193373296872"><ele>439.0</ele><time>2026-04-24T07:34:39Z</time></trkpt><trkpt lat="43.478339514187226" lon="12.278259066389783"><ele>440.50000000000006</ele><time>2026-04-24T07:34:41Z</time></trkpt><trkpt lat="43.478390597058535" lon="12.278329738105858"><ele>442.0</ele><time>2026-04-24T07:34:43Z</time></trkpt><trkpt lat="43.47843922375108" lon="12.278416558561844"><ele>443.5</ele><time>2026-04-24T07:34:45Z</time></trkpt><trkpt lat="43.47849630327372" lon="12.278519203841183"><ele>445.0</ele><time>2026-04-24T07:34:47Z</time></trkpt><trkpt lat="43.47853462123089" lon="12.278644373625829"><ele>446.50000000000006</ele><time>2026-04-24T07:34:49Z</time></trkpt><trkpt lat="43.47860392654328" lon="12.27870655458534"><ele>448.0</ele><time>2026-04-24T07:34:51Z</time></trkpt><trkpt lat="43.47867603202765" lon="12.278789070838224"><ele>448.0</ele><time>2026-04-24T07:34:53Z</time></trkpt><trkpt lat="43.478756349424" lon="12.278881493211152"><ele>447.99999999999994</ele><time>2026-04-24T07:34:55Z</time></trkpt><trkpt lat="43.4788209217803" lon="12.278947239255004"><ele>447.99999999999994</ele><time>2026-04-24T07:34:57Z</time></trkpt><trkpt lat="43.478904699107055" lon="12.278993481218365"><ele>448.0</ele><time>2026-04-24T07:34:59Z</time></trkpt><trkpt lat="43.47902190922007" lon="12.278973974322662"><ele>448.0</ele><time>2026-04-24T07:35:01Z</time></trkpt><trkpt lat="43.47912049494589" lon="12.279029051626859"><ele>449.6666666666667</ele><time>2026-04-24T07:35:03Z</time></trkpt><trkpt lat="43.47918005755166" lon="12.279095108501851"><ele>451.33333333333337</ele><time>2026-04-24T07:35:04Z</time></trkpt><trkpt lat="43.47922723172957" lon="12.279178992764555"><ele>453.0</ele><time>2026-04-24T07:35:05Z</time></trkpt><trkpt lat="43.479264174906724" lon="12.279251958637976"><ele>454.66666666666663</ele><time>2026-04-24T07:35:06Z</time></trkpt><trkpt lat="43.479366313133944" lon="12.279335439285747"><ele>456.3333333333333</ele><time>2026-04-24T07:35:08Z</time></trkpt><trkpt lat="43.47940449451656" lon="12.279450886276944"><ele>458.0</ele><time>2026-04-24T07:35:10Z</time></trkpt><trkpt lat="43.47945998301209" lon="12.279607748189155"><ele>458.0</ele><time>2026-04-24T07:35:12Z</time></trkpt><trkpt lat="43.47952583977331" lon="12.279673073649214"><ele>457.99999999999994</ele><time>2026-04-24T07:35:13Z</time></trkpt><trkpt lat="43.47957651689046" lon="12.279744214612338"><ele>457.99999999999994</ele><time>2026-04-24T07:35:14Z</time></trkpt><trkpt lat="43.479632602871135" lon="12.27988945411902"><ele>458.0</ele><time>2026-04-24T07:35:16Z</time></trkpt><trkpt lat="43.47972526360211" lon="12.279922299055526"><ele>458.0</ele><time>2026-04-24T07:35:18Z</time></trkpt><trkpt lat="43.47984197269928" lon="12.279939055979844"><ele>459.79999999999995</ele><time>2026-04-24T07:35:20Z</time></trkpt><trkpt lat="43.47989646460052" lon="12.279988774747945"><ele>461.59999999999997</ele><time>2026-04-24T07:35:21Z</time></trkpt><trkpt lat="43.47996550087713" lon="12.280036118217193"><ele>463.40000000000003</ele><time>2026-04-24T07:35:22Z</time></trkpt><trkpt lat="43.48006529925635" lon="12.280123937702275"><ele>465.20000000000005</ele><time>2026-04-24T07:35:24Z</time></trkpt><trkpt lat="43.48014346666461" lon="12.280181532492886"><ele>467.0</ele><time>2026-04-24T07:35:26Z</time></trkpt><trkpt lat="43.48027172738644" lon="12.280185252668607"><ele>466.99999999999994</ele><time>2026-04-24T07:35:28Z</time></trkpt><trkpt lat="43.48033806710221" lon="12.280187531846984"><ele>467.0</ele><time>2026-04-24T07:35:29Z</time></trkpt><trkpt lat="43.48044920506966" lon="12.280196947053925"><ele>466.99999999999994</ele><time>2026-04-24T07:35:31Z</time></trkpt><trkpt lat="43.48050342002929" lon="12.28024359904746"><ele>466.99999999999994</ele><time>2026-04-24T07:35:32Z</time></trkpt><trkpt lat="43.48055938261729" lon="12.2802943571004"><ele>467.0</ele><time>2026-04-24T07:35:33Z</time></trkpt><trkpt lat="43.48062043339979" lon="12.280327519182208"><ele>466.99999999999994</ele><time>2026-04-24T07:35:34Z</time></trkpt><trkpt lat="43.4806851162739" lon="12.280373025342314"><ele>466.99999999999994</ele><time>2026-04-24T07:35:35Z</time></trkpt><trkpt lat="43.48074658827893" lon="12.280415297264513"><ele>465.49999999999994</ele><time>2026-04-24T07:35:36Z</time></trkpt><trkpt lat="43.480822114943386" lon="12.280442453567339"><ele>464.0</ele><time>2026-04-24T07:35:37Z</time></trkpt><trkpt lat="43.48089143461226" lon="12.280461070125549"><ele>462.5</ele><time>2026-04-24T07:35:38Z</time></trkpt><trkpt lat="43.480987226383625" lon="12.280475531401603"><ele>461.0</ele><time>2026-04-24T07:35:40Z</time></trkpt><trkpt lat="43.48104723226051" lon="12.280505613924962"><ele>459.49999999999994</ele><time>2026-04-24T07:35:43Z</time></trkpt><trkpt lat="43.48111519365918" lon="12.28052912075905"><ele>458.0</ele><time>2026-04-24T07:35:45Z</time></trkpt><trkpt lat="43.48118420505114" lon="12.280559154089453"><ele>459.49999999999994</ele><time>2026-04-24T07:35:47Z</time></trkpt><trkpt lat="43.48130788471607" lon="12.280607380463504"><ele>461.0</ele><time>2026-04-24T07:35:49Z</time></trkpt><trkpt lat="43.48138164771634" lon="12.280625781415901"><ele>462.5</ele><time>2026-04-24T07:35:50Z</time></trkpt><trkpt lat="43.48144377698458" lon="12.280654003256657"><ele>464.0</ele><time>2026-04-24T07:35:51Z</time></trkpt><trkpt lat="43.48150517164876" lon="12.280678194389063"><ele>465.49999999999994</ele><time>2026-04-24T07:35:52Z</time></trkpt><trkpt lat="43.48157347978066" lon="12.280702053975121"><ele>467.0</ele><time>2026-04-24T07:35:53Z</time></trkpt><trkpt lat="43.481646812972166" lon="12.280706756274421"><ele>466.99999999999994</ele><time>2026-04-24T07:35:54Z</time></trkpt><trkpt lat="43.48176053300321" lon="12.280756319130065"><ele>467.0</ele><time>2026-04-24T07:35:56Z</time></trkpt><trkpt lat="43.48182654902799" lon="12.280805746573627"><ele>467.0</ele><time>2026-04-24T07:35:57Z</time></trkpt><trkpt lat="43.48189691558758" lon="12.280839124642045"><ele>467.0</ele><time>2026-04-24T07:35:58Z</time></trkpt><trkpt lat="43.48197549792149" lon="12.280872927799214"><ele>466.99999999999994</ele><time>2026-04-24T07:35:59Z</time></trkpt><trkpt lat="43.482048175250604" lon="12.280908617021854"><ele>467.0</ele><time>2026-04-24T07:36:00Z</time></trkpt><trkpt lat="43.48211989442746" lon="12.28094985046479"><ele>468.6</ele><time>2026-04-24T07:36:01Z</time></trkpt><trkpt lat="43.482193148553655" lon="12.280972241013732"><ele>470.20000000000005</ele><time>2026-04-24T07:36:02Z</time></trkpt><trkpt lat="43.48229923279299" lon="12.280979291303035"><ele>471.8</ele><time>2026-04-24T07:36:04Z</time></trkpt><trkpt lat="43.482408157884166" lon="12.280939259014929"><ele>473.4</ele><time>2026-04-24T07:36:06Z</time></trkpt><trkpt lat="43.48247605582203" lon="12.280945821169716"><ele>475.0</ele><time>2026-04-24T07:36:07Z</time></trkpt><trkpt lat="43.48257839523227" lon="12.28086697671029"><ele>475.0</ele><time>2026-04-24T07:36:09Z</time></trkpt><trkpt lat="43.48267855126937" lon="12.280784685563747"><ele>475.00000000000006</ele><time>2026-04-24T07:36:11Z</time></trkpt><trkpt lat="43.482744734274576" lon="12.280787367745944"><ele>475.0</ele><time>2026-04-24T07:36:12Z</time></trkpt><trkpt lat="43.482806773003986" lon="12.280804128729528"><ele>475.0</ele><time>2026-04-24T07:36:13Z</time></trkpt><trkpt lat="43.48286444116203" lon="12.280840865406354"><ele>475.00000000000006</ele><time>2026-04-24T07:36:14Z</time></trkpt><trkpt lat="43.48292558639467" lon="12.280875473707958"><ele>475.0</ele><time>2026-04-24T07:36:15Z</time></trkpt><trkpt lat="43.48299322183994" lon="12.28087733277273"><ele>475.0</ele><time>2026-04-24T07:36:16Z</time></trkpt><trkpt lat="43.48309630586634" lon="12.280865435916816"><ele>475.0</ele><time>2026-04-24T07:36:18Z</time></trkpt><trkpt lat="43.48320445924215" lon="12.280875588125214"><ele>475.0</ele><time>2026-04-24T07:36:19.999Z</time></trkpt><trkpt lat="43.48331903250278" lon="12.28085305543514"><ele>475.0</ele><time>2026-04-24T07:36:21.999Z</time></trkpt><trkpt lat="43.48337818555723" lon="12.280893110980038"><ele>475.0</ele><time>2026-04-24T07:36:22.999Z</time></trkpt><trkpt lat="43.48346041476845" lon="12.280948287764913"><ele>475.0</ele><time>2026-04-24T07:36:24.999Z</time></trkpt><trkpt lat="43.483557585144176" lon="12.281052283043039"><ele>475.00000000000006</ele><time>2026-04-24T07:36:26.999Z</time></trkpt><trkpt lat="43.48362290831774" lon="12.28109559304066"><ele>475.0</ele><time>2026-04-24T07:36:27.999Z</time></trkpt><trkpt lat="43.48368607886657" lon="12.281140115593649"><ele>475.0</ele><time>2026-04-24T07:36:28.999Z</time></trkpt><trkpt lat="43.48375058077531" lon="12.281171398288667"><ele>475.0</ele><time>2026-04-24T07:36:29.999Z</time></trkpt><trkpt lat="43.48388048311466" lon="12.28123168362909"><ele>475.00000000000006</ele><time>2026-04-24T07:36:31.999Z</time></trkpt><trkpt lat="43.48397027830263" lon="12.281262568214975"><ele>475.0</ele><time>2026-04-24T07:36:33Z</time></trkpt><trkpt lat="43.48406813600921" lon="12.281295926797737"><ele>474.8</ele><time>2026-04-24T07:36:34Z</time></trkpt><trkpt lat="43.484168895844476" lon="12.281350550371355"><ele>474.6</ele><time>2026-04-24T07:36:35Z</time></trkpt><trkpt lat="43.48426965105061" lon="12.28140964281177"><ele>474.4</ele><time>2026-04-24T07:36:36Z</time></trkpt><trkpt lat="43.48436047516157" lon="12.281457554370844"><ele>474.2</ele><time>2026-04-24T07:36:37Z</time></trkpt><trkpt lat="43.48443608062863" lon="12.281502901295708"><ele>474.0</ele><time>2026-04-24T07:36:38Z</time></trkpt><trkpt lat="43.4844930072323" lon="12.281543992089585"><ele>477.4</ele><time>2026-04-24T07:36:39Z</time></trkpt><trkpt lat="43.484617125843066" lon="12.281611850135974"><ele>480.79999999999995</ele><time>2026-04-24T07:36:41Z</time></trkpt><trkpt lat="43.48466928555933" lon="12.281664907800298"><ele>484.20000000000005</ele><time>2026-04-24T07:36:42Z</time></trkpt><trkpt lat="43.48471035487223" lon="12.281746589327097"><ele>487.6</ele><time>2026-04-24T07:36:44Z</time></trkpt><trkpt lat="43.48466977614709" lon="12.281842769854283"><ele>491.0</ele><time>2026-04-24T07:36:46Z</time></trkpt><trkpt lat="43.48471710195858" lon="12.282015987633763"><ele>491.0</ele><time>2026-04-24T07:36:48Z</time></trkpt><trkpt lat="43.48475926249507" lon="12.282088351599327"><ele>490.99999999999994</ele><time>2026-04-24T07:36:49Z</time></trkpt><trkpt lat="43.48480638043031" lon="12.282155311427601"><ele>491.0</ele><time>2026-04-24T07:36:50Z</time></trkpt><trkpt lat="43.484863699015506" lon="12.282217222996687"><ele>491.0</ele><time>2026-04-24T07:36:51Z</time></trkpt><trkpt lat="43.48492446820903" lon="12.282265537758981"><ele>490.99999999999994</ele><time>2026-04-24T07:36:52Z</time></trkpt><trkpt lat="43.48498092845395" lon="12.282308267781103"><ele>491.0</ele><time>2026-04-24T07:36:53Z</time></trkpt><trkpt lat="43.485042235866274" lon="12.282426413780588"><ele>491.0</ele><time>2026-04-24T07:36:55Z</time></trkpt><trkpt lat="43.48496380654508" lon="12.282540008796389"><ele>489.66666666666663</ele><time>2026-04-24T07:36:57Z</time></trkpt><trkpt lat="43.48485827193338" lon="12.282520970404237"><ele>488.3333333333333</ele><time>2026-04-24T07:36:59Z</time></trkpt><trkpt lat="43.484794603767774" lon="12.282489640184371"><ele>487.0</ele><time>2026-04-24T07:37:00Z</time></trkpt><trkpt lat="43.484726409954774" lon="12.282463507991986"><ele>485.66666666666663</ele><time>2026-04-24T07:37:01Z</time></trkpt><trkpt lat="43.48465049610381" lon="12.282449870010174"><ele>484.3333333333333</ele><time>2026-04-24T07:37:02Z</time></trkpt><trkpt lat="43.48452493947686" lon="12.282462027625376"><ele>483.0</ele><time>2026-04-24T07:37:04Z</time></trkpt><trkpt lat="43.484458828734596" lon="12.282495157978804"><ele>482.0</ele><time>2026-04-24T07:37:05Z</time></trkpt><trkpt lat="43.48437114255848" lon="12.282592584739911"><ele>481.0</ele><time>2026-04-24T07:37:07Z</time></trkpt><trkpt lat="43.48432841299964" lon="12.282671748753"><ele>480.0</ele><time>2026-04-24T07:37:08Z</time></trkpt><trkpt lat="43.48428459515251" lon="12.282742964360915"><ele>479.0</ele><time>2026-04-24T07:37:09Z</time></trkpt><trkpt lat="43.484247421058335" lon="12.282816315901405"><ele>478.0</ele><time>2026-04-24T07:37:10Z</time></trkpt><trkpt lat="43.484192797085676" lon="12.282977229034046"><ele>477.0</ele><time>2026-04-24T07:37:12Z</time></trkpt><trkpt lat="43.48417958411407" lon="12.283073546567211"><ele>474.8333333333333</ele><time>2026-04-24T07:37:13Z</time></trkpt><trkpt lat="43.48418570980843" lon="12.28318142767056"><ele>472.66666666666663</ele><time>2026-04-24T07:37:14Z</time></trkpt><trkpt lat="43.484178806443865" lon="12.28330325216408"><ele>470.5</ele><time>2026-04-24T07:37:15Z</time></trkpt><trkpt lat="43.48415483799557" lon="12.28338570689999"><ele>468.3333333333333</ele><time>2026-04-24T07:37:16Z</time></trkpt><trkpt lat="43.4841187490363" lon="12.283468558499347"><ele>466.16666666666663</ele><time>2026-04-24T07:37:17Z</time></trkpt><trkpt lat="43.48408925418578" lon="12.283567783689625"><ele>464.0</ele><time>2026-04-24T07:37:18Z</time></trkpt><trkpt lat="43.48405751805482" lon="12.28366496673553"><ele>463.99999999999994</ele><time>2026-04-24T07:37:19Z</time></trkpt><trkpt lat="43.484031478772714" lon="12.283747698468455"><ele>464.0</ele><time>2026-04-24T07:37:20Z</time></trkpt><trkpt lat="43.48399925313908" lon="12.283836556698274"><ele>464.0</ele><time>2026-04-24T07:37:21Z</time></trkpt><trkpt lat="43.48396943197849" lon="12.283926953580071"><ele>464.0</ele><time>2026-04-24T07:37:22Z</time></trkpt><trkpt lat="43.48393923270075" lon="12.284042339830602"><ele>463.99999999999994</ele><time>2026-04-24T07:37:23Z</time></trkpt><trkpt lat="43.48391466490259" lon="12.28414229507296"><ele>464.0</ele><time>2026-04-24T07:37:24Z</time></trkpt><trkpt lat="43.483883092335304" lon="12.284237354319226"><ele>462.00000000000006</ele><time>2026-04-24T07:37:25Z</time></trkpt><trkpt lat="43.48383774359446" lon="12.284316430675664"><ele>460.0</ele><time>2026-04-24T07:37:26Z</time></trkpt><trkpt lat="43.48378144003347" lon="12.284366765149667"><ele>458.00000000000006</ele><time>2026-04-24T07:37:27Z</time></trkpt><trkpt lat="43.483715939932736" lon="12.284379712386574"><ele>456.00000000000006</ele><time>2026-04-24T07:37:28Z</time></trkpt><trkpt lat="43.483646780085465" lon="12.284377831831993"><ele>454.0</ele><time>2026-04-24T07:37:29Z</time></trkpt><trkpt lat="43.48357579133165" lon="12.284364845479216"><ele>452.00000000000006</ele><time>2026-04-24T07:37:30Z</time></trkpt><trkpt lat="43.48349999396583" lon="12.284361044023642"><ele>450.00000000000006</ele><time>2026-04-24T07:37:31Z</time></trkpt><trkpt lat="43.48343013118526" lon="12.284361866885618"><ele>450.0</ele><time>2026-04-24T07:37:32Z</time></trkpt><trkpt lat="43.483355135597456" lon="12.284360066648697"><ele>450.0</ele><time>2026-04-24T07:37:33Z</time></trkpt><trkpt lat="43.4832722451035" lon="12.284359501717967"><ele>450.0</ele><time>2026-04-24T07:37:34Z</time></trkpt><trkpt lat="43.48319353257216" lon="12.284371652252775"><ele>450.0</ele><time>2026-04-24T07:37:35Z</time></trkpt><trkpt lat="43.483102007751654" lon="12.28436347960739"><ele>450.0</ele><time>2026-04-24T07:37:36Z</time></trkpt><trkpt lat="43.483015543925205" lon="12.284353283142607"><ele>450.0</ele><time>2026-04-24T07:37:37Z</time></trkpt><trkpt lat="43.48292257081952" lon="12.284351705891877"><ele>449.1666666666667</ele><time>2026-04-24T07:37:38Z</time></trkpt><trkpt lat="43.482839339155134" lon="12.28435716363506"><ele>448.33333333333337</ele><time>2026-04-24T07:37:39Z</time></trkpt><trkpt lat="43.482760418276584" lon="12.284367225299928"><ele>447.5</ele><time>2026-04-24T07:37:40Z</time></trkpt><trkpt lat="43.48269623779242" lon="12.284388993350692"><ele>446.6666666666667</ele><time>2026-04-24T07:37:41Z</time></trkpt><trkpt lat="43.48261099983116" lon="12.28438557414472"><ele>445.83333333333337</ele><time>2026-04-24T07:37:43Z</time></trkpt><trkpt lat="43.482571696882715" lon="12.284245580269555"><ele>445.0</ele><time>2026-04-24T07:37:45Z</time></trkpt><trkpt lat="43.4825338826962" lon="12.284114169617329"><ele>445.0</ele><time>2026-04-24T07:37:47Z</time></trkpt><trkpt lat="43.482457775836565" lon="12.284003677004419"><ele>445.0</ele><time>2026-04-24T07:37:49Z</time></trkpt><trkpt lat="43.48237067510252" lon="12.283895047352333"><ele>445.0</ele><time>2026-04-24T07:37:51Z</time></trkpt><trkpt lat="43.48227053082726" lon="12.283811929899443"><ele>445.0</ele><time>2026-04-24T07:37:53Z</time></trkpt><trkpt lat="43.48221120192283" lon="12.283773163880348"><ele>445.0</ele><time>2026-04-24T07:37:54Z</time></trkpt><trkpt lat="43.48215030564208" lon="12.283725751838688"><ele>442.50000000000006</ele><time>2026-04-24T07:37:55Z</time></trkpt><trkpt lat="43.482087999306486" lon="12.283677707772284"><ele>440.0</ele><time>2026-04-24T07:37:56Z</time></trkpt><trkpt lat="43.482032505524806" lon="12.283632694372718"><ele>437.5</ele><time>2026-04-24T07:37:57Z</time></trkpt><trkpt lat="43.48198212241264" lon="12.283577534595304"><ele>435.0</ele><time>2026-04-24T07:37:58Z</time></trkpt><trkpt lat="43.48192251631788" lon="12.283533431356718"><ele>432.50000000000006</ele><time>2026-04-24T07:37:59Z</time></trkpt><trkpt lat="43.48185447268672" lon="12.28348393827183"><ele>430.0</ele><time>2026-04-24T07:38:00Z</time></trkpt><trkpt lat="43.48175740119305" lon="12.28338586342779"><ele>430.0</ele><time>2026-04-24T07:38:02Z</time></trkpt><trkpt lat="43.481688551151436" lon="12.28328813800158"><ele>430.0</ele><time>2026-04-24T07:38:04Z</time></trkpt><trkpt lat="43.48164269916549" lon="12.283193801780298"><ele>430.0</ele><time>2026-04-24T07:38:06Z</time></trkpt><trkpt lat="43.48156393952933" lon="12.283093043515178"><ele>430.0</ele><time>2026-04-24T07:38:08Z</time></trkpt><trkpt lat="43.48147784087145" lon="12.283038185131556"><ele>430.0</ele><time>2026-04-24T07:38:10Z</time></trkpt><trkpt lat="43.481387769764034" lon="12.28299283417495"><ele>429.6</ele><time>2026-04-24T07:38:12Z</time></trkpt><trkpt lat="43.48129538272336" lon="12.282916189561364"><ele>429.2</ele><time>2026-04-24T07:38:14Z</time></trkpt><trkpt lat="43.48123401875395" lon="12.282893688855191"><ele>428.79999999999995</ele><time>2026-04-24T07:38:15Z</time></trkpt><trkpt lat="43.48114019184815" lon="12.282870063580775"><ele>428.4</ele><time>2026-04-24T07:38:16Z</time></trkpt><trkpt lat="43.48103787741759" lon="12.282844639723528"><ele>428.0</ele><time>2026-04-24T07:38:17Z</time></trkpt><trkpt lat="43.480939546070196" lon="12.282823926304445"><ele>426.16666666666663</ele><time>2026-04-24T07:38:18Z</time></trkpt><trkpt lat="43.48084773687456" lon="12.282811115151516"><ele>424.3333333333333</ele><time>2026-04-24T07:38:19Z</time></trkpt><trkpt lat="43.48075352135101" lon="12.28281290332654"><ele>422.5</ele><time>2026-04-24T07:38:20Z</time></trkpt><trkpt lat="43.48065601353135" lon="12.28281245400939"><ele>420.66666666666663</ele><time>2026-04-24T07:38:21Z</time></trkpt><trkpt lat="43.480579508404155" lon="12.282791709953308"><ele>418.8333333333333</ele><time>2026-04-24T07:38:22Z</time></trkpt><trkpt lat="43.48051483495895" lon="12.282792756389796"><ele>417.0</ele><time>2026-04-24T07:38:23Z</time></trkpt><trkpt lat="43.48043593794288" lon="12.282790436134267"><ele>415.3333333333333</ele><time>2026-04-24T07:38:24Z</time></trkpt><trkpt lat="43.480363520576134" lon="12.282786486494192"><ele>413.66666666666663</ele><time>2026-04-24T07:38:25Z</time></trkpt><trkpt lat="43.480295351189795" lon="12.282765884219568"><ele>412.0</ele><time>2026-04-24T07:38:26Z</time></trkpt><trkpt lat="43.48023116483389" lon="12.282746513437084"><ele>410.3333333333333</ele><time>2026-04-24T07:38:27Z</time></trkpt><trkpt lat="43.48016701757462" lon="12.282745982474836"><ele>408.66666666666663</ele><time>2026-04-24T07:38:28Z</time></trkpt><trkpt lat="43.48004279632481" lon="12.282787591695133"><ele>407.0</ele><time>2026-04-24T07:38:30Z</time></trkpt><trkpt lat="43.47997715224538" lon="12.282827157253463"><ele>406.99999999999994</ele><time>2026-04-24T07:38:31Z</time></trkpt><trkpt lat="43.47990530769655" lon="12.282875063245855"><ele>407.0</ele><time>2026-04-24T07:38:32Z</time></trkpt><trkpt lat="43.47983266970336" lon="12.282916095241161"><ele>407.0</ele><time>2026-04-24T07:38:33Z</time></trkpt><trkpt lat="43.47976778671789" lon="12.282951195020829"><ele>407.0</ele><time>2026-04-24T07:38:34Z</time></trkpt><trkpt lat="43.47967056741588" lon="12.283070343017437"><ele>406.99999999999994</ele><time>2026-04-24T07:38:36Z</time></trkpt><trkpt lat="43.47961197383358" lon="12.283123549202434"><ele>407.0</ele><time>2026-04-24T07:38:37Z</time></trkpt><trkpt lat="43.47949333772643" lon="12.283186470470604"><ele>405.7142857142857</ele><time>2026-04-24T07:38:39Z</time></trkpt><trkpt lat="43.47942819106608" lon="12.283218301244082"><ele>404.42857142857144</ele><time>2026-04-24T07:38:40Z</time></trkpt><trkpt lat="43.47936742617862" lon="12.283241203780692"><ele>403.1428571428571</ele><time>2026-04-24T07:38:41Z</time></trkpt><trkpt lat="43.47929960164581" lon="12.283249082115995"><ele>401.8571428571429</ele><time>2026-04-24T07:38:42Z</time></trkpt><trkpt lat="43.47922064753012" lon="12.283262393960781"><ele>400.57142857142856</ele><time>2026-04-24T07:38:43Z</time></trkpt><trkpt lat="43.47914759872427" lon="12.283283458816063"><ele>399.2857142857143</ele><time>2026-04-24T07:38:44Z</time></trkpt><trkpt lat="43.479070381915555" lon="12.28330444921864"><ele>398.0</ele><time>2026-04-24T07:38:45Z</time></trkpt><trkpt lat="43.47899336215213" lon="12.283317898027473"><ele>397.99999999999994</ele><time>2026-04-24T07:38:46Z</time></trkpt><trkpt lat="43.47892363026259" lon="12.283325843583874"><ele>398.0</ele><time>2026-04-24T07:38:47Z</time></trkpt><trkpt lat="43.47880895227414" lon="12.283334453170232"><ele>398.0</ele><time>2026-04-24T07:38:49Z</time></trkpt><trkpt lat="43.478735618918904" lon="12.283340153885465"><ele>398.0</ele><time>2026-04-24T07:38:50Z</time></trkpt><trkpt lat="43.47865717692667" lon="12.283360669170095"><ele>397.99999999999994</ele><time>2026-04-24T07:38:51Z</time></trkpt><trkpt lat="43.47857345944618" lon="12.283375991367695"><ele>398.0</ele><time>2026-04-24T07:38:52Z</time></trkpt><trkpt lat="43.47849386078799" lon="12.283399159949562"><ele>396.57142857142856</ele><time>2026-04-24T07:38:53Z</time></trkpt><trkpt lat="43.478420504438795" lon="12.283421872125075"><ele>395.1428571428571</ele><time>2026-04-24T07:38:54Z</time></trkpt><trkpt lat="43.478351053349265" lon="12.2834430601981"><ele>393.71428571428567</ele><time>2026-04-24T07:38:55Z</time></trkpt><trkpt lat="43.47827821176296" lon="12.283469771329454"><ele>392.2857142857143</ele><time>2026-04-24T07:38:56Z</time></trkpt><trkpt lat="43.47821429194013" lon="12.283505031393943"><ele>390.8571428571429</ele><time>2026-04-24T07:38:57Z</time></trkpt><trkpt lat="43.47815527930291" lon="12.28354883826195"><ele>389.4285714285714</ele><time>2026-04-24T07:38:58Z</time></trkpt><trkpt lat="43.47808971702729" lon="12.283583526687112"><ele>388.0</ele><time>2026-04-24T07:38:59Z</time></trkpt><trkpt lat="43.47802382823818" lon="12.28362877340306"><ele>385.2</ele><time>2026-04-24T07:39:00Z</time></trkpt><trkpt lat="43.47793045755907" lon="12.283736214008135"><ele>382.4</ele><time>2026-04-24T07:39:02Z</time></trkpt><trkpt lat="43.47788191376931" lon="12.283889821931952"><ele>379.59999999999997</ele><time>2026-04-24T07:39:04Z</time></trkpt><trkpt lat="43.47787077577582" lon="12.283985202640094"><ele>376.79999999999995</ele><time>2026-04-24T07:39:05Z</time></trkpt><trkpt lat="43.477863968888876" lon="12.284073052865134"><ele>374.0</ele><time>2026-04-24T07:39:06Z</time></trkpt><trkpt lat="43.477805441376354" lon="12.28420930112793"><ele>374.0</ele><time>2026-04-24T07:39:08Z</time></trkpt><trkpt lat="43.47775558844032" lon="12.284266046683642"><ele>374.0</ele><time>2026-04-24T07:39:09Z</time></trkpt><trkpt lat="43.47769992159094" lon="12.284313548047486"><ele>374.0</ele><time>2026-04-24T07:39:10Z</time></trkpt><trkpt lat="43.47764580641708" lon="12.284358371980277"><ele>374.0</ele><time>2026-04-24T07:39:11Z</time></trkpt><trkpt lat="43.4775483667479" lon="12.28438199106533"><ele>374.0</ele><time>2026-04-24T07:39:13Z</time></trkpt><trkpt lat="43.47749119720776" lon="12.284315605392129"><ele>374.0</ele><time>2026-04-24T07:39:15Z</time></trkpt><trkpt lat="43.477466092087404" lon="12.284173807129656"><ele>374.0</ele><time>2026-04-24T07:39:17Z</time></trkpt><trkpt lat="43.47746703621506" lon="12.284076064503603"><ele>374.0</ele><time>2026-04-24T07:39:18Z</time></trkpt><trkpt lat="43.47747562246482" lon="12.283987187354228"><ele>374.0</ele><time>2026-04-24T07:39:19Z</time></trkpt><trkpt lat="43.47748401734811" lon="12.283889803996857"><ele>374.0</ele><time>2026-04-24T07:39:20Z</time></trkpt><trkpt lat="43.47748555917989" lon="12.28377744195898"><ele>374.0</ele><time>2026-04-24T07:39:21Z</time></trkpt><trkpt lat="43.47749310069574" lon="12.283668992300571"><ele>374.0</ele><time>2026-04-24T07:39:22Z</time></trkpt><trkpt lat="43.4775023706486" lon="12.283551722101507"><ele>373.2</ele><time>2026-04-24T07:39:23Z</time></trkpt><trkpt lat="43.477508131631865" lon="12.283429833995665"><ele>372.4</ele><time>2026-04-24T07:39:24Z</time></trkpt><trkpt lat="43.477515264792046" lon="12.283294941961403"><ele>371.6</ele><time>2026-04-24T07:39:25Z</time></trkpt><trkpt lat="43.477518658598306" lon="12.283158240176205"><ele>370.8</ele><time>2026-04-24T07:39:26Z</time></trkpt><trkpt lat="43.47749426659562" lon="12.283029967286424"><ele>370.0</ele><time>2026-04-24T07:39:27Z</time></trkpt><trkpt lat="43.47743813254858" lon="12.282904823398887"><ele>372.5</ele><time>2026-04-24T07:39:28Z</time></trkpt><trkpt lat="43.477360589607805" lon="12.282799462480188"><ele>375.0</ele><time>2026-04-24T07:39:29Z</time></trkpt><trkpt lat="43.477273470914184" lon="12.282689915175917"><ele>377.5</ele><time>2026-04-24T07:39:30Z</time></trkpt><trkpt lat="43.47719503166271" lon="12.28256830517241"><ele>380.0</ele><time>2026-04-24T07:39:31Z</time></trkpt><trkpt lat="43.47711403778014" lon="12.282455357087695"><ele>381.75</ele><time>2026-04-24T07:39:32Z</time></trkpt><trkpt lat="43.47703185209091" lon="12.282361038515623"><ele>383.5</ele><time>2026-04-24T07:39:33Z</time></trkpt><trkpt lat="43.476935830924766" lon="12.2822932862421"><ele>385.25</ele><time>2026-04-24T07:39:34Z</time></trkpt><trkpt lat="43.47682022162121" lon="12.282245189359255"><ele>387.0</ele><time>2026-04-24T07:39:35Z</time></trkpt><trkpt lat="43.47669685681732" lon="12.282207057529487"><ele>387.0</ele><time>2026-04-24T07:39:36Z</time></trkpt><trkpt lat="43.47656823931954" lon="12.282188186594352"><ele>387.0</ele><time>2026-04-24T07:39:37Z</time></trkpt><trkpt lat="43.476448262020455" lon="12.282184531937423"><ele>387.0</ele><time>2026-04-24T07:39:38Z</time></trkpt><trkpt lat="43.47633251723599" lon="12.282189013726311"><ele>387.0</ele><time>2026-04-24T07:39:39Z</time></trkpt><trkpt lat="43.476225241787134" lon="12.2821865312174"><ele>383.6</ele><time>2026-04-24T07:39:40Z</time></trkpt><trkpt lat="43.47611989137821" lon="12.282166537076364"><ele>380.20000000000005</ele><time>2026-04-24T07:39:41Z</time></trkpt><trkpt lat="43.47601977611562" lon="12.282155170778326"><ele>376.8</ele><time>2026-04-24T07:39:42Z</time></trkpt><trkpt lat="43.47593414278057" lon="12.282124295572062"><ele>373.4</ele><time>2026-04-24T07:39:43Z</time></trkpt><trkpt lat="43.47586198867164" lon="12.282076722267455"><ele>370.0</ele><time>2026-04-24T07:39:44Z</time></trkpt><trkpt lat="43.47580159836851" lon="12.282011716055486"><ele>370.0</ele><time>2026-04-24T07:39:45Z</time></trkpt><trkpt lat="43.475757849539804" lon="12.281912768348063"><ele>370.0</ele><time>2026-04-24T07:39:46Z</time></trkpt><trkpt lat="43.47574124159434" lon="12.28178199683064"><ele>370.0</ele><time>2026-04-24T07:39:47Z</time></trkpt><trkpt lat="43.47573763252063" lon="12.281638728175496"><ele>370.0</ele><time>2026-04-24T07:39:48Z</time></trkpt><trkpt lat="43.4757509158385" lon="12.28149923082416"><ele>370.0</ele><time>2026-04-24T07:39:49Z</time></trkpt><trkpt lat="43.475768740700126" lon="12.281354256953042"><ele>369.8</ele><time>2026-04-24T07:39:50Z</time></trkpt><trkpt lat="43.4758054034655" lon="12.281206159420416"><ele>369.6</ele><time>2026-04-24T07:39:51Z</time></trkpt><trkpt lat="43.4758453352076" lon="12.281053505591167"><ele>369.4</ele><time>2026-04-24T07:39:52Z</time></trkpt><trkpt lat="43.475880233122886" lon="12.280910822365971"><ele>369.2</ele><time>2026-04-24T07:39:53Z</time></trkpt><trkpt lat="43.475903585097264" lon="12.280779719454191"><ele>369.0</ele><time>2026-04-24T07:39:54Z</time></trkpt><trkpt lat="43.47591627988015" lon="12.28066019246616"><ele>370.6</ele><time>2026-04-24T07:39:55Z</time></trkpt><trkpt lat="43.47590832596373" lon="12.28053716315201"><ele>372.2</ele><time>2026-04-24T07:39:56Z</time></trkpt><trkpt lat="43.475879961094726" lon="12.280413389092597"><ele>373.8</ele><time>2026-04-24T07:39:57Z</time></trkpt><trkpt lat="43.4758280570922" lon="12.280290447825976"><ele>375.40000000000003</ele><time>2026-04-24T07:39:58Z</time></trkpt><trkpt lat="43.475765844511386" lon="12.280190060888199"><ele>377.0</ele><time>2026-04-24T07:39:59Z</time></trkpt><trkpt lat="43.475691821851214" lon="12.280095585134273"><ele>377.0</ele><time>2026-04-24T07:40:00Z</time></trkpt><trkpt lat="43.47562129684854" lon="12.279998313899302"><ele>377.0</ele><time>2026-04-24T07:40:01Z</time></trkpt><trkpt lat="43.47554005979398" lon="12.279892627612448"><ele>377.0</ele><time>2026-04-24T07:40:02Z</time></trkpt><trkpt lat="43.475460426633234" lon="12.27980342726227"><ele>377.0</ele><time>2026-04-24T07:40:03Z</time></trkpt><trkpt lat="43.475366811453675" lon="12.279735766404958"><ele>377.0</ele><time>2026-04-24T07:40:04Z</time></trkpt><trkpt lat="43.47527611493879" lon="12.279691405883396"><ele>375.0</ele><time>2026-04-24T07:40:05Z</time></trkpt><trkpt lat="43.47518702333603" lon="12.279650418973306"><ele>373.0</ele><time>2026-04-24T07:40:06Z</time></trkpt><trkpt lat="43.47510005599479" lon="12.27961132377877"><ele>371.0</ele><time>2026-04-24T07:40:07Z</time></trkpt><trkpt lat="43.475022555120894" lon="12.279578309749235"><ele>369.0</ele><time>2026-04-24T07:40:08Z</time></trkpt><trkpt lat="43.47491634771063" lon="12.279498648006562"><ele>367.0</ele><time>2026-04-24T07:40:10Z</time></trkpt><trkpt lat="43.474899044734684" lon="12.279386889780008"><ele>367.0</ele><time>2026-04-24T07:40:11Z</time></trkpt><trkpt lat="43.474894084627884" lon="12.279256844569796"><ele>367.0</ele><time>2026-04-24T07:40:12Z</time></trkpt><trkpt lat="43.47489865388967" lon="12.279113991499862"><ele>367.0</ele><time>2026-04-24T07:40:13Z</time></trkpt><trkpt lat="43.47490015327383" lon="12.278973656708038"><ele>367.0</ele><time>2026-04-24T07:40:14Z</time></trkpt><trkpt lat="43.47490289511067" lon="12.278832821679462"><ele>367.0</ele><time>2026-04-24T07:40:15Z</time></trkpt><trkpt lat="43.47493289892363" lon="12.278690521004103"><ele>366.5</ele><time>2026-04-24T07:40:16Z</time></trkpt><trkpt lat="43.474972551465555" lon="12.278562151153643"><ele>366.0</ele><time>2026-04-24T07:40:17Z</time></trkpt><trkpt lat="43.47500810015299" lon="12.278445001502867"><ele>365.5</ele><time>2026-04-24T07:40:18Z</time></trkpt><trkpt lat="43.475047562854435" lon="12.278331986094345"><ele>365.0</ele><time>2026-04-24T07:40:19Z</time></trkpt><trkpt lat="43.47509259532809" lon="12.278236796448432"><ele>364.5</ele><time>2026-04-24T07:40:20Z</time></trkpt><trkpt lat="43.47514469618288" lon="12.278149348606899"><ele>364.0</ele><time>2026-04-24T07:40:21Z</time></trkpt><trkpt lat="43.475173819798414" lon="12.27805867507697"><ele>365.66666666666663</ele><time>2026-04-24T07:40:22Z</time></trkpt><trkpt lat="43.47517170923428" lon="12.277950831482618"><ele>367.3333333333333</ele><time>2026-04-24T07:40:23Z</time></trkpt><trkpt lat="43.475132348546296" lon="12.277853429728896"><ele>369.0</ele><time>2026-04-24T07:40:24Z</time></trkpt><trkpt lat="43.47507327686522" lon="12.277757408169041"><ele>370.6666666666667</ele><time>2026-04-24T07:40:25Z</time></trkpt><trkpt lat="43.4749921245003" lon="12.277676964849757"><ele>372.33333333333337</ele><time>2026-04-24T07:40:26Z</time></trkpt><trkpt lat="43.474904380389226" lon="12.27762400252677"><ele>374.0</ele><time>2026-04-24T07:40:27Z</time></trkpt><trkpt lat="43.47480741542625" lon="12.277575719002627"><ele>374.0</ele><time>2026-04-24T07:40:28Z</time></trkpt><trkpt lat="43.474718596387476" lon="12.277535773483905"><ele>374.0</ele><time>2026-04-24T07:40:29Z</time></trkpt><trkpt lat="43.47463906976072" lon="12.277483962244078"><ele>374.0</ele><time>2026-04-24T07:40:30Z</time></trkpt><trkpt lat="43.47455165422794" lon="12.27740274906447"><ele>374.0</ele><time>2026-04-24T07:40:31Z</time></trkpt><trkpt lat="43.47446968994557" lon="12.277291971523963"><ele>374.0</ele><time>2026-04-24T07:40:32Z</time></trkpt><trkpt lat="43.47439526886909" lon="12.277182223210643"><ele>375.0</ele><time>2026-04-24T07:40:33Z</time></trkpt><trkpt lat="43.474310832337046" lon="12.277089861205571"><ele>376.0</ele><time>2026-04-24T07:40:34Z</time></trkpt><trkpt lat="43.47421012550063" lon="12.277015743173859"><ele>377.0</ele><time>2026-04-24T07:40:35Z</time></trkpt><trkpt lat="43.47410199905647" lon="12.276970655289661"><ele>378.0</ele><time>2026-04-24T07:40:36Z</time></trkpt><trkpt lat="43.473994411697035" lon="12.27694064807511"><ele>379.0</ele><time>2026-04-24T07:40:37Z</time></trkpt><trkpt lat="43.47390093758577" lon="12.276927527677937"><ele>379.0</ele><time>2026-04-24T07:40:38Z</time></trkpt><trkpt lat="43.473803396651014" lon="12.276932820339923"><ele>379.0</ele><time>2026-04-24T07:40:39Z</time></trkpt><trkpt lat="43.47368988198331" lon="12.276973234743783"><ele>379.0</ele><time>2026-04-24T07:40:40Z</time></trkpt><trkpt lat="43.47357259729988" lon="12.277012200025913"><ele>379.0</ele><time>2026-04-24T07:40:41Z</time></trkpt><trkpt lat="43.47345696525536" lon="12.277039836163372"><ele>377.4</ele><time>2026-04-24T07:40:42Z</time></trkpt><trkpt lat="43.47335142104038" lon="12.277056550617996"><ele>375.79999999999995</ele><time>2026-04-24T07:40:43Z</time></trkpt><trkpt lat="43.47325285292833" lon="12.277066219297756"><ele>374.20000000000005</ele><time>2026-04-24T07:40:44Z</time></trkpt><trkpt lat="43.47315746507052" lon="12.277078079737365"><ele>372.6</ele><time>2026-04-24T07:40:45Z</time></trkpt><trkpt lat="43.47306811119629" lon="12.27709339011055"><ele>371.0</ele><time>2026-04-24T07:40:46Z</time></trkpt><trkpt lat="43.472980317440495" lon="12.277100940129055"><ele>368.0</ele><time>2026-04-24T07:40:47Z</time></trkpt><trkpt lat="43.472881051489615" lon="12.277094989212133"><ele>365.0</ele><time>2026-04-24T07:40:48Z</time></trkpt><trkpt lat="43.472786079155824" lon="12.277068850719543"><ele>362.0</ele><time>2026-04-24T07:40:49Z</time></trkpt><trkpt lat="43.47268886841167" lon="12.277029970543506"><ele>359.0</ele><time>2026-04-24T07:40:50Z</time></trkpt><trkpt lat="43.47259685794275" lon="12.276975925141267"><ele>356.0</ele><time>2026-04-24T07:40:51Z</time></trkpt><trkpt lat="43.47250635445109" lon="12.276901452655839"><ele>356.0</ele><time>2026-04-24T07:40:52Z</time></trkpt><trkpt lat="43.4724170106597" lon="12.276815276127344"><ele>356.0</ele><time>2026-04-24T07:40:53Z</time></trkpt><trkpt lat="43.47234031836903" lon="12.276727065000886"><ele>356.0</ele><time>2026-04-24T07:40:54Z</time></trkpt><trkpt lat="43.47225467659282" lon="12.276646420822473"><ele>356.0</ele><time>2026-04-24T07:40:55Z</time></trkpt><trkpt lat="43.47216993857135" lon="12.276569449867358"><ele>356.0</ele><time>2026-04-24T07:40:56Z</time></trkpt><trkpt lat="43.47208096637326" lon="12.276507459995539"><ele>356.20000000000005</ele><time>2026-04-24T07:40:57Z</time></trkpt><trkpt lat="43.47198290832662" lon="12.276461616850021"><ele>356.40000000000003</ele><time>2026-04-24T07:40:58Z</time></trkpt><trkpt lat="43.47187829483573" lon="12.276421760431107"><ele>356.6</ele><time>2026-04-24T07:40:59Z</time></trkpt><trkpt lat="43.471775835860186" lon="12.276375175171783"><ele>356.8</ele><time>2026-04-24T07:41:00Z</time></trkpt><trkpt lat="43.47167807266995" lon="12.27635624069908"><ele>357.0</ele><time>2026-04-24T07:41:01Z</time></trkpt><trkpt lat="43.47158147337272" lon="12.276337844252437"><ele>357.0</ele><time>2026-04-24T07:41:02Z</time></trkpt><trkpt lat="43.4714850510185" lon="12.276329779497845"><ele>357.0</ele><time>2026-04-24T07:41:03Z</time></trkpt><trkpt lat="43.47139747112957" lon="12.27631117341708"><ele>357.0</ele><time>2026-04-24T07:41:04Z</time></trkpt><trkpt lat="43.47130505344224" lon="12.27627825202261"><ele>357.0</ele><time>2026-04-24T07:41:05Z</time></trkpt><trkpt lat="43.47122370808632" lon="12.276217148126602"><ele>357.0</ele><time>2026-04-24T07:41:06Z</time></trkpt><trkpt lat="43.47115752504553" lon="12.276144982167045"><ele>353.40000000000003</ele><time>2026-04-24T07:41:07Z</time></trkpt><trkpt lat="43.471089559802344" lon="12.276090014746734"><ele>349.8</ele><time>2026-04-24T07:41:08Z</time></trkpt><trkpt lat="43.47101717679148" lon="12.276077847406691"><ele>346.2</ele><time>2026-04-24T07:41:09Z</time></trkpt><trkpt lat="43.470922934604566" lon="12.276070590719952"><ele>342.6</ele><time>2026-04-24T07:41:10Z</time></trkpt><trkpt lat="43.47081658170517" lon="12.27606138082431"><ele>339.0</ele><time>2026-04-24T07:41:11Z</time></trkpt><trkpt lat="43.470711694012" lon="12.276056084900908"><ele>339.0</ele><time>2026-04-24T07:41:12Z</time></trkpt><trkpt lat="43.470625894793876" lon="12.276046240164531"><ele>339.0</ele><time>2026-04-24T07:41:13Z</time></trkpt><trkpt lat="43.47055301857512" lon="12.27604233687228"><ele>339.0</ele><time>2026-04-24T07:41:14Z</time></trkpt><trkpt lat="43.47048981937428" lon="12.27604443254712"><ele>339.0</ele><time>2026-04-24T07:41:15Z</time></trkpt><trkpt lat="43.4704181130351" lon="12.276194297695318"><ele>339.0</ele><time>2026-04-24T07:41:17Z</time></trkpt><trkpt lat="43.47043004311543" lon="12.276300058910167"><ele>339.0</ele><time>2026-04-24T07:41:18Z</time></trkpt><trkpt lat="43.47046196125651" lon="12.276415089585297"><ele>339.79999999999995</ele><time>2026-04-24T07:41:19Z</time></trkpt><trkpt lat="43.470456793877844" lon="12.276524008089584"><ele>340.59999999999997</ele><time>2026-04-24T07:41:20Z</time></trkpt><trkpt lat="43.47038461960358" lon="12.276654851808846"><ele>341.4</ele><time>2026-04-24T07:41:22Z</time></trkpt><trkpt lat="43.47028154389713" lon="12.27672854642769"><ele>342.2</ele><time>2026-04-24T07:41:24Z</time></trkpt><trkpt lat="43.47021609637621" lon="12.276770394242886"><ele>343.0</ele><time>2026-04-24T07:41:25Z</time></trkpt><trkpt lat="43.47013605778121" lon="12.276809440021646"><ele>343.0</ele><time>2026-04-24T07:41:26Z</time></trkpt><trkpt lat="43.47006106683338" lon="12.276846124609376"><ele>343.0</ele><time>2026-04-24T07:41:27Z</time></trkpt><trkpt lat="43.46998589610086" lon="12.276885723771555"><ele>343.0</ele><time>2026-04-24T07:41:28Z</time></trkpt><trkpt lat="43.46991210941464" lon="12.276941613750662"><ele>343.0</ele><time>2026-04-24T07:41:29Z</time></trkpt><trkpt lat="43.469841551031855" lon="12.276989221185888"><ele>343.0</ele><time>2026-04-24T07:41:30Z</time></trkpt><trkpt lat="43.469786127773034" lon="12.277044681568253"><ele>343.0</ele><time>2026-04-24T07:41:31Z</time></trkpt><trkpt lat="43.46973813262636" lon="12.277113085223716"><ele>343.0</ele><time>2026-04-24T07:41:32Z</time></trkpt><trkpt lat="43.46969005358779" lon="12.277200325509508"><ele>343.0</ele><time>2026-04-24T07:41:33Z</time></trkpt><trkpt lat="43.469654287811295" lon="12.277289313056617"><ele>343.0</ele><time>2026-04-24T07:41:34Z</time></trkpt><trkpt lat="43.46961162596067" lon="12.277380470725504"><ele>343.0</ele><time>2026-04-24T07:41:35Z</time></trkpt><trkpt lat="43.4695599066682" lon="12.27744534597545"><ele>343.0</ele><time>2026-04-24T07:41:36Z</time></trkpt><trkpt lat="43.46949729297063" lon="12.277488075924797"><ele>343.0</ele><time>2026-04-24T07:41:37Z</time></trkpt><trkpt lat="43.46942180492534" lon="12.277514211634166"><ele>345.2</ele><time>2026-04-24T07:41:38Z</time></trkpt><trkpt lat="43.469337038965605" lon="12.277518023703065"><ele>347.4</ele><time>2026-04-24T07:41:39Z</time></trkpt><trkpt lat="43.469240429528924" lon="12.277516703446981"><ele>349.59999999999997</ele><time>2026-04-24T07:41:40Z</time></trkpt><trkpt lat="43.469142046390814" lon="12.277508605638964"><ele>351.79999999999995</ele><time>2026-04-24T07:41:41Z</time></trkpt><trkpt lat="43.46904369886928" lon="12.277479000078678"><ele>354.0</ele><time>2026-04-24T07:41:42Z</time></trkpt><trkpt lat="43.46896936378164" lon="12.27743347020306"><ele>354.0</ele><time>2026-04-24T07:41:43Z</time></trkpt><trkpt lat="43.46890368753227" lon="12.277407974901474"><ele>354.0</ele><time>2026-04-24T07:41:44Z</time></trkpt><trkpt lat="43.46883415853261" lon="12.277396580902309"><ele>354.0</ele><time>2026-04-24T07:41:45Z</time></trkpt><trkpt lat="43.468726002558846" lon="12.277429132360066"><ele>354.0</ele><time>2026-04-24T07:41:47Z</time></trkpt><trkpt lat="43.468698450212244" lon="12.277585954217088"><ele>354.0</ele><time>2026-04-24T07:41:49Z</time></trkpt><trkpt lat="43.468726088052065" lon="12.277664444835839"><ele>354.0</ele><time>2026-04-24T07:41:50Z</time></trkpt><trkpt lat="43.468771283462246" lon="12.277733762871447"><ele>354.0</ele><time>2026-04-24T07:41:51Z</time></trkpt><trkpt lat="43.46881434859659" lon="12.277812814899203"><ele>354.0</ele><time>2026-04-24T07:41:52Z</time></trkpt><trkpt lat="43.46884912799583" lon="12.277915934677168"><ele>354.0</ele><time>2026-04-24T07:41:53Z</time></trkpt><trkpt lat="43.46887312500704" lon="12.278039835742423"><ele>354.0</ele><time>2026-04-24T07:41:54Z</time></trkpt><trkpt lat="43.468888016746774" lon="12.278167494125324"><ele>354.0</ele><time>2026-04-24T07:41:55Z</time></trkpt><trkpt lat="43.46891611736342" lon="12.278278538691495"><ele>354.0</ele><time>2026-04-24T07:41:56Z</time></trkpt><trkpt lat="43.46897242306378" lon="12.278358795732563"><ele>357.0</ele><time>2026-04-24T07:41:57Z</time></trkpt><trkpt lat="43.46905583395169" lon="12.278411994276464"><ele>360.0</ele><time>2026-04-24T07:41:58Z</time></trkpt><trkpt lat="43.46912836558396" lon="12.278437673531146"><ele>363.0</ele><time>2026-04-24T07:41:59Z</time></trkpt><trkpt lat="43.46917338166903" lon="12.27856109058787"><ele>366.0</ele><time>2026-04-24T07:42:01Z</time></trkpt><trkpt lat="43.469163161765735" lon="12.27865063180916"><ele>369.0</ele><time>2026-04-24T07:42:02Z</time></trkpt><trkpt lat="43.46916241320994" lon="12.278740237405628"><ele>372.0</ele><time>2026-04-24T07:42:03Z</time></trkpt><trkpt lat="43.469181777514194" lon="12.27883604740127"><ele>373.8333333333333</ele><time>2026-04-24T07:42:04Z</time></trkpt><trkpt lat="43.46925046489646" lon="12.278991526974862"><ele>375.6666666666667</ele><time>2026-04-24T07:42:06Z</time></trkpt><trkpt lat="43.46930152767654" lon="12.27906552501219"><ele>377.5</ele><time>2026-04-24T07:42:07Z</time></trkpt><trkpt lat="43.46935455150387" lon="12.279130434025603"><ele>379.33333333333337</ele><time>2026-04-24T07:42:08Z</time></trkpt><trkpt lat="43.469402973676374" lon="12.279202102948108"><ele>381.1666666666667</ele><time>2026-04-24T07:42:09Z</time></trkpt><trkpt lat="43.46945223609601" lon="12.279287884181413"><ele>383.0</ele><time>2026-04-24T07:42:10Z</time></trkpt><trkpt lat="43.46948349994055" lon="12.2793896235738"><ele>383.0</ele><time>2026-04-24T07:42:11Z</time></trkpt><trkpt lat="43.46951641873055" lon="12.279497595274957"><ele>383.0</ele><time>2026-04-24T07:42:12Z</time></trkpt><trkpt lat="43.46953773518284" lon="12.279607608369068"><ele>383.0</ele><time>2026-04-24T07:42:13Z</time></trkpt><trkpt lat="43.469564392117675" lon="12.279698015824495"><ele>383.0</ele><time>2026-04-24T07:42:14Z</time></trkpt><trkpt lat="43.46964320603461" lon="12.279791539379481"><ele>383.0</ele><time>2026-04-24T07:42:16Z</time></trkpt><trkpt lat="43.46970667148755" lon="12.279786116072096"><ele>383.0</ele><time>2026-04-24T07:42:17Z</time></trkpt><trkpt lat="43.469782446714035" lon="12.279770695149422"><ele>386.33333333333337</ele><time>2026-04-24T07:42:18Z</time></trkpt><trkpt lat="43.46985760971965" lon="12.279777694606661"><ele>389.6666666666667</ele><time>2026-04-24T07:42:19Z</time></trkpt><trkpt lat="43.46993697891558" lon="12.279788608917208"><ele>393.0</ele><time>2026-04-24T07:42:20Z</time></trkpt><trkpt lat="43.470018026371875" lon="12.279814375021283"><ele>396.33333333333337</ele><time>2026-04-24T07:42:21Z</time></trkpt><trkpt lat="43.47008972217597" lon="12.2799186649309"><ele>399.6666666666667</ele><time>2026-04-24T07:42:23Z</time></trkpt><trkpt lat="43.47014297304707" lon="12.280006831786343"><ele>403.0</ele><time>2026-04-24T07:42:24Z</time></trkpt><trkpt lat="43.47019196990458" lon="12.28007635964152"><ele>403.00000000000006</ele><time>2026-04-24T07:42:25Z</time></trkpt><trkpt lat="43.4702649026194" lon="12.280125338049482"><ele>403.0</ele><time>2026-04-24T07:42:26Z</time></trkpt><trkpt lat="43.470341704856835" lon="12.2801699222002"><ele>403.0</ele><time>2026-04-24T07:42:27Z</time></trkpt><trkpt lat="43.47042141581834" lon="12.280275498527011"><ele>403.0</ele><time>2026-04-24T07:42:29Z</time></trkpt><trkpt lat="43.470478782341424" lon="12.280354689677052"><ele>403.00000000000006</ele><time>2026-04-24T07:42:30Z</time></trkpt><trkpt lat="43.47053089487394" lon="12.280430917730511"><ele>403.0</ele><time>2026-04-24T07:42:31Z</time></trkpt><trkpt lat="43.47056101539823" lon="12.28051094080821"><ele>403.33333333333337</ele><time>2026-04-24T07:42:32Z</time></trkpt><trkpt lat="43.47061038345396" lon="12.280586922291429"><ele>403.6666666666667</ele><time>2026-04-24T07:42:33Z</time></trkpt><trkpt lat="43.47066557263527" lon="12.280665889459723"><ele>404.0</ele><time>2026-04-24T07:42:34Z</time></trkpt><trkpt lat="43.4707296067037" lon="12.280735992729594"><ele>404.33333333333337</ele><time>2026-04-24T07:42:35Z</time></trkpt><trkpt lat="43.47078698861182" lon="12.280778568830515"><ele>404.6666666666667</ele><time>2026-04-24T07:42:36Z</time></trkpt><trkpt lat="43.47084816617727" lon="12.2808158412644"><ele>405.0</ele><time>2026-04-24T07:42:37Z</time></trkpt><trkpt lat="43.47095514518052" lon="12.28088843444261"><ele>407.5</ele><time>2026-04-24T07:42:39Z</time></trkpt><trkpt lat="43.471020599512215" lon="12.280930812328178"><ele>410.0</ele><time>2026-04-24T07:42:40Z</time></trkpt><trkpt lat="43.471100918286446" lon="12.280959436804654"><ele>412.5</ele><time>2026-04-24T07:42:41Z</time></trkpt><trkpt lat="43.47117808188566" lon="12.28096860755589"><ele>415.0</ele><time>2026-04-24T07:42:42Z</time></trkpt><trkpt lat="43.471253224369526" lon="12.28097380029421"><ele>417.5</ele><time>2026-04-24T07:42:43Z</time></trkpt><trkpt lat="43.4713268850987" lon="12.280978066214594"><ele>420.0</ele><time>2026-04-24T07:42:44Z</time></trkpt><trkpt lat="43.47141725363865" lon="12.28092348850725"><ele>421.4</ele><time>2026-04-24T07:42:46Z</time></trkpt><trkpt lat="43.47146054720355" lon="12.280856989257138"><ele>422.8</ele><time>2026-04-24T07:42:47Z</time></trkpt><trkpt lat="43.471521180152166" lon="12.280783466323692"><ele>424.20000000000005</ele><time>2026-04-24T07:42:48Z</time></trkpt><trkpt lat="43.47160117080569" lon="12.280697544638844"><ele>425.6</ele><time>2026-04-24T07:42:50Z</time></trkpt><trkpt lat="43.471696189341216" lon="12.280760798558589"><ele>427.0</ele><time>2026-04-24T07:42:52Z</time></trkpt><trkpt lat="43.47176567020372" lon="12.280913305585056"><ele>427.0</ele><time>2026-04-24T07:42:54Z</time></trkpt><trkpt lat="43.471812474149615" lon="12.280994786604177"><ele>427.00000000000006</ele><time>2026-04-24T07:42:55Z</time></trkpt><trkpt lat="43.47184600183625" lon="12.281083666642916"><ele>427.00000000000006</ele><time>2026-04-24T07:42:56Z</time></trkpt><trkpt lat="43.47182517089288" lon="12.281219870200214"><ele>427.0</ele><time>2026-04-24T07:42:58Z</time></trkpt><trkpt lat="43.471778687219846" lon="12.28128412770276"><ele>427.0</ele><time>2026-04-24T07:42:59Z</time></trkpt><trkpt lat="43.471738304794165" lon="12.281463643560837"><ele>428.50000000000006</ele><time>2026-04-24T07:43:01Z</time></trkpt><trkpt lat="43.471749602391526" lon="12.281572251634493"><ele>430.0</ele><time>2026-04-24T07:43:02Z</time></trkpt><trkpt lat="43.471777515089094" lon="12.281683153630192"><ele>431.5</ele><time>2026-04-24T07:43:03Z</time></trkpt><trkpt lat="43.47181855985047" lon="12.281787464611995"><ele>433.0</ele><time>2026-04-24T07:43:04Z</time></trkpt><trkpt lat="43.47186616664327" lon="12.281876691301454"><ele>434.50000000000006</ele><time>2026-04-24T07:43:05Z</time></trkpt><trkpt lat="43.471914476592964" lon="12.28195266327934"><ele>436.0</ele><time>2026-04-24T07:43:06Z</time></trkpt><trkpt lat="43.47195633327023" lon="12.282055573880376"><ele>436.00000000000006</ele><time>2026-04-24T07:43:07Z</time></trkpt><trkpt lat="43.47198652664789" lon="12.282166349333975"><ele>436.0</ele><time>2026-04-24T07:43:08Z</time></trkpt><trkpt lat="43.47200302334281" lon="12.282288275263738"><ele>436.0</ele><time>2026-04-24T07:43:09Z</time></trkpt><trkpt lat="43.47201682518525" lon="12.282405999536106"><ele>436.0</ele><time>2026-04-24T07:43:10Z</time></trkpt><trkpt lat="43.47202495620421" lon="12.282502878079796"><ele>436.00000000000006</ele><time>2026-04-24T07:43:11Z</time></trkpt><trkpt lat="43.471992499541315" lon="12.282645177953455"><ele>436.0</ele><time>2026-04-24T07:43:13Z</time></trkpt><trkpt lat="43.47192450566942" lon="12.282686026748191"><ele>438.00000000000006</ele><time>2026-04-24T07:43:14Z</time></trkpt><trkpt lat="43.47184954593447" lon="12.282702778285543"><ele>440.0</ele><time>2026-04-24T07:43:15Z</time></trkpt><trkpt lat="43.47176918933498" lon="12.282714197697631"><ele>442.0</ele><time>2026-04-24T07:43:16Z</time></trkpt><trkpt lat="43.47169917813651" lon="12.282746439895755"><ele>444.0</ele><time>2026-04-24T07:43:17Z</time></trkpt><trkpt lat="43.47163476726761" lon="12.282894238407033"><ele>446.00000000000006</ele><time>2026-04-24T07:43:19Z</time></trkpt><trkpt lat="43.47162069185724" lon="12.283005937959805"><ele>448.0</ele><time>2026-04-24T07:43:20Z</time></trkpt><trkpt lat="43.47160674295328" lon="12.283115459085236"><ele>449.83333333333337</ele><time>2026-04-24T07:43:21Z</time></trkpt><trkpt lat="43.471583821005396" lon="12.283217202380762"><ele>451.6666666666667</ele><time>2026-04-24T07:43:22Z</time></trkpt><trkpt lat="43.47155215216946" lon="12.28329263705987"><ele>453.5</ele><time>2026-04-24T07:43:23Z</time></trkpt><trkpt lat="43.4714812016541" lon="12.283357252822993"><ele>455.33333333333337</ele><time>2026-04-24T07:43:24Z</time></trkpt><trkpt lat="43.47141209219088" lon="12.283419283783466"><ele>457.1666666666667</ele><time>2026-04-24T07:43:25Z</time></trkpt><trkpt lat="43.471350131228206" lon="12.283478104606806"><ele>459.0</ele><time>2026-04-24T07:43:26Z</time></trkpt><trkpt lat="43.47128827934248" lon="12.283550039921884"><ele>458.7142857142857</ele><time>2026-04-24T07:43:27Z</time></trkpt><trkpt lat="43.471239050502334" lon="12.283636679504193"><ele>458.42857142857144</ele><time>2026-04-24T07:43:28Z</time></trkpt><trkpt lat="43.47120098190986" lon="12.283725342733934"><ele>458.14285714285717</ele><time>2026-04-24T07:43:29Z</time></trkpt><trkpt lat="43.47117697641303" lon="12.283808390340404"><ele>457.8571428571429</ele><time>2026-04-24T07:43:30Z</time></trkpt><trkpt lat="43.471161945869675" lon="12.283909936796789"><ele>457.57142857142856</ele><time>2026-04-24T07:43:31Z</time></trkpt><trkpt lat="43.471161509807644" lon="12.284020856721769"><ele>457.28571428571433</ele><time>2026-04-24T07:43:32Z</time></trkpt><trkpt lat="43.47117556277963" lon="12.28412028239981"><ele>457.00000000000006</ele><time>2026-04-24T07:43:33Z</time></trkpt><trkpt lat="43.47118830079901" lon="12.284207961108086"><ele>458.50000000000006</ele><time>2026-04-24T07:43:34Z</time></trkpt><trkpt lat="43.47121298162444" lon="12.284302592131208"><ele>460.0</ele><time>2026-04-24T07:43:35Z</time></trkpt><trkpt lat="43.47124972761784" lon="12.284415267972115"><ele>461.5</ele><time>2026-04-24T07:43:36Z</time></trkpt><trkpt lat="43.47130066493078" lon="12.284507073396215"><ele>463.0</ele><time>2026-04-24T07:43:37Z</time></trkpt><trkpt lat="43.471346492315774" lon="12.284616994467275"><ele>464.50000000000006</ele><time>2026-04-24T07:43:38Z</time></trkpt><trkpt lat="43.47138221260306" lon="12.28474277768471"><ele>466.0</ele><time>2026-04-24T07:43:39Z</time></trkpt><trkpt lat="43.471425457914414" lon="12.284861638351199"><ele>468.8</ele><time>2026-04-24T07:43:40Z</time></trkpt><trkpt lat="43.47146380122742" lon="12.284986130414458"><ele>471.6</ele><time>2026-04-24T07:43:41Z</time></trkpt><trkpt lat="43.47150586255071" lon="12.285123852005118"><ele>474.4</ele><time>2026-04-24T07:43:42Z</time></trkpt><trkpt lat="43.47154749104976" lon="12.285270238249003"><ele>477.2</ele><time>2026-04-24T07:43:43Z</time></trkpt><trkpt lat="43.47158650882008" lon="12.28539809289623"><ele>480.0</ele><time>2026-04-24T07:43:44Z</time></trkpt><trkpt lat="43.47161269349562" lon="12.285508559613566"><ele>482.0</ele><time>2026-04-24T07:43:45Z</time></trkpt><trkpt lat="43.47164114967274" lon="12.285620628876838"><ele>484.0</ele><time>2026-04-24T07:43:46Z</time></trkpt><trkpt lat="43.4716750851938" lon="12.285731673533517"><ele>486.0</ele><time>2026-04-24T07:43:47Z</time></trkpt><trkpt lat="43.471704881023285" lon="12.285849772725111"><ele>488.0</ele><time>2026-04-24T07:43:48Z</time></trkpt><trkpt lat="43.47173409090727" lon="12.285957754603757"><ele>490.0</ele><time>2026-04-24T07:43:49Z</time></trkpt><trkpt lat="43.47175088001383" lon="12.286048530682864"><ele>492.0</ele><time>2026-04-24T07:43:50Z</time></trkpt><trkpt lat="43.471747356835955" lon="12.286149699951325"><ele>492.0</ele><time>2026-04-24T07:43:51Z</time></trkpt><trkpt lat="43.471733054754296" lon="12.286254423268362"><ele>492.0</ele><time>2026-04-24T07:43:52Z</time></trkpt><trkpt lat="43.47175207532221" lon="12.286349591435341"><ele>492.0</ele><time>2026-04-24T07:43:53Z</time></trkpt><trkpt lat="43.47184762512471" lon="12.286438531737796"><ele>492.0</ele><time>2026-04-24T07:43:55Z</time></trkpt><trkpt lat="43.471915549441825" lon="12.286453135410493"><ele>492.0</ele><time>2026-04-24T07:43:56Z</time></trkpt><trkpt lat="43.47199297117122" lon="12.286448464716454"><ele>492.0</ele><time>2026-04-24T07:43:57Z</time></trkpt><trkpt lat="43.47207912304827" lon="12.286447744792326"><ele>493.3333333333333</ele><time>2026-04-24T07:43:58Z</time></trkpt><trkpt lat="43.472157121130174" lon="12.286473578619606"><ele>494.66666666666663</ele><time>2026-04-24T07:43:59Z</time></trkpt><trkpt lat="43.472230262960906" lon="12.286525930288123"><ele>496.0</ele><time>2026-04-24T07:44:00Z</time></trkpt><trkpt lat="43.47230119253236" lon="12.286579615834917"><ele>497.3333333333333</ele><time>2026-04-24T07:44:01Z</time></trkpt><trkpt lat="43.47236547365231" lon="12.286632541914136"><ele>498.66666666666663</ele><time>2026-04-24T07:44:02Z</time></trkpt><trkpt lat="43.472420270057796" lon="12.286711177970458"><ele>500.0</ele><time>2026-04-24T07:44:03Z</time></trkpt><trkpt lat="43.472458311886754" lon="12.286801088171062"><ele>500.0</ele><time>2026-04-24T07:44:04Z</time></trkpt><trkpt lat="43.47249630370205" lon="12.286905861745117"><ele>500.0</ele><time>2026-04-24T07:44:05Z</time></trkpt><trkpt lat="43.47255171167632" lon="12.287010430657524"><ele>500.0</ele><time>2026-04-24T07:44:06Z</time></trkpt><trkpt lat="43.47260683713348" lon="12.287118536046792"><ele>500.0</ele><time>2026-04-24T07:44:07Z</time></trkpt><trkpt lat="43.47266599181915" lon="12.28723064822914"><ele>500.0</ele><time>2026-04-24T07:44:08Z</time></trkpt><trkpt lat="43.47272004651437" lon="12.287336448362485"><ele>503.0</ele><time>2026-04-24T07:44:09Z</time></trkpt><trkpt lat="43.47276987083747" lon="12.287423854975376"><ele>506.0</ele><time>2026-04-24T07:44:10Z</time></trkpt><trkpt lat="43.472824885052866" lon="12.287559399002388"><ele>509.0</ele><time>2026-04-24T07:44:12Z</time></trkpt><trkpt lat="43.4728460218289" lon="12.287670256976957"><ele>512.0</ele><time>2026-04-24T07:44:14Z</time></trkpt><trkpt lat="43.47287522744672" lon="12.287808277870926"><ele>515.0</ele><time>2026-04-24T07:44:16Z</time></trkpt><trkpt lat="43.472912165067264" lon="12.28797323906695"><ele>515.0</ele><time>2026-04-24T07:44:18Z</time></trkpt><trkpt lat="43.4729158799279" lon="12.288068707293064"><ele>515.0</ele><time>2026-04-24T07:44:19Z</time></trkpt><trkpt lat="43.47291141533017" lon="12.288155877356285"><ele>515.0</ele><time>2026-04-24T07:44:20Z</time></trkpt><trkpt lat="43.47286318126679" lon="12.288309577572626"><ele>515.0</ele><time>2026-04-24T07:44:22Z</time></trkpt><trkpt lat="43.472829652721124" lon="12.288407737920359"><ele>515.0</ele><time>2026-04-24T07:44:23Z</time></trkpt><trkpt lat="43.472792054314084" lon="12.28849766808665"><ele>515.0</ele><time>2026-04-24T07:44:24Z</time></trkpt><trkpt lat="43.4727544140134" lon="12.288592812805723"><ele>517.0</ele><time>2026-04-24T07:44:25Z</time></trkpt><trkpt lat="43.472713903167914" lon="12.288666156302597"><ele>519.0</ele><time>2026-04-24T07:44:26Z</time></trkpt><trkpt lat="43.47261797083362" lon="12.28878120126502"><ele>521.0</ele><time>2026-04-24T07:44:28Z</time></trkpt><trkpt lat="43.47257972357737" lon="12.28886945476062"><ele>523.0</ele><time>2026-04-24T07:44:29Z</time></trkpt><trkpt lat="43.472528626418075" lon="12.288932526575582"><ele>525.0</ele><time>2026-04-24T07:44:30Z</time></trkpt><trkpt lat="43.472452459244145" lon="12.289038963215445"><ele>527.0</ele><time>2026-04-24T07:44:32Z</time></trkpt><trkpt lat="43.472374678913134" lon="12.289156429848997"><ele>527.5</ele><time>2026-04-24T07:44:34Z</time></trkpt><trkpt lat="43.4723479320001" lon="12.289263073531842"><ele>528.0</ele><time>2026-04-24T07:44:35Z</time></trkpt><trkpt lat="43.47233713845249" lon="12.289375014189533"><ele>528.5</ele><time>2026-04-24T07:44:36Z</time></trkpt><trkpt lat="43.47233159823421" lon="12.289470968052516"><ele>529.0</ele><time>2026-04-24T07:44:37Z</time></trkpt><trkpt lat="43.47232722033525" lon="12.289632258753622"><ele>529.5</ele><time>2026-04-24T07:44:39Z</time></trkpt><trkpt lat="43.47235095582289" lon="12.289721634862547"><ele>530.0</ele><time>2026-04-24T07:44:40Z</time></trkpt><trkpt lat="43.472470623953676" lon="12.289830336135845"><ele>531.8</ele><time>2026-04-24T07:44:42Z</time></trkpt><trkpt lat="43.47253436245691" lon="12.28988724542877"><ele>533.6</ele><time>2026-04-24T07:44:43Z</time></trkpt><trkpt lat="43.47260648627409" lon="12.29000667785292"><ele>535.4</ele><time>2026-04-24T07:44:45Z</time></trkpt><trkpt lat="43.47260050299845" lon="12.290190109305144"><ele>537.2</ele><time>2026-04-24T07:44:47Z</time></trkpt><trkpt lat="43.472616610193924" lon="12.290299464050047"><ele>539.0</ele><time>2026-04-24T07:44:48Z</time></trkpt><trkpt lat="43.47265495822865" lon="12.290403732935731"><ele>539.0</ele><time>2026-04-24T07:44:49Z</time></trkpt><trkpt lat="43.4726884210713" lon="12.29048874497572"><ele>539.0</ele><time>2026-04-24T07:44:50Z</time></trkpt><trkpt lat="43.472743789269195" lon="12.290648317494561"><ele>539.0</ele><time>2026-04-24T07:44:52Z</time></trkpt><trkpt lat="43.47278554454068" lon="12.290725904599508"><ele>539.0</ele><time>2026-04-24T07:44:53Z</time></trkpt><trkpt lat="43.472824530221345" lon="12.290825757801773"><ele>539.0</ele><time>2026-04-24T07:44:54Z</time></trkpt><trkpt lat="43.47285184696799" lon="12.29093095651155"><ele>539.0</ele><time>2026-04-24T07:44:55Z</time></trkpt><trkpt lat="43.472880074883655" lon="12.29103632256164"><ele>537.5</ele><time>2026-04-24T07:44:56Z</time></trkpt><trkpt lat="43.472909681297004" lon="12.291135161339628"><ele>536.0</ele><time>2026-04-24T07:44:57Z</time></trkpt><trkpt lat="43.4729301889059" lon="12.291219924242716"><ele>534.5</ele><time>2026-04-24T07:44:58Z</time></trkpt><trkpt lat="43.47293969267445" lon="12.29131743070532"><ele>533.0</ele><time>2026-04-24T07:44:59Z</time></trkpt><trkpt lat="43.47294222058898" lon="12.291412067059122"><ele>531.5</ele><time>2026-04-24T07:45:00Z</time></trkpt><trkpt lat="43.472887764187924" lon="12.291604107139074"><ele>530.0</ele><time>2026-04-24T07:45:02Z</time></trkpt><trkpt lat="43.47284826876361" lon="12.291776992826618"><ele>534.1666666666666</ele><time>2026-04-24T07:45:04Z</time></trkpt><trkpt lat="43.472858334376404" lon="12.291891868766353"><ele>538.3333333333333</ele><time>2026-04-24T07:45:05Z</time></trkpt><trkpt lat="43.47286027816939" lon="12.29199136762655"><ele>542.5</ele><time>2026-04-24T07:45:06Z</time></trkpt><trkpt lat="43.47287388369106" lon="12.29208252826995"><ele>546.6666666666666</ele><time>2026-04-24T07:45:07Z</time></trkpt><trkpt lat="43.47288279335168" lon="12.292208345356544"><ele>550.8333333333334</ele><time>2026-04-24T07:45:08Z</time></trkpt><trkpt lat="43.47290226862684" lon="12.292292901352724"><ele>555.0</ele><time>2026-04-24T07:45:09Z</time></trkpt><trkpt lat="43.4729100230564" lon="12.29239232615885"><ele>555.0</ele><time>2026-04-24T07:45:10Z</time></trkpt><trkpt lat="43.47289446176622" lon="12.292498486160577"><ele>555.0</ele><time>2026-04-24T07:45:11Z</time></trkpt><trkpt lat="43.472860222845874" lon="12.292598042376605"><ele>555.0</ele><time>2026-04-24T07:45:12Z</time></trkpt><trkpt lat="43.47284213106238" lon="12.292686580195273"><ele>555.0</ele><time>2026-04-24T07:45:13Z</time></trkpt><trkpt lat="43.472856015362474" lon="12.292791072960851"><ele>555.0</ele><time>2026-04-24T07:45:14Z</time></trkpt><trkpt lat="43.47288246800451" lon="12.29288956803121"><ele>555.0</ele><time>2026-04-24T07:45:15Z</time></trkpt><trkpt lat="43.47291816736271" lon="12.29298423115057"><ele>554.1666666666666</ele><time>2026-04-24T07:45:16Z</time></trkpt><trkpt lat="43.47295798677298" lon="12.293077821069065"><ele>553.3333333333334</ele><time>2026-04-24T07:45:17Z</time></trkpt><trkpt lat="43.47300228389916" lon="12.293186039997813"><ele>552.5</ele><time>2026-04-24T07:45:18Z</time></trkpt><trkpt lat="43.473036790832396" lon="12.293284136704647"><ele>551.6666666666667</ele><time>2026-04-24T07:45:19Z</time></trkpt><trkpt lat="43.473062582413476" lon="12.293363650204872"><ele>550.8333333333334</ele><time>2026-04-24T07:45:20Z</time></trkpt><trkpt lat="43.47312732166543" lon="12.29350210902286"><ele>550.0</ele><time>2026-04-24T07:45:22Z</time></trkpt><trkpt lat="43.4732022180218" lon="12.293572684853276"><ele>550.0</ele><time>2026-04-24T07:45:23Z</time></trkpt><trkpt lat="43.47328270313067" lon="12.293657430297998"><ele>550.0</ele><time>2026-04-24T07:45:24Z</time></trkpt><trkpt lat="43.4733699531918" lon="12.293758457199981"><ele>550.0</ele><time>2026-04-24T07:45:25Z</time></trkpt><trkpt lat="43.47345660594178" lon="12.293857328064162"><ele>550.0</ele><time>2026-04-24T07:45:26Z</time></trkpt><trkpt lat="43.473537399809416" lon="12.293942605261417"><ele>550.0</ele><time>2026-04-24T07:45:27Z</time></trkpt><trkpt lat="43.4735998695597" lon="12.294026261114093"><ele>549.6666666666667</ele><time>2026-04-24T07:45:28Z</time></trkpt><trkpt lat="43.47366163434965" lon="12.294095326655215"><ele>549.3333333333334</ele><time>2026-04-24T07:45:29Z</time></trkpt><trkpt lat="43.47372934332386" lon="12.294149675227562"><ele>549.0</ele><time>2026-04-24T07:45:30Z</time></trkpt><trkpt lat="43.47380588088041" lon="12.29421218972902"><ele>548.6666666666666</ele><time>2026-04-24T07:45:31Z</time></trkpt><trkpt lat="43.47386674086107" lon="12.294281873583506"><ele>548.3333333333333</ele><time>2026-04-24T07:45:32Z</time></trkpt><trkpt lat="43.473924482764986" lon="12.294350092113751"><ele>548.0</ele><time>2026-04-24T07:45:33Z</time></trkpt><trkpt lat="43.473983792075586" lon="12.294394119229468"><ele>547.8</ele><time>2026-04-24T07:45:34Z</time></trkpt><trkpt lat="43.47405438121962" lon="12.29449146698327"><ele>547.5999999999999</ele><time>2026-04-24T07:45:36Z</time></trkpt><trkpt lat="43.47408199298241" lon="12.294622879282718"><ele>547.4000000000001</ele><time>2026-04-24T07:45:38Z</time></trkpt><trkpt lat="43.4741478680133" lon="12.294703889290485"><ele>547.2</ele><time>2026-04-24T07:45:40Z</time></trkpt><trkpt lat="43.47424286993065" lon="12.294826094041749"><ele>547.0</ele><time>2026-04-24T07:45:42Z</time></trkpt><trkpt lat="43.474334518328405" lon="12.294938543379585"><ele>546.6666666666667</ele><time>2026-04-24T07:45:44Z</time></trkpt><trkpt lat="43.47439762834635" lon="12.294980490698538"><ele>546.3333333333334</ele><time>2026-04-24T07:45:45Z</time></trkpt><trkpt lat="43.4744652216531" lon="12.295047421378634"><ele>546.0</ele><time>2026-04-24T07:45:46Z</time></trkpt><trkpt lat="43.4745282193902" lon="12.295110234547733"><ele>545.6666666666666</ele><time>2026-04-24T07:45:47Z</time></trkpt><trkpt lat="43.4745923859495" lon="12.29517382588078"><ele>545.3333333333333</ele><time>2026-04-24T07:45:48Z</time></trkpt><trkpt lat="43.47465582997444" lon="12.295237155266365"><ele>545.0</ele><time>2026-04-24T07:45:49Z</time></trkpt><trkpt lat="43.47473624157689" lon="12.295301523050895"><ele>545.1428571428571</ele><time>2026-04-24T07:45:51Z</time></trkpt><trkpt lat="43.474803622018555" lon="12.295359433207814"><ele>545.2857142857143</ele><time>2026-04-24T07:45:54Z</time></trkpt><trkpt lat="43.47486154118374" lon="12.295401268185058"><ele>545.4285714285714</ele><time>2026-04-24T07:45:57Z</time></trkpt><trkpt lat="43.47492074760173" lon="12.295451434164486"><ele>545.5714285714286</ele><time>2026-04-24T07:46:00Z</time></trkpt><trkpt lat="43.47498471511757" lon="12.295510777746545"><ele>545.7142857142858</ele><time>2026-04-24T07:46:03Z</time></trkpt><trkpt lat="43.475046153103975" lon="12.295567276962668"><ele>545.8571428571429</ele><time>2026-04-24T07:46:06Z</time></trkpt><trkpt lat="43.47510915280296" lon="12.295618747856901"><ele>546.0</ele><time>2026-04-24T07:46:09Z</time></trkpt><trkpt lat="43.47517727068894" lon="12.295676589288403"><ele>546.0</ele><time>2026-04-24T07:46:12Z</time></trkpt><trkpt lat="43.475242274715846" lon="12.295742763239017"><ele>546.0</ele><time>2026-04-24T07:46:14Z</time></trkpt><trkpt lat="43.47533332774075" lon="12.295817086696479"><ele>546.0</ele><time>2026-04-24T07:46:16Z</time></trkpt><trkpt lat="43.47539071134557" lon="12.295866131865752"><ele>546.0</ele><time>2026-04-24T07:46:17Z</time></trkpt><trkpt lat="43.47549206261656" lon="12.295968872323314"><ele>546.0</ele><time>2026-04-24T07:46:19Z</time></trkpt><trkpt lat="43.47557286460895" lon="12.29600342460306"><ele>547.3333333333334</ele><time>2026-04-24T07:46:20Z</time></trkpt><trkpt lat="43.475656502533" lon="12.296069470327186"><ele>548.6666666666666</ele><time>2026-04-24T07:46:21Z</time></trkpt><trkpt lat="43.475727870565876" lon="12.29613305930122"><ele>550.0</ele><time>2026-04-24T07:46:22Z</time></trkpt><trkpt lat="43.475813183562536" lon="12.296193335489724"><ele>551.3333333333333</ele><time>2026-04-24T07:46:23Z</time></trkpt><trkpt lat="43.47589318458197" lon="12.296252676645352"><ele>552.6666666666666</ele><time>2026-04-24T07:46:24Z</time></trkpt><trkpt lat="43.47595528167002" lon="12.296305431942484"><ele>554.0</ele><time>2026-04-24T07:46:25Z</time></trkpt><trkpt lat="43.47605822795283" lon="12.296407581378093"><ele>554.3333333333333</ele><time>2026-04-24T07:46:27Z</time></trkpt><trkpt lat="43.47612154032649" lon="12.29644292564878"><ele>554.6666666666666</ele><time>2026-04-24T07:46:28Z</time></trkpt><trkpt lat="43.47619291081449" lon="12.29648301803197"><ele>555.0</ele><time>2026-04-24T07:46:29Z</time></trkpt><trkpt lat="43.47625995101587" lon="12.296525059858027"><ele>555.3333333333334</ele><time>2026-04-24T07:46:30Z</time></trkpt><trkpt lat="43.47632250742745" lon="12.296568857114396"><ele>555.6666666666667</ele><time>2026-04-24T07:46:31Z</time></trkpt><trkpt lat="43.47638761938503" lon="12.296617392467436"><ele>556.0</ele><time>2026-04-24T07:46:32Z</time></trkpt><trkpt lat="43.47649841658945" lon="12.296699851814962"><ele>556.0</ele><time>2026-04-24T07:46:34Z</time></trkpt><trkpt lat="43.47656184831735" lon="12.296750477574445"><ele>556.0</ele><time>2026-04-24T07:46:35Z</time></trkpt><trkpt lat="43.47662749641164" lon="12.296796118084782"><ele>556.0</ele><time>2026-04-24T07:46:36Z</time></trkpt><trkpt lat="43.47669248457731" lon="12.296845641523966"><ele>556.0</ele><time>2026-04-24T07:46:37Z</time></trkpt><trkpt lat="43.476750373461144" lon="12.296885720217432"><ele>556.0</ele><time>2026-04-24T07:46:38Z</time></trkpt><trkpt lat="43.47684454909632" lon="12.29694214284551"><ele>556.0</ele><time>2026-04-24T07:46:40Z</time></trkpt><trkpt lat="43.47691441704318" lon="12.296972518559913"><ele>556.0</ele><time>2026-04-24T07:46:42Z</time></trkpt><trkpt lat="43.476982688025636" lon="12.297005232834277"><ele>556.0</ele><time>2026-04-24T07:46:47Z</time></trkpt><trkpt lat="43.47703459557823" lon="12.29708825156689"><ele>556.0</ele><time>2026-04-24T07:46:49Z</time></trkpt><trkpt lat="43.47709598520545" lon="12.297146223291383"><ele>556.0</ele><time>2026-04-24T07:46:51Z</time></trkpt><trkpt lat="43.477175437707274" lon="12.297204689677713"><ele>556.0</ele><time>2026-04-24T07:46:54Z</time></trkpt><trkpt lat="43.4772339827796" lon="12.297244770890176"><ele>556.0</ele><time>2026-04-24T07:46:56Z</time></trkpt><trkpt lat="43.47730589899847" lon="12.297319819844603"><ele>555.6</ele><time>2026-04-24T07:46:59Z</time></trkpt><trkpt lat="43.47740167204751" lon="12.297381366989855"><ele>555.2</ele><time>2026-04-24T07:47:01Z</time></trkpt><trkpt lat="43.477502243119936" lon="12.29743292110108"><ele>554.8</ele><time>2026-04-24T07:47:03Z</time></trkpt><trkpt lat="43.4775825658613" lon="12.297492187277864"><ele>554.4</ele><time>2026-04-24T07:47:05Z</time></trkpt><trkpt lat="43.477657538267195" lon="12.297590893209408"><ele>554.0</ele><time>2026-04-24T07:47:07Z</time></trkpt><trkpt lat="43.47770528598123" lon="12.297659654179006"><ele>554.0</ele><time>2026-04-24T07:47:08Z</time></trkpt><trkpt lat="43.47781551912622" lon="12.297733230860917"><ele>554.0</ele><time>2026-04-24T07:47:10Z</time></trkpt><trkpt lat="43.47788769060489" lon="12.297751474290525"><ele>554.0</ele><time>2026-04-24T07:47:11Z</time></trkpt><trkpt lat="43.47794963661709" lon="12.297789376120015"><ele>554.0</ele><time>2026-04-24T07:47:12Z</time></trkpt><trkpt lat="43.47801497696556" lon="12.297852035086299"><ele>554.0</ele><time>2026-04-24T07:47:13Z</time></trkpt><trkpt lat="43.47808977152715" lon="12.29791355115295"><ele>554.0</ele><time>2026-04-24T07:47:14Z</time></trkpt><trkpt lat="43.47815214546116" lon="12.297954404479691"><ele>553.4285714285714</ele><time>2026-04-24T07:47:15Z</time></trkpt><trkpt lat="43.47821476736932" lon="12.298002774771655"><ele>552.8571428571428</ele><time>2026-04-24T07:47:16Z</time></trkpt><trkpt lat="43.47827226302107" lon="12.298049144134055"><ele>552.2857142857142</ele><time>2026-04-24T07:47:17Z</time></trkpt><trkpt lat="43.47832857386909" lon="12.298106133799422"><ele>551.7142857142857</ele><time>2026-04-24T07:47:18Z</time></trkpt><trkpt lat="43.47837648121352" lon="12.298176853106431"><ele>551.1428571428571</ele><time>2026-04-24T07:47:19Z</time></trkpt><trkpt lat="43.47842639965005" lon="12.298257966637578"><ele>550.5714285714286</ele><time>2026-04-24T07:47:20Z</time></trkpt><trkpt lat="43.47849276163631" lon="12.298344697443083"><ele>550.0</ele><time>2026-04-24T07:47:21Z</time></trkpt><trkpt lat="43.47855436534025" lon="12.298427968886363"><ele>550.0</ele><time>2026-04-24T07:47:22Z</time></trkpt><trkpt lat="43.478602342661695" lon="12.298512485909033"><ele>550.0</ele><time>2026-04-24T07:47:23Z</time></trkpt><trkpt lat="43.47864849338617" lon="12.298612721644183"><ele>550.0</ele><time>2026-04-24T07:47:24Z</time></trkpt><trkpt lat="43.47869139751339" lon="12.298712273243707"><ele>550.0</ele><time>2026-04-24T07:47:25Z</time></trkpt><trkpt lat="43.47874293917453" lon="12.29878011738079"><ele>550.0</ele><time>2026-04-24T07:47:26Z</time></trkpt><trkpt lat="43.47880188161401" lon="12.298835246786476"><ele>550.0</ele><time>2026-04-24T07:47:27Z</time></trkpt><trkpt lat="43.47887510164644" lon="12.298936070951415"><ele>550.0</ele><time>2026-04-24T07:47:29Z</time></trkpt><trkpt lat="43.47892241942617" lon="12.299027434223506"><ele>550.0</ele><time>2026-04-24T07:47:30Z</time></trkpt><trkpt lat="43.47898921473106" lon="12.299100102663933"><ele>550.0</ele><time>2026-04-24T07:47:31Z</time></trkpt><trkpt lat="43.479061316972825" lon="12.299179558643898"><ele>550.0</ele><time>2026-04-24T07:47:32Z</time></trkpt><trkpt lat="43.479127233339106" lon="12.29926927038002"><ele>550.0</ele><time>2026-04-24T07:47:33Z</time></trkpt><trkpt lat="43.479196861768784" lon="12.299344613436379"><ele>550.0</ele><time>2026-04-24T07:47:34Z</time></trkpt><trkpt lat="43.47927605077994" lon="12.299412739073025"><ele>550.0</ele><time>2026-04-24T07:47:35Z</time></trkpt><trkpt lat="43.47936422016151" lon="12.299466918920677"><ele>550.0</ele><time>2026-04-24T07:47:36Z</time></trkpt><trkpt lat="43.47946488709556" lon="12.29952284360703"><ele>550.0</ele><time>2026-04-24T07:47:37Z</time></trkpt><trkpt lat="43.47956081570194" lon="12.299583549191636"><ele>550.0</ele><time>2026-04-24T07:47:38Z</time></trkpt><trkpt lat="43.47966070554558" lon="12.299642834644052"><ele>550.0</ele><time>2026-04-24T07:47:39Z</time></trkpt><trkpt lat="43.47975030082983" lon="12.299698167341269"><ele>550.5</ele><time>2026-04-24T07:47:40Z</time></trkpt><trkpt lat="43.479838800961076" lon="12.299768365591001"><ele>551.0</ele><time>2026-04-24T07:47:41Z</time></trkpt><trkpt lat="43.47991057367449" lon="12.29983685112834"><ele>551.5</ele><time>2026-04-24T07:47:42Z</time></trkpt><trkpt lat="43.47998988197979" lon="12.299889076686467"><ele>552.0</ele><time>2026-04-24T07:47:43Z</time></trkpt><trkpt lat="43.48006882010453" lon="12.299928038917706"><ele>552.5</ele><time>2026-04-24T07:47:44Z</time></trkpt><trkpt lat="43.48013940060928" lon="12.299963923749132"><ele>553.0</ele><time>2026-04-24T07:47:45Z</time></trkpt><trkpt lat="43.48022254945925" lon="12.299998088335247"><ele>553.0</ele><time>2026-04-24T07:47:46Z</time></trkpt><trkpt lat="43.480306026454386" lon="12.300048588105241"><ele>553.0</ele><time>2026-04-24T07:47:47Z</time></trkpt><trkpt lat="43.48038837164893" lon="12.30009972584124"><ele>553.0</ele><time>2026-04-24T07:47:48Z</time></trkpt><trkpt lat="43.480476207505475" lon="12.300162413586515"><ele>553.0</ele><time>2026-04-24T07:47:49Z</time></trkpt><trkpt lat="43.48056331797471" lon="12.300221866908087"><ele>553.0</ele><time>2026-04-24T07:47:50Z</time></trkpt><trkpt lat="43.48064618393655" lon="12.300274872479882"><ele>551.0</ele><time>2026-04-24T07:47:51Z</time></trkpt><trkpt lat="43.480717426497264" lon="12.300334383952785"><ele>549.0</ele><time>2026-04-24T07:47:52Z</time></trkpt><trkpt lat="43.48078713719201" lon="12.30039427891896"><ele>547.0</ele><time>2026-04-24T07:47:53Z</time></trkpt><trkpt lat="43.48086167023941" lon="12.300430672238564"><ele>545.0</ele><time>2026-04-24T07:47:54Z</time></trkpt><trkpt lat="43.480930110625714" lon="12.300459067952008"><ele>543.0</ele><time>2026-04-24T07:47:55Z</time></trkpt><trkpt lat="43.48098629038743" lon="12.30050435067856"><ele>541.0</ele><time>2026-04-24T07:47:56Z</time></trkpt><trkpt lat="43.481054306665065" lon="12.300567124123871"><ele>540.1666666666667</ele><time>2026-04-24T07:47:57Z</time></trkpt><trkpt lat="43.48112918100736" lon="12.300644413382495"><ele>539.3333333333334</ele><time>2026-04-24T07:47:58Z</time></trkpt><trkpt lat="43.48118960101562" lon="12.300695247557266"><ele>538.5</ele><time>2026-04-24T07:47:59Z</time></trkpt><trkpt lat="43.481261029985966" lon="12.30072664845705"><ele>537.6666666666666</ele><time>2026-04-24T07:48:00Z</time></trkpt><trkpt lat="43.481324065784094" lon="12.300740721695758"><ele>536.8333333333333</ele><time>2026-04-24T07:48:01Z</time></trkpt><trkpt lat="43.48138515507848" lon="12.300800295763288"><ele>536.0</ele><time>2026-04-24T07:48:02Z</time></trkpt><trkpt lat="43.48143753440321" lon="12.300893610546483"><ele>536.0</ele><time>2026-04-24T07:48:03Z</time></trkpt><trkpt lat="43.481483529840546" lon="12.300987458757847"><ele>536.0</ele><time>2026-04-24T07:48:04Z</time></trkpt><trkpt lat="43.48152892096953" lon="12.301066368025152"><ele>536.0</ele><time>2026-04-24T07:48:05Z</time></trkpt><trkpt lat="43.481583930834674" lon="12.301138343568518"><ele>536.0</ele><time>2026-04-24T07:48:06Z</time></trkpt><trkpt lat="43.48164390481218" lon="12.301208304759049"><ele>536.0</ele><time>2026-04-24T07:48:07Z</time></trkpt><trkpt lat="43.48171093892102" lon="12.301268354856008"><ele>536.0</ele><time>2026-04-24T07:48:08Z</time></trkpt><trkpt lat="43.48179719304532" lon="12.301338732503645"><ele>536.0</ele><time>2026-04-24T07:48:09Z</time></trkpt><trkpt lat="43.481887675262" lon="12.301403213646122"><ele>536.0</ele><time>2026-04-24T07:48:10Z</time></trkpt><trkpt lat="43.48198206160385" lon="12.301468853862195"><ele>536.0</ele><time>2026-04-24T07:48:11Z</time></trkpt><trkpt lat="43.48207115305794" lon="12.301529136001347"><ele>536.0</ele><time>2026-04-24T07:48:12Z</time></trkpt><trkpt lat="43.482161191602245" lon="12.30157786168519"><ele>536.0</ele><time>2026-04-24T07:48:13Z</time></trkpt><trkpt lat="43.48223479489957" lon="12.301624380766054"><ele>536.3333333333333</ele><time>2026-04-24T07:48:14Z</time></trkpt><trkpt lat="43.482292224314165" lon="12.301670781508241"><ele>536.6666666666666</ele><time>2026-04-24T07:48:15Z</time></trkpt><trkpt lat="43.48237027544368" lon="12.301697793466587"><ele>537.0</ele><time>2026-04-24T07:48:16Z</time></trkpt><trkpt lat="43.48244676487131" lon="12.301709255612623"><ele>537.3333333333334</ele><time>2026-04-24T07:48:17Z</time></trkpt><trkpt lat="43.48251728507849" lon="12.301726302472682"><ele>537.6666666666667</ele><time>2026-04-24T07:48:18Z</time></trkpt><trkpt lat="43.48258750390345" lon="12.301784103835226"><ele>538.0</ele><time>2026-04-24T07:48:19Z</time></trkpt><trkpt lat="43.48267449243329" lon="12.301857322643967"><ele>538.0</ele><time>2026-04-24T07:48:20Z</time></trkpt><trkpt lat="43.482782374181895" lon="12.301920021778256"><ele>538.0</ele><time>2026-04-24T07:48:21Z</time></trkpt><trkpt lat="43.48288126934721" lon="12.301984445016622"><ele>538.0</ele><time>2026-04-24T07:48:22Z</time></trkpt><trkpt lat="43.48297044026977" lon="12.302034814500608"><ele>538.0</ele><time>2026-04-24T07:48:23Z</time></trkpt><trkpt lat="43.48305008591052" lon="12.302079047228151"><ele>538.0</ele><time>2026-04-24T07:48:24Z</time></trkpt><trkpt lat="43.48312749733984" lon="12.302118936957518"><ele>538.1666666666667</ele><time>2026-04-24T07:48:25Z</time></trkpt><trkpt lat="43.483202669201496" lon="12.30213630495051"><ele>538.3333333333334</ele><time>2026-04-24T07:48:26Z</time></trkpt><trkpt lat="43.48328024199795" lon="12.302147632633282"><ele>538.5</ele><time>2026-04-24T07:48:27Z</time></trkpt><trkpt lat="43.483347569476344" lon="12.302192489860868"><ele>538.6666666666666</ele><time>2026-04-24T07:48:28Z</time></trkpt><trkpt lat="43.483402979491416" lon="12.30224929524323"><ele>538.8333333333333</ele><time>2026-04-24T07:48:29Z</time></trkpt><trkpt lat="43.48345541295567" lon="12.302302864447787"><ele>539.0</ele><time>2026-04-24T07:48:30Z</time></trkpt><trkpt lat="43.48357729136291" lon="12.30239761294444"><ele>539.0</ele><time>2026-04-24T07:48:32Z</time></trkpt><trkpt lat="43.4836574356273" lon="12.302466461620899"><ele>539.0</ele><time>2026-04-24T07:48:34Z</time></trkpt><trkpt lat="43.483719259286424" lon="12.302558604544686"><ele>539.0</ele><time>2026-04-24T07:48:36Z</time></trkpt><trkpt lat="43.48377806249006" lon="12.302605064832564"><ele>539.0</ele><time>2026-04-24T07:48:37Z</time></trkpt><trkpt lat="43.483838777482305" lon="12.302675308857106"><ele>539.0</ele><time>2026-04-24T07:48:38Z</time></trkpt><trkpt lat="43.48382045032426" lon="12.302773065689758"><ele>539.0</ele><time>2026-04-24T07:48:53Z</time></trkpt><trkpt lat="43.483771816191094" lon="12.302849277549134"><ele>539.4</ele><time>2026-04-24T07:48:55Z</time></trkpt><trkpt lat="43.48382274061582" lon="12.302936003164199"><ele>539.8</ele><time>2026-04-24T07:48:57Z</time></trkpt><trkpt lat="43.48387248236538" lon="12.303005786555525"><ele>540.2</ele><time>2026-04-24T07:48:58Z</time></trkpt><trkpt lat="43.483922667903684" lon="12.303120912672194"><ele>540.6</ele><time>2026-04-24T07:48:59Z</time></trkpt><trkpt lat="43.48395088225714" lon="12.303242302805106"><ele>541.0</ele><time>2026-04-24T07:49:00Z</time></trkpt><trkpt lat="43.48398185721946" lon="12.303389128848869"><ele>541.6666666666667</ele><time>2026-04-24T07:49:01Z</time></trkpt><trkpt lat="43.48401570636397" lon="12.303529022811096"><ele>542.3333333333334</ele><time>2026-04-24T07:49:02Z</time></trkpt><trkpt lat="43.48404082169394" lon="12.303661631079555"><ele>543.0</ele><time>2026-04-24T07:49:03Z</time></trkpt><trkpt lat="43.48404558630752" lon="12.303776959270374"><ele>543.6666666666666</ele><time>2026-04-24T07:49:04Z</time></trkpt><trkpt lat="43.48403635817896" lon="12.303878282720953"><ele>544.3333333333333</ele><time>2026-04-24T07:49:05Z</time></trkpt><trkpt lat="43.48401952014532" lon="12.303982892576458"><ele>545.0</ele><time>2026-04-24T07:49:06Z</time></trkpt><trkpt lat="43.484002855441695" lon="12.304068860448245"><ele>545.4</ele><time>2026-04-24T07:49:07Z</time></trkpt><trkpt lat="43.48405771700894" lon="12.304211391386021"><ele>545.8</ele><time>2026-04-24T07:49:09Z</time></trkpt><trkpt lat="43.48410787318562" lon="12.304311682760375"><ele>546.2</ele><time>2026-04-24T07:49:10Z</time></trkpt><trkpt lat="43.484141315440475" lon="12.304407164452714"><ele>546.6</ele><time>2026-04-24T07:49:11Z</time></trkpt><trkpt lat="43.484189233001516" lon="12.304536153355707"><ele>547.0</ele><time>2026-04-24T07:49:12Z</time></trkpt><trkpt lat="43.48422575402503" lon="12.304649817533338"><ele>547.1666666666667</ele><time>2026-04-24T07:49:13Z</time></trkpt><trkpt lat="43.48426795673535" lon="12.304768745600992"><ele>547.3333333333334</ele><time>2026-04-24T07:49:14Z</time></trkpt><trkpt lat="43.48431418899115" lon="12.30488586659359"><ele>547.5</ele><time>2026-04-24T07:49:15Z</time></trkpt><trkpt lat="43.48434769376739" lon="12.30496703661375"><ele>547.6666666666666</ele><time>2026-04-24T07:49:16Z</time></trkpt><trkpt lat="43.484383120367035" lon="12.305046331887564"><ele>547.8333333333333</ele><time>2026-04-24T07:49:17Z</time></trkpt><trkpt lat="43.48445714250517" lon="12.30516709968832"><ele>548.0</ele><time>2026-04-24T07:49:19Z</time></trkpt><trkpt lat="43.484574058261984" lon="12.305209181125182"><ele>549.1999999999999</ele><time>2026-04-24T07:49:21Z</time></trkpt><trkpt lat="43.48464209538506" lon="12.305277063093207"><ele>550.4</ele><time>2026-04-24T07:49:23Z</time></trkpt><trkpt lat="43.484715200321844" lon="12.30535358130751"><ele>551.5999999999999</ele><time>2026-04-24T07:49:25Z</time></trkpt><trkpt lat="43.48475835148257" lon="12.305421824315678"><ele>552.8</ele><time>2026-04-24T07:49:27Z</time></trkpt><trkpt lat="43.484879981195135" lon="12.305513437269358"><ele>554.0</ele><time>2026-04-24T07:49:29Z</time></trkpt><trkpt lat="43.48494477140385" lon="12.305569522076102"><ele>553.5</ele><time>2026-04-24T07:49:30Z</time></trkpt><trkpt lat="43.485005925147675" lon="12.305619389355606"><ele>553.0</ele><time>2026-04-24T07:49:31Z</time></trkpt><trkpt lat="43.48510656827553" lon="12.305714013649938"><ele>552.5</ele><time>2026-04-24T07:49:33Z</time></trkpt><trkpt lat="43.48522125303919" lon="12.305759819895076"><ele>552.0</ele><time>2026-04-24T07:49:35Z</time></trkpt><trkpt lat="43.48526614187015" lon="12.305836345924325"><ele>551.5</ele><time>2026-04-24T07:49:37Z</time></trkpt><trkpt lat="43.48524705670159" lon="12.305919209942429"><ele>551.0</ele><time>2026-04-24T07:49:39Z</time></trkpt><trkpt lat="43.485199730639465" lon="12.306018145266766"><ele>551.0</ele><time>2026-04-24T07:49:41Z</time></trkpt><trkpt lat="43.48517643537533" lon="12.306122696179752"><ele>551.0</ele><time>2026-04-24T07:49:43Z</time></trkpt><trkpt lat="43.48529145174502" lon="12.30625248806791"><ele>551.0</ele><time>2026-04-24T07:49:45Z</time></trkpt><trkpt lat="43.48537712953089" lon="12.306355076728872"><ele>551.0</ele><time>2026-04-24T07:49:46Z</time></trkpt><trkpt lat="43.48546036648388" lon="12.306462865726676"><ele>550.4</ele><time>2026-04-24T07:49:47Z</time></trkpt><trkpt lat="43.48553670941594" lon="12.306556389750408"><ele>549.8</ele><time>2026-04-24T07:49:48Z</time></trkpt><trkpt lat="43.48560132236557" lon="12.306646864208664"><ele>549.1999999999999</ele><time>2026-04-24T07:49:49Z</time></trkpt><trkpt lat="43.48567107869691" lon="12.306730958769414"><ele>548.6</ele><time>2026-04-24T07:49:50Z</time></trkpt><trkpt lat="43.48575452663991" lon="12.306817845736454"><ele>548.0</ele><time>2026-04-24T07:49:51Z</time></trkpt><trkpt lat="43.48584617707227" lon="12.3069021098309"><ele>548.0</ele><time>2026-04-24T07:49:52Z</time></trkpt><trkpt lat="43.48593118646072" lon="12.306980301756436"><ele>548.0</ele><time>2026-04-24T07:49:53Z</time></trkpt><trkpt lat="43.486022414527795" lon="12.307060203423635"><ele>548.0</ele><time>2026-04-24T07:49:54Z</time></trkpt><trkpt lat="43.48611218993054" lon="12.307126524695486"><ele>548.0</ele><time>2026-04-24T07:49:55Z</time></trkpt><trkpt lat="43.48621219214704" lon="12.307184279494534"><ele>548.0</ele><time>2026-04-24T07:49:56Z</time></trkpt><trkpt lat="43.48628762883956" lon="12.30725537571639"><ele>548.0</ele><time>2026-04-24T07:49:57Z</time></trkpt><trkpt lat="43.48635535309251" lon="12.307321642269914"><ele>548.0</ele><time>2026-04-24T07:49:58Z</time></trkpt><trkpt lat="43.4864284665905" lon="12.307390691764038"><ele>548.0</ele><time>2026-04-24T07:49:59Z</time></trkpt><trkpt lat="43.486517807230015" lon="12.307447825910442"><ele>548.0</ele><time>2026-04-24T07:50:00Z</time></trkpt><trkpt lat="43.48659545444305" lon="12.307507985295173"><ele>548.0</ele><time>2026-04-24T07:50:01Z</time></trkpt><trkpt lat="43.48666199763909" lon="12.307595417488342"><ele>548.0</ele><time>2026-04-24T07:50:02Z</time></trkpt><trkpt lat="43.48671679847823" lon="12.307709111428098"><ele>548.0</ele><time>2026-04-24T07:50:03Z</time></trkpt><trkpt lat="43.486760810386286" lon="12.307806320759044"><ele>548.0</ele><time>2026-04-24T07:50:04Z</time></trkpt><trkpt lat="43.48682753712294" lon="12.307871760343827"><ele>548.0</ele><time>2026-04-24T07:50:05Z</time></trkpt><trkpt lat="43.486923510203326" lon="12.307936028895913"><ele>548.0</ele><time>2026-04-24T07:50:06Z</time></trkpt><trkpt lat="43.487012119993146" lon="12.307993392632541"><ele>548.75</ele><time>2026-04-24T07:50:07Z</time></trkpt><trkpt lat="43.487089751891794" lon="12.308081664919127"><ele>549.5</ele><time>2026-04-24T07:50:08Z</time></trkpt><trkpt lat="43.48716446993059" lon="12.308214556539893"><ele>550.25</ele><time>2026-04-24T07:50:09Z</time></trkpt><trkpt lat="43.487241672751466" lon="12.308358810367679"><ele>551.0</ele><time>2026-04-24T07:50:10Z</time></trkpt><trkpt lat="43.48732514249441" lon="12.30848987539781"><ele>551.0</ele><time>2026-04-24T07:50:11Z</time></trkpt><trkpt lat="43.48739541168796" lon="12.308605223207303"><ele>551.0</ele><time>2026-04-24T07:50:12Z</time></trkpt><trkpt lat="43.487455763846164" lon="12.308714111731804"><ele>551.0</ele><time>2026-04-24T07:50:13Z</time></trkpt><trkpt lat="43.487524038030514" lon="12.308810115280552"><ele>551.0</ele><time>2026-04-24T07:50:14Z</time></trkpt><trkpt lat="43.48759042865858" lon="12.308891285714365"><ele>551.0</ele><time>2026-04-24T07:50:15Z</time></trkpt><trkpt lat="43.48765950520568" lon="12.308967650759012"><ele>552.3333333333333</ele><time>2026-04-24T07:50:16Z</time></trkpt><trkpt lat="43.48772650321699" lon="12.309057763844239"><ele>553.6666666666666</ele><time>2026-04-24T07:50:17Z</time></trkpt><trkpt lat="43.48776795626103" lon="12.309134319740194"><ele>555.0</ele><time>2026-04-24T07:50:18Z</time></trkpt><trkpt lat="43.487807734618116" lon="12.30922164005983"><ele>556.3333333333334</ele><time>2026-04-24T07:50:19Z</time></trkpt><trkpt lat="43.48782896965795" lon="12.309320996235291"><ele>557.6666666666667</ele><time>2026-04-24T07:50:20Z</time></trkpt><trkpt lat="43.487864843652126" lon="12.309416307279344"><ele>559.0</ele><time>2026-04-24T07:50:21Z</time></trkpt><trkpt lat="43.48790768822846" lon="12.309487101243269"><ele>557.3333333333334</ele><time>2026-04-24T07:50:22Z</time></trkpt><trkpt lat="43.48800840198715" lon="12.309580793754543"><ele>555.6666666666667</ele><time>2026-04-24T07:50:24Z</time></trkpt><trkpt lat="43.48807303708223" lon="12.309595543300588"><ele>554.0</ele><time>2026-04-24T07:50:25Z</time></trkpt><trkpt lat="43.488153807545366" lon="12.309629513628051"><ele>552.3333333333334</ele><time>2026-04-24T07:50:26Z</time></trkpt><trkpt lat="43.488226817348824" lon="12.30965910536439"><ele>550.6666666666666</ele><time>2026-04-24T07:50:27Z</time></trkpt><trkpt lat="43.48831029930083" lon="12.3096860599143"><ele>549.0</ele><time>2026-04-24T07:50:28Z</time></trkpt><trkpt lat="43.48838744843224" lon="12.309720063154977"><ele>549.6666666666666</ele><time>2026-04-24T07:50:29Z</time></trkpt><trkpt lat="43.48846217309874" lon="12.309762612593909"><ele>550.3333333333334</ele><time>2026-04-24T07:50:30Z</time></trkpt><trkpt lat="43.48853942426688" lon="12.309807893395561"><ele>551.0</ele><time>2026-04-24T07:50:31Z</time></trkpt><trkpt lat="43.488616388826486" lon="12.309841590139595"><ele>551.6666666666667</ele><time>2026-04-24T07:50:32Z</time></trkpt><trkpt lat="43.4886923631612" lon="12.309867945086323"><ele>552.3333333333334</ele><time>2026-04-24T07:50:33Z</time></trkpt><trkpt lat="43.488760658220876" lon="12.309880733855067"><ele>553.0</ele><time>2026-04-24T07:50:34Z</time></trkpt><trkpt lat="43.488823595568704" lon="12.30989287278525"><ele>553.0</ele><time>2026-04-24T07:50:35Z</time></trkpt><trkpt lat="43.488890094644326" lon="12.309899491069324"><ele>553.0</ele><time>2026-04-24T07:50:36Z</time></trkpt><trkpt lat="43.48901945118447" lon="12.309909011819093"><ele>553.0</ele><time>2026-04-24T07:50:38Z</time></trkpt><trkpt lat="43.48909302921083" lon="12.309924845405632"><ele>553.0</ele><time>2026-04-24T07:50:39Z</time></trkpt><trkpt lat="43.489162309457114" lon="12.309935675682635"><ele>553.0</ele><time>2026-04-24T07:50:40Z</time></trkpt><trkpt lat="43.489239881827366" lon="12.309907174591176"><ele>553.0</ele><time>2026-04-24T07:50:42Z</time></trkpt><trkpt lat="43.48934356034829" lon="12.309813980439008"><ele>553.0</ele><time>2026-04-24T07:50:44Z</time></trkpt><trkpt lat="43.48941664285149" lon="12.309753658069402"><ele>553.0</ele><time>2026-04-24T07:50:45Z</time></trkpt><trkpt lat="43.48948217397426" lon="12.309706377203199"><ele>553.0</ele><time>2026-04-24T07:50:46Z</time></trkpt><trkpt lat="43.489550757464244" lon="12.30966446968511"><ele>553.0</ele><time>2026-04-24T07:50:47Z</time></trkpt><trkpt lat="43.48962507787345" lon="12.309623115269599"><ele>553.0</ele><time>2026-04-24T07:50:48Z</time></trkpt><trkpt lat="43.489686088531016" lon="12.309579776918337"><ele>553.0</ele><time>2026-04-24T07:50:49Z</time></trkpt><trkpt lat="43.48973819867358" lon="12.30951856848416"><ele>552.0</ele><time>2026-04-24T07:50:50Z</time></trkpt><trkpt lat="43.48978328874234" lon="12.309450409238105"><ele>551.0</ele><time>2026-04-24T07:50:51Z</time></trkpt><trkpt lat="43.489833251037176" lon="12.309388518284342"><ele>550.0</ele><time>2026-04-24T07:50:52Z</time></trkpt><trkpt lat="43.48989875801137" lon="12.30932905264896"><ele>549.0</ele><time>2026-04-24T07:50:53Z</time></trkpt><trkpt lat="43.48996983522485" lon="12.309271473654908"><ele>548.0</ele><time>2026-04-24T07:50:54Z</time></trkpt><trkpt lat="43.49005046723057" lon="12.309243924817963"><ele>547.0</ele><time>2026-04-24T07:50:55Z</time></trkpt><trkpt lat="43.490140724979945" lon="12.309248923646788"><ele>547.0</ele><time>2026-04-24T07:50:56Z</time></trkpt><trkpt lat="43.49024005709919" lon="12.309255830411182"><ele>547.0</ele><time>2026-04-24T07:50:57Z</time></trkpt><trkpt lat="43.49034246178942" lon="12.30925419271702"><ele>547.0</ele><time>2026-04-24T07:50:58Z</time></trkpt><trkpt lat="43.490451162850825" lon="12.309239943248633"><ele>547.0</ele><time>2026-04-24T07:50:59Z</time></trkpt><trkpt lat="43.49055536919021" lon="12.30923136218516"><ele>547.0</ele><time>2026-04-24T07:51:00Z</time></trkpt><trkpt lat="43.49064969871079" lon="12.309231881104346"><ele>548.2</ele><time>2026-04-24T07:51:01Z</time></trkpt><trkpt lat="43.49074908622992" lon="12.309232464955274"><ele>549.4000000000001</ele><time>2026-04-24T07:51:02Z</time></trkpt><trkpt lat="43.49084825231446" lon="12.309260522334204"><ele>550.5999999999999</ele><time>2026-04-24T07:51:03Z</time></trkpt><trkpt lat="43.49094874273473" lon="12.309310987054666"><ele>551.8</ele><time>2026-04-24T07:51:04Z</time></trkpt><trkpt lat="43.491044315131745" lon="12.309383482724888"><ele>553.0</ele><time>2026-04-24T07:51:05Z</time></trkpt><trkpt lat="43.491139800436855" lon="12.309460931608672"><ele>553.0</ele><time>2026-04-24T07:51:06Z</time></trkpt><trkpt lat="43.49123919513733" lon="12.309529969658147"><ele>553.0</ele><time>2026-04-24T07:51:07Z</time></trkpt><trkpt lat="43.491347981655395" lon="12.309590509293562"><ele>553.0</ele><time>2026-04-24T07:51:08Z</time></trkpt><trkpt lat="43.49145844976875" lon="12.30964473956639"><ele>553.0</ele><time>2026-04-24T07:51:09Z</time></trkpt><trkpt lat="43.49156950196339" lon="12.309694869664972"><ele>553.25</ele><time>2026-04-24T07:51:10Z</time></trkpt><trkpt lat="43.491684490313034" lon="12.309732564132895"><ele>553.5</ele><time>2026-04-24T07:51:11Z</time></trkpt><trkpt lat="43.49180470894429" lon="12.30976806794623"><ele>553.75</ele><time>2026-04-24T07:51:12Z</time></trkpt><trkpt lat="43.49192010262325" lon="12.30981173325801"><ele>554.0</ele><time>2026-04-24T07:51:13Z</time></trkpt><trkpt lat="43.49201718418485" lon="12.30988010846833"><ele>551.75</ele><time>2026-04-24T07:51:14Z</time></trkpt><trkpt lat="43.49209260044373" lon="12.30998791838689"><ele>549.5</ele><time>2026-04-24T07:51:15Z</time></trkpt><trkpt lat="43.49214622192044" lon="12.310135996848816"><ele>547.25</ele><time>2026-04-24T07:51:16Z</time></trkpt><trkpt lat="43.49220830350254" lon="12.310289756466139"><ele>545.0</ele><time>2026-04-24T07:51:17Z</time></trkpt><trkpt lat="43.49228729142537" lon="12.310440076014991"><ele>546.25</ele><time>2026-04-24T07:51:18Z</time></trkpt><trkpt lat="43.492374652129364" lon="12.310586443039483"><ele>547.5</ele><time>2026-04-24T07:51:19Z</time></trkpt><trkpt lat="43.49246167445069" lon="12.310741102487139"><ele>548.75</ele><time>2026-04-24T07:51:20Z</time></trkpt><trkpt lat="43.49254737723707" lon="12.310894588090601"><ele>550.0</ele><time>2026-04-24T07:51:21Z</time></trkpt><trkpt lat="43.49262435298529" lon="12.311035106972172"><ele>550.0</ele><time>2026-04-24T07:51:22Z</time></trkpt><trkpt lat="43.49270326655831" lon="12.311164192039664"><ele>550.0</ele><time>2026-04-24T07:51:23Z</time></trkpt><trkpt lat="43.492793214746335" lon="12.311281064720541"><ele>550.0</ele><time>2026-04-24T07:51:24Z</time></trkpt><trkpt lat="43.49289003384747" lon="12.31138685179134"><ele>550.0</ele><time>2026-04-24T07:51:25Z</time></trkpt><trkpt lat="43.49299674884323" lon="12.311478521949331"><ele>550.25</ele><time>2026-04-24T07:51:26Z</time></trkpt><trkpt lat="43.49310312895475" lon="12.311574792432909"><ele>550.5</ele><time>2026-04-24T07:51:27Z</time></trkpt><trkpt lat="43.49320903995369" lon="12.311681906624175"><ele>550.75</ele><time>2026-04-24T07:51:28Z</time></trkpt><trkpt lat="43.493312619666604" lon="12.311796533907604"><ele>551.0</ele><time>2026-04-24T07:51:29Z</time></trkpt><trkpt lat="43.49341255101057" lon="12.311913215323044"><ele>551.0</ele><time>2026-04-24T07:51:30Z</time></trkpt><trkpt lat="43.49349797504835" lon="12.31203516015244"><ele>551.0</ele><time>2026-04-24T07:51:31Z</time></trkpt><trkpt lat="43.49358732680312" lon="12.312162562442259"><ele>551.0</ele><time>2026-04-24T07:51:32Z</time></trkpt><trkpt lat="43.49367724245797" lon="12.312283307043865"><ele>551.0</ele><time>2026-04-24T07:51:33Z</time></trkpt><trkpt lat="43.49376091834497" lon="12.31239860084665"><ele>550.75</ele><time>2026-04-24T07:51:34Z</time></trkpt><trkpt lat="43.493849893789914" lon="12.312512026030467"><ele>550.5</ele><time>2026-04-24T07:51:35Z</time></trkpt><trkpt lat="43.4939419629297" lon="12.31262236035513"><ele>550.25</ele><time>2026-04-24T07:51:36Z</time></trkpt><trkpt lat="43.494033344634325" lon="12.312733995304479"><ele>550.0</ele><time>2026-04-24T07:51:37Z</time></trkpt><trkpt lat="43.494129518375914" lon="12.312846458462996"><ele>550.0</ele><time>2026-04-24T07:51:38Z</time></trkpt><trkpt lat="43.494226338505094" lon="12.312950302121756"><ele>550.0</ele><time>2026-04-24T07:51:39Z</time></trkpt><trkpt lat="43.494323372957076" lon="12.313061109633093"><ele>550.0</ele><time>2026-04-24T07:51:40Z</time></trkpt><trkpt lat="43.494419730890925" lon="12.313164640152008"><ele>550.0</ele><time>2026-04-24T07:51:41Z</time></trkpt><trkpt lat="43.49452565381517" lon="12.313272136392738"><ele>550.5</ele><time>2026-04-24T07:51:42Z</time></trkpt><trkpt lat="43.49463068552259" lon="12.313370206992655"><ele>551.0</ele><time>2026-04-24T07:51:43Z</time></trkpt><trkpt lat="43.49473847688253" lon="12.31346742537279"><ele>551.5</ele><time>2026-04-24T07:51:44Z</time></trkpt><trkpt lat="43.494843694998416" lon="12.313565643072835"><ele>552.0</ele><time>2026-04-24T07:51:45Z</time></trkpt><trkpt lat="43.494952565279554" lon="12.313670191551097"><ele>552.0</ele><time>2026-04-24T07:51:46Z</time></trkpt><trkpt lat="43.4950618195613" lon="12.31377313766856"><ele>552.0</ele><time>2026-04-24T07:51:47Z</time></trkpt><trkpt lat="43.49517067735982" lon="12.313871473910412"><ele>552.0</ele><time>2026-04-24T07:51:48Z</time></trkpt><trkpt lat="43.49528051757155" lon="12.313970363042673"><ele>552.0</ele><time>2026-04-24T07:51:49Z</time></trkpt><trkpt lat="43.495394423028245" lon="12.314061103488473"><ele>553.25</ele><time>2026-04-24T07:51:50Z</time></trkpt><trkpt lat="43.49551266838571" lon="12.314158049171152"><ele>554.5</ele><time>2026-04-24T07:51:51Z</time></trkpt><trkpt lat="43.49563195924008" lon="12.314251800444163"><ele>555.75</ele><time>2026-04-24T07:51:52Z</time></trkpt><trkpt lat="43.495749603806864" lon="12.314342370490158"><ele>557.0</ele><time>2026-04-24T07:51:53Z</time></trkpt><trkpt lat="43.49586932293035" lon="12.314432602525248"><ele>557.0</ele><time>2026-04-24T07:51:54Z</time></trkpt><trkpt lat="43.49599561121587" lon="12.314517290652896"><ele>557.0</ele><time>2026-04-24T07:51:55Z</time></trkpt><trkpt lat="43.496130414902055" lon="12.314588000672106"><ele>557.0</ele><time>2026-04-24T07:51:56Z</time></trkpt><trkpt lat="43.49626789334355" lon="12.314643930246277"><ele>557.0</ele><time>2026-04-24T07:51:57Z</time></trkpt><trkpt lat="43.496409429240465" lon="12.314690890515926"><ele>556.25</ele><time>2026-04-24T07:51:58Z</time></trkpt><trkpt lat="43.4965486296114" lon="12.314747884504987"><ele>555.5</ele><time>2026-04-24T07:51:59Z</time></trkpt><trkpt lat="43.496684859186225" lon="12.314810521169525"><ele>554.75</ele><time>2026-04-24T07:52:00Z</time></trkpt><trkpt lat="43.49682378909137" lon="12.314871933758676"><ele>554.0</ele><time>2026-04-24T07:52:01Z</time></trkpt><trkpt lat="43.496952437922836" lon="12.314933721075302"><ele>554.0</ele><time>2026-04-24T07:52:02Z</time></trkpt><trkpt lat="43.49706646469451" lon="12.315006153893055"><ele>554.0</ele><time>2026-04-24T07:52:03Z</time></trkpt><trkpt lat="43.4971820724776" lon="12.315097665760488"><ele>554.0</ele><time>2026-04-24T07:52:04Z</time></trkpt><trkpt lat="43.49729538404895" lon="12.315191581229755"><ele>554.0</ele><time>2026-04-24T07:52:05Z</time></trkpt><trkpt lat="43.49740206557285" lon="12.315290415665244"><ele>556.0</ele><time>2026-04-24T07:52:06Z</time></trkpt><trkpt lat="43.49749930175034" lon="12.315393519592947"><ele>558.0</ele><time>2026-04-24T07:52:07Z</time></trkpt><trkpt lat="43.497602583997896" lon="12.315488381046794"><ele>560.0</ele><time>2026-04-24T07:52:08Z</time></trkpt><trkpt lat="43.49771021359571" lon="12.31554788411993"><ele>562.0</ele><time>2026-04-24T07:52:09Z</time></trkpt><trkpt lat="43.497835423561376" lon="12.315570578123602"><ele>562.75</ele><time>2026-04-24T07:52:10Z</time></trkpt><trkpt lat="43.49795287182124" lon="12.315552007168543"><ele>563.5</ele><time>2026-04-24T07:52:11Z</time></trkpt><trkpt lat="43.498083464560075" lon="12.315527930258318"><ele>564.25</ele><time>2026-04-24T07:52:12Z</time></trkpt><trkpt lat="43.498208942597735" lon="12.315508151079488"><ele>565.0</ele><time>2026-04-24T07:52:13Z</time></trkpt><trkpt lat="43.49834615171954" lon="12.315501499073099"><ele>565.0</ele><time>2026-04-24T07:52:14Z</time></trkpt><trkpt lat="43.498481411477144" lon="12.315520635427966"><ele>565.0</ele><time>2026-04-24T07:52:15Z</time></trkpt><trkpt lat="43.49861532564071" lon="12.315563871805994"><ele>565.0</ele><time>2026-04-24T07:52:16Z</time></trkpt><trkpt lat="43.498755283287345" lon="12.315601555856029"><ele>565.0</ele><time>2026-04-24T07:52:17Z</time></trkpt><trkpt lat="43.49890010378772" lon="12.315645122964971"><ele>570.0</ele><time>2026-04-24T07:52:18Z</time></trkpt><trkpt lat="43.499050912494724" lon="12.315689147965472"><ele>575.0</ele><time>2026-04-24T07:52:19Z</time></trkpt><trkpt lat="43.49919562718272" lon="12.31573388666038"><ele>580.0</ele><time>2026-04-24T07:52:20Z</time></trkpt><trkpt lat="43.49934395388577" lon="12.315788660196473"><ele>580.0</ele><time>2026-04-24T07:52:21Z</time></trkpt><trkpt lat="43.49949005439325" lon="12.31584547530861"><ele>580.0</ele><time>2026-04-24T07:52:22Z</time></trkpt><trkpt lat="43.49963140648398" lon="12.31589458773729"><ele>580.0</ele><time>2026-04-24T07:52:23Z</time></trkpt><trkpt lat="43.49975903763489" lon="12.315925853908121"><ele>580.0</ele><time>2026-04-24T07:52:24Z</time></trkpt><trkpt lat="43.499885321875304" lon="12.315947895571618"><ele>579.25</ele><time>2026-04-24T07:52:25Z</time></trkpt><trkpt lat="43.500005420984806" lon="12.315976327020591"><ele>578.5</ele><time>2026-04-24T07:52:26Z</time></trkpt><trkpt lat="43.50012886915599" lon="12.316002800098941"><ele>577.75</ele><time>2026-04-24T07:52:27Z</time></trkpt><trkpt lat="43.50023909594068" lon="12.316021056135405"><ele>577.0</ele><time>2026-04-24T07:52:28Z</time></trkpt><trkpt lat="43.50034493001619" lon="12.316033990482184"><ele>575.2</ele><time>2026-04-24T07:52:29Z</time></trkpt><trkpt lat="43.5004469410594" lon="12.316057720384993"><ele>573.4000000000001</ele><time>2026-04-24T07:52:30Z</time></trkpt><trkpt lat="43.500551768771274" lon="12.31610845139108"><ele>571.5999999999999</ele><time>2026-04-24T07:52:31Z</time></trkpt><trkpt lat="43.50065077317202" lon="12.316179490118554"><ele>569.8</ele><time>2026-04-24T07:52:32Z</time></trkpt><trkpt lat="43.50073829979454" lon="12.316279791591375"><ele>568.0</ele><time>2026-04-24T07:52:33Z</time></trkpt><trkpt lat="43.50080740411083" lon="12.31640467676307"><ele>574.0</ele><time>2026-04-24T07:52:34Z</time></trkpt><trkpt lat="43.50087919470318" lon="12.316535530545632"><ele>580.0</ele><time>2026-04-24T07:52:35Z</time></trkpt><trkpt lat="43.500955611954204" lon="12.316662630694207"><ele>586.0</ele><time>2026-04-24T07:52:36Z</time></trkpt><trkpt lat="43.50103204653182" lon="12.31679889578557"><ele>592.0</ele><time>2026-04-24T07:52:37Z</time></trkpt><trkpt lat="43.50109765738777" lon="12.316941787477191"><ele>592.0</ele><time>2026-04-24T07:52:38Z</time></trkpt><trkpt lat="43.501172003165834" lon="12.317071001840535"><ele>592.0</ele><time>2026-04-24T07:52:39Z</time></trkpt><trkpt lat="43.50126980427065" lon="12.317184007838302"><ele>592.0</ele><time>2026-04-24T07:52:40Z</time></trkpt><trkpt lat="43.50137500233935" lon="12.317283807077075"><ele>592.0</ele><time>2026-04-24T07:52:41Z</time></trkpt><trkpt lat="43.50147984825102" lon="12.317390351990868"><ele>591.5</ele><time>2026-04-24T07:52:42Z</time></trkpt><trkpt lat="43.50157725492764" lon="12.317503563563772"><ele>591.0</ele><time>2026-04-24T07:52:43Z</time></trkpt><trkpt lat="43.501673067872034" lon="12.317624594237191"><ele>590.5</ele><time>2026-04-24T07:52:44Z</time></trkpt><trkpt lat="43.50176312805481" lon="12.317743295588595"><ele>590.0</ele><time>2026-04-24T07:52:45Z</time></trkpt><trkpt lat="43.501844615084934" lon="12.317853643172095"><ele>590.0</ele><time>2026-04-24T07:52:46Z</time></trkpt><trkpt lat="43.501919961548275" lon="12.317959317780756"><ele>590.0</ele><time>2026-04-24T07:52:47Z</time></trkpt><trkpt lat="43.501986362375064" lon="12.318054101225083"><ele>590.0</ele><time>2026-04-24T07:52:48Z</time></trkpt><trkpt lat="43.50204052523458" lon="12.3181541644371"><ele>590.0</ele><time>2026-04-24T07:52:49Z</time></trkpt><trkpt lat="43.50206885888042" lon="12.318267350234512"><ele>590.0</ele><time>2026-04-24T07:52:50Z</time></trkpt><trkpt lat="43.50205327841625" lon="12.318401160606292"><ele>593.4</ele><time>2026-04-24T07:52:51Z</time></trkpt><trkpt lat="43.50200531997441" lon="12.318527550999946"><ele>596.8</ele><time>2026-04-24T07:52:52Z</time></trkpt><trkpt lat="43.501943820556164" lon="12.318646485366848"><ele>600.2</ele><time>2026-04-24T07:52:53Z</time></trkpt><trkpt lat="43.501896260124404" lon="12.318781283538511"><ele>603.6</ele><time>2026-04-24T07:52:54Z</time></trkpt><trkpt lat="43.50186154369292" lon="12.318933919543309"><ele>607.0</ele><time>2026-04-24T07:52:55Z</time></trkpt><trkpt lat="43.501847966332214" lon="12.319083252999794"><ele>607.8000000000001</ele><time>2026-04-24T07:52:56Z</time></trkpt><trkpt lat="43.50184561996195" lon="12.319226269675472"><ele>608.6</ele><time>2026-04-24T07:52:57Z</time></trkpt><trkpt lat="43.50185567394891" lon="12.319364463999584"><ele>609.4000000000001</ele><time>2026-04-24T07:52:58Z</time></trkpt><trkpt lat="43.501883412858724" lon="12.319469903753953"><ele>610.2</ele><time>2026-04-24T07:52:59Z</time></trkpt><trkpt lat="43.50193852077965" lon="12.31955158968886"><ele>611.0</ele><time>2026-04-24T07:53:00Z</time></trkpt><trkpt lat="43.50203119101163" lon="12.31958747194039"><ele>607.0</ele><time>2026-04-24T07:53:01Z</time></trkpt><trkpt lat="43.50213148896016" lon="12.319600354829307"><ele>603.0</ele><time>2026-04-24T07:53:02Z</time></trkpt><trkpt lat="43.50222960590584" lon="12.31959931440239"><ele>599.0</ele><time>2026-04-24T07:53:03Z</time></trkpt><trkpt lat="43.50232510594209" lon="12.319603054437737"><ele>595.0</ele><time>2026-04-24T07:53:04Z</time></trkpt><trkpt lat="43.502415615767916" lon="12.31964615554976"><ele>591.0</ele><time>2026-04-24T07:53:05Z</time></trkpt><trkpt lat="43.502497139674496" lon="12.319728044555433"><ele>594.2</ele><time>2026-04-24T07:53:06Z</time></trkpt><trkpt lat="43.50255521250289" lon="12.319850444806093"><ele>597.4000000000001</ele><time>2026-04-24T07:53:07Z</time></trkpt><trkpt lat="43.502590208301946" lon="12.319993401197177"><ele>600.6</ele><time>2026-04-24T07:53:08Z</time></trkpt><trkpt lat="43.50262587840271" lon="12.32013689742007"><ele>603.8000000000001</ele><time>2026-04-24T07:53:09Z</time></trkpt><trkpt lat="43.502683279630396" lon="12.320250568182539"><ele>607.0</ele><time>2026-04-24T07:53:10Z</time></trkpt><trkpt lat="43.50277377876178" lon="12.320345446528096"><ele>607.0</ele><time>2026-04-24T07:53:11Z</time></trkpt><trkpt lat="43.50286798440982" lon="12.320397473969047"><ele>607.0</ele><time>2026-04-24T07:53:12Z</time></trkpt><trkpt lat="43.50295668075489" lon="12.32043113603939"><ele>607.0</ele><time>2026-04-24T07:53:13Z</time></trkpt><trkpt lat="43.50303142565952" lon="12.320448169111817"><ele>607.0</ele><time>2026-04-24T07:53:14Z</time></trkpt><trkpt lat="43.50309547276931" lon="12.32045915049343"><ele>607.0</ele><time>2026-04-24T07:53:15Z</time></trkpt><trkpt lat="43.503099110669375" lon="12.320546802709579"><ele>607.0</ele><time>2026-04-24T07:53:18Z</time></trkpt><trkpt lat="43.50298424080657" lon="12.320560099068796"><ele>607.0</ele><time>2026-04-24T07:53:20Z</time></trkpt><trkpt lat="43.502913774333706" lon="12.320536513825706"><ele>607.0</ele><time>2026-04-24T07:53:21Z</time></trkpt><trkpt lat="43.50284219489728" lon="12.320509292462962"><ele>607.0</ele><time>2026-04-24T07:53:22Z</time></trkpt><trkpt lat="43.50275635574128" lon="12.320458720039124"><ele>607.0</ele><time>2026-04-24T07:53:23Z</time></trkpt><trkpt lat="43.50267906885204" lon="12.320393333701011"><ele>607.0</ele><time>2026-04-24T07:53:24Z</time></trkpt><trkpt lat="43.502606844302214" lon="12.320336462723656"><ele>607.0</ele><time>2026-04-24T07:53:25Z</time></trkpt><trkpt lat="43.50251693256687" lon="12.32028192766279"><ele>607.0</ele><time>2026-04-24T07:53:26Z</time></trkpt><trkpt lat="43.50243491906466" lon="12.320237159685341"><ele>607.0</ele><time>2026-04-24T07:53:27Z</time></trkpt><trkpt lat="43.502369639708" lon="12.3202189325579"><ele>607.0</ele><time>2026-04-24T07:53:28Z</time></trkpt><trkpt lat="43.50230248334493" lon="12.320203843289839"><ele>607.0</ele><time>2026-04-24T07:53:29Z</time></trkpt><trkpt lat="43.50222040069584" lon="12.320194200470699"><ele>607.0</ele><time>2026-04-24T07:53:30Z</time></trkpt><trkpt lat="43.50213891883202" lon="12.32019251292926"><ele>607.0</ele><time>2026-04-24T07:53:31Z</time></trkpt><trkpt lat="43.50205167067303" lon="12.3201834274239"><ele>607.6666666666667</ele><time>2026-04-24T07:53:32Z</time></trkpt><trkpt lat="43.50196503835294" lon="12.320172427365405"><ele>608.3333333333334</ele><time>2026-04-24T07:53:33Z</time></trkpt><trkpt lat="43.50189060606552" lon="12.320161707061658"><ele>609.0</ele><time>2026-04-24T07:53:34Z</time></trkpt><trkpt lat="43.50182857073822" lon="12.320120477963137"><ele>609.6666666666666</ele><time>2026-04-24T07:53:35Z</time></trkpt><trkpt lat="43.50176459887807" lon="12.320072517073683"><ele>610.3333333333333</ele><time>2026-04-24T07:53:36Z</time></trkpt><trkpt lat="43.501703040835054" lon="12.320020978886896"><ele>611.0</ele><time>2026-04-24T07:53:37Z</time></trkpt><trkpt lat="43.5016311304602" lon="12.319973369938372"><ele>611.0000000000001</ele><time>2026-04-24T07:53:38Z</time></trkpt><trkpt lat="43.5015637570275" lon="12.319917554907237"><ele>611.0</ele><time>2026-04-24T07:53:39Z</time></trkpt><trkpt lat="43.501514704100444" lon="12.319859313664223"><ele>611.0</ele><time>2026-04-24T07:53:40Z</time></trkpt><trkpt lat="43.50145456319578" lon="12.319796404656621"><ele>611.0</ele><time>2026-04-24T07:53:41Z</time></trkpt><trkpt lat="43.50140485779576" lon="12.319739375514876"><ele>611.0</ele><time>2026-04-24T07:53:42Z</time></trkpt><trkpt lat="43.50136330608116" lon="12.319653261743474"><ele>611.0000000000001</ele><time>2026-04-24T07:53:44Z</time></trkpt><trkpt lat="43.50137224155042" lon="12.319539196426794"><ele>611.0</ele><time>2026-04-24T07:53:50Z</time></trkpt><trkpt lat="43.50139740737237" lon="12.3193960023481"><ele>611.0</ele><time>2026-04-24T07:53:52Z</time></trkpt><trkpt lat="43.50139791450745" lon="12.319212759284518"><ele>611.0</ele><time>2026-04-24T07:53:54Z</time></trkpt><trkpt lat="43.50139707277807" lon="12.319107303780314"><ele>611.0</ele><time>2026-04-24T07:53:55Z</time></trkpt><trkpt lat="43.501417577139456" lon="12.319006111835472"><ele>611.0</ele><time>2026-04-24T07:53:56Z</time></trkpt><trkpt lat="43.501421331931645" lon="12.318914818219323"><ele>611.0</ele><time>2026-04-24T07:53:57Z</time></trkpt><trkpt lat="43.50140380010559" lon="12.318831454991743"><ele>611.0</ele><time>2026-04-24T07:53:58Z</time></trkpt><trkpt lat="43.50132324812965" lon="12.318706011125544"><ele>610.3333333333333</ele><time>2026-04-24T07:54:00Z</time></trkpt><trkpt lat="43.50127039326477" lon="12.318632188614782"><ele>609.6666666666666</ele><time>2026-04-24T07:54:01Z</time></trkpt><trkpt lat="43.5012184025604" lon="12.318550375736997"><ele>609.0</ele><time>2026-04-24T07:54:02Z</time></trkpt><trkpt lat="43.50117675543973" lon="12.318458246015442"><ele>608.3333333333334</ele><time>2026-04-24T07:54:03Z</time></trkpt><trkpt lat="43.50113972073218" lon="12.318289512310445"><ele>607.6666666666667</ele><time>2026-04-24T07:54:05Z</time></trkpt><trkpt lat="43.50109060761" lon="12.318201994860088"><ele>607.0</ele><time>2026-04-24T07:54:06Z</time></trkpt><trkpt lat="43.50104593827374" lon="12.31813649816919"><ele>608.1666666666667</ele><time>2026-04-24T07:54:07Z</time></trkpt><trkpt lat="43.500994387771975" lon="12.318065432621902"><ele>609.3333333333334</ele><time>2026-04-24T07:54:08Z</time></trkpt><trkpt lat="43.50089741482578" lon="12.31802984500463"><ele>610.5</ele><time>2026-04-24T07:54:10Z</time></trkpt><trkpt lat="43.50082548284138" lon="12.318058058343428"><ele>611.6666666666666</ele><time>2026-04-24T07:54:11Z</time></trkpt><trkpt lat="43.50076246149242" lon="12.318107348105306"><ele>612.8333333333333</ele><time>2026-04-24T07:54:12Z</time></trkpt><trkpt lat="43.500687979601636" lon="12.318165618675618"><ele>614.0</ele><time>2026-04-24T07:54:13Z</time></trkpt><trkpt lat="43.5006227341063" lon="12.318238349169377"><ele>615.5714285714286</ele><time>2026-04-24T07:54:14Z</time></trkpt><trkpt lat="43.500562618425974" lon="12.318325609442265"><ele>617.1428571428571</ele><time>2026-04-24T07:54:15Z</time></trkpt><trkpt lat="43.500518941180054" lon="12.318401424267027"><ele>618.7142857142858</ele><time>2026-04-24T07:54:16Z</time></trkpt><trkpt lat="43.500469248887526" lon="12.318467949371227"><ele>620.2857142857142</ele><time>2026-04-24T07:54:17Z</time></trkpt><trkpt lat="43.5004247752085" lon="12.318542935119767"><ele>621.8571428571429</ele><time>2026-04-24T07:54:18Z</time></trkpt><trkpt lat="43.50039483940698" lon="12.318629964662678"><ele>623.4285714285714</ele><time>2026-04-24T07:54:19Z</time></trkpt><trkpt lat="43.50036590946705" lon="12.318717963732114"><ele>625.0</ele><time>2026-04-24T07:54:20Z</time></trkpt><trkpt lat="43.500328965728585" lon="12.318793969394463"><ele>625.0</ele><time>2026-04-24T07:54:21Z</time></trkpt><trkpt lat="43.500274562549514" lon="12.318871884338764"><ele>625.0</ele><time>2026-04-24T07:54:22Z</time></trkpt><trkpt lat="43.500205652851726" lon="12.318937257304093"><ele>625.0</ele><time>2026-04-24T07:54:23Z</time></trkpt><trkpt lat="43.50014060643544" lon="12.318989949068756"><ele>625.0</ele><time>2026-04-24T07:54:24Z</time></trkpt><trkpt lat="43.50006085367075" lon="12.319063726010059"><ele>625.0</ele><time>2026-04-24T07:54:25Z</time></trkpt><trkpt lat="43.499994170307076" lon="12.319144336975812"><ele>625.0</ele><time>2026-04-24T07:54:26Z</time></trkpt><trkpt lat="43.49994377070797" lon="12.319229718626959"><ele>627.6</ele><time>2026-04-24T07:54:27Z</time></trkpt><trkpt lat="43.499900584138516" lon="12.319318276607248"><ele>630.2</ele><time>2026-04-24T07:54:28Z</time></trkpt><trkpt lat="43.49985059518426" lon="12.319432449535823"><ele>632.8</ele><time>2026-04-24T07:54:29Z</time></trkpt><trkpt lat="43.499789611793005" lon="12.319541266750349"><ele>635.4</ele><time>2026-04-24T07:54:30Z</time></trkpt><trkpt lat="43.49972183709096" lon="12.319636035891207"><ele>638.0</ele><time>2026-04-24T07:54:31Z</time></trkpt><trkpt lat="43.499654854773624" lon="12.31971242347249"><ele>637.8333333333333</ele><time>2026-04-24T07:54:32Z</time></trkpt><trkpt lat="43.49958387614397" lon="12.319750484552369"><ele>637.6666666666666</ele><time>2026-04-24T07:54:33Z</time></trkpt><trkpt lat="43.499509050770456" lon="12.319810082691658"><ele>637.5</ele><time>2026-04-24T07:54:34Z</time></trkpt><trkpt lat="43.49942761641582" lon="12.3198351030317"><ele>637.3333333333334</ele><time>2026-04-24T07:54:35Z</time></trkpt><trkpt lat="43.49935110855692" lon="12.319841870786542"><ele>637.1666666666667</ele><time>2026-04-24T07:54:36Z</time></trkpt><trkpt lat="43.499273769786086" lon="12.31985259804014"><ele>637.0</ele><time>2026-04-24T07:54:37Z</time></trkpt><trkpt lat="43.499205449742675" lon="12.319869066486923"><ele>637.0</ele><time>2026-04-24T07:54:38Z</time></trkpt><trkpt lat="43.49912281074726" lon="12.319872406644846"><ele>637.0</ele><time>2026-04-24T07:54:39Z</time></trkpt><trkpt lat="43.499042495174784" lon="12.3198649537384"><ele>637.0</ele><time>2026-04-24T07:54:40Z</time></trkpt><trkpt lat="43.49896745587232" lon="12.319839108403334"><ele>637.0</ele><time>2026-04-24T07:54:41Z</time></trkpt><trkpt lat="43.49889216553678" lon="12.319801056076475"><ele>637.0</ele><time>2026-04-24T07:54:42Z</time></trkpt><trkpt lat="43.498832139031855" lon="12.319759053750671"><ele>637.0</ele><time>2026-04-24T07:54:43Z</time></trkpt><trkpt lat="43.49876788447042" lon="12.319714768221035"><ele>634.6666666666667</ele><time>2026-04-24T07:54:44Z</time></trkpt><trkpt lat="43.49866009534095" lon="12.319632491994872"><ele>632.3333333333334</ele><time>2026-04-24T07:54:46Z</time></trkpt><trkpt lat="43.498552978878614" lon="12.31962546170263"><ele>630.0</ele><time>2026-04-24T07:54:48Z</time></trkpt><trkpt lat="43.4984855807356" lon="12.319656150180828"><ele>627.6666666666666</ele><time>2026-04-24T07:54:49Z</time></trkpt><trkpt lat="43.49841863842384" lon="12.31967697689485"><ele>625.3333333333333</ele><time>2026-04-24T07:54:50Z</time></trkpt><trkpt lat="43.49834545758013" lon="12.319687404356143"><ele>623.0</ele><time>2026-04-24T07:54:51Z</time></trkpt><trkpt lat="43.498282291202266" lon="12.31969622314331"><ele>623.0</ele><time>2026-04-24T07:54:52Z</time></trkpt><trkpt lat="43.498175024145986" lon="12.319692954810133"><ele>623.0</ele><time>2026-04-24T07:54:54Z</time></trkpt><trkpt lat="43.49806685221419" lon="12.319657078510446"><ele>623.0</ele><time>2026-04-24T07:54:56Z</time></trkpt><trkpt lat="43.49796464153449" lon="12.319622772677837"><ele>623.0</ele><time>2026-04-24T07:54:58Z</time></trkpt><trkpt lat="43.497914394200635" lon="12.319734894290136"><ele>623.0</ele><time>2026-04-24T07:55:00Z</time></trkpt><trkpt lat="43.497924122200295" lon="12.319880123605191"><ele>623.3333333333333</ele><time>2026-04-24T07:55:02Z</time></trkpt><trkpt lat="43.49794335904771" lon="12.31997371675645"><ele>623.6666666666666</ele><time>2026-04-24T07:55:03Z</time></trkpt><trkpt lat="43.49796530124324" lon="12.320075214630632"><ele>624.0</ele><time>2026-04-24T07:55:04Z</time></trkpt><trkpt lat="43.49797202154967" lon="12.320164638579769"><ele>624.3333333333334</ele><time>2026-04-24T07:55:05Z</time></trkpt><trkpt lat="43.497966943085075" lon="12.320257787530556"><ele>624.6666666666667</ele><time>2026-04-24T07:55:06Z</time></trkpt><trkpt lat="43.497957078497656" lon="12.32036537575098"><ele>625.0</ele><time>2026-04-24T07:55:07Z</time></trkpt><trkpt lat="43.49794824915436" lon="12.32054184759651"><ele>622.5</ele><time>2026-04-24T07:55:09Z</time></trkpt><trkpt lat="43.49794193679886" lon="12.320641677812555"><ele>620.0</ele><time>2026-04-24T07:55:10Z</time></trkpt><trkpt lat="43.497945852496876" lon="12.320738564378445"><ele>617.5</ele><time>2026-04-24T07:55:11Z</time></trkpt><trkpt lat="43.49796674360275" lon="12.32082740102066"><ele>615.0</ele><time>2026-04-24T07:55:12Z</time></trkpt><trkpt lat="43.49798915907699" lon="12.320910623063142"><ele>612.5</ele><time>2026-04-24T07:55:13Z</time></trkpt><trkpt lat="43.49800211442128" lon="12.32099641174198"><ele>610.0</ele><time>2026-04-24T07:55:14Z</time></trkpt><trkpt lat="43.49800645882233" lon="12.321153178523701"><ele>610.0</ele><time>2026-04-24T07:55:16Z</time></trkpt><trkpt lat="43.49797562941514" lon="12.321288389548705"><ele>610.0</ele><time>2026-04-24T07:55:18Z</time></trkpt><trkpt lat="43.497890036374976" lon="12.321413813169624"><ele>610.0</ele><time>2026-04-24T07:55:19.999Z</time></trkpt><trkpt lat="43.49784196238645" lon="12.321495921225294"><ele>610.0</ele><time>2026-04-24T07:55:20.999Z</time></trkpt><trkpt lat="43.49780502919146" lon="12.32159138373992"><ele>610.0</ele><time>2026-04-24T07:55:21.999Z</time></trkpt><trkpt lat="43.49777307183393" lon="12.321701952566256"><ele>606.2</ele><time>2026-04-24T07:55:22.999Z</time></trkpt><trkpt lat="43.49775308409893" lon="12.321825798341077"><ele>602.4</ele><time>2026-04-24T07:55:23.999Z</time></trkpt><trkpt lat="43.49774105739932" lon="12.32196762513944"><ele>598.6</ele><time>2026-04-24T07:55:24.999Z</time></trkpt><trkpt lat="43.4977269127025" lon="12.32211395562091"><ele>594.8</ele><time>2026-04-24T07:55:26Z</time></trkpt><trkpt lat="43.497704463730855" lon="12.322257386972892"><ele>591.0</ele><time>2026-04-24T07:55:27Z</time></trkpt><trkpt lat="43.49769259024257" lon="12.322367578052898"><ele>591.0</ele><time>2026-04-24T07:55:28Z</time></trkpt><trkpt lat="43.49768455105065" lon="12.32248267198872"><ele>591.0</ele><time>2026-04-24T07:55:29Z</time></trkpt><trkpt lat="43.49767261457683" lon="12.322594448075389"><ele>591.0</ele><time>2026-04-24T07:55:30Z</time></trkpt><trkpt lat="43.49763596142218" lon="12.32266647379598"><ele>591.0</ele><time>2026-04-24T07:55:31Z</time></trkpt><trkpt lat="43.49758069502956" lon="12.322765741187446"><ele>591.0</ele><time>2026-04-24T07:55:32Z</time></trkpt><trkpt lat="43.497520194668446" lon="12.322859164964125"><ele>591.0</ele><time>2026-04-24T07:55:33Z</time></trkpt><trkpt lat="43.497453247631086" lon="12.322973534677748"><ele>591.0</ele><time>2026-04-24T07:55:34Z</time></trkpt><trkpt lat="43.49739479807248" lon="12.32306316392983"><ele>591.0</ele><time>2026-04-24T07:55:35Z</time></trkpt><trkpt lat="43.49733247530612" lon="12.32313533452647"><ele>591.0</ele><time>2026-04-24T07:55:36Z</time></trkpt><trkpt lat="43.49726239870188" lon="12.32318506335842"><ele>591.0</ele><time>2026-04-24T07:55:37Z</time></trkpt><trkpt lat="43.497182873810395" lon="12.323218801875571"><ele>591.0</ele><time>2026-04-24T07:55:38Z</time></trkpt><trkpt lat="43.49709027450629" lon="12.323261979449686"><ele>591.0</ele><time>2026-04-24T07:55:39Z</time></trkpt><trkpt lat="43.49700063154558" lon="12.323317457396975"><ele>591.0</ele><time>2026-04-24T07:55:40Z</time></trkpt><trkpt lat="43.496910623700735" lon="12.323382299116247"><ele>591.0</ele><time>2026-04-24T07:55:41Z</time></trkpt><trkpt lat="43.496825940880505" lon="12.323457833818855"><ele>591.0</ele><time>2026-04-24T07:55:42Z</time></trkpt><trkpt lat="43.49675373870497" lon="12.323525056287327"><ele>591.0</ele><time>2026-04-24T07:55:43Z</time></trkpt><trkpt lat="43.496686277921114" lon="12.323592036132553"><ele>591.0</ele><time>2026-04-24T07:55:44Z</time></trkpt><trkpt lat="43.49661230158727" lon="12.323653759409181"><ele>591.0</ele><time>2026-04-24T07:55:45Z</time></trkpt><trkpt lat="43.4965455665132" lon="12.323665404728366"><ele>591.0</ele><time>2026-04-24T07:55:46Z</time></trkpt><trkpt lat="43.496471736588525" lon="12.323710179765875"><ele>591.0</ele><time>2026-04-24T07:55:47Z</time></trkpt><trkpt lat="43.49641263601503" lon="12.323771504285611"><ele>591.0</ele><time>2026-04-24T07:55:48Z</time></trkpt><trkpt lat="43.496375710368675" lon="12.323843298487368"><ele>591.0</ele><time>2026-04-24T07:55:49Z</time></trkpt><trkpt lat="43.496350143625996" lon="12.323984308667507"><ele>591.0</ele><time>2026-04-24T07:55:51Z</time></trkpt><trkpt lat="43.496415520883914" lon="12.324097778429039"><ele>591.5</ele><time>2026-04-24T07:55:53Z</time></trkpt><trkpt lat="43.496444937125965" lon="12.324180836242626"><ele>592.0</ele><time>2026-04-24T07:55:55Z</time></trkpt><trkpt lat="43.496370482925556" lon="12.32428473925245"><ele>592.5</ele><time>2026-04-24T07:55:57Z</time></trkpt><trkpt lat="43.496317985361344" lon="12.324338453296367"><ele>593.0</ele><time>2026-04-24T07:55:58Z</time></trkpt><trkpt lat="43.496254981988294" lon="12.324385839982416"><ele>593.5</ele><time>2026-04-24T07:55:59Z</time></trkpt><trkpt lat="43.49619186845082" lon="12.32442894011698"><ele>594.0</ele><time>2026-04-24T07:56:00Z</time></trkpt><trkpt lat="43.49612653037058" lon="12.32449776193691"><ele>595.5</ele><time>2026-04-24T07:56:01Z</time></trkpt><trkpt lat="43.4960635151983" lon="12.324565618492315"><ele>597.0</ele><time>2026-04-24T07:56:02Z</time></trkpt><trkpt lat="43.4960011539444" lon="12.324619145663668"><ele>598.5</ele><time>2026-04-24T07:56:03Z</time></trkpt><trkpt lat="43.49592799053319" lon="12.324669321808388"><ele>600.0</ele><time>2026-04-24T07:56:04Z</time></trkpt><trkpt lat="43.49585916288327" lon="12.324702397805083"><ele>601.5</ele><time>2026-04-24T07:56:05Z</time></trkpt><trkpt lat="43.495778266069514" lon="12.32475121666443"><ele>603.0</ele><time>2026-04-24T07:56:06Z</time></trkpt><trkpt lat="43.49571003127128" lon="12.324810203794742"><ele>603.8</ele><time>2026-04-24T07:56:07Z</time></trkpt><trkpt lat="43.495596441530985" lon="12.324862865590209"><ele>604.5999999999999</ele><time>2026-04-24T07:56:08Z</time></trkpt><trkpt lat="43.49551185775004" lon="12.324921978713874"><ele>605.4000000000001</ele><time>2026-04-24T07:56:10Z</time></trkpt><trkpt lat="43.49543224432737" lon="12.324952945010006"><ele>606.2</ele><time>2026-04-24T07:56:11Z</time></trkpt><trkpt lat="43.49535260748992" lon="12.324987895755882"><ele>607.0</ele><time>2026-04-24T07:56:12Z</time></trkpt><trkpt lat="43.49523802589356" lon="12.325067341130202"><ele>608.3333333333334</ele><time>2026-04-24T07:56:14Z</time></trkpt><trkpt lat="43.49518774449396" lon="12.325130630375677"><ele>609.6666666666667</ele><time>2026-04-24T07:56:15Z</time></trkpt><trkpt lat="43.49513428334438" lon="12.325188463198932"><ele>611.0</ele><time>2026-04-24T07:56:16Z</time></trkpt><trkpt lat="43.495066824089655" lon="12.325216476309206"><ele>612.3333333333334</ele><time>2026-04-24T07:56:17Z</time></trkpt><trkpt lat="43.49499280775552" lon="12.325244795689912"><ele>613.6666666666666</ele><time>2026-04-24T07:56:18Z</time></trkpt><trkpt lat="43.49489810025728" lon="12.32525037641203"><ele>615.0</ele><time>2026-04-24T07:56:19Z</time></trkpt><trkpt lat="43.494804837104745" lon="12.325243423760336"><ele>615.0</ele><time>2026-04-24T07:56:20Z</time></trkpt><trkpt lat="43.49471903544913" lon="12.325232130550411"><ele>615.0</ele><time>2026-04-24T07:56:21Z</time></trkpt><trkpt lat="43.49463251009834" lon="12.325228062623937"><ele>615.0</ele><time>2026-04-24T07:56:22Z</time></trkpt><trkpt lat="43.49454272390046" lon="12.32522685001063"><ele>615.0</ele><time>2026-04-24T07:56:23Z</time></trkpt><trkpt lat="43.49445685565824" lon="12.325221919659883"><ele>615.0</ele><time>2026-04-24T07:56:24Z</time></trkpt><trkpt lat="43.4943773760117" lon="12.325209209966662"><ele>615.0</ele><time>2026-04-24T07:56:25Z</time></trkpt><trkpt lat="43.494296110065264" lon="12.325195875191978"><ele>614.8333333333334</ele><time>2026-04-24T07:56:26Z</time></trkpt><trkpt lat="43.4942233029514" lon="12.32520262305434"><ele>614.6666666666666</ele><time>2026-04-24T07:56:27Z</time></trkpt><trkpt lat="43.49415893551609" lon="12.325204040641491"><ele>614.5</ele><time>2026-04-24T07:56:28Z</time></trkpt><trkpt lat="43.49409627821031" lon="12.325213065227228"><ele>614.3333333333333</ele><time>2026-04-24T07:56:29Z</time></trkpt><trkpt lat="43.493962034435995" lon="12.325280246338135"><ele>614.1666666666666</ele><time>2026-04-24T07:56:31Z</time></trkpt><trkpt lat="43.49389063734265" lon="12.325352003626524"><ele>614.0</ele><time>2026-04-24T07:56:32Z</time></trkpt><trkpt lat="43.49381203052351" lon="12.325421295485294"><ele>613.3333333333333</ele><time>2026-04-24T07:56:33Z</time></trkpt><trkpt lat="43.49373817695803" lon="12.325473977285016"><ele>612.6666666666666</ele><time>2026-04-24T07:56:34Z</time></trkpt><trkpt lat="43.49365867096424" lon="12.325510318613434"><ele>612.0</ele><time>2026-04-24T07:56:35Z</time></trkpt><trkpt lat="43.49358935056109" lon="12.325505971010342"><ele>611.3333333333334</ele><time>2026-04-24T07:56:36Z</time></trkpt><trkpt lat="43.49351376362073" lon="12.325500503014606"><ele>610.6666666666667</ele><time>2026-04-24T07:56:37Z</time></trkpt><trkpt lat="43.49344566346098" lon="12.325490275159396"><ele>610.0</ele><time>2026-04-24T07:56:38Z</time></trkpt><trkpt lat="43.49333978309185" lon="12.325429650791678"><ele>610.0</ele><time>2026-04-24T07:56:40Z</time></trkpt><trkpt lat="43.49327505232892" lon="12.325311988046625"><ele>610.0</ele><time>2026-04-24T07:56:42Z</time></trkpt><trkpt lat="43.49322064588455" lon="12.325199848788413"><ele>610.0</ele><time>2026-04-24T07:56:44Z</time></trkpt><trkpt lat="43.49314039582746" lon="12.325067778023424"><ele>610.0</ele><time>2026-04-24T07:56:46Z</time></trkpt><trkpt lat="43.49306932033682" lon="12.324963288419546"><ele>610.0</ele><time>2026-04-24T07:56:48Z</time></trkpt><trkpt lat="43.492985205641496" lon="12.324843999549975"><ele>607.8</ele><time>2026-04-24T07:56:50Z</time></trkpt><trkpt lat="43.492889542852204" lon="12.324753255666536"><ele>605.6</ele><time>2026-04-24T07:56:52Z</time></trkpt><trkpt lat="43.492791707731534" lon="12.324665292792098"><ele>603.4</ele><time>2026-04-24T07:56:54Z</time></trkpt><trkpt lat="43.49274056835712" lon="12.324609502279538"><ele>601.2</ele><time>2026-04-24T07:56:55Z</time></trkpt><trkpt lat="43.49268955712379" lon="12.32454943879714"><ele>599.0</ele><time>2026-04-24T07:56:56Z</time></trkpt><trkpt lat="43.49260942597455" lon="12.324438051898147"><ele>596.8</ele><time>2026-04-24T07:56:58Z</time></trkpt><trkpt lat="43.492511246407354" lon="12.324365221347474"><ele>594.5999999999999</ele><time>2026-04-24T07:57:00Z</time></trkpt><trkpt lat="43.4924111565009" lon="12.32430267122746"><ele>592.4</ele><time>2026-04-24T07:57:02Z</time></trkpt><trkpt lat="43.49232492552559" lon="12.324220816355199"><ele>590.1999999999999</ele><time>2026-04-24T07:57:04Z</time></trkpt><trkpt lat="43.492255204988965" lon="12.32413942787974"><ele>588.0</ele><time>2026-04-24T07:57:06Z</time></trkpt><trkpt lat="43.49222518989716" lon="12.324023555102986"><ele>588.0</ele><time>2026-04-24T07:57:08Z</time></trkpt><trkpt lat="43.49222004884994" lon="12.323900404782087"><ele>588.0</ele><time>2026-04-24T07:57:10Z</time></trkpt><trkpt lat="43.49214817532218" lon="12.323835678426107"><ele>588.0</ele><time>2026-04-24T07:57:12Z</time></trkpt><trkpt lat="43.49208121791933" lon="12.323755949071726"><ele>588.0</ele><time>2026-04-24T07:57:14Z</time></trkpt><trkpt lat="43.49204955253418" lon="12.323657804406928"><ele>588.0</ele><time>2026-04-24T07:57:16Z</time></trkpt><trkpt lat="43.492020443682776" lon="12.32351514485645"><ele>588.0</ele><time>2026-04-24T07:57:18Z</time></trkpt><trkpt lat="43.49201514295188" lon="12.323398561605647"><ele>585.6666666666666</ele><time>2026-04-24T07:57:20Z</time></trkpt><trkpt lat="43.49207429807439" lon="12.323297303015693"><ele>583.3333333333334</ele><time>2026-04-24T07:57:22Z</time></trkpt><trkpt lat="43.49212444438538" lon="12.323219075983719"><ele>581.0</ele><time>2026-04-24T07:57:23Z</time></trkpt><trkpt lat="43.49216475250219" lon="12.323144753888558"><ele>578.6666666666667</ele><time>2026-04-24T07:57:24Z</time></trkpt><trkpt lat="43.49221033163298" lon="12.323077702082957"><ele>576.3333333333334</ele><time>2026-04-24T07:57:25Z</time></trkpt><trkpt lat="43.49230954667549" lon="12.322990718037362"><ele>574.0</ele><time>2026-04-24T07:57:27Z</time></trkpt><trkpt lat="43.492392244218664" lon="12.322972240693634"><ele>570.8333333333334</ele><time>2026-04-24T07:57:28Z</time></trkpt><trkpt lat="43.49248831585504" lon="12.322946844930907"><ele>567.6666666666667</ele><time>2026-04-24T07:57:29Z</time></trkpt><trkpt lat="43.492583139650264" lon="12.322910869995289"><ele>564.5</ele><time>2026-04-24T07:57:30Z</time></trkpt><trkpt lat="43.49264575852328" lon="12.322879628611382"><ele>561.3333333333334</ele><time>2026-04-24T07:57:31Z</time></trkpt><trkpt lat="43.49271148405511" lon="12.322847535010983"><ele>558.1666666666666</ele><time>2026-04-24T07:57:32Z</time></trkpt><trkpt lat="43.49281421584581" lon="12.32279763346522"><ele>555.0</ele><time>2026-04-24T07:57:34Z</time></trkpt><trkpt lat="43.49287852148382" lon="12.322739548002522"><ele>555.0</ele><time>2026-04-24T07:57:36Z</time></trkpt><trkpt lat="43.492838828787036" lon="12.322654295807794"><ele>555.0</ele><time>2026-04-24T07:57:39Z</time></trkpt><trkpt lat="43.492775146748876" lon="12.32265468938483"><ele>555.0</ele><time>2026-04-24T07:57:40Z</time></trkpt><trkpt lat="43.492705447701454" lon="12.32266546599636"><ele>555.0</ele><time>2026-04-24T07:57:41Z</time></trkpt><trkpt lat="43.4926410660763" lon="12.322670500606135"><ele>555.0</ele><time>2026-04-24T07:57:42Z</time></trkpt><trkpt lat="43.4925270616358" lon="12.32268288892694"><ele>555.0</ele><time>2026-04-24T07:57:44Z</time></trkpt><trkpt lat="43.49246256531526" lon="12.322665795502484"><ele>555.0</ele><time>2026-04-24T07:57:45Z</time></trkpt><trkpt lat="43.492348365184" lon="12.322593861659835"><ele>555.0</ele><time>2026-04-24T07:57:47Z</time></trkpt><trkpt lat="43.49227734860085" lon="12.322521235259616"><ele>555.0</ele><time>2026-04-24T07:57:49Z</time></trkpt><trkpt lat="43.492172133014726" lon="12.322534902538482"><ele>555.0</ele><time>2026-04-24T07:57:51Z</time></trkpt><trkpt lat="43.492058921344096" lon="12.322571731566791"><ele>555.0</ele><time>2026-04-24T07:57:53Z</time></trkpt><trkpt lat="43.491997487905266" lon="12.322592010884545"><ele>553.0</ele><time>2026-04-24T07:57:54Z</time></trkpt><trkpt lat="43.491889902828014" lon="12.322562468858374"><ele>551.0</ele><time>2026-04-24T07:57:56Z</time></trkpt><trkpt lat="43.49179603923762" lon="12.322531306754074"><ele>549.0</ele><time>2026-04-24T07:57:58Z</time></trkpt><trkpt lat="43.49172241342951" lon="12.322499688112499"><ele>547.0</ele><time>2026-04-24T07:58:00Z</time></trkpt><trkpt lat="43.491622598849396" lon="12.322434097641901"><ele>545.0</ele><time>2026-04-24T07:58:02Z</time></trkpt><trkpt lat="43.49155833972757" lon="12.322410391525759"><ele>545.0</ele><time>2026-04-24T07:58:03Z</time></trkpt><trkpt lat="43.491445878384454" lon="12.322377151568698"><ele>545.0</ele><time>2026-04-24T07:58:05Z</time></trkpt><trkpt lat="43.491339198568696" lon="12.322362774823342"><ele>545.0</ele><time>2026-04-24T07:58:07Z</time></trkpt><trkpt lat="43.49125766215436" lon="12.322403525310857"><ele>545.0</ele><time>2026-04-24T07:58:09Z</time></trkpt><trkpt lat="43.49116753818174" lon="12.32248400248502"><ele>545.0</ele><time>2026-04-24T07:58:11Z</time></trkpt><trkpt lat="43.49110774449325" lon="12.322576458523944"><ele>540.1666666666666</ele><time>2026-04-24T07:58:13Z</time></trkpt><trkpt lat="43.49107509543669" lon="12.322670012199053"><ele>535.3333333333333</ele><time>2026-04-24T07:58:16Z</time></trkpt><trkpt lat="43.491012329654716" lon="12.32265193977435"><ele>530.5</ele><time>2026-04-24T07:58:18Z</time></trkpt><trkpt lat="43.49096510160173" lon="12.322565226177943"><ele>525.6666666666666</ele><time>2026-04-24T07:58:20Z</time></trkpt><trkpt lat="43.49090524030159" lon="12.322467933848701"><ele>520.8333333333334</ele><time>2026-04-24T07:58:23Z</time></trkpt><trkpt lat="43.49085664047516" lon="12.322359196816588"><ele>516.0</ele><time>2026-04-24T07:58:26Z</time></trkpt><trkpt lat="43.490796036071714" lon="12.322319677537488"><ele>516.0</ele><time>2026-04-24T07:58:31Z</time></trkpt><trkpt lat="43.490777800257526" lon="12.322440547990002"><ele>516.0</ele><time>2026-04-24T07:58:33Z</time></trkpt><trkpt lat="43.49078199688234" lon="12.322569841886184"><ele>516.0</ele><time>2026-04-24T07:58:35Z</time></trkpt><trkpt lat="43.49080404695182" lon="12.322677206429185"><ele>516.0</ele><time>2026-04-24T07:58:37Z</time></trkpt><trkpt lat="43.49083975501562" lon="12.32280592945621"><ele>516.0</ele><time>2026-04-24T07:58:39Z</time></trkpt><trkpt lat="43.490862702867354" lon="12.322919263287842"><ele>516.0</ele><time>2026-04-24T07:58:41Z</time></trkpt><trkpt lat="43.490860713646335" lon="12.323020068202293"><ele>516.0</ele><time>2026-04-24T07:58:43Z</time></trkpt><trkpt lat="43.49086714148223" lon="12.323128365461727"><ele>516.0</ele><time>2026-04-24T07:58:45Z</time></trkpt><trkpt lat="43.490877592239585" lon="12.323263435502561"><ele>516.0</ele><time>2026-04-24T07:58:47Z</time></trkpt><trkpt lat="43.490826976845604" lon="12.3233187782496"><ele>516.0</ele><time>2026-04-24T07:58:49Z</time></trkpt><trkpt lat="43.49073419977008" lon="12.32329781665128"><ele>516.0</ele><time>2026-04-24T07:58:51Z</time></trkpt><trkpt lat="43.49062370144622" lon="12.323291365921088"><ele>517.5</ele><time>2026-04-24T07:58:53Z</time></trkpt><trkpt lat="43.49053744902155" lon="12.323322274415014"><ele>519.0</ele><time>2026-04-24T07:58:55Z</time></trkpt><trkpt lat="43.490428437451335" lon="12.323379256207863"><ele>520.5</ele><time>2026-04-24T07:58:57Z</time></trkpt><trkpt lat="43.49038433265094" lon="12.32344165916858"><ele>522.0</ele><time>2026-04-24T07:58:58Z</time></trkpt><trkpt lat="43.49029265052637" lon="12.323496228757248"><ele>523.5</ele><time>2026-04-24T07:59:00Z</time></trkpt><trkpt lat="43.49022505916541" lon="12.323487947101835"><ele>525.0</ele><time>2026-04-24T07:59:01Z</time></trkpt><trkpt lat="43.490131101156045" lon="12.323451098440932"><ele>520.8</ele><time>2026-04-24T07:59:03Z</time></trkpt><trkpt lat="43.490036778318824" lon="12.32339902014296"><ele>516.6</ele><time>2026-04-24T07:59:05Z</time></trkpt><trkpt lat="43.48996087203638" lon="12.323359106062734"><ele>512.4</ele><time>2026-04-24T07:59:07Z</time></trkpt><trkpt lat="43.489870460699485" lon="12.323340537193326"><ele>508.2</ele><time>2026-04-24T07:59:10Z</time></trkpt><trkpt lat="43.48977510736592" lon="12.323308706818214"><ele>504.0</ele><time>2026-04-24T07:59:12Z</time></trkpt><trkpt lat="43.48967472170798" lon="12.323302519686411"><ele>504.0</ele><time>2026-04-24T07:59:14Z</time></trkpt><trkpt lat="43.48960353048135" lon="12.323284741516527"><ele>504.0</ele><time>2026-04-24T07:59:16Z</time></trkpt><trkpt lat="43.48950937908284" lon="12.323297935258434"><ele>504.0</ele><time>2026-04-24T07:59:19Z</time></trkpt><trkpt lat="43.489432649949315" lon="12.323312383599433"><ele>504.0</ele><time>2026-04-24T07:59:22Z</time></trkpt><trkpt lat="43.48936625051698" lon="12.323333041816094"><ele>504.0</ele><time>2026-04-24T07:59:25Z</time></trkpt><trkpt lat="43.48931199488554" lon="12.323413829663554"><ele>504.0</ele><time>2026-04-24T07:59:27Z</time></trkpt><trkpt lat="43.48924850395983" lon="12.323449720857466"><ele>500.3333333333333</ele><time>2026-04-24T07:59:29Z</time></trkpt><trkpt lat="43.489191291357976" lon="12.323365151698994"><ele>496.66666666666663</ele><time>2026-04-24T07:59:31Z</time></trkpt><trkpt lat="43.48909991984552" lon="12.323298154144581"><ele>493.0</ele><time>2026-04-24T07:59:32.999Z</time></trkpt><trkpt lat="43.489052811455075" lon="12.323228051615779"><ele>489.3333333333333</ele><time>2026-04-24T07:59:33.999Z</time></trkpt><trkpt lat="43.4890119988913" lon="12.323157865455038"><ele>485.66666666666663</ele><time>2026-04-24T07:59:34.999Z</time></trkpt><trkpt lat="43.488959774926954" lon="12.32310766814601"><ele>482.0</ele><time>2026-04-24T07:59:35.999Z</time></trkpt><trkpt lat="43.48889965413096" lon="12.323076500074329"><ele>478.8</ele><time>2026-04-24T07:59:36.999Z</time></trkpt><trkpt lat="43.48883841465705" lon="12.323038060936637"><ele>475.6</ele><time>2026-04-24T07:59:38Z</time></trkpt><trkpt lat="43.48875854153925" lon="12.322957292334666"><ele>472.40000000000003</ele><time>2026-04-24T07:59:40Z</time></trkpt><trkpt lat="43.488666084476364" lon="12.323000387849937"><ele>469.20000000000005</ele><time>2026-04-24T07:59:42Z</time></trkpt><trkpt lat="43.48864685751747" lon="12.323144292395591"><ele>466.0</ele><time>2026-04-24T07:59:44Z</time></trkpt><trkpt lat="43.48869414948413" lon="12.323301694520469"><ele>465.1666666666667</ele><time>2026-04-24T07:59:46Z</time></trkpt><trkpt lat="43.48871095370765" lon="12.32338914320296"><ele>464.33333333333337</ele><time>2026-04-24T07:59:47Z</time></trkpt><trkpt lat="43.48872785555398" lon="12.323539857121121"><ele>463.5</ele><time>2026-04-24T07:59:49Z</time></trkpt><trkpt lat="43.48872870547129" lon="12.323644729663052"><ele>462.66666666666663</ele><time>2026-04-24T07:59:51Z</time></trkpt><trkpt lat="43.48865957845985" lon="12.323660824237288"><ele>461.8333333333333</ele><time>2026-04-24T07:59:53Z</time></trkpt><trkpt lat="43.488553600691816" lon="12.323598816418649"><ele>461.0</ele><time>2026-04-24T07:59:55Z</time></trkpt><trkpt lat="43.488441139565005" lon="12.32355325897264"><ele>461.0</ele><time>2026-04-24T07:59:57Z</time></trkpt><trkpt lat="43.4883192579841" lon="12.323539640596348"><ele>461.0</ele><time>2026-04-24T07:59:59Z</time></trkpt><trkpt lat="43.488207272262805" lon="12.323509209929387"><ele>461.0</ele><time>2026-04-24T08:00:01Z</time></trkpt><trkpt lat="43.48810330959917" lon="12.323438716282569"><ele>461.0</ele><time>2026-04-24T08:00:03Z</time></trkpt><trkpt lat="43.48805852008522" lon="12.323343375254368"><ele>461.0</ele><time>2026-04-24T08:00:05Z</time></trkpt><trkpt lat="43.48799082192773" lon="12.323298042488657"><ele>460.99999999999994</ele><time>2026-04-24T08:00:07Z</time></trkpt><trkpt lat="43.48792247245563" lon="12.323281767749123"><ele>461.0</ele><time>2026-04-24T08:00:09Z</time></trkpt><trkpt lat="43.487857252533544" lon="12.323317677319562"><ele>461.0</ele><time>2026-04-24T08:00:12Z</time></trkpt><trkpt lat="43.487827264788365" lon="12.323421140679"><ele>461.0</ele><time>2026-04-24T08:00:14Z</time></trkpt><trkpt lat="43.48785352068272" lon="12.323532632742381"><ele>460.99999999999994</ele><time>2026-04-24T08:00:16Z</time></trkpt><trkpt lat="43.48789738894259" lon="12.32363114572634"><ele>461.0</ele><time>2026-04-24T08:00:18Z</time></trkpt><trkpt lat="43.48795010230009" lon="12.32375316848592"><ele>461.0</ele><time>2026-04-24T08:00:20Z</time></trkpt><trkpt lat="43.48799667545538" lon="12.323896082915757"><ele>461.0</ele><time>2026-04-24T08:00:22Z</time></trkpt><trkpt lat="43.48801859030653" lon="12.324082176867734"><ele>461.0</ele><time>2026-04-24T08:00:24Z</time></trkpt><trkpt lat="43.4880246369404" lon="12.324194552577158"><ele>461.0</ele><time>2026-04-24T08:00:25Z</time></trkpt><trkpt lat="43.48802581548035" lon="12.324318138663108"><ele>461.0</ele><time>2026-04-24T08:00:26Z</time></trkpt><trkpt lat="43.488008202468336" lon="12.324438523472237"><ele>461.0</ele><time>2026-04-24T08:00:27Z</time></trkpt><trkpt lat="43.487981298157145" lon="12.324558335455071"><ele>461.0</ele><time>2026-04-24T08:00:28Z</time></trkpt><trkpt lat="43.4879342794622" lon="12.32467842312533"><ele>461.0</ele><time>2026-04-24T08:00:29Z</time></trkpt><trkpt lat="43.487876104535026" lon="12.324787315567152"><ele>461.0</ele><time>2026-04-24T08:00:30Z</time></trkpt><trkpt lat="43.48781843535448" lon="12.324876316073063"><ele>461.0</ele><time>2026-04-24T08:00:31Z</time></trkpt><trkpt lat="43.48776245073382" lon="12.324962539358081"><ele>459.66666666666663</ele><time>2026-04-24T08:00:32Z</time></trkpt><trkpt lat="43.48772236836162" lon="12.325033623112791"><ele>458.3333333333333</ele><time>2026-04-24T08:00:33Z</time></trkpt><trkpt lat="43.48768991476632" lon="12.325110077089565"><ele>457.0</ele><time>2026-04-24T08:00:34Z</time></trkpt><trkpt lat="43.487694683055516" lon="12.325281208798122"><ele>455.66666666666663</ele><time>2026-04-24T08:00:36Z</time></trkpt><trkpt lat="43.48769249722192" lon="12.32539137590298"><ele>454.3333333333333</ele><time>2026-04-24T08:00:37Z</time></trkpt><trkpt lat="43.48770460364091" lon="12.32548061290981"><ele>453.0</ele><time>2026-04-24T08:00:38Z</time></trkpt><trkpt lat="43.48774220004622" lon="12.325587119453258"><ele>451.4</ele><time>2026-04-24T08:00:39Z</time></trkpt><trkpt lat="43.487777363269764" lon="12.325692800002306"><ele>449.79999999999995</ele><time>2026-04-24T08:00:40Z</time></trkpt><trkpt lat="43.48782276341661" lon="12.325797236517033"><ele>448.2</ele><time>2026-04-24T08:00:41Z</time></trkpt><trkpt lat="43.48788126402661" lon="12.325929550054617"><ele>446.6</ele><time>2026-04-24T08:00:42Z</time></trkpt><trkpt lat="43.48794402506873" lon="12.32604771912822"><ele>445.0</ele><time>2026-04-24T08:00:43Z</time></trkpt><trkpt lat="43.48800951245894" lon="12.326172777225887"><ele>447.2</ele><time>2026-04-24T08:00:44Z</time></trkpt><trkpt lat="43.48807075394835" lon="12.326297577865473"><ele>449.4</ele><time>2026-04-24T08:00:45Z</time></trkpt><trkpt lat="43.488110866199115" lon="12.326416352885026"><ele>451.6</ele><time>2026-04-24T08:00:46Z</time></trkpt><trkpt lat="43.488150052805175" lon="12.32652062685815"><ele>453.8</ele><time>2026-04-24T08:00:47Z</time></trkpt><trkpt lat="43.48819417964931" lon="12.326625625861622"><ele>456.0</ele><time>2026-04-24T08:00:48Z</time></trkpt><trkpt lat="43.48824200867864" lon="12.3267213638412"><ele>456.0</ele><time>2026-04-24T08:00:49Z</time></trkpt><trkpt lat="43.4883062848844" lon="12.32681827073362"><ele>456.0</ele><time>2026-04-24T08:00:50Z</time></trkpt><trkpt lat="43.488377064189656" lon="12.326920083150702"><ele>456.0</ele><time>2026-04-24T08:00:51Z</time></trkpt><trkpt lat="43.48845383955627" lon="12.32701532439735"><ele>456.0</ele><time>2026-04-24T08:00:52Z</time></trkpt><trkpt lat="43.488535413229805" lon="12.327117516212386"><ele>456.0</ele><time>2026-04-24T08:00:53Z</time></trkpt><trkpt lat="43.488614523772874" lon="12.327216845923239"><ele>457.0</ele><time>2026-04-24T08:00:54Z</time></trkpt><trkpt lat="43.48869101766814" lon="12.327317546702352"><ele>458.0</ele><time>2026-04-24T08:00:55Z</time></trkpt><trkpt lat="43.48875045159248" lon="12.327431381542235"><ele>459.0</ele><time>2026-04-24T08:00:56Z</time></trkpt><trkpt lat="43.488800393783755" lon="12.327552822901316"><ele>460.0</ele><time>2026-04-24T08:00:57Z</time></trkpt><trkpt lat="43.48885696522334" lon="12.327678247282343"><ele>461.0</ele><time>2026-04-24T08:00:58Z</time></trkpt><trkpt lat="43.4889073339782" lon="12.327813168680507"><ele>461.0</ele><time>2026-04-24T08:00:59Z</time></trkpt><trkpt lat="43.4889394750853" lon="12.327953041705307"><ele>461.0</ele><time>2026-04-24T08:01:00Z</time></trkpt><trkpt lat="43.488964392224815" lon="12.328094192761847"><ele>461.0</ele><time>2026-04-24T08:01:01Z</time></trkpt><trkpt lat="43.48899922148259" lon="12.328223756291411"><ele>461.0</ele><time>2026-04-24T08:01:02Z</time></trkpt><trkpt lat="43.489037559830216" lon="12.328344295863593"><ele>461.0</ele><time>2026-04-24T08:01:03Z</time></trkpt><trkpt lat="43.48908572373393" lon="12.328451496777788"><ele>460.20000000000005</ele><time>2026-04-24T08:01:04Z</time></trkpt><trkpt lat="43.489143867729496" lon="12.32856750283415"><ele>459.40000000000003</ele><time>2026-04-24T08:01:05Z</time></trkpt><trkpt lat="43.489206766472044" lon="12.328690037071716"><ele>458.6</ele><time>2026-04-24T08:01:06Z</time></trkpt><trkpt lat="43.489273718519065" lon="12.328802767768714"><ele>457.8</ele><time>2026-04-24T08:01:07Z</time></trkpt><trkpt lat="43.489345565570666" lon="12.328896289955951"><ele>457.0</ele><time>2026-04-24T08:01:08Z</time></trkpt><trkpt lat="43.48940676956749" lon="12.328978121972751"><ele>456.1666666666667</ele><time>2026-04-24T08:01:09Z</time></trkpt><trkpt lat="43.48944433731614" lon="12.329064830511083"><ele>455.33333333333337</ele><time>2026-04-24T08:01:10Z</time></trkpt><trkpt lat="43.489444803854305" lon="12.329166430079066"><ele>454.5</ele><time>2026-04-24T08:01:11Z</time></trkpt><trkpt lat="43.48942435085779" lon="12.329282646024014"><ele>453.66666666666663</ele><time>2026-04-24T08:01:12Z</time></trkpt><trkpt lat="43.48938414938482" lon="12.329400236244414"><ele>452.8333333333333</ele><time>2026-04-24T08:01:13Z</time></trkpt><trkpt lat="43.48933703404295" lon="12.329508993690586"><ele>452.0</ele><time>2026-04-24T08:01:14Z</time></trkpt><trkpt lat="43.48927761290318" lon="12.329617307581966"><ele>452.0</ele><time>2026-04-24T08:01:15Z</time></trkpt><trkpt lat="43.48922683630375" lon="12.329718106362124"><ele>452.00000000000006</ele><time>2026-04-24T08:01:16Z</time></trkpt><trkpt lat="43.489202087277526" lon="12.329813166929522"><ele>452.00000000000006</ele><time>2026-04-24T08:01:17Z</time></trkpt><trkpt lat="43.48921401678711" lon="12.329932392575483"><ele>452.0</ele><time>2026-04-24T08:01:18Z</time></trkpt><trkpt lat="43.48925266474446" lon="12.33005458717737"><ele>452.0</ele><time>2026-04-24T08:01:19Z</time></trkpt><trkpt lat="43.48931201331385" lon="12.330177989665007"><ele>452.0</ele><time>2026-04-24T08:01:20Z</time></trkpt><trkpt lat="43.489380950246286" lon="12.33030605563376"><ele>452.0</ele><time>2026-04-24T08:01:21Z</time></trkpt><trkpt lat="43.48944593821707" lon="12.330458671649497"><ele>452.0</ele><time>2026-04-24T08:01:22Z</time></trkpt><trkpt lat="43.4894901255421" lon="12.330613606248825"><ele>452.0</ele><time>2026-04-24T08:01:23Z</time></trkpt><trkpt lat="43.4895233809613" lon="12.330772752911603"><ele>451.20000000000005</ele><time>2026-04-24T08:01:24Z</time></trkpt><trkpt lat="43.48956195560904" lon="12.330908676585198"><ele>450.40000000000003</ele><time>2026-04-24T08:01:25Z</time></trkpt><trkpt lat="43.4896121018501" lon="12.331041309098913"><ele>449.59999999999997</ele><time>2026-04-24T08:01:26Z</time></trkpt><trkpt lat="43.48966724769541" lon="12.331178046597138"><ele>448.79999999999995</ele><time>2026-04-24T08:01:27Z</time></trkpt><trkpt lat="43.489721042048416" lon="12.331308557539256"><ele>448.0</ele><time>2026-04-24T08:01:28Z</time></trkpt><trkpt lat="43.489765613496914" lon="12.331445022195451"><ele>453.5</ele><time>2026-04-24T08:01:29Z</time></trkpt><trkpt lat="43.489808957755415" lon="12.331589313108145"><ele>459.0</ele><time>2026-04-24T08:01:30Z</time></trkpt><trkpt lat="43.48985881803369" lon="12.331743588523466"><ele>464.5</ele><time>2026-04-24T08:01:31Z</time></trkpt><trkpt lat="43.48991524661605" lon="12.331895018514581"><ele>470.0</ele><time>2026-04-24T08:01:32Z</time></trkpt><trkpt lat="43.48996105126088" lon="12.33204194757911"><ele>470.0</ele><time>2026-04-24T08:01:33Z</time></trkpt><trkpt lat="43.48999978385286" lon="12.33217969180064"><ele>470.0</ele><time>2026-04-24T08:01:34Z</time></trkpt><trkpt lat="43.49004896549245" lon="12.332291360532"><ele>470.0</ele><time>2026-04-24T08:01:35Z</time></trkpt><trkpt lat="43.490115502982256" lon="12.332380760556992"><ele>470.0</ele><time>2026-04-24T08:01:36Z</time></trkpt><trkpt lat="43.49019941658768" lon="12.332441829643582"><ele>470.0</ele><time>2026-04-24T08:01:37Z</time></trkpt><trkpt lat="43.49029011665171" lon="12.332486936333137"><ele>470.6</ele><time>2026-04-24T08:01:38Z</time></trkpt><trkpt lat="43.49038505558838" lon="12.332529444945006"><ele>471.2</ele><time>2026-04-24T08:01:39Z</time></trkpt><trkpt lat="43.4904925418458" lon="12.332565121440611"><ele>471.79999999999995</ele><time>2026-04-24T08:01:40Z</time></trkpt><trkpt lat="43.49059988706599" lon="12.332601267235177"><ele>472.4</ele><time>2026-04-24T08:01:41Z</time></trkpt><trkpt lat="43.490721508566395" lon="12.332633320992269"><ele>473.0</ele><time>2026-04-24T08:01:42Z</time></trkpt><trkpt lat="43.49084185065356" lon="12.332664921264993"><ele>473.0</ele><time>2026-04-24T08:01:43Z</time></trkpt><trkpt lat="43.490962366821776" lon="12.332704462346713"><ele>473.0</ele><time>2026-04-24T08:01:44Z</time></trkpt><trkpt lat="43.49108330775246" lon="12.33275726597188"><ele>473.0</ele><time>2026-04-24T08:01:45Z</time></trkpt><trkpt lat="43.49119604840632" lon="12.332820064542261"><ele>473.0</ele><time>2026-04-24T08:01:46Z</time></trkpt><trkpt lat="43.49130351810548" lon="12.332894135499789"><ele>471.2</ele><time>2026-04-24T08:01:47Z</time></trkpt><trkpt lat="43.49138832890037" lon="12.332974801698803"><ele>469.4</ele><time>2026-04-24T08:01:48Z</time></trkpt><trkpt lat="43.4914573038257" lon="12.333084855498182"><ele>467.59999999999997</ele><time>2026-04-24T08:01:49Z</time></trkpt><trkpt lat="43.49152297876912" lon="12.333182140760645"><ele>465.79999999999995</ele><time>2026-04-24T08:01:50Z</time></trkpt><trkpt lat="43.49161238144506" lon="12.333264017673846"><ele>464.0</ele><time>2026-04-24T08:01:51Z</time></trkpt><trkpt lat="43.491727833572334" lon="12.333339400025867"><ele>464.0</ele><time>2026-04-24T08:01:52Z</time></trkpt><trkpt lat="43.49183404986039" lon="12.333424394285492"><ele>464.0</ele><time>2026-04-24T08:01:53Z</time></trkpt><trkpt lat="43.49193517186298" lon="12.33352294355123"><ele>464.0</ele><time>2026-04-24T08:01:54Z</time></trkpt><trkpt lat="43.49204030194512" lon="12.333623063237644"><ele>464.0</ele><time>2026-04-24T08:01:55Z</time></trkpt><trkpt lat="43.49215051220193" lon="12.333705158626113"><ele>463.25</ele><time>2026-04-24T08:01:56Z</time></trkpt><trkpt lat="43.492266328718756" lon="12.333790220838274"><ele>462.5</ele><time>2026-04-24T08:01:57Z</time></trkpt><trkpt lat="43.4923570939897" lon="12.33388664113062"><ele>461.75</ele><time>2026-04-24T08:01:58Z</time></trkpt><trkpt lat="43.49244840849579" lon="12.333982722692314"><ele>461.0</ele><time>2026-04-24T08:01:59Z</time></trkpt><trkpt lat="43.49253640499049" lon="12.33404664533238"><ele>461.0</ele><time>2026-04-24T08:02:00Z</time></trkpt><trkpt lat="43.49264403475953" lon="12.334092460386252"><ele>461.0</ele><time>2026-04-24T08:02:01Z</time></trkpt><trkpt lat="43.492753565807476" lon="12.3341146250675"><ele>461.0</ele><time>2026-04-24T08:02:02Z</time></trkpt><trkpt lat="43.492849149004414" lon="12.33412526420614"><ele>461.0</ele><time>2026-04-24T08:02:03Z</time></trkpt><trkpt lat="43.492924364807244" lon="12.334119152256868"><ele>461.0</ele><time>2026-04-24T08:02:04Z</time></trkpt><trkpt lat="43.49299419227466" lon="12.334099118338136"><ele>461.6</ele><time>2026-04-24T08:02:05Z</time></trkpt><trkpt lat="43.493079702859355" lon="12.334037250135188"><ele>462.20000000000005</ele><time>2026-04-24T08:02:06Z</time></trkpt><trkpt lat="43.493143644526505" lon="12.33394930823376"><ele>462.79999999999995</ele><time>2026-04-24T08:02:07Z</time></trkpt><trkpt lat="43.49319987618325" lon="12.333834177345604"><ele>463.4</ele><time>2026-04-24T08:02:08Z</time></trkpt><trkpt lat="43.493269270070925" lon="12.333714799267273"><ele>464.0</ele><time>2026-04-24T08:02:09Z</time></trkpt><trkpt lat="43.493351509269566" lon="12.333602244847118"><ele>466.4</ele><time>2026-04-24T08:02:10Z</time></trkpt><trkpt lat="43.49340946447932" lon="12.333494717048838"><ele>468.79999999999995</ele><time>2026-04-24T08:02:11Z</time></trkpt><trkpt lat="43.49346444932059" lon="12.33339914842865"><ele>471.20000000000005</ele><time>2026-04-24T08:02:12Z</time></trkpt><trkpt lat="43.49355681486974" lon="12.333331262867985"><ele>473.6</ele><time>2026-04-24T08:02:14Z</time></trkpt><trkpt lat="43.493649164850666" lon="12.333445621399383"><ele>476.0</ele><time>2026-04-24T08:02:16Z</time></trkpt><trkpt lat="43.493650817331215" lon="12.333545064254448"><ele>475.99999999999994</ele><time>2026-04-24T08:02:17Z</time></trkpt><trkpt lat="43.493612961563656" lon="12.333656361837583"><ele>476.0</ele><time>2026-04-24T08:02:18Z</time></trkpt><trkpt lat="43.49358152977093" lon="12.333765328851774"><ele>476.0</ele><time>2026-04-24T08:02:19Z</time></trkpt><trkpt lat="43.493572420431526" lon="12.333872898551855"><ele>476.0</ele><time>2026-04-24T08:02:20Z</time></trkpt><trkpt lat="43.493586381173735" lon="12.333995404829457"><ele>475.99999999999994</ele><time>2026-04-24T08:02:21Z</time></trkpt><trkpt lat="43.49361719960307" lon="12.334114777089844"><ele>476.0</ele><time>2026-04-24T08:02:22Z</time></trkpt><trkpt lat="43.49363054690974" lon="12.334214973215754"><ele>473.99999999999994</ele><time>2026-04-24T08:02:23Z</time></trkpt><trkpt lat="43.49362038982403" lon="12.334318265347145"><ele>472.0</ele><time>2026-04-24T08:02:24Z</time></trkpt><trkpt lat="43.49359327999344" lon="12.334431396414196"><ele>470.0</ele><time>2026-04-24T08:02:25Z</time></trkpt><trkpt lat="43.49357341048559" lon="12.334534020663112"><ele>468.0</ele><time>2026-04-24T08:02:26Z</time></trkpt><trkpt lat="43.49356824447414" lon="12.334637315958624"><ele>465.99999999999994</ele><time>2026-04-24T08:02:27Z</time></trkpt><trkpt lat="43.49358548779322" lon="12.334722274669927"><ele>464.0</ele><time>2026-04-24T08:02:28Z</time></trkpt><trkpt lat="43.49361740234572" lon="12.334819993589491"><ele>463.2</ele><time>2026-04-24T08:02:29Z</time></trkpt><trkpt lat="43.49367030205437" lon="12.334912811294682"><ele>462.4</ele><time>2026-04-24T08:02:30Z</time></trkpt><trkpt lat="43.49373843647107" lon="12.334992121655263"><ele>461.6</ele><time>2026-04-24T08:02:31Z</time></trkpt><trkpt lat="43.49382034970516" lon="12.335050835133318"><ele>460.8</ele><time>2026-04-24T08:02:32Z</time></trkpt><trkpt lat="43.49390870913757" lon="12.335107329196154"><ele>460.0</ele><time>2026-04-24T08:02:33Z</time></trkpt><trkpt lat="43.49398895856519" lon="12.335171501025242"><ele>460.1666666666667</ele><time>2026-04-24T08:02:34Z</time></trkpt><trkpt lat="43.494058103337714" lon="12.335229039172221"><ele>460.33333333333337</ele><time>2026-04-24T08:02:35Z</time></trkpt><trkpt lat="43.49410139731454" lon="12.335300514473822"><ele>460.5</ele><time>2026-04-24T08:02:36Z</time></trkpt><trkpt lat="43.494130210402886" lon="12.335398903526237"><ele>460.66666666666663</ele><time>2026-04-24T08:02:37Z</time></trkpt><trkpt lat="43.49416245199001" lon="12.33550483645553"><ele>460.8333333333333</ele><time>2026-04-24T08:02:38Z</time></trkpt><trkpt lat="43.49421934734478" lon="12.335600285805098"><ele>461.0</ele><time>2026-04-24T08:02:39Z</time></trkpt><trkpt lat="43.494291527639795" lon="12.335669381940765"><ele>461.0</ele><time>2026-04-24T08:02:40Z</time></trkpt><trkpt lat="43.49435401615023" lon="12.335729568530226"><ele>461.0</ele><time>2026-04-24T08:02:41Z</time></trkpt><trkpt lat="43.49443228031899" lon="12.335755972720442"><ele>461.0</ele><time>2026-04-24T08:02:42Z</time></trkpt><trkpt lat="43.49453304747595" lon="12.335769963020754"><ele>461.0</ele><time>2026-04-24T08:02:43Z</time></trkpt><trkpt lat="43.494651823366524" lon="12.335775149598676"><ele>461.0</ele><time>2026-04-24T08:02:44Z</time></trkpt><trkpt lat="43.49477210959021" lon="12.335785392304192"><ele>463.75</ele><time>2026-04-24T08:02:45Z</time></trkpt><trkpt lat="43.49488667631343" lon="12.335811535967423"><ele>466.5</ele><time>2026-04-24T08:02:46Z</time></trkpt><trkpt lat="43.49501149268672" lon="12.33583897678875"><ele>469.25</ele><time>2026-04-24T08:02:47Z</time></trkpt><trkpt lat="43.49514200419286" lon="12.335863647225178"><ele>472.0</ele><time>2026-04-24T08:02:48Z</time></trkpt><trkpt lat="43.495278551213154" lon="12.33590836708006"><ele>474.0</ele><time>2026-04-24T08:02:49Z</time></trkpt><trkpt lat="43.495421471103484" lon="12.335957284874162"><ele>476.0</ele><time>2026-04-24T08:02:50Z</time></trkpt><trkpt lat="43.49555922669334" lon="12.335994244670724"><ele>478.0</ele><time>2026-04-24T08:02:51Z</time></trkpt><trkpt lat="43.495696430982356" lon="12.33602207264122"><ele>480.0</ele><time>2026-04-24T08:02:52Z</time></trkpt><trkpt lat="43.49582789804511" lon="12.336054144084098"><ele>480.0</ele><time>2026-04-24T08:02:53Z</time></trkpt><trkpt lat="43.495955562815055" lon="12.336105113036544"><ele>480.0</ele><time>2026-04-24T08:02:54Z</time></trkpt><trkpt lat="43.496083330835766" lon="12.336154332197644"><ele>480.0</ele><time>2026-04-24T08:02:55Z</time></trkpt><trkpt lat="43.49621805613219" lon="12.33619398257039"><ele>480.0</ele><time>2026-04-24T08:02:56Z</time></trkpt><trkpt lat="43.496353522093415" lon="12.336237593483409"><ele>478.25</ele><time>2026-04-24T08:02:57Z</time></trkpt><trkpt lat="43.49648644236821" lon="12.336285809139286"><ele>476.5</ele><time>2026-04-24T08:02:58Z</time></trkpt><trkpt lat="43.49661724369588" lon="12.336337789489102"><ele>474.75</ele><time>2026-04-24T08:02:59Z</time></trkpt><trkpt lat="43.49675119676982" lon="12.336382092714832"><ele>473.0</ele><time>2026-04-24T08:03:00Z</time></trkpt><trkpt lat="43.49687558922504" lon="12.336435969602238"><ele>473.0</ele><time>2026-04-24T08:03:01Z</time></trkpt><trkpt lat="43.49699680901187" lon="12.336479767500187"><ele>473.0</ele><time>2026-04-24T08:03:02Z</time></trkpt><trkpt lat="43.49711334247598" lon="12.336524935942416"><ele>473.0</ele><time>2026-04-24T08:03:03Z</time></trkpt><trkpt lat="43.49722283443554" lon="12.336563257940638"><ele>473.0</ele><time>2026-04-24T08:03:04Z</time></trkpt><trkpt lat="43.497335462468875" lon="12.336614821978264"><ele>474.2</ele><time>2026-04-24T08:03:05Z</time></trkpt><trkpt lat="43.49743879765597" lon="12.336649813140745"><ele>475.4</ele><time>2026-04-24T08:03:06Z</time></trkpt><trkpt lat="43.49754377747919" lon="12.336652649146044"><ele>476.59999999999997</ele><time>2026-04-24T08:03:07Z</time></trkpt><trkpt lat="43.49764031804883" lon="12.336634910745678"><ele>477.79999999999995</ele><time>2026-04-24T08:03:08Z</time></trkpt><trkpt lat="43.49773172870804" lon="12.336641325058615"><ele>479.0</ele><time>2026-04-24T08:03:09Z</time></trkpt><trkpt lat="43.497813322737656" lon="12.336671900945683"><ele>479.0</ele><time>2026-04-24T08:03:10Z</time></trkpt><trkpt lat="43.49790419731254" lon="12.336739825791042"><ele>479.0</ele><time>2026-04-24T08:03:11Z</time></trkpt><trkpt lat="43.497989724019874" lon="12.336818340209229"><ele>479.0</ele><time>2026-04-24T08:03:12Z</time></trkpt><trkpt lat="43.49808254928538" lon="12.33687542059306"><ele>479.0</ele><time>2026-04-24T08:03:13Z</time></trkpt><trkpt lat="43.498172396519564" lon="12.336954256432069"><ele>479.0</ele><time>2026-04-24T08:03:14Z</time></trkpt><trkpt lat="43.498250790285546" lon="12.337064234771788"><ele>478.6</ele><time>2026-04-24T08:03:15Z</time></trkpt><trkpt lat="43.49832420260254" lon="12.337183864120002"><ele>478.2</ele><time>2026-04-24T08:03:16Z</time></trkpt><trkpt lat="43.498397515088115" lon="12.337285706849233"><ele>477.80000000000007</ele><time>2026-04-24T08:03:17Z</time></trkpt><trkpt lat="43.49847558058424" lon="12.337362675888828"><ele>477.40000000000003</ele><time>2026-04-24T08:03:18Z</time></trkpt><trkpt lat="43.498566523814645" lon="12.337420201277371"><ele>477.0</ele><time>2026-04-24T08:03:19Z</time></trkpt><trkpt lat="43.49866771883057" lon="12.337465679292047"><ele>478.40000000000003</ele><time>2026-04-24T08:03:20Z</time></trkpt><trkpt lat="43.498769452765885" lon="12.337506427023476"><ele>479.80000000000007</ele><time>2026-04-24T08:03:21Z</time></trkpt><trkpt lat="43.49887019461101" lon="12.33754754091422"><ele>481.2</ele><time>2026-04-24T08:03:22Z</time></trkpt><trkpt lat="43.49897574464537" lon="12.337590205677841"><ele>482.6</ele><time>2026-04-24T08:03:23Z</time></trkpt><trkpt lat="43.499085935504134" lon="12.337618356137193"><ele>484.0</ele><time>2026-04-24T08:03:24Z</time></trkpt><trkpt lat="43.499201925385094" lon="12.337633163051166"><ele>484.0</ele><time>2026-04-24T08:03:25Z</time></trkpt><trkpt lat="43.49930798737863" lon="12.337655023076218"><ele>484.0</ele><time>2026-04-24T08:03:26Z</time></trkpt><trkpt lat="43.49941230696895" lon="12.337682187426246"><ele>484.0</ele><time>2026-04-24T08:03:27Z</time></trkpt><trkpt lat="43.4995132503132" lon="12.337701064968096"><ele>484.0</ele><time>2026-04-24T08:03:28Z</time></trkpt><trkpt lat="43.49960543379671" lon="12.337731524459953"><ele>484.0</ele><time>2026-04-24T08:03:29Z</time></trkpt><trkpt lat="43.499676227730646" lon="12.337772905991395"><ele>484.0</ele><time>2026-04-24T08:03:30Z</time></trkpt><trkpt lat="43.499793539647044" lon="12.337772410479163"><ele>484.0</ele><time>2026-04-24T08:03:32Z</time></trkpt><trkpt lat="43.499870188146005" lon="12.337890274431913"><ele>484.0</ele><time>2026-04-24T08:03:34Z</time></trkpt><trkpt lat="43.499878611201325" lon="12.338012096392921"><ele>484.0</ele><time>2026-04-24T08:03:35Z</time></trkpt><trkpt lat="43.49991447661012" lon="12.338127765684362"><ele>484.0</ele><time>2026-04-24T08:03:36Z</time></trkpt><trkpt lat="43.49996556593779" lon="12.338242082947827"><ele>484.0</ele><time>2026-04-24T08:03:37Z</time></trkpt><trkpt lat="43.500031538147056" lon="12.338349767111133"><ele>484.0</ele><time>2026-04-24T08:03:38Z</time></trkpt><trkpt lat="43.50010184527223" lon="12.338436455845905"><ele>484.0</ele><time>2026-04-24T08:03:39Z</time></trkpt><trkpt lat="43.500190912207096" lon="12.338506843164545"><ele>484.0</ele><time>2026-04-24T08:03:40Z</time></trkpt><trkpt lat="43.50027828256001" lon="12.338554714835672"><ele>484.0</ele><time>2026-04-24T08:03:41Z</time></trkpt><trkpt lat="43.50034787859731" lon="12.33860367382788"><ele>484.00000000000006</ele><time>2026-04-24T08:03:42Z</time></trkpt><trkpt lat="43.500400376323796" lon="12.33866844455364"><ele>484.0</ele><time>2026-04-24T08:03:43Z</time></trkpt><trkpt lat="43.50045428328638" lon="12.338741094576584"><ele>484.0</ele><time>2026-04-24T08:03:44Z</time></trkpt><trkpt lat="43.500517661219824" lon="12.338806127756484"><ele>484.0</ele><time>2026-04-24T08:03:45Z</time></trkpt><trkpt lat="43.50056900842441" lon="12.338874645966532"><ele>484.00000000000006</ele><time>2026-04-24T08:03:46Z</time></trkpt><trkpt lat="43.50061578065869" lon="12.338951811940325"><ele>484.0</ele><time>2026-04-24T08:03:47Z</time></trkpt><trkpt lat="43.500651267394325" lon="12.339055378468375"><ele>484.4</ele><time>2026-04-24T08:03:48Z</time></trkpt><trkpt lat="43.50067056924454" lon="12.33917985768207"><ele>484.79999999999995</ele><time>2026-04-24T08:03:49Z</time></trkpt><trkpt lat="43.50066736785164" lon="12.339293142057599"><ele>485.20000000000005</ele><time>2026-04-24T08:03:50Z</time></trkpt><trkpt lat="43.50066765334957" lon="12.339430204998386"><ele>485.6</ele><time>2026-04-24T08:03:51Z</time></trkpt><trkpt lat="43.50067726569607" lon="12.339559982645397"><ele>486.0</ele><time>2026-04-24T08:03:52Z</time></trkpt><trkpt lat="43.50070174108362" lon="12.33968620681691"><ele>487.0</ele><time>2026-04-24T08:03:53Z</time></trkpt><trkpt lat="43.50074452107918" lon="12.33981108140556"><ele>488.0</ele><time>2026-04-24T08:03:54Z</time></trkpt><trkpt lat="43.50080567231684" lon="12.339914852059254"><ele>489.0</ele><time>2026-04-24T08:03:55Z</time></trkpt><trkpt lat="43.50087181673312" lon="12.340026675179834"><ele>490.0</ele><time>2026-04-24T08:03:56Z</time></trkpt><trkpt lat="43.500922584770365" lon="12.340134750150543"><ele>491.0</ele><time>2026-04-24T08:03:57Z</time></trkpt><trkpt lat="43.500970221984446" lon="12.340260482550855"><ele>491.0</ele><time>2026-04-24T08:03:58Z</time></trkpt><trkpt lat="43.50102464694291" lon="12.340397882399179"><ele>491.0</ele><time>2026-04-24T08:03:59Z</time></trkpt><trkpt lat="43.5010867748348" lon="12.340520728933768"><ele>491.0</ele><time>2026-04-24T08:04:00Z</time></trkpt><trkpt lat="43.50115642464161" lon="12.340623739844487"><ele>491.0</ele><time>2026-04-24T08:04:01Z</time></trkpt><trkpt lat="43.501237523935444" lon="12.340717946680133"><ele>491.0</ele><time>2026-04-24T08:04:02Z</time></trkpt><trkpt lat="43.50131615575416" lon="12.340807197805374"><ele>494.6</ele><time>2026-04-24T08:04:03Z</time></trkpt><trkpt lat="43.50138827120282" lon="12.340905687637148"><ele>498.20000000000005</ele><time>2026-04-24T08:04:04Z</time></trkpt><trkpt lat="43.50143400120502" lon="12.341021840504565"><ele>501.79999999999995</ele><time>2026-04-24T08:04:05Z</time></trkpt><trkpt lat="43.50147048167636" lon="12.341166381860646"><ele>505.4</ele><time>2026-04-24T08:04:06Z</time></trkpt><trkpt lat="43.501507352191716" lon="12.341305990543036"><ele>509.0</ele><time>2026-04-24T08:04:07Z</time></trkpt><trkpt lat="43.501546601592345" lon="12.34143638417064"><ele>509.0</ele><time>2026-04-24T08:04:08Z</time></trkpt><trkpt lat="43.501573966899" lon="12.341558806944523"><ele>509.0</ele><time>2026-04-24T08:04:09Z</time></trkpt><trkpt lat="43.501601913647285" lon="12.341692224362394"><ele>509.0</ele><time>2026-04-24T08:04:10Z</time></trkpt><trkpt lat="43.501635850470294" lon="12.341853280143095"><ele>509.0</ele><time>2026-04-24T08:04:11Z</time></trkpt><trkpt lat="43.501666894030556" lon="12.342012154863239"><ele>509.0</ele><time>2026-04-24T08:04:12Z</time></trkpt><trkpt lat="43.50170347201746" lon="12.342170352965775"><ele>507.25</ele><time>2026-04-24T08:04:13Z</time></trkpt><trkpt lat="43.501737751320185" lon="12.342343394898005"><ele>505.5</ele><time>2026-04-24T08:04:14Z</time></trkpt><trkpt lat="43.5017646537774" lon="12.342503418316348"><ele>503.75</ele><time>2026-04-24T08:04:15Z</time></trkpt><trkpt lat="43.50178110833561" lon="12.342657107692055"><ele>502.0</ele><time>2026-04-24T08:04:16Z</time></trkpt><trkpt lat="43.50180588718642" lon="12.34279844279235"><ele>502.0</ele><time>2026-04-24T08:04:17Z</time></trkpt><trkpt lat="43.501839405765374" lon="12.342937511403234"><ele>502.0</ele><time>2026-04-24T08:04:18Z</time></trkpt><trkpt lat="43.50189904091843" lon="12.34306655153394"><ele>502.0</ele><time>2026-04-24T08:04:19Z</time></trkpt><trkpt lat="43.50196913139758" lon="12.343210771349513"><ele>502.0</ele><time>2026-04-24T08:04:20Z</time></trkpt><trkpt lat="43.5020390048796" lon="12.343349033060955"><ele>505.0</ele><time>2026-04-24T08:04:21Z</time></trkpt><trkpt lat="43.50209872954804" lon="12.343475601682144"><ele>508.00000000000006</ele><time>2026-04-24T08:04:22Z</time></trkpt><trkpt lat="43.50215991107416" lon="12.343618276710359"><ele>511.00000000000006</ele><time>2026-04-24T08:04:23Z</time></trkpt><trkpt lat="43.50221492148253" lon="12.343754052549212"><ele>514.0</ele><time>2026-04-24T08:04:24Z</time></trkpt><trkpt lat="43.5022741705533" lon="12.343858474467037"><ele>517.0</ele><time>2026-04-24T08:04:25Z</time></trkpt><trkpt lat="43.50232882916917" lon="12.34395278874777"><ele>517.0</ele><time>2026-04-24T08:04:26Z</time></trkpt><trkpt lat="43.50236875034547" lon="12.344052565470264"><ele>517.0</ele><time>2026-04-24T08:04:27Z</time></trkpt><trkpt lat="43.50238948746724" lon="12.344172445747786"><ele>517.0</ele><time>2026-04-24T08:04:28Z</time></trkpt><trkpt lat="43.50239354000822" lon="12.344309267836731"><ele>517.0</ele><time>2026-04-24T08:04:29Z</time></trkpt><trkpt lat="43.502391161645974" lon="12.344462636308267"><ele>517.0</ele><time>2026-04-24T08:04:30Z</time></trkpt><trkpt lat="43.50240320816921" lon="12.344601740766791"><ele>516.75</ele><time>2026-04-24T08:04:31Z</time></trkpt><trkpt lat="43.50242116416209" lon="12.344750982960404"><ele>516.5</ele><time>2026-04-24T08:04:32Z</time></trkpt><trkpt lat="43.50242382387939" lon="12.344909745248287"><ele>516.25</ele><time>2026-04-24T08:04:33Z</time></trkpt><trkpt lat="43.502437581448724" lon="12.345067644532637"><ele>516.0</ele><time>2026-04-24T08:04:34Z</time></trkpt><trkpt lat="43.50245880583647" lon="12.345223689138546"><ele>516.0</ele><time>2026-04-24T08:04:35Z</time></trkpt><trkpt lat="43.50248971133783" lon="12.345371993905461"><ele>516.0</ele><time>2026-04-24T08:04:36Z</time></trkpt><trkpt lat="43.502519867310504" lon="12.345524721631513"><ele>516.0</ele><time>2026-04-24T08:04:37Z</time></trkpt><trkpt lat="43.50254934218915" lon="12.345683072812395"><ele>516.0</ele><time>2026-04-24T08:04:38Z</time></trkpt><trkpt lat="43.50258691931177" lon="12.345837651879428"><ele>515.3333333333334</ele><time>2026-04-24T08:04:39Z</time></trkpt><trkpt lat="43.50262828648408" lon="12.345992741140165"><ele>514.6666666666666</ele><time>2026-04-24T08:04:40Z</time></trkpt><trkpt lat="43.502670921938915" lon="12.346126834413177"><ele>514.0</ele><time>2026-04-24T08:04:41Z</time></trkpt><trkpt lat="43.50271336021998" lon="12.346224628936117"><ele>513.3333333333333</ele><time>2026-04-24T08:04:42Z</time></trkpt><trkpt lat="43.502762467076465" lon="12.346282029189517"><ele>512.6666666666666</ele><time>2026-04-24T08:04:43Z</time></trkpt><trkpt lat="43.502832425676935" lon="12.346324056951994"><ele>512.0</ele><time>2026-04-24T08:04:44Z</time></trkpt><trkpt lat="43.5029119446049" lon="12.346323892255553"><ele>513.4</ele><time>2026-04-24T08:04:45Z</time></trkpt><trkpt lat="43.503005220473135" lon="12.346391928635011"><ele>514.8000000000001</ele><time>2026-04-24T08:04:47Z</time></trkpt><trkpt lat="43.50302568291809" lon="12.346492216491264"><ele>516.2</ele><time>2026-04-24T08:04:48Z</time></trkpt><trkpt lat="43.503030271920835" lon="12.346609063584607"><ele>517.6</ele><time>2026-04-24T08:04:49Z</time></trkpt><trkpt lat="43.50304868950692" lon="12.346743921262485"><ele>519.0</ele><time>2026-04-24T08:04:50Z</time></trkpt><trkpt lat="43.50309887008604" lon="12.346881433361748"><ele>519.0</ele><time>2026-04-24T08:04:51Z</time></trkpt><trkpt lat="43.50315949691857" lon="12.347015819259942"><ele>519.0</ele><time>2026-04-24T08:04:52Z</time></trkpt><trkpt lat="43.50321868255102" lon="12.347148790017695"><ele>519.0</ele><time>2026-04-24T08:04:53Z</time></trkpt><trkpt lat="43.5032802586471" lon="12.347289627771211"><ele>519.0</ele><time>2026-04-24T08:04:54Z</time></trkpt><trkpt lat="43.503348485155534" lon="12.347429949357013"><ele>518.6</ele><time>2026-04-24T08:04:55Z</time></trkpt><trkpt lat="43.50340495587845" lon="12.347556894491438"><ele>518.2</ele><time>2026-04-24T08:04:56Z</time></trkpt><trkpt lat="43.50345405394037" lon="12.34768160707082"><ele>517.8000000000001</ele><time>2026-04-24T08:04:57Z</time></trkpt><trkpt lat="43.503519954784366" lon="12.347804467118113"><ele>517.4</ele><time>2026-04-24T08:04:58Z</time></trkpt><trkpt lat="43.50358522333634" lon="12.347934353190704"><ele>517.0</ele><time>2026-04-24T08:04:59Z</time></trkpt><trkpt lat="43.503656344878536" lon="12.348062629568357"><ele>517.8000000000001</ele><time>2026-04-24T08:05:00Z</time></trkpt><trkpt lat="43.50372811114591" lon="12.34817498479398"><ele>518.6</ele><time>2026-04-24T08:05:01Z</time></trkpt><trkpt lat="43.50380435776289" lon="12.348299704470476"><ele>519.4000000000001</ele><time>2026-04-24T08:05:02Z</time></trkpt><trkpt lat="43.503877715217" lon="12.348412613521006"><ele>520.2</ele><time>2026-04-24T08:05:03Z</time></trkpt><trkpt lat="43.50394272196236" lon="12.348529614573494"><ele>521.0</ele><time>2026-04-24T08:05:04Z</time></trkpt><trkpt lat="43.503996098202116" lon="12.348658529960208"><ele>522.4</ele><time>2026-04-24T08:05:05Z</time></trkpt><trkpt lat="43.50405224288471" lon="12.348798563541243"><ele>523.8</ele><time>2026-04-24T08:05:06Z</time></trkpt><trkpt lat="43.50408497926941" lon="12.348955920134204"><ele>525.1999999999999</ele><time>2026-04-24T08:05:07Z</time></trkpt><trkpt lat="43.50411591016309" lon="12.349094767105163"><ele>526.6</ele><time>2026-04-24T08:05:08Z</time></trkpt><trkpt lat="43.50415508261156" lon="12.349231765174272"><ele>528.0</ele><time>2026-04-24T08:05:09Z</time></trkpt><trkpt lat="43.50418900244248" lon="12.349373408644237"><ele>528.0</ele><time>2026-04-24T08:05:10Z</time></trkpt><trkpt lat="43.50422967449047" lon="12.349527582926136"><ele>528.0</ele><time>2026-04-24T08:05:11Z</time></trkpt><trkpt lat="43.504256818037234" lon="12.349684381675555"><ele>528.0</ele><time>2026-04-24T08:05:12Z</time></trkpt><trkpt lat="43.50426441760955" lon="12.349842388753592"><ele>528.0</ele><time>2026-04-24T08:05:13Z</time></trkpt><trkpt lat="43.50426766564933" lon="12.350002476634076"><ele>528.6</ele><time>2026-04-24T08:05:14Z</time></trkpt><trkpt lat="43.50428065712532" lon="12.350152427484117"><ele>529.1999999999999</ele><time>2026-04-24T08:05:15Z</time></trkpt><trkpt lat="43.50429737306806" lon="12.350298586128774"><ele>529.8</ele><time>2026-04-24T08:05:16Z</time></trkpt><trkpt lat="43.50431482116018" lon="12.35043456139"><ele>530.4</ele><time>2026-04-24T08:05:17Z</time></trkpt><trkpt lat="43.504326612938236" lon="12.350576374677358"><ele>531.0</ele><time>2026-04-24T08:05:18Z</time></trkpt><trkpt lat="43.50433547182506" lon="12.350710774802037"><ele>531.6</ele><time>2026-04-24T08:05:19Z</time></trkpt><trkpt lat="43.50436875753228" lon="12.350842106157533"><ele>532.2</ele><time>2026-04-24T08:05:20Z</time></trkpt><trkpt lat="43.50440250050925" lon="12.35095491051559"><ele>532.8</ele><time>2026-04-24T08:05:21Z</time></trkpt><trkpt lat="43.50444614751401" lon="12.351077648297688"><ele>533.4</ele><time>2026-04-24T08:05:22Z</time></trkpt><trkpt lat="43.50448640345563" lon="12.351208273883984"><ele>534.0</ele><time>2026-04-24T08:05:23Z</time></trkpt><trkpt lat="43.504531436204324" lon="12.351369425356394"><ele>534.2</ele><time>2026-04-24T08:05:24Z</time></trkpt><trkpt lat="43.504558601304005" lon="12.351507433217614"><ele>534.4</ele><time>2026-04-24T08:05:25Z</time></trkpt><trkpt lat="43.504583344444164" lon="12.35165811666417"><ele>534.6</ele><time>2026-04-24T08:05:26Z</time></trkpt><trkpt lat="43.504601587873324" lon="12.351801209990853"><ele>534.8</ele><time>2026-04-24T08:05:27Z</time></trkpt><trkpt lat="43.5046126218748" lon="12.351939764895986"><ele>535.0</ele><time>2026-04-24T08:05:28Z</time></trkpt><trkpt lat="43.50460772341645" lon="12.352094442947028"><ele>537.6</ele><time>2026-04-24T08:05:29Z</time></trkpt><trkpt lat="43.5046181712456" lon="12.35224226532697"><ele>540.2</ele><time>2026-04-24T08:05:30Z</time></trkpt><trkpt lat="43.50464640686934" lon="12.35239841412234"><ele>542.8</ele><time>2026-04-24T08:05:31Z</time></trkpt><trkpt lat="43.504656721016524" lon="12.352523974140208"><ele>545.4</ele><time>2026-04-24T08:05:32Z</time></trkpt><trkpt lat="43.50467208906428" lon="12.352616786833963"><ele>548.0</ele><time>2026-04-24T08:05:33Z</time></trkpt><trkpt lat="43.50469566539505" lon="12.352706683615024"><ele>548.0000000000001</ele><time>2026-04-24T08:05:34Z</time></trkpt><trkpt lat="43.504738525735846" lon="12.352775251990673"><ele>548.0</ele><time>2026-04-24T08:05:35Z</time></trkpt><trkpt lat="43.50479330878943" lon="12.352835364013272"><ele>548.0</ele><time>2026-04-24T08:05:36Z</time></trkpt><trkpt lat="43.504840623880256" lon="12.352914478705342"><ele>548.0</ele><time>2026-04-24T08:05:37Z</time></trkpt><trkpt lat="43.504864010839576" lon="12.35302221949074"><ele>548.0</ele><time>2026-04-24T08:05:38Z</time></trkpt><trkpt lat="43.50485892645566" lon="12.353109317397195"><ele>548.0000000000001</ele><time>2026-04-24T08:05:39Z</time></trkpt><trkpt lat="43.504867543989725" lon="12.353199112417537"><ele>548.0</ele><time>2026-04-24T08:05:40Z</time></trkpt><trkpt lat="43.50488704083133" lon="12.353313549142003"><ele>548.6666666666666</ele><time>2026-04-24T08:05:41Z</time></trkpt><trkpt lat="43.5048909652385" lon="12.353430793389672"><ele>549.3333333333333</ele><time>2026-04-24T08:05:42Z</time></trkpt><trkpt lat="43.50488852962697" lon="12.353544337730181"><ele>550.0</ele><time>2026-04-24T08:05:43Z</time></trkpt><trkpt lat="43.50487671096893" lon="12.353686223663125"><ele>550.6666666666666</ele><time>2026-04-24T08:05:44Z</time></trkpt><trkpt lat="43.50489006093392" lon="12.353800504910673"><ele>551.3333333333334</ele><time>2026-04-24T08:05:45Z</time></trkpt><trkpt lat="43.50489952109412" lon="12.353913540284392"><ele>552.0</ele><time>2026-04-24T08:05:46Z</time></trkpt><trkpt lat="43.50491028735933" lon="12.3540429115758"><ele>552.6666666666666</ele><time>2026-04-24T08:05:47Z</time></trkpt><trkpt lat="43.50493521240076" lon="12.354161522490047"><ele>553.3333333333334</ele><time>2026-04-24T08:05:48Z</time></trkpt><trkpt lat="43.504958827929" lon="12.35427737533405"><ele>554.0</ele><time>2026-04-24T08:05:49Z</time></trkpt><trkpt lat="43.50497621774027" lon="12.35439421413439"><ele>554.6666666666667</ele><time>2026-04-24T08:05:50Z</time></trkpt><trkpt lat="43.50500740497309" lon="12.354497837190078"><ele>555.3333333333334</ele><time>2026-04-24T08:05:51Z</time></trkpt><trkpt lat="43.50506425035424" lon="12.354587804903025"><ele>556.0</ele><time>2026-04-24T08:05:52Z</time></trkpt><trkpt lat="43.50512162195828" lon="12.354654299080678"><ele>555.0</ele><time>2026-04-24T08:05:53Z</time></trkpt><trkpt lat="43.5051771123385" lon="12.354730982530235"><ele>554.0</ele><time>2026-04-24T08:05:54Z</time></trkpt><trkpt lat="43.505248358941415" lon="12.354797723993242"><ele>553.0</ele><time>2026-04-24T08:05:55Z</time></trkpt><trkpt lat="43.5053297354648" lon="12.354856529934258"><ele>552.0</ele><time>2026-04-24T08:05:56Z</time></trkpt><trkpt lat="43.50541442659374" lon="12.354918749801104"><ele>551.0</ele><time>2026-04-24T08:05:57Z</time></trkpt><trkpt lat="43.50549334272606" lon="12.354953781158994"><ele>550.0</ele><time>2026-04-24T08:05:58Z</time></trkpt><trkpt lat="43.505563784498484" lon="12.354956783403592"><ele>552.5</ele><time>2026-04-24T08:05:59Z</time></trkpt><trkpt lat="43.50563984442395" lon="12.354976029928046"><ele>555.0</ele><time>2026-04-24T08:06:00Z</time></trkpt><trkpt lat="43.505717008259495" lon="12.354990531568781"><ele>557.5</ele><time>2026-04-24T08:06:01Z</time></trkpt><trkpt lat="43.50578846385831" lon="12.355005728294913"><ele>560.0</ele><time>2026-04-24T08:06:02Z</time></trkpt><trkpt lat="43.50586896480292" lon="12.355036211940513"><ele>562.5</ele><time>2026-04-24T08:06:03Z</time></trkpt><trkpt lat="43.50595223486933" lon="12.355068841989553"><ele>565.0</ele><time>2026-04-24T08:06:04Z</time></trkpt><trkpt lat="43.506022364314816" lon="12.35508700955029"><ele>565.0</ele><time>2026-04-24T08:06:05Z</time></trkpt><trkpt lat="43.50610436780233" lon="12.355082375283473"><ele>565.0</ele><time>2026-04-24T08:06:06Z</time></trkpt><trkpt lat="43.50617817048933" lon="12.355098781429875"><ele>565.0</ele><time>2026-04-24T08:06:07Z</time></trkpt><trkpt lat="43.506252143043405" lon="12.355119260104585"><ele>565.0</ele><time>2026-04-24T08:06:08Z</time></trkpt><trkpt lat="43.506314896881214" lon="12.355146380390448"><ele>565.0</ele><time>2026-04-24T08:06:09Z</time></trkpt><trkpt lat="43.50638053230983" lon="12.355187562542767"><ele>565.0</ele><time>2026-04-24T08:06:10Z</time></trkpt><trkpt lat="43.50650440106677" lon="12.355249458068192"><ele>565.0</ele><time>2026-04-24T08:06:12Z</time></trkpt><trkpt lat="43.50656163116556" lon="12.3552969717995"><ele>565.0</ele><time>2026-04-24T08:06:13Z</time></trkpt><trkpt lat="43.50661461399484" lon="12.355383328224047"><ele>565.0</ele><time>2026-04-24T08:06:14Z</time></trkpt><trkpt lat="43.50666314137839" lon="12.35545500637152"><ele>565.0</ele><time>2026-04-24T08:06:15Z</time></trkpt><trkpt lat="43.506720187276514" lon="12.35554414311442"><ele>565.0</ele><time>2026-04-24T08:06:16Z</time></trkpt><trkpt lat="43.50678562045314" lon="12.35559449110969"><ele>565.0</ele><time>2026-04-24T08:06:17Z</time></trkpt><trkpt lat="43.50688465840297" lon="12.355680613534902"><ele>565.0</ele><time>2026-04-24T08:06:19Z</time></trkpt><trkpt lat="43.506973917643656" lon="12.355729913077317"><ele>565.0</ele><time>2026-04-24T08:06:21Z</time></trkpt><trkpt lat="43.50703692167557" lon="12.355864420672"><ele>565.0</ele><time>2026-04-24T08:06:23Z</time></trkpt><trkpt lat="43.50714516519392" lon="12.355959463559154"><ele>565.0</ele><time>2026-04-24T08:06:25Z</time></trkpt><trkpt lat="43.50722078223121" lon="12.356004717797504"><ele>565.0</ele><time>2026-04-24T08:06:26Z</time></trkpt><trkpt lat="43.50729377506368" lon="12.356066632587467"><ele>567.5</ele><time>2026-04-24T08:06:27Z</time></trkpt><trkpt lat="43.507364878457004" lon="12.35612511226725"><ele>570.0</ele><time>2026-04-24T08:06:28Z</time></trkpt><trkpt lat="43.5074379168129" lon="12.356178115011197"><ele>572.5</ele><time>2026-04-24T08:06:29Z</time></trkpt><trkpt lat="43.507514685036895" lon="12.356239917164245"><ele>575.0</ele><time>2026-04-24T08:06:30Z</time></trkpt><trkpt lat="43.50759331956333" lon="12.356292576275793"><ele>577.5</ele><time>2026-04-24T08:06:31Z</time></trkpt><trkpt lat="43.507671506986156" lon="12.356321317807208"><ele>580.0</ele><time>2026-04-24T08:06:32Z</time></trkpt><trkpt lat="43.50773521269951" lon="12.356365356352246"><ele>580.5</ele><time>2026-04-24T08:06:33Z</time></trkpt><trkpt lat="43.507790090639176" lon="12.356452086110405"><ele>581.0</ele><time>2026-04-24T08:06:34Z</time></trkpt><trkpt lat="43.507824106309016" lon="12.356527473225226"><ele>581.5</ele><time>2026-04-24T08:06:35Z</time></trkpt><trkpt lat="43.50788627332116" lon="12.356573781893205"><ele>582.0</ele><time>2026-04-24T08:06:36Z</time></trkpt><trkpt lat="43.507955308427945" lon="12.356596587830973"><ele>582.5</ele><time>2026-04-24T08:06:37Z</time></trkpt><trkpt lat="43.50808259105628" lon="12.3566002081055"><ele>583.0</ele><time>2026-04-24T08:06:39Z</time></trkpt><trkpt lat="43.50815764728023" lon="12.356654311447915"><ele>583.0</ele><time>2026-04-24T08:06:41Z</time></trkpt><trkpt lat="43.50815578338464" lon="12.356808447871185"><ele>583.0</ele><time>2026-04-24T08:06:43Z</time></trkpt><trkpt lat="43.50815483789526" lon="12.35690414877233"><ele>583.0</ele><time>2026-04-24T08:06:44Z</time></trkpt><trkpt lat="43.508183153496994" lon="12.357059618450029"><ele>583.0</ele><time>2026-04-24T08:06:46Z</time></trkpt><trkpt lat="43.50819179035389" lon="12.357222705113033"><ele>583.0</ele><time>2026-04-24T08:06:48Z</time></trkpt><trkpt lat="43.5082187578641" lon="12.357305375020639"><ele>583.1666666666667</ele><time>2026-04-24T08:06:49Z</time></trkpt><trkpt lat="43.508296260996524" lon="12.357431996054268"><ele>583.3333333333334</ele><time>2026-04-24T08:06:51Z</time></trkpt><trkpt lat="43.50833815199776" lon="12.35750815437198"><ele>583.5</ele><time>2026-04-24T08:06:52Z</time></trkpt><trkpt lat="43.508365079788426" lon="12.35759285592335"><ele>583.6666666666666</ele><time>2026-04-24T08:06:53Z</time></trkpt><trkpt lat="43.50839572791587" lon="12.357683343211301"><ele>583.8333333333333</ele><time>2026-04-24T08:06:54Z</time></trkpt><trkpt lat="43.5084234385083" lon="12.357768242376919"><ele>584.0</ele><time>2026-04-24T08:06:55Z</time></trkpt><trkpt lat="43.508439330555746" lon="12.357942323226279"><ele>584.6</ele><time>2026-04-24T08:06:57Z</time></trkpt><trkpt lat="43.50844037814039" lon="12.358064441694804"><ele>585.2</ele><time>2026-04-24T08:06:58Z</time></trkpt><trkpt lat="43.508455765389336" lon="12.358227288137652"><ele>585.8000000000001</ele><time>2026-04-24T08:07:00Z</time></trkpt><trkpt lat="43.508493640452386" lon="12.35838705124998"><ele>586.4</ele><time>2026-04-24T08:07:02Z</time></trkpt><trkpt lat="43.50852663248189" lon="12.358473005997839"><ele>587.0</ele><time>2026-04-24T08:07:03Z</time></trkpt><trkpt lat="43.5085754773517" lon="12.358547205264198"><ele>587.0</ele><time>2026-04-24T08:07:04Z</time></trkpt><trkpt lat="43.508635539703256" lon="12.358593364207755"><ele>587.0</ele><time>2026-04-24T08:07:05Z</time></trkpt><trkpt lat="43.50870350954311" lon="12.358610798170876"><ele>587.0</ele><time>2026-04-24T08:07:06Z</time></trkpt><trkpt lat="43.50877761089437" lon="12.358624038749406"><ele>587.0</ele><time>2026-04-24T08:07:07Z</time></trkpt><trkpt lat="43.5088689008289" lon="12.358651226367737"><ele>587.0</ele><time>2026-04-24T08:07:08Z</time></trkpt><trkpt lat="43.50894398704119" lon="12.358683212784014"><ele>587.0</ele><time>2026-04-24T08:07:09Z</time></trkpt><trkpt lat="43.509026218374515" lon="12.358715494471369"><ele>589.4</ele><time>2026-04-24T08:07:10Z</time></trkpt><trkpt lat="43.5091490295067" lon="12.35876762236144"><ele>591.8000000000001</ele><time>2026-04-24T08:07:12Z</time></trkpt><trkpt lat="43.50922227699508" lon="12.358770653739063"><ele>594.2</ele><time>2026-04-24T08:07:13Z</time></trkpt><trkpt lat="43.50933865976991" lon="12.358825303629642"><ele>596.6</ele><time>2026-04-24T08:07:15Z</time></trkpt><trkpt lat="43.50938801226113" lon="12.358881193146285"><ele>599.0</ele><time>2026-04-24T08:07:16Z</time></trkpt><trkpt lat="43.509431931903265" lon="12.358959983748523"><ele>599.0</ele><time>2026-04-24T08:07:17Z</time></trkpt><trkpt lat="43.50947520695644" lon="12.359035165754513"><ele>599.0</ele><time>2026-04-24T08:07:18Z</time></trkpt><trkpt lat="43.50956289889626" lon="12.359132103779507"><ele>599.0</ele><time>2026-04-24T08:07:20Z</time></trkpt><trkpt lat="43.509672584256684" lon="12.359183007610621"><ele>599.0</ele><time>2026-04-24T08:07:22Z</time></trkpt><trkpt lat="43.50979372492516" lon="12.359252738650977"><ele>599.0</ele><time>2026-04-24T08:07:24Z</time></trkpt><trkpt lat="43.50985629559994" lon="12.35930287108516"><ele>602.8333333333333</ele><time>2026-04-24T08:07:25Z</time></trkpt><trkpt lat="43.50991400115486" lon="12.359338309696046"><ele>606.6666666666666</ele><time>2026-04-24T08:07:26Z</time></trkpt><trkpt lat="43.50998692528489" lon="12.359385259126281"><ele>610.5</ele><time>2026-04-24T08:07:27Z</time></trkpt><trkpt lat="43.51004324286134" lon="12.359429362858489"><ele>614.3333333333334</ele><time>2026-04-24T08:07:28Z</time></trkpt><trkpt lat="43.51009674982334" lon="12.359487038544586"><ele>618.1666666666667</ele><time>2026-04-24T08:07:29Z</time></trkpt><trkpt lat="43.51014962034186" lon="12.359541482136592"><ele>622.0</ele><time>2026-04-24T08:07:30Z</time></trkpt><trkpt lat="43.51023406448245" lon="12.359647358789971"><ele>623.5</ele><time>2026-04-24T08:07:32Z</time></trkpt><trkpt lat="43.510277964385715" lon="12.359790847556914"><ele>625.0</ele><time>2026-04-24T08:07:34Z</time></trkpt><trkpt lat="43.510302377879846" lon="12.359880110686293"><ele>626.5</ele><time>2026-04-24T08:07:35Z</time></trkpt><trkpt lat="43.51032696616845" lon="12.359965311274301"><ele>628.0</ele><time>2026-04-24T08:07:36Z</time></trkpt><trkpt lat="43.51036222454785" lon="12.3600529905464"><ele>629.5</ele><time>2026-04-24T08:07:37Z</time></trkpt><trkpt lat="43.510416060644346" lon="12.360210360828372"><ele>631.0</ele><time>2026-04-24T08:07:39Z</time></trkpt><trkpt lat="43.510451774363325" lon="12.36032036954221"><ele>631.0</ele><time>2026-04-24T08:07:41Z</time></trkpt><trkpt lat="43.51048108523375" lon="12.36042107082961"><ele>631.0</ele><time>2026-04-24T08:07:43Z</time></trkpt><trkpt lat="43.51043037896531" lon="12.360531318138785"><ele>631.0</ele><time>2026-04-24T08:07:46Z</time></trkpt><trkpt lat="43.51048021459308" lon="12.360616182251706"><ele>631.0</ele><time>2026-04-24T08:07:48Z</time></trkpt><trkpt lat="43.51054890959608" lon="12.36069215468593"><ele>631.0</ele><time>2026-04-24T08:07:50Z</time></trkpt><trkpt lat="43.51058334411492" lon="12.360847049229145"><ele>627.8</ele><time>2026-04-24T08:07:52Z</time></trkpt><trkpt lat="43.51061154117908" lon="12.360985748140175"><ele>624.6</ele><time>2026-04-24T08:07:54Z</time></trkpt><trkpt lat="43.51066321044559" lon="12.361089895347142"><ele>621.4</ele><time>2026-04-24T08:07:56Z</time></trkpt><trkpt lat="43.51077331235171" lon="12.361126196489776"><ele>618.2</ele><time>2026-04-24T08:07:58Z</time></trkpt><trkpt lat="43.51084187643103" lon="12.361172634810535"><ele>615.0</ele><time>2026-04-24T08:08:00Z</time></trkpt><trkpt lat="43.51092005050713" lon="12.361267692047594"><ele>615.0</ele><time>2026-04-24T08:08:02Z</time></trkpt><trkpt lat="43.510984777381715" lon="12.361352215549461"><ele>615.0</ele><time>2026-04-24T08:08:04Z</time></trkpt><trkpt lat="43.51108774871257" lon="12.361443077036473"><ele>615.0</ele><time>2026-04-24T08:08:06Z</time></trkpt><trkpt lat="43.5111855331111" lon="12.36149628566134"><ele>615.0</ele><time>2026-04-24T08:08:08Z</time></trkpt><trkpt lat="43.5112828423622" lon="12.36156031835051"><ele>615.0</ele><time>2026-04-24T08:08:10Z</time></trkpt><trkpt lat="43.511355011704396" lon="12.361637728696168"><ele>618.8</ele><time>2026-04-24T08:08:12Z</time></trkpt><trkpt lat="43.51145196753976" lon="12.361690915911248"><ele>622.6</ele><time>2026-04-24T08:08:14Z</time></trkpt><trkpt lat="43.51151908906808" lon="12.361726890740714"><ele>626.4</ele><time>2026-04-24T08:08:16Z</time></trkpt><trkpt lat="43.51159855911618" lon="12.36178657217963"><ele>630.2</ele><time>2026-04-24T08:08:18Z</time></trkpt><trkpt lat="43.51167721845497" lon="12.361788194930792"><ele>634.0</ele><time>2026-04-24T08:08:22Z</time></trkpt><trkpt lat="43.51169107631777" lon="12.361943009723973"><ele>634.0</ele><time>2026-04-24T08:08:24Z</time></trkpt><trkpt lat="43.51173364267668" lon="12.362061528441702"><ele>634.0</ele><time>2026-04-24T08:08:26Z</time></trkpt><trkpt lat="43.51174331583173" lon="12.362148123377054"><ele>634.0</ele><time>2026-04-24T08:08:28Z</time></trkpt><trkpt lat="43.51178808396587" lon="12.36221658668436"><ele>634.0</ele><time>2026-04-24T08:08:31Z</time></trkpt><trkpt lat="43.511765255597105" lon="12.362317587553518"><ele>634.0</ele><time>2026-04-24T08:09:07Z</time></trkpt><trkpt lat="43.5118429499838" lon="12.362325632378571"><ele>634.0</ele><time>2026-04-24T08:09:10Z</time></trkpt><trkpt lat="43.51189980103241" lon="12.362216213256334"><ele>634.0</ele><time>2026-04-24T08:09:12Z</time></trkpt><trkpt lat="43.5119842830961" lon="12.362161018078835"><ele>634.0</ele><time>2026-04-24T08:09:14Z</time></trkpt><trkpt lat="43.51201702300689" lon="12.362246176383179"><ele>634.0</ele><time>2026-04-24T08:09:16Z</time></trkpt><trkpt lat="43.51200180173526" lon="12.362402304588688"><ele>634.0</ele><time>2026-04-24T08:09:18Z</time></trkpt><trkpt lat="43.51207599753877" lon="12.36249470155472"><ele>634.0</ele><time>2026-04-24T08:09:20Z</time></trkpt><trkpt lat="43.51215086264216" lon="12.36249015143281"><ele>639.0</ele><time>2026-04-24T08:09:21Z</time></trkpt><trkpt lat="43.512221285818505" lon="12.362468804473489"><ele>644.0</ele><time>2026-04-24T08:09:22Z</time></trkpt><trkpt lat="43.512291561370205" lon="12.362443318559693"><ele>649.0</ele><time>2026-04-24T08:09:23Z</time></trkpt><trkpt lat="43.51236858347324" lon="12.362394275437415"><ele>654.0</ele><time>2026-04-24T08:09:24Z</time></trkpt><trkpt lat="43.512432471864834" lon="12.362335029424406"><ele>659.0</ele><time>2026-04-24T08:09:25Z</time></trkpt><trkpt lat="43.5125055656428" lon="12.36226871880649"><ele>664.0</ele><time>2026-04-24T08:09:26Z</time></trkpt><trkpt lat="43.51262527987478" lon="12.362204149580247"><ele>663.8000000000001</ele><time>2026-04-24T08:09:28Z</time></trkpt><trkpt lat="43.5127293050866" lon="12.36216741241094"><ele>663.6</ele><time>2026-04-24T08:09:30Z</time></trkpt><trkpt lat="43.512842543304494" lon="12.362196929090105"><ele>663.4</ele><time>2026-04-24T08:09:32Z</time></trkpt><trkpt lat="43.51292031120551" lon="12.362212657075855"><ele>663.2</ele><time>2026-04-24T08:09:33Z</time></trkpt><trkpt lat="43.51300319521879" lon="12.362212106504602"><ele>663.0</ele><time>2026-04-24T08:09:34Z</time></trkpt><trkpt lat="43.51307251460738" lon="12.36219611353272"><ele>663.0</ele><time>2026-04-24T08:09:35Z</time></trkpt><trkpt lat="43.51314890607005" lon="12.362149558472971"><ele>663.0</ele><time>2026-04-24T08:09:36Z</time></trkpt><trkpt lat="43.51324571711582" lon="12.362067605926043"><ele>663.0</ele><time>2026-04-24T08:09:38Z</time></trkpt><trkpt lat="43.51332169669582" lon="12.361932056848694"><ele>663.0</ele><time>2026-04-24T08:09:40Z</time></trkpt><trkpt lat="43.513412006098456" lon="12.361834931932174"><ele>663.0</ele><time>2026-04-24T08:09:42Z</time></trkpt><trkpt lat="43.51348590037466" lon="12.361735037776826"><ele>663.0</ele><time>2026-04-24T08:09:44Z</time></trkpt><trkpt lat="43.513528249251955" lon="12.361586815082628"><ele>663.0</ele><time>2026-04-24T08:09:46Z</time></trkpt><trkpt lat="43.513499547794545" lon="12.361420276318455"><ele>663.0</ele><time>2026-04-24T08:09:48Z</time></trkpt><trkpt lat="43.513434602475414" lon="12.361281925111838"><ele>663.0</ele><time>2026-04-24T08:09:50Z</time></trkpt><trkpt lat="43.513390149296555" lon="12.361213093580158"><ele>663.0</ele><time>2026-04-24T08:09:51Z</time></trkpt><trkpt lat="43.5133336725768" lon="12.361098438619331"><ele>665.0</ele><time>2026-04-24T08:09:53Z</time></trkpt><trkpt lat="43.513295387249656" lon="12.361018851557999"><ele>667.0</ele><time>2026-04-24T08:09:54Z</time></trkpt><trkpt lat="43.51324329700505" lon="12.360950491161848"><ele>669.0</ele><time>2026-04-24T08:09:55Z</time></trkpt><trkpt lat="43.51315793854439" lon="12.360818444232173"><ele>671.0</ele><time>2026-04-24T08:09:57Z</time></trkpt><trkpt lat="43.51310076031266" lon="12.360740119205243"><ele>673.0</ele><time>2026-04-24T08:09:58Z</time></trkpt><trkpt lat="43.513052480328554" lon="12.360654120112134"><ele>675.0</ele><time>2026-04-24T08:09:59Z</time></trkpt><trkpt lat="43.513007180615006" lon="12.36056128564739"><ele>674.0</ele><time>2026-04-24T08:10:00Z</time></trkpt><trkpt lat="43.512958394244656" lon="12.360476356116623"><ele>673.0</ele><time>2026-04-24T08:10:01Z</time></trkpt><trkpt lat="43.51288935542373" lon="12.360351803879647"><ele>672.0</ele><time>2026-04-24T08:10:03Z</time></trkpt><trkpt lat="43.51283887452195" lon="12.360278031059224"><ele>671.0</ele><time>2026-04-24T08:10:04Z</time></trkpt><trkpt lat="43.51276257977545" lon="12.360223977579055"><ele>670.0</ele><time>2026-04-24T08:10:05Z</time></trkpt><trkpt lat="43.512702801209706" lon="12.360189637103979"><ele>669.0</ele><time>2026-04-24T08:10:06Z</time></trkpt><trkpt lat="43.512632443718985" lon="12.360068223982585"><ele>669.0</ele><time>2026-04-24T08:10:08Z</time></trkpt><trkpt lat="43.5126020202213" lon="12.359979317527229"><ele>669.0</ele><time>2026-04-24T08:10:09Z</time></trkpt><trkpt lat="43.51256570606348" lon="12.359869678269671"><ele>669.0</ele><time>2026-04-24T08:10:10Z</time></trkpt><trkpt lat="43.51253309124074" lon="12.359714643671298"><ele>669.0</ele><time>2026-04-24T08:10:12Z</time></trkpt><trkpt lat="43.51252626487705" lon="12.359616179856378"><ele>669.0</ele><time>2026-04-24T08:10:13Z</time></trkpt><trkpt lat="43.51252909336596" lon="12.359498581471783"><ele>669.0</ele><time>2026-04-24T08:10:14Z</time></trkpt><trkpt lat="43.51252978402409" lon="12.35939475458472"><ele>670.3333333333334</ele><time>2026-04-24T08:10:15Z</time></trkpt><trkpt lat="43.51252796282448" lon="12.359278188900177"><ele>671.6666666666666</ele><time>2026-04-24T08:10:16Z</time></trkpt><trkpt lat="43.51254495064616" lon="12.35912777084482"><ele>673.0</ele><time>2026-04-24T08:10:18Z</time></trkpt><trkpt lat="43.51262971615862" lon="12.359031409145523"><ele>674.3333333333333</ele><time>2026-04-24T08:10:20Z</time></trkpt><trkpt lat="43.512692654195895" lon="12.358982065389212"><ele>675.6666666666666</ele><time>2026-04-24T08:10:21Z</time></trkpt><trkpt lat="43.51275470890965" lon="12.35893758010396"><ele>677.0</ele><time>2026-04-24T08:10:22Z</time></trkpt><trkpt lat="43.51286037682242" lon="12.35891181125343"><ele>677.6666666666666</ele><time>2026-04-24T08:10:24Z</time></trkpt><trkpt lat="43.51292344097487" lon="12.358921421100485"><ele>678.3333333333333</ele><time>2026-04-24T08:10:25Z</time></trkpt><trkpt lat="43.513023338942645" lon="12.358857196403413"><ele>679.0</ele><time>2026-04-24T08:10:27Z</time></trkpt><trkpt lat="43.513070447479755" lon="12.358785282250773"><ele>679.6666666666666</ele><time>2026-04-24T08:10:28Z</time></trkpt><trkpt lat="43.513127098055904" lon="12.358739696038413"><ele>680.3333333333334</ele><time>2026-04-24T08:10:29Z</time></trkpt><trkpt lat="43.513195152040716" lon="12.358709727890929"><ele>681.0</ele><time>2026-04-24T08:10:30Z</time></trkpt><trkpt lat="43.513275544008756" lon="12.358681982486878"><ele>681.0</ele><time>2026-04-24T08:10:31Z</time></trkpt><trkpt lat="43.51335681149636" lon="12.358668924528791"><ele>681.0</ele><time>2026-04-24T08:10:32Z</time></trkpt><trkpt lat="43.51345475800478" lon="12.358639435555725"><ele>681.0</ele><time>2026-04-24T08:10:33Z</time></trkpt><trkpt lat="43.51354913274949" lon="12.358609047470514"><ele>681.0</ele><time>2026-04-24T08:10:34Z</time></trkpt><trkpt lat="43.51364935529032" lon="12.358582010455722"><ele>681.0</ele><time>2026-04-24T08:10:35Z</time></trkpt><trkpt lat="43.51375480510482" lon="12.358562837162676"><ele>684.5</ele><time>2026-04-24T08:10:36Z</time></trkpt><trkpt lat="43.513841754651835" lon="12.358546588839378"><ele>688.0</ele><time>2026-04-24T08:10:37Z</time></trkpt><trkpt lat="43.51390989065581" lon="12.358510880561944"><ele>691.5</ele><time>2026-04-24T08:10:38Z</time></trkpt><trkpt lat="43.51396889384786" lon="12.358436414257126"><ele>695.0</ele><time>2026-04-24T08:10:39Z</time></trkpt><trkpt lat="43.51402462645856" lon="12.35832584250042"><ele>698.5</ele><time>2026-04-24T08:10:40Z</time></trkpt><trkpt lat="43.514083503551426" lon="12.358207566833716"><ele>702.0</ele><time>2026-04-24T08:10:41Z</time></trkpt><trkpt lat="43.51415696717341" lon="12.358113689409043"><ele>700.4000000000001</ele><time>2026-04-24T08:10:42Z</time></trkpt><trkpt lat="43.51424159139722" lon="12.358025099286376"><ele>698.8000000000001</ele><time>2026-04-24T08:10:43Z</time></trkpt><trkpt lat="43.51432749105998" lon="12.357936299425557"><ele>697.2</ele><time>2026-04-24T08:10:44Z</time></trkpt><trkpt lat="43.51440723389858" lon="12.357856350281843"><ele>695.6</ele><time>2026-04-24T08:10:45Z</time></trkpt><trkpt lat="43.51447791395423" lon="12.35778670321138"><ele>694.0</ele><time>2026-04-24T08:10:46Z</time></trkpt><trkpt lat="43.514528580993584" lon="12.357692844548879"><ele>694.0</ele><time>2026-04-24T08:10:47Z</time></trkpt><trkpt lat="43.51454961053274" lon="12.35758061035202"><ele>694.0</ele><time>2026-04-24T08:10:48Z</time></trkpt><trkpt lat="43.514551668803854" lon="12.357462732300561"><ele>694.0</ele><time>2026-04-24T08:10:49Z</time></trkpt><trkpt lat="43.514563161221055" lon="12.357355434851122"><ele>694.0</ele><time>2026-04-24T08:10:50Z</time></trkpt><trkpt lat="43.5146589393763" lon="12.357216863403666"><ele>694.0</ele><time>2026-04-24T08:10:52Z</time></trkpt><trkpt lat="43.5147403836794" lon="12.357171931443878"><ele>697.4000000000001</ele><time>2026-04-24T08:10:53Z</time></trkpt><trkpt lat="43.51483350292511" lon="12.357140233241111"><ele>700.8</ele><time>2026-04-24T08:10:54Z</time></trkpt><trkpt lat="43.51493396697317" lon="12.357117220371537"><ele>704.2</ele><time>2026-04-24T08:10:55Z</time></trkpt><trkpt lat="43.51504002710862" lon="12.35708590599997"><ele>707.5999999999999</ele><time>2026-04-24T08:10:56Z</time></trkpt><trkpt lat="43.51513424039009" lon="12.357042034728599"><ele>711.0</ele><time>2026-04-24T08:10:57Z</time></trkpt><trkpt lat="43.51523178653706" lon="12.357025507142492"><ele>711.0</ele><time>2026-04-24T08:10:58Z</time></trkpt><trkpt lat="43.515323349697674" lon="12.35700374278428"><ele>711.0</ele><time>2026-04-24T08:10:59Z</time></trkpt><trkpt lat="43.515399515810536" lon="12.356982867144172"><ele>711.0</ele><time>2026-04-24T08:11:00Z</time></trkpt><trkpt lat="43.51548645226009" lon="12.357069698348784"><ele>711.0</ele><time>2026-04-24T08:11:02Z</time></trkpt><trkpt lat="43.515484779996356" lon="12.357245414729636"><ele>711.0</ele><time>2026-04-24T08:11:04Z</time></trkpt><trkpt lat="43.515442000864766" lon="12.357324304520223"><ele>712.5</ele><time>2026-04-24T08:11:05Z</time></trkpt><trkpt lat="43.51539893211075" lon="12.357416400591749"><ele>714.0</ele><time>2026-04-24T08:11:06Z</time></trkpt><trkpt lat="43.515351641580544" lon="12.357483138440978"><ele>715.5</ele><time>2026-04-24T08:11:07Z</time></trkpt><trkpt lat="43.51534510596923" lon="12.35760627351339"><ele>717.0</ele><time>2026-04-24T08:11:09Z</time></trkpt><trkpt lat="43.5154573545684" lon="12.357609713790504"><ele>718.5</ele><time>2026-04-24T08:11:11Z</time></trkpt><trkpt lat="43.51551474114953" lon="12.357565195230602"><ele>720.0</ele><time>2026-04-24T08:11:12Z</time></trkpt><trkpt lat="43.51557911293725" lon="12.357513466604715"><ele>722.3333333333334</ele><time>2026-04-24T08:11:13Z</time></trkpt><trkpt lat="43.51564511443692" lon="12.357476189625899"><ele>724.6666666666666</ele><time>2026-04-24T08:11:14Z</time></trkpt><trkpt lat="43.515714001042475" lon="12.357431180429572"><ele>727.0</ele><time>2026-04-24T08:11:15Z</time></trkpt><trkpt lat="43.515769005499614" lon="12.357378054950154"><ele>729.3333333333333</ele><time>2026-04-24T08:11:16Z</time></trkpt><trkpt lat="43.51582446379953" lon="12.357291324788171"><ele>731.6666666666666</ele><time>2026-04-24T08:11:18Z</time></trkpt><trkpt lat="43.51583510084889" lon="12.35716479046716"><ele>734.0</ele><time>2026-04-24T08:11:20Z</time></trkpt><trkpt lat="43.51579952784483" lon="12.357079779571517"><ele>734.0</ele><time>2026-04-24T08:11:21Z</time></trkpt><trkpt lat="43.515745466602034" lon="12.356990152644114"><ele>734.0</ele><time>2026-04-24T08:11:22Z</time></trkpt><trkpt lat="43.515707010942016" lon="12.356918593237442"><ele>734.0</ele><time>2026-04-24T08:11:23Z</time></trkpt><trkpt lat="43.5156810962098" lon="12.35682280931692"><ele>734.0</ele><time>2026-04-24T08:11:24Z</time></trkpt><trkpt lat="43.515655271731035" lon="12.356710279820135"><ele>734.0</ele><time>2026-04-24T08:11:25Z</time></trkpt><trkpt lat="43.515627492770264" lon="12.356584656691616"><ele>734.0</ele><time>2026-04-24T08:11:26Z</time></trkpt><trkpt lat="43.51560813674216" lon="12.356458632954721"><ele>733.3333333333333</ele><time>2026-04-24T08:11:27Z</time></trkpt><trkpt lat="43.51560746204452" lon="12.356333085235075"><ele>732.6666666666666</ele><time>2026-04-24T08:11:28Z</time></trkpt><trkpt lat="43.515621044587206" lon="12.35621397775803"><ele>732.0</ele><time>2026-04-24T08:11:29Z</time></trkpt><trkpt lat="43.51565105853692" lon="12.356093628842398"><ele>731.3333333333334</ele><time>2026-04-24T08:11:30Z</time></trkpt><trkpt lat="43.5156955749395" lon="12.35598837788055"><ele>730.6666666666667</ele><time>2026-04-24T08:11:31Z</time></trkpt><trkpt lat="43.51575454373657" lon="12.355906440729107"><ele>730.0</ele><time>2026-04-24T08:11:32Z</time></trkpt><trkpt lat="43.51581715493702" lon="12.355836313614338"><ele>730.0</ele><time>2026-04-24T08:11:33Z</time></trkpt><trkpt lat="43.51588765773057" lon="12.355783557372485"><ele>730.0</ele><time>2026-04-24T08:11:34Z</time></trkpt><trkpt lat="43.515958148762344" lon="12.355724288458052"><ele>730.0</ele><time>2026-04-24T08:11:35Z</time></trkpt><trkpt lat="43.51602632877006" lon="12.355642996689328"><ele>730.0</ele><time>2026-04-24T08:11:36Z</time></trkpt><trkpt lat="43.51609690563758" lon="12.355572700094056"><ele>730.0</ele><time>2026-04-24T08:11:37Z</time></trkpt><trkpt lat="43.51618447084314" lon="12.355509444007314"><ele>730.0</ele><time>2026-04-24T08:11:38Z</time></trkpt><trkpt lat="43.51628986762953" lon="12.355465444994788"><ele>733.0</ele><time>2026-04-24T08:11:39Z</time></trkpt><trkpt lat="43.51639442116631" lon="12.355438683200521"><ele>736.0</ele><time>2026-04-24T08:11:40Z</time></trkpt><trkpt lat="43.516494285937846" lon="12.355416885506942"><ele>739.0</ele><time>2026-04-24T08:11:41Z</time></trkpt><trkpt lat="43.51655695635038" lon="12.355393596306834"><ele>742.0</ele><time>2026-04-24T08:11:42Z</time></trkpt><trkpt lat="43.516615762731334" lon="12.355335251755234"><ele>745.0</ele><time>2026-04-24T08:11:43Z</time></trkpt><trkpt lat="43.51666928626432" lon="12.355254884095679"><ele>748.0</ele><time>2026-04-24T08:11:44Z</time></trkpt><trkpt lat="43.51671218312574" lon="12.355141628729548"><ele>748.0</ele><time>2026-04-24T08:11:45Z</time></trkpt><trkpt lat="43.516745658511155" lon="12.355029315927348"><ele>748.0</ele><time>2026-04-24T08:11:46Z</time></trkpt><trkpt lat="43.51678937643122" lon="12.354910186946341"><ele>748.0</ele><time>2026-04-24T08:11:47Z</time></trkpt><trkpt lat="43.516819083877586" lon="12.354784853219867"><ele>748.0</ele><time>2026-04-24T08:11:48Z</time></trkpt><trkpt lat="43.51686665598599" lon="12.354671526366872"><ele>748.0</ele><time>2026-04-24T08:11:49Z</time></trkpt><trkpt lat="43.51690815284508" lon="12.354561132367444"><ele>749.6666666666667</ele><time>2026-04-24T08:11:50Z</time></trkpt><trkpt lat="43.51694926029503" lon="12.354472566734918"><ele>751.3333333333334</ele><time>2026-04-24T08:11:51Z</time></trkpt><trkpt lat="43.517069157421076" lon="12.354442459668789"><ele>753.0</ele><time>2026-04-24T08:11:53Z</time></trkpt><trkpt lat="43.51713059577954" lon="12.35446650034667"><ele>754.6666666666666</ele><time>2026-04-24T08:11:54Z</time></trkpt><trkpt lat="43.51721574995287" lon="12.354494801560682"><ele>756.3333333333333</ele><time>2026-04-24T08:11:55Z</time></trkpt><trkpt lat="43.51730245156368" lon="12.354529162402851"><ele>758.0</ele><time>2026-04-24T08:11:56Z</time></trkpt><trkpt lat="43.5173741372186" lon="12.354551961775432"><ele>760.0</ele><time>2026-04-24T08:11:57Z</time></trkpt><trkpt lat="43.51745369846651" lon="12.354564012458507"><ele>762.0</ele><time>2026-04-24T08:11:58Z</time></trkpt><trkpt lat="43.51753390198852" lon="12.354569561813943"><ele>764.0</ele><time>2026-04-24T08:11:59Z</time></trkpt><trkpt lat="43.51762002124252" lon="12.35457475267934"><ele>766.0</ele><time>2026-04-24T08:12:00Z</time></trkpt><trkpt lat="43.51770346808964" lon="12.354571125922591"><ele>768.0000000000001</ele><time>2026-04-24T08:12:01Z</time></trkpt><trkpt lat="43.517782168549466" lon="12.35456151419432"><ele>770.0</ele><time>2026-04-24T08:12:02Z</time></trkpt><trkpt lat="43.517845582604906" lon="12.35453267782418"><ele>768.8</ele><time>2026-04-24T08:12:03Z</time></trkpt><trkpt lat="43.51790615463982" lon="12.354500463651048"><ele>767.6</ele><time>2026-04-24T08:12:04Z</time></trkpt><trkpt lat="43.51797005116951" lon="12.354403045128084"><ele>766.4000000000001</ele><time>2026-04-24T08:12:06Z</time></trkpt><trkpt lat="43.517980644671816" lon="12.354239136082228"><ele>765.2</ele><time>2026-04-24T08:12:08Z</time></trkpt><trkpt lat="43.51797549777922" lon="12.354152422722555"><ele>764.0</ele><time>2026-04-24T08:12:09Z</time></trkpt><trkpt lat="43.51798900512132" lon="12.353954294952645"><ele>766.0</ele><time>2026-04-24T08:12:11Z</time></trkpt><trkpt lat="43.51801895980383" lon="12.353841468919075"><ele>768.0</ele><time>2026-04-24T08:12:12Z</time></trkpt><trkpt lat="43.518055487625325" lon="12.35374900613814"><ele>770.0</ele><time>2026-04-24T08:12:12.999Z</time></trkpt><trkpt lat="43.518113186269865" lon="12.353696729261694"><ele>772.0</ele><time>2026-04-24T08:12:13.999Z</time></trkpt><trkpt lat="43.51818877479147" lon="12.353653823648209"><ele>774.0000000000001</ele><time>2026-04-24T08:12:14.999Z</time></trkpt><trkpt lat="43.518282526322935" lon="12.353626068033694"><ele>776.0</ele><time>2026-04-24T08:12:15.999Z</time></trkpt><trkpt lat="43.518362916845454" lon="12.353595147497506"><ele>776.0</ele><time>2026-04-24T08:12:16.999Z</time></trkpt><trkpt lat="43.518437810533946" lon="12.353489364133729"><ele>776.0</ele><time>2026-04-24T08:12:18.999Z</time></trkpt><trkpt lat="43.51838006025151" lon="12.353341193965678"><ele>776.0</ele><time>2026-04-24T08:12:20.999Z</time></trkpt><trkpt lat="43.51833781067531" lon="12.353257751264598"><ele>776.0</ele><time>2026-04-24T08:12:21.999Z</time></trkpt><trkpt lat="43.51831141690978" lon="12.353111896140776"><ele>776.0</ele><time>2026-04-24T08:12:23.999Z</time></trkpt><trkpt lat="43.51829231095821" lon="12.353000270329648"><ele>777.0000000000001</ele><time>2026-04-24T08:12:24.999Z</time></trkpt><trkpt lat="43.51827751484205" lon="12.352901867952706"><ele>778.0</ele><time>2026-04-24T08:12:25.999Z</time></trkpt><trkpt lat="43.518256435587205" lon="12.352792170324378"><ele>779.0</ele><time>2026-04-24T08:12:26.999Z</time></trkpt><trkpt lat="43.51822985365214" lon="12.352697210363297"><ele>780.0</ele><time>2026-04-24T08:12:27.999Z</time></trkpt><trkpt lat="43.5181919954147" lon="12.35260101229575"><ele>781.0000000000001</ele><time>2026-04-24T08:12:28.999Z</time></trkpt><trkpt lat="43.51816257428281" lon="12.352511174555595"><ele>782.0</ele><time>2026-04-24T08:12:29.999Z</time></trkpt><trkpt lat="43.51812292061249" lon="12.352409213136562"><ele>782.0000000000001</ele><time>2026-04-24T08:12:30.999Z</time></trkpt><trkpt lat="43.51809385212018" lon="12.352304539133193"><ele>782.0</ele><time>2026-04-24T08:12:31.999Z</time></trkpt><trkpt lat="43.51807783282509" lon="12.352196206233028"><ele>782.0</ele><time>2026-04-24T08:12:32.999Z</time></trkpt><trkpt lat="43.51810770787165" lon="12.352030589439359"><ele>782.0</ele><time>2026-04-24T08:12:34.999Z</time></trkpt><trkpt lat="43.51815608376927" lon="12.351954343202374"><ele>782.0000000000001</ele><time>2026-04-24T08:12:35.999Z</time></trkpt><trkpt lat="43.518222955144246" lon="12.35188807271793"><ele>782.0</ele><time>2026-04-24T08:12:36.999Z</time></trkpt><trkpt lat="43.51829363738905" lon="12.351830389140632"><ele>784.1666666666667</ele><time>2026-04-24T08:12:37.999Z</time></trkpt><trkpt lat="43.518365858333205" lon="12.351749987948113"><ele>786.3333333333334</ele><time>2026-04-24T08:12:38.999Z</time></trkpt><trkpt lat="43.51843252509654" lon="12.351680581613833"><ele>788.5</ele><time>2026-04-24T08:12:39.999Z</time></trkpt><trkpt lat="43.51849866604845" lon="12.351608104623981"><ele>790.6666666666667</ele><time>2026-04-24T08:12:40.999Z</time></trkpt><trkpt lat="43.51857629420563" lon="12.35152539837847"><ele>792.8333333333334</ele><time>2026-04-24T08:12:41.999Z</time></trkpt><trkpt lat="43.51865272599884" lon="12.351459718942818"><ele>795.0</ele><time>2026-04-24T08:12:42.999Z</time></trkpt><trkpt lat="43.51873194386895" lon="12.351416565258484"><ele>795.8</ele><time>2026-04-24T08:12:43.999Z</time></trkpt><trkpt lat="43.518800472468484" lon="12.351369796132381"><ele>796.6</ele><time>2026-04-24T08:12:45Z</time></trkpt><trkpt lat="43.51885191898243" lon="12.351259751221285"><ele>797.4000000000001</ele><time>2026-04-24T08:12:47Z</time></trkpt><trkpt lat="43.51884693757107" lon="12.351101103524455"><ele>798.2</ele><time>2026-04-24T08:12:49Z</time></trkpt><trkpt lat="43.51889207516732" lon="12.35096666432521"><ele>799.0</ele><time>2026-04-24T08:12:51Z</time></trkpt><trkpt lat="43.51892976011566" lon="12.350877829779725"><ele>798.9999999999999</ele><time>2026-04-24T08:12:52Z</time></trkpt><trkpt lat="43.51892578225007" lon="12.350720213979212"><ele>799.0</ele><time>2026-04-24T08:12:54Z</time></trkpt><trkpt lat="43.51890715190705" lon="12.350610429864345"><ele>799.0</ele><time>2026-04-24T08:12:55Z</time></trkpt><trkpt lat="43.5189070579735" lon="12.35050704820671"><ele>799.0</ele><time>2026-04-24T08:12:56Z</time></trkpt><trkpt lat="43.51892969774714" lon="12.350409132621115"><ele>798.9999999999999</ele><time>2026-04-24T08:12:57Z</time></trkpt><trkpt lat="43.51896862445491" lon="12.350309183566972"><ele>799.0</ele><time>2026-04-24T08:12:58Z</time></trkpt><trkpt lat="43.51902021813359" lon="12.350238838503389"><ele>797.1666666666666</ele><time>2026-04-24T08:12:59Z</time></trkpt><trkpt lat="43.519091468860914" lon="12.350162484774387"><ele>795.3333333333333</ele><time>2026-04-24T08:13:00Z</time></trkpt><trkpt lat="43.51915213538869" lon="12.350087388533971"><ele>793.5</ele><time>2026-04-24T08:13:01Z</time></trkpt><trkpt lat="43.51921004911322" lon="12.35001223544793"><ele>791.6666666666667</ele><time>2026-04-24T08:13:02Z</time></trkpt><trkpt lat="43.51925956312213" lon="12.349929503889616"><ele>789.8333333333334</ele><time>2026-04-24T08:13:03Z</time></trkpt><trkpt lat="43.51930524395733" lon="12.349824557401808"><ele>788.0</ele><time>2026-04-24T08:13:04Z</time></trkpt><trkpt lat="43.51934336700933" lon="12.349733102065931"><ele>788.8</ele><time>2026-04-24T08:13:05Z</time></trkpt><trkpt lat="43.519397308083704" lon="12.349646800188745"><ele>789.5999999999999</ele><time>2026-04-24T08:13:06Z</time></trkpt><trkpt lat="43.519462369116575" lon="12.349559525110557"><ele>790.4000000000001</ele><time>2026-04-24T08:13:07Z</time></trkpt><trkpt lat="43.51952515663166" lon="12.349452252234911"><ele>791.2</ele><time>2026-04-24T08:13:08Z</time></trkpt><trkpt lat="43.5195822010387" lon="12.349342163469696"><ele>792.0</ele><time>2026-04-24T08:13:09Z</time></trkpt><trkpt lat="43.51964658426987" lon="12.34925619448134"><ele>792.0</ele><time>2026-04-24T08:13:10Z</time></trkpt><trkpt lat="43.51970148827313" lon="12.349194910958344"><ele>792.0</ele><time>2026-04-24T08:13:11Z</time></trkpt><trkpt lat="43.51982331859284" lon="12.349132937774176"><ele>792.0</ele><time>2026-04-24T08:13:13Z</time></trkpt><trkpt lat="43.5199267593627" lon="12.349111743421638"><ele>792.0</ele><time>2026-04-24T08:13:15Z</time></trkpt><trkpt lat="43.51996574713316" lon="12.348991230624298"><ele>792.0</ele><time>2026-04-24T08:13:17Z</time></trkpt><trkpt lat="43.51996853714588" lon="12.348889470969484"><ele>790.0</ele><time>2026-04-24T08:13:20Z</time></trkpt><trkpt lat="43.52001245548963" lon="12.348813638987293"><ele>788.0</ele><time>2026-04-24T08:13:28Z</time></trkpt><trkpt lat="43.52007021092768" lon="12.348736820351151"><ele>786.0</ele><time>2026-04-24T08:13:42Z</time></trkpt><trkpt lat="43.520127811550765" lon="12.348651615414376"><ele>784.0</ele><time>2026-04-24T08:13:44Z</time></trkpt><trkpt lat="43.52013411963866" lon="12.348530512505139"><ele>782.0</ele><time>2026-04-24T08:13:46Z</time></trkpt><trkpt lat="43.52012958745172" lon="12.348371177396125"><ele>780.0</ele><time>2026-04-24T08:13:48Z</time></trkpt><trkpt lat="43.520192793236276" lon="12.348235096719284"><ele>780.0</ele><time>2026-04-24T08:13:50Z</time></trkpt><trkpt lat="43.52029685489318" lon="12.348138563307147"><ele>780.0</ele><time>2026-04-24T08:13:52Z</time></trkpt><trkpt lat="43.52033466374341" lon="12.348065588164282"><ele>780.0</ele><time>2026-04-24T08:13:53Z</time></trkpt><trkpt lat="43.5204213812328" lon="12.347985511572801"><ele>780.0</ele><time>2026-04-24T08:13:55Z</time></trkpt><trkpt lat="43.52051323956417" lon="12.34791934158234"><ele>780.0</ele><time>2026-04-24T08:13:57Z</time></trkpt><trkpt lat="43.52060729767998" lon="12.347868247084033"><ele>783.2</ele><time>2026-04-24T08:13:59Z</time></trkpt><trkpt lat="43.52060303136981" lon="12.347710613936188"><ele>786.4</ele><time>2026-04-24T08:14:01Z</time></trkpt><trkpt lat="43.52056891391377" lon="12.347616721474141"><ele>789.5999999999999</ele><time>2026-04-24T08:14:02Z</time></trkpt><trkpt lat="43.52059214102766" lon="12.347458298377466"><ele>792.8</ele><time>2026-04-24T08:14:04Z</time></trkpt><trkpt lat="43.520639790489575" lon="12.347373541266062"><ele>796.0</ele><time>2026-04-24T08:14:05Z</time></trkpt><trkpt lat="43.52066744197187" lon="12.347287875988464"><ele>797.0</ele><time>2026-04-24T08:14:06Z</time></trkpt><trkpt lat="43.52064109475632" lon="12.347134344738452"><ele>798.0</ele><time>2026-04-24T08:14:08Z</time></trkpt><trkpt lat="43.52061524376349" lon="12.347049339794836"><ele>799.0</ele><time>2026-04-24T08:14:09Z</time></trkpt><trkpt lat="43.520571200468716" lon="12.346889259139687"><ele>800.0</ele><time>2026-04-24T08:14:11Z</time></trkpt><trkpt lat="43.5205689556228" lon="12.346720294699512"><ele>801.0</ele><time>2026-04-24T08:14:13Z</time></trkpt><trkpt lat="43.52058077777571" lon="12.346624972105182"><ele>801.0</ele><time>2026-04-24T08:14:14Z</time></trkpt><trkpt lat="43.520540749220466" lon="12.34647675029945"><ele>801.0</ele><time>2026-04-24T08:14:16Z</time></trkpt><trkpt lat="43.52053582097835" lon="12.34637057839725"><ele>801.0</ele><time>2026-04-24T08:14:18Z</time></trkpt><trkpt lat="43.52055023327412" lon="12.346192539018853"><ele>801.0</ele><time>2026-04-24T08:14:19.999Z</time></trkpt><trkpt lat="43.5205380518432" lon="12.346097977973185"><ele>801.0</ele><time>2026-04-24T08:14:20.999Z</time></trkpt><trkpt lat="43.52054615969745" lon="12.345967085552516"><ele>800.3333333333334</ele><time>2026-04-24T08:14:22.999Z</time></trkpt><trkpt lat="43.52059548659842" lon="12.345907901484045"><ele>799.6666666666667</ele><time>2026-04-24T08:14:23.999Z</time></trkpt><trkpt lat="43.52066514592819" lon="12.345836606314306"><ele>799.0</ele><time>2026-04-24T08:14:24.999Z</time></trkpt><trkpt lat="43.52073202437623" lon="12.345781234774002"><ele>798.3333333333334</ele><time>2026-04-24T08:14:25.999Z</time></trkpt><trkpt lat="43.52080651775759" lon="12.345736090774322"><ele>797.6666666666667</ele><time>2026-04-24T08:14:26.999Z</time></trkpt><trkpt lat="43.520882243239924" lon="12.345679775519839"><ele>797.0</ele><time>2026-04-24T08:14:27.999Z</time></trkpt><trkpt lat="43.520953589619445" lon="12.345622260609005"><ele>797.0000000000001</ele><time>2026-04-24T08:14:28.999Z</time></trkpt><trkpt lat="43.5210187122356" lon="12.345556904833488"><ele>797.0</ele><time>2026-04-24T08:14:29.999Z</time></trkpt><trkpt lat="43.521082226238164" lon="12.345484409257988"><ele>797.0</ele><time>2026-04-24T08:14:30.999Z</time></trkpt><trkpt lat="43.52114305559252" lon="12.345411805782259"><ele>797.0</ele><time>2026-04-24T08:14:31.999Z</time></trkpt><trkpt lat="43.52120937137106" lon="12.345351455601111"><ele>797.0000000000001</ele><time>2026-04-24T08:14:32.999Z</time></trkpt><trkpt lat="43.52128235759169" lon="12.345237757613956"><ele>797.0</ele><time>2026-04-24T08:14:34.999Z</time></trkpt><trkpt lat="43.52133311846051" lon="12.345090227540652"><ele>795.8333333333334</ele><time>2026-04-24T08:14:36.999Z</time></trkpt><trkpt lat="43.52134789804093" lon="12.34497294131368"><ele>794.6666666666667</ele><time>2026-04-24T08:14:37.999Z</time></trkpt><trkpt lat="43.52137701071731" lon="12.344871161393954"><ele>793.5</ele><time>2026-04-24T08:14:38.999Z</time></trkpt><trkpt lat="43.52140477578471" lon="12.344775437277438"><ele>792.3333333333333</ele><time>2026-04-24T08:14:39.999Z</time></trkpt><trkpt lat="43.521445815323574" lon="12.344699584116228"><ele>791.1666666666666</ele><time>2026-04-24T08:14:40.999Z</time></trkpt><trkpt lat="43.521511220736585" lon="12.344664964428084"><ele>790.0</ele><time>2026-04-24T08:14:41.999Z</time></trkpt><trkpt lat="43.5216026794539" lon="12.344622512526087"><ele>789.9999999999999</ele><time>2026-04-24T08:14:43.999Z</time></trkpt><trkpt lat="43.52165578269579" lon="12.34452721773486"><ele>790.0</ele><time>2026-04-24T08:14:46Z</time></trkpt><trkpt lat="43.52170799076929" lon="12.344445594662353"><ele>790.0</ele><time>2026-04-24T08:14:48Z</time></trkpt><trkpt lat="43.52173317160217" lon="12.344350557088998"><ele>790.0</ele><time>2026-04-24T08:14:49Z</time></trkpt><trkpt lat="43.521754841229914" lon="12.344253258497709"><ele>789.9999999999999</ele><time>2026-04-24T08:14:50Z</time></trkpt><trkpt lat="43.52174574441431" lon="12.344094744694505"><ele>790.0</ele><time>2026-04-24T08:14:52Z</time></trkpt><trkpt lat="43.521714786042025" lon="12.34401023758327"><ele>789.9999999999999</ele><time>2026-04-24T08:14:53Z</time></trkpt><trkpt lat="43.52166112905867" lon="12.343931322433173"><ele>790.0</ele><time>2026-04-24T08:14:54Z</time></trkpt><trkpt lat="43.521591731425836" lon="12.34386318806784"><ele>790.0</ele><time>2026-04-24T08:14:55Z</time></trkpt><trkpt lat="43.52150729408075" lon="12.343799081578169"><ele>790.0</ele><time>2026-04-24T08:14:56Z</time></trkpt><trkpt lat="43.52142952449677" lon="12.343745158463353"><ele>789.9999999999999</ele><time>2026-04-24T08:14:57Z</time></trkpt><trkpt lat="43.52134671786262" lon="12.343672177470772"><ele>790.0</ele><time>2026-04-24T08:14:58Z</time></trkpt><trkpt lat="43.52128604611491" lon="12.34359394762798"><ele>788.6</ele><time>2026-04-24T08:14:59Z</time></trkpt><trkpt lat="43.52124195997034" lon="12.343529353015485"><ele>787.2</ele><time>2026-04-24T08:15:00Z</time></trkpt><trkpt lat="43.52117084052759" lon="12.343410029564133"><ele>785.8</ele><time>2026-04-24T08:15:02Z</time></trkpt><trkpt lat="43.521149686015214" lon="12.343270726410047"><ele>784.4</ele><time>2026-04-24T08:15:04Z</time></trkpt><trkpt lat="43.521111182445225" lon="12.343078539916384"><ele>783.0</ele><time>2026-04-24T08:15:06Z</time></trkpt><trkpt lat="43.52106346940415" lon="12.34298435553185"><ele>782.6666666666666</ele><time>2026-04-24T08:15:07Z</time></trkpt><trkpt lat="43.52103582161921" lon="12.34288865785039"><ele>782.3333333333333</ele><time>2026-04-24T08:15:08Z</time></trkpt><trkpt lat="43.52102082315478" lon="12.342785332713165"><ele>782.0</ele><time>2026-04-24T08:15:09Z</time></trkpt><trkpt lat="43.52100969335984" lon="12.342681103892499"><ele>781.6666666666666</ele><time>2026-04-24T08:15:10Z</time></trkpt><trkpt lat="43.52100324666656" lon="12.342591758378116"><ele>781.3333333333333</ele><time>2026-04-24T08:15:11Z</time></trkpt><trkpt lat="43.52106123480323" lon="12.342436710578752"><ele>781.0</ele><time>2026-04-24T08:15:13Z</time></trkpt><trkpt lat="43.521131983490484" lon="12.342357980937782"><ele>781.0</ele><time>2026-04-24T08:15:14Z</time></trkpt><trkpt lat="43.521195148467996" lon="12.342285962108893"><ele>781.0</ele><time>2026-04-24T08:15:15Z</time></trkpt><trkpt lat="43.52123866839416" lon="12.34221909380387"><ele>781.0</ele><time>2026-04-24T08:15:16Z</time></trkpt><trkpt lat="43.521288689779766" lon="12.342149476442758"><ele>781.0</ele><time>2026-04-24T08:15:17Z</time></trkpt><trkpt lat="43.521329317811954" lon="12.342080302390723"><ele>781.0</ele><time>2026-04-24T08:15:18Z</time></trkpt><trkpt lat="43.5213790667555" lon="12.342021420923539"><ele>781.0</ele><time>2026-04-24T08:15:19Z</time></trkpt><trkpt lat="43.52143533879508" lon="12.34197064367749"><ele>781.0</ele><time>2026-04-24T08:15:20Z</time></trkpt><trkpt lat="43.521493555672386" lon="12.341910515724011"><ele>782.6666666666666</ele><time>2026-04-24T08:15:21Z</time></trkpt><trkpt lat="43.52155418562389" lon="12.341857362155247"><ele>784.3333333333333</ele><time>2026-04-24T08:15:22Z</time></trkpt><trkpt lat="43.521623720179456" lon="12.341790815828995"><ele>786.0</ele><time>2026-04-24T08:15:23Z</time></trkpt><trkpt lat="43.52168658677591" lon="12.341703882937768"><ele>787.6666666666667</ele><time>2026-04-24T08:15:24Z</time></trkpt><trkpt lat="43.5217448571611" lon="12.341623237986141"><ele>789.3333333333334</ele><time>2026-04-24T08:15:25Z</time></trkpt><trkpt lat="43.52182793428681" lon="12.34153032529223"><ele>791.0</ele><time>2026-04-24T08:15:27Z</time></trkpt><trkpt lat="43.52188929874356" lon="12.341438208525453"><ele>791.0</ele><time>2026-04-24T08:15:29Z</time></trkpt><trkpt lat="43.52182691828132" lon="12.341288377020756"><ele>791.0</ele><time>2026-04-24T08:15:31Z</time></trkpt><trkpt lat="43.52178943568901" lon="12.341210841567088"><ele>791.0</ele><time>2026-04-24T08:15:32Z</time></trkpt><trkpt lat="43.52176475356793" lon="12.34107146351711"><ele>791.0</ele><time>2026-04-24T08:15:34Z</time></trkpt><trkpt lat="43.5217259615814" lon="12.340945260128535"><ele>791.0</ele><time>2026-04-24T08:15:36Z</time></trkpt><trkpt lat="43.521680888468055" lon="12.34088153692635"><ele>791.0000000000001</ele><time>2026-04-24T08:15:37Z</time></trkpt><trkpt lat="43.52160760456015" lon="12.340721880242592"><ele>791.0</ele><time>2026-04-24T08:15:39Z</time></trkpt><trkpt lat="43.521552208482916" lon="12.340635021878679"><ele>791.0</ele><time>2026-04-24T08:15:40Z</time></trkpt><trkpt lat="43.52150833402793" lon="12.340564324657429"><ele>791.0</ele><time>2026-04-24T08:15:41Z</time></trkpt><trkpt lat="43.521438629294316" lon="12.34051689281233"><ele>791.0000000000001</ele><time>2026-04-24T08:15:42Z</time></trkpt><trkpt lat="43.52137897900267" lon="12.340466402040253"><ele>791.0</ele><time>2026-04-24T08:15:43Z</time></trkpt><trkpt lat="43.5213424864145" lon="12.340395245300893"><ele>790.0</ele><time>2026-04-24T08:15:44Z</time></trkpt><trkpt lat="43.521279631235984" lon="12.340253257221043"><ele>789.0</ele><time>2026-04-24T08:15:46Z</time></trkpt><trkpt lat="43.52116513818377" lon="12.340259907660133"><ele>788.0</ele><time>2026-04-24T08:15:48Z</time></trkpt><trkpt lat="43.521078566741735" lon="12.34021098121186"><ele>787.0</ele><time>2026-04-24T08:15:50Z</time></trkpt><trkpt lat="43.5210525970837" lon="12.340107659139214"><ele>786.0</ele><time>2026-04-24T08:15:52Z</time></trkpt><trkpt lat="43.52101247871671" lon="12.339946271017428"><ele>786.0</ele><time>2026-04-24T08:15:54Z</time></trkpt><trkpt lat="43.520971144036814" lon="12.339843083011122"><ele>786.0</ele><time>2026-04-24T08:15:55Z</time></trkpt><trkpt lat="43.520942141955665" lon="12.339764052868997"><ele>786.0</ele><time>2026-04-24T08:15:56Z</time></trkpt><trkpt lat="43.520825416734354" lon="12.33972786110711"><ele>786.0</ele><time>2026-04-24T08:15:58Z</time></trkpt><trkpt lat="43.52073778874415" lon="12.339752801895044"><ele>786.0</ele><time>2026-04-24T08:15:59Z</time></trkpt><trkpt lat="43.520660563252605" lon="12.339751010274945"><ele>786.0</ele><time>2026-04-24T08:16:00Z</time></trkpt><trkpt lat="43.52058505303087" lon="12.339705909698132"><ele>789.5</ele><time>2026-04-24T08:16:01Z</time></trkpt><trkpt lat="43.52052452211109" lon="12.33966597698517"><ele>793.0</ele><time>2026-04-24T08:16:02Z</time></trkpt><trkpt lat="43.52047070401259" lon="12.339620231451766"><ele>796.5</ele><time>2026-04-24T08:16:03Z</time></trkpt><trkpt lat="43.52040251138705" lon="12.339476464254037"><ele>800.0</ele><time>2026-04-24T08:16:05Z</time></trkpt><trkpt lat="43.520399943388504" lon="12.339310292565074"><ele>803.5</ele><time>2026-04-24T08:16:07Z</time></trkpt><trkpt lat="43.52041070049424" lon="12.33921277355924"><ele>807.0</ele><time>2026-04-24T08:16:08Z</time></trkpt><trkpt lat="43.52040483630477" lon="12.339083525105362"><ele>806.3333333333334</ele><time>2026-04-24T08:16:09Z</time></trkpt><trkpt lat="43.520397905418264" lon="12.338988087879166"><ele>805.6666666666667</ele><time>2026-04-24T08:16:10Z</time></trkpt><trkpt lat="43.52040405122589" lon="12.338862016874272"><ele>805.0</ele><time>2026-04-24T08:16:11Z</time></trkpt><trkpt lat="43.52041525811702" lon="12.33873648134406"><ele>804.3333333333334</ele><time>2026-04-24T08:16:12Z</time></trkpt><trkpt lat="43.52040784985063" lon="12.338605856993881"><ele>803.6666666666667</ele><time>2026-04-24T08:16:13Z</time></trkpt><trkpt lat="43.52037202729861" lon="12.338487208562633"><ele>803.0</ele><time>2026-04-24T08:16:14Z</time></trkpt><trkpt lat="43.52036131691609" lon="12.33837303898047"><ele>801.3333333333334</ele><time>2026-04-24T08:16:15Z</time></trkpt><trkpt lat="43.5203617512373" lon="12.338263870749438"><ele>799.6666666666667</ele><time>2026-04-24T08:16:16Z</time></trkpt><trkpt lat="43.520357354369715" lon="12.338154079314515"><ele>798.0</ele><time>2026-04-24T08:16:17Z</time></trkpt><trkpt lat="43.52036424173506" lon="12.338066052401713"><ele>796.3333333333333</ele><time>2026-04-24T08:16:18Z</time></trkpt><trkpt lat="43.520392148478805" lon="12.337972525404162"><ele>794.6666666666666</ele><time>2026-04-24T08:16:19Z</time></trkpt><trkpt lat="43.5204292339063" lon="12.337881955760258"><ele>793.0</ele><time>2026-04-24T08:16:20Z</time></trkpt><trkpt lat="43.520470125390375" lon="12.337782936858213"><ele>793.0000000000001</ele><time>2026-04-24T08:16:21Z</time></trkpt><trkpt lat="43.520506717273754" lon="12.337679964991462"><ele>793.0</ele><time>2026-04-24T08:16:22Z</time></trkpt><trkpt lat="43.52052316858324" lon="12.33759101779709"><ele>793.0</ele><time>2026-04-24T08:16:23Z</time></trkpt><trkpt lat="43.52054372745759" lon="12.33749152842296"><ele>793.0</ele><time>2026-04-24T08:16:24Z</time></trkpt><trkpt lat="43.52057184299497" lon="12.33741359824517"><ele>793.0</ele><time>2026-04-24T08:16:24.999Z</time></trkpt><trkpt lat="43.52059059018172" lon="12.337291715881346"><ele>793.0000000000001</ele><time>2026-04-24T08:16:26.999Z</time></trkpt><trkpt lat="43.52061479490808" lon="12.337208641532083"><ele>793.0</ele><time>2026-04-24T08:16:29Z</time></trkpt><trkpt lat="43.520647649106024" lon="12.337065999983686"><ele>790.5999999999999</ele><time>2026-04-24T08:16:32Z</time></trkpt><trkpt lat="43.52067442373276" lon="12.336969312692041"><ele>788.1999999999999</ele><time>2026-04-24T08:16:33Z</time></trkpt><trkpt lat="43.520726498158815" lon="12.336855352151623"><ele>785.8</ele><time>2026-04-24T08:16:35Z</time></trkpt><trkpt lat="43.52082480555431" lon="12.336770630196341"><ele>783.4</ele><time>2026-04-24T08:16:37Z</time></trkpt><trkpt lat="43.520917262119994" lon="12.33667709247245"><ele>781.0</ele><time>2026-04-24T08:16:39Z</time></trkpt><trkpt lat="43.52093692784474" lon="12.336583992895495"><ele>780.9999999999999</ele><time>2026-04-24T08:16:40Z</time></trkpt><trkpt lat="43.52093666241271" lon="12.336475146214253"><ele>781.0</ele><time>2026-04-24T08:16:41Z</time></trkpt><trkpt lat="43.520946806612315" lon="12.336367952174651"><ele>781.0</ele><time>2026-04-24T08:16:42Z</time></trkpt><trkpt lat="43.52092480220693" lon="12.336217699689277"><ele>781.0</ele><time>2026-04-24T08:16:44Z</time></trkpt><trkpt lat="43.52088698506149" lon="12.336131488059317"><ele>780.9999999999999</ele><time>2026-04-24T08:16:46Z</time></trkpt><trkpt lat="43.52091303968962" lon="12.3360437872663"><ele>781.0</ele><time>2026-04-24T08:20:18Z</time></trkpt><trkpt lat="43.52092640871073" lon="12.335873064550775"><ele>780.4</ele><time>2026-04-24T08:20:20Z</time></trkpt><trkpt lat="43.52092670675754" lon="12.33577882105157"><ele>779.8</ele><time>2026-04-24T08:20:21Z</time></trkpt><trkpt lat="43.52092560099006" lon="12.335623191666114"><ele>779.1999999999999</ele><time>2026-04-24T08:20:23Z</time></trkpt><trkpt lat="43.52095933639393" lon="12.33549475276328"><ele>778.5999999999999</ele><time>2026-04-24T08:20:25Z</time></trkpt><trkpt lat="43.52100867044493" lon="12.335426936413336"><ele>778.0</ele><time>2026-04-24T08:20:26Z</time></trkpt><trkpt lat="43.52109871728019" lon="12.335303052780741"><ele>777.9999999999999</ele><time>2026-04-24T08:20:28Z</time></trkpt><trkpt lat="43.52115362829599" lon="12.33525676200001"><ele>778.0</ele><time>2026-04-24T08:20:29Z</time></trkpt><trkpt lat="43.52123402545893" lon="12.335237211283525"><ele>778.0</ele><time>2026-04-24T08:20:30Z</time></trkpt><trkpt lat="43.52132576573141" lon="12.335252757000983"><ele>778.0</ele><time>2026-04-24T08:20:31Z</time></trkpt><trkpt lat="43.52142236269826" lon="12.335275857287673"><ele>777.9999999999999</ele><time>2026-04-24T08:20:32Z</time></trkpt><trkpt lat="43.521526956808536" lon="12.335294672162929"><ele>778.0</ele><time>2026-04-24T08:20:33Z</time></trkpt><trkpt lat="43.52162485728911" lon="12.335304441880771"><ele>777.4</ele><time>2026-04-24T08:20:34Z</time></trkpt><trkpt lat="43.52172193946053" lon="12.335295587897539"><ele>776.8</ele><time>2026-04-24T08:20:35Z</time></trkpt><trkpt lat="43.521813552680946" lon="12.335258247695878"><ele>776.2</ele><time>2026-04-24T08:20:36Z</time></trkpt><trkpt lat="43.521899768679816" lon="12.33520065210281"><ele>775.6</ele><time>2026-04-24T08:20:37.001Z</time></trkpt><trkpt lat="43.521984201192026" lon="12.33510970173822"><ele>775.0</ele><time>2026-04-24T08:20:38.001Z</time></trkpt><trkpt lat="43.52206013139215" lon="12.335014531566564"><ele>774.4</ele><time>2026-04-24T08:20:39.001Z</time></trkpt><trkpt lat="43.52214220140185" lon="12.33493443666483"><ele>773.8</ele><time>2026-04-24T08:20:40.001Z</time></trkpt><trkpt lat="43.522205544825454" lon="12.334858534926031"><ele>773.2</ele><time>2026-04-24T08:20:41.001Z</time></trkpt><trkpt lat="43.522275410018096" lon="12.334791682790925"><ele>772.6</ele><time>2026-04-24T08:20:42.001Z</time></trkpt><trkpt lat="43.52234887460906" lon="12.334699302537935"><ele>772.0</ele><time>2026-04-24T08:20:43.001Z</time></trkpt><trkpt lat="43.52242747145547" lon="12.334623897198655"><ele>772.0</ele><time>2026-04-24T08:20:44.001Z</time></trkpt><trkpt lat="43.52250989995417" lon="12.334554178762337"><ele>772.0</ele><time>2026-04-24T08:20:45.001Z</time></trkpt><trkpt lat="43.52259038508821" lon="12.33448721094171"><ele>772.0</ele><time>2026-04-24T08:20:46.001Z</time></trkpt><trkpt lat="43.52267129155551" lon="12.334423466046285"><ele>772.0</ele><time>2026-04-24T08:20:47.001Z</time></trkpt><trkpt lat="43.52276387055592" lon="12.334360523330494"><ele>772.0</ele><time>2026-04-24T08:20:48.001Z</time></trkpt><trkpt lat="43.522850683910306" lon="12.334284681551516"><ele>772.6</ele><time>2026-04-24T08:20:49.001Z</time></trkpt><trkpt lat="43.52293784140563" lon="12.334199712263993"><ele>773.2</ele><time>2026-04-24T08:20:50.001Z</time></trkpt><trkpt lat="43.52301764150641" lon="12.334117333096874"><ele>773.8</ele><time>2026-04-24T08:20:51.001Z</time></trkpt><trkpt lat="43.52309019308946" lon="12.33402603036667"><ele>774.4</ele><time>2026-04-24T08:20:52.001Z</time></trkpt><trkpt lat="43.52314830572404" lon="12.333926923695588"><ele>775.0</ele><time>2026-04-24T08:20:53.001Z</time></trkpt><trkpt lat="43.52319779488575" lon="12.333817290249213"><ele>775.0</ele><time>2026-04-24T08:20:54.001Z</time></trkpt><trkpt lat="43.523236973256445" lon="12.333693537332241"><ele>775.0</ele><time>2026-04-24T08:20:55.001Z</time></trkpt><trkpt lat="43.523276450878924" lon="12.333560525033755"><ele>775.0</ele><time>2026-04-24T08:20:56.001Z</time></trkpt><trkpt lat="43.52331575222474" lon="12.333433674928788"><ele>775.0</ele><time>2026-04-24T08:20:57.001Z</time></trkpt><trkpt lat="43.52335631907093" lon="12.333316559032827"><ele>775.0</ele><time>2026-04-24T08:20:58.001Z</time></trkpt><trkpt lat="43.52340658363964" lon="12.333225179175704"><ele>775.0</ele><time>2026-04-24T08:20:59.001Z</time></trkpt><trkpt lat="43.523466884788455" lon="12.333154166349741"><ele>775.0</ele><time>2026-04-24T08:21:00.001Z</time></trkpt><trkpt lat="43.52352933808379" lon="12.333076594952432"><ele>775.0</ele><time>2026-04-24T08:21:01.001Z</time></trkpt><trkpt lat="43.52358406623594" lon="12.332971119412722"><ele>775.0</ele><time>2026-04-24T08:21:02Z</time></trkpt><trkpt lat="43.52364032410089" lon="12.332841713888618"><ele>775.0</ele><time>2026-04-24T08:21:03Z</time></trkpt><trkpt lat="43.523690253665485" lon="12.332726622084603"><ele>775.0</ele><time>2026-04-24T08:21:04Z</time></trkpt><trkpt lat="43.52374438898381" lon="12.332612129522266"><ele>775.0</ele><time>2026-04-24T08:21:05Z</time></trkpt><trkpt lat="43.52380151614434" lon="12.332484483612134"><ele>775.0</ele><time>2026-04-24T08:21:06Z</time></trkpt><trkpt lat="43.52386468354982" lon="12.332367973536776"><ele>775.0</ele><time>2026-04-24T08:21:07Z</time></trkpt><trkpt lat="43.523937014406314" lon="12.332279305910193"><ele>775.0</ele><time>2026-04-24T08:21:08Z</time></trkpt><trkpt lat="43.524016777456374" lon="12.332200388568305"><ele>776.2</ele><time>2026-04-24T08:21:09Z</time></trkpt><trkpt lat="43.52409905127984" lon="12.332139175098321"><ele>777.4</ele><time>2026-04-24T08:21:10Z</time></trkpt><trkpt lat="43.524190357029376" lon="12.332102021561127"><ele>778.5999999999999</ele><time>2026-04-24T08:21:11Z</time></trkpt><trkpt lat="43.52428034872362" lon="12.332084622220226"><ele>779.8</ele><time>2026-04-24T08:21:12Z</time></trkpt><trkpt lat="43.524377348246475" lon="12.332068412401036"><ele>781.0</ele><time>2026-04-24T08:21:13Z</time></trkpt><trkpt lat="43.52447605780099" lon="12.332049720846992"><ele>782.4999999999999</ele><time>2026-04-24T08:21:14Z</time></trkpt><trkpt lat="43.524576736123485" lon="12.332049942288064"><ele>784.0</ele><time>2026-04-24T08:21:15Z</time></trkpt><trkpt lat="43.524673864420414" lon="12.332059162771989"><ele>785.5</ele><time>2026-04-24T08:21:16Z</time></trkpt><trkpt lat="43.52475139925307" lon="12.332043724125343"><ele>787.0</ele><time>2026-04-24T08:21:17Z</time></trkpt><trkpt lat="43.524827809155035" lon="12.332023620634692"><ele>788.4999999999999</ele><time>2026-04-24T08:21:18Z</time></trkpt><trkpt lat="43.524892206603504" lon="12.331995951935518"><ele>790.0</ele><time>2026-04-24T08:21:19Z</time></trkpt><trkpt lat="43.524950611728876" lon="12.331932544263253"><ele>790.0</ele><time>2026-04-24T08:21:20Z</time></trkpt><trkpt lat="43.52499645236039" lon="12.331852438581052"><ele>790.0</ele><time>2026-04-24T08:21:21Z</time></trkpt><trkpt lat="43.525039934184036" lon="12.331741222943258"><ele>790.0</ele><time>2026-04-24T08:21:22Z</time></trkpt><trkpt lat="43.525099990034356" lon="12.331624554267284"><ele>790.0</ele><time>2026-04-24T08:21:23Z</time></trkpt><trkpt lat="43.525157623793824" lon="12.331519704177717"><ele>790.0</ele><time>2026-04-24T08:21:24Z</time></trkpt><trkpt lat="43.52521621237782" lon="12.33140304341923"><ele>790.0</ele><time>2026-04-24T08:21:25Z</time></trkpt><trkpt lat="43.52527378181336" lon="12.331288974863622"><ele>790.0</ele><time>2026-04-24T08:21:26Z</time></trkpt><trkpt lat="43.52532530500565" lon="12.331169211096194"><ele>790.0</ele><time>2026-04-24T08:21:27Z</time></trkpt><trkpt lat="43.525382860089415" lon="12.331040688117547"><ele>790.0</ele><time>2026-04-24T08:21:28Z</time></trkpt><trkpt lat="43.52542244529375" lon="12.330926380095736"><ele>790.0</ele><time>2026-04-24T08:21:29Z</time></trkpt><trkpt lat="43.52546218109895" lon="12.3308122695457"><ele>790.0</ele><time>2026-04-24T08:21:30Z</time></trkpt><trkpt lat="43.525502916451515" lon="12.330694700722017"><ele>790.0</ele><time>2026-04-24T08:21:31Z</time></trkpt><trkpt lat="43.52555579949544" lon="12.330586197641336"><ele>790.0</ele><time>2026-04-24T08:21:32Z</time></trkpt><trkpt lat="43.52559037482522" lon="12.330470438590558"><ele>790.0</ele><time>2026-04-24T08:21:33Z</time></trkpt><trkpt lat="43.5256542770128" lon="12.330367894737302"><ele>790.0</ele><time>2026-04-24T08:21:34Z</time></trkpt><trkpt lat="43.5257255729177" lon="12.330280255291907"><ele>790.0</ele><time>2026-04-24T08:21:35Z</time></trkpt><trkpt lat="43.525801003352996" lon="12.330180495702757"><ele>790.0</ele><time>2026-04-24T08:21:36Z</time></trkpt><trkpt lat="43.52585867137405" lon="12.330085765658005"><ele>790.0</ele><time>2026-04-24T08:21:37Z</time></trkpt><trkpt lat="43.525928288755" lon="12.33000764269052"><ele>790.0</ele><time>2026-04-24T08:21:38Z</time></trkpt><trkpt lat="43.52599250499841" lon="12.329923582227305"><ele>790.0</ele><time>2026-04-24T08:21:39Z</time></trkpt><trkpt lat="43.526067325941966" lon="12.32982804844047"><ele>790.0</ele><time>2026-04-24T08:21:40Z</time></trkpt><trkpt lat="43.52612105374759" lon="12.329729245966979"><ele>790.0</ele><time>2026-04-24T08:21:41Z</time></trkpt><trkpt lat="43.526147597386995" lon="12.32960912959921"><ele>790.0</ele><time>2026-04-24T08:21:42Z</time></trkpt><trkpt lat="43.52615804471943" lon="12.329465581598962"><ele>790.0</ele><time>2026-04-24T08:21:43Z</time></trkpt><trkpt lat="43.526152918830846" lon="12.329327970942403"><ele>790.0</ele><time>2026-04-24T08:21:44Z</time></trkpt><trkpt lat="43.52615310395903" lon="12.32921402061198"><ele>789.1666666666666</ele><time>2026-04-24T08:21:45Z</time></trkpt><trkpt lat="43.526197557800025" lon="12.329122993797053"><ele>788.3333333333333</ele><time>2026-04-24T08:21:46Z</time></trkpt><trkpt lat="43.526251724208244" lon="12.32902062653018"><ele>787.5</ele><time>2026-04-24T08:21:47Z</time></trkpt><trkpt lat="43.52630073730468" lon="12.32896167281159"><ele>786.6666666666667</ele><time>2026-04-24T08:21:48Z</time></trkpt><trkpt lat="43.526365187458374" lon="12.32889868849842"><ele>785.8333333333334</ele><time>2026-04-24T08:21:49Z</time></trkpt><trkpt lat="43.52643094139904" lon="12.328804631672039"><ele>785.0</ele><time>2026-04-24T08:21:50Z</time></trkpt><trkpt lat="43.52649608247569" lon="12.328695269908708"><ele>790.2</ele><time>2026-04-24T08:21:51Z</time></trkpt><trkpt lat="43.526545943826584" lon="12.328576706973514"><ele>795.4</ele><time>2026-04-24T08:21:52Z</time></trkpt><trkpt lat="43.526580210822274" lon="12.328464726107137"><ele>800.5999999999999</ele><time>2026-04-24T08:21:53Z</time></trkpt><trkpt lat="43.52661188051967" lon="12.328348794644398"><ele>805.8</ele><time>2026-04-24T08:21:54Z</time></trkpt><trkpt lat="43.52665120043389" lon="12.328235884386569"><ele>811.0</ele><time>2026-04-24T08:21:55Z</time></trkpt><trkpt lat="43.526702941484785" lon="12.328131139748562"><ele>810.1999999999999</ele><time>2026-04-24T08:21:56Z</time></trkpt><trkpt lat="43.52676225382297" lon="12.328033124281234"><ele>809.4</ele><time>2026-04-24T08:21:57Z</time></trkpt><trkpt lat="43.52683575982469" lon="12.327940419248261"><ele>808.6</ele><time>2026-04-24T08:21:58Z</time></trkpt><trkpt lat="43.52692356474344" lon="12.327874602145215"><ele>807.8</ele><time>2026-04-24T08:21:59Z</time></trkpt><trkpt lat="43.52701943002558" lon="12.327823582126625"><ele>807.0</ele><time>2026-04-24T08:22:00Z</time></trkpt><trkpt lat="43.52710657118431" lon="12.32778005357684"><ele>807.0</ele><time>2026-04-24T08:22:01Z</time></trkpt><trkpt lat="43.527190485996485" lon="12.327729132229926"><ele>807.0</ele><time>2026-04-24T08:22:02Z</time></trkpt><trkpt lat="43.527291539709225" lon="12.327686324855868"><ele>807.0</ele><time>2026-04-24T08:22:03Z</time></trkpt><trkpt lat="43.52740305695979" lon="12.327679361581096"><ele>807.0</ele><time>2026-04-24T08:22:04Z</time></trkpt><trkpt lat="43.52751304864619" lon="12.327681792407697"><ele>807.0</ele><time>2026-04-24T08:22:05Z</time></trkpt><trkpt lat="43.52761422591118" lon="12.327680817799441"><ele>807.0</ele><time>2026-04-24T08:22:06Z</time></trkpt><trkpt lat="43.52772001475733" lon="12.327654138984986"><ele>807.0</ele><time>2026-04-24T08:22:07Z</time></trkpt><trkpt lat="43.52780852792305" lon="12.327612610279067"><ele>807.0</ele><time>2026-04-24T08:22:08Z</time></trkpt><trkpt lat="43.527893393170494" lon="12.327576502767894"><ele>807.0</ele><time>2026-04-24T08:22:09Z</time></trkpt><trkpt lat="43.5279862721793" lon="12.327593879145306"><ele>807.0</ele><time>2026-04-24T08:22:10Z</time></trkpt><trkpt lat="43.52807177200282" lon="12.327632920730036"><ele>806.4000000000001</ele><time>2026-04-24T08:22:11Z</time></trkpt><trkpt lat="43.528146809551735" lon="12.327628053590674"><ele>805.8000000000001</ele><time>2026-04-24T08:22:12Z</time></trkpt><trkpt lat="43.5282115259392" lon="12.327567241453892"><ele>805.2</ele><time>2026-04-24T08:22:13Z</time></trkpt><trkpt lat="43.52826224860783" lon="12.327459568257353"><ele>804.6</ele><time>2026-04-24T08:22:14Z</time></trkpt><trkpt lat="43.52830828978105" lon="12.327328907720036"><ele>804.0</ele><time>2026-04-24T08:22:15Z</time></trkpt><trkpt lat="43.52834549775577" lon="12.327199297673953"><ele>805.4000000000001</ele><time>2026-04-24T08:22:16Z</time></trkpt><trkpt lat="43.52838361343039" lon="12.327080228081755"><ele>806.8</ele><time>2026-04-24T08:22:17Z</time></trkpt><trkpt lat="43.52843061283092" lon="12.326977050528553"><ele>808.2</ele><time>2026-04-24T08:22:18Z</time></trkpt><trkpt lat="43.52849103148106" lon="12.32689521144227"><ele>809.5999999999999</ele><time>2026-04-24T08:22:19Z</time></trkpt><trkpt lat="43.52856883324028" lon="12.326838542882026"><ele>811.0</ele><time>2026-04-24T08:22:20Z</time></trkpt><trkpt lat="43.528666616368284" lon="12.326802410432048"><ele>812.4</ele><time>2026-04-24T08:22:21Z</time></trkpt><trkpt lat="43.52875902175192" lon="12.326789048858666"><ele>813.8</ele><time>2026-04-24T08:22:22Z</time></trkpt><trkpt lat="43.528852021408646" lon="12.326777086455007"><ele>815.1999999999999</ele><time>2026-04-24T08:22:23Z</time></trkpt><trkpt lat="43.528942781396594" lon="12.326777744066241"><ele>816.5999999999999</ele><time>2026-04-24T08:22:24Z</time></trkpt><trkpt lat="43.529036288668806" lon="12.32679467618456"><ele>818.0</ele><time>2026-04-24T08:22:25Z</time></trkpt><trkpt lat="43.52912745128966" lon="12.32681669444949"><ele>818.0</ele><time>2026-04-24T08:22:26Z</time></trkpt><trkpt lat="43.52921860069638" lon="12.326840358301753"><ele>818.0</ele><time>2026-04-24T08:22:27Z</time></trkpt><trkpt lat="43.52931998598741" lon="12.326869321021352"><ele>818.0</ele><time>2026-04-24T08:22:28Z</time></trkpt><trkpt lat="43.52941118914284" lon="12.326899230939215"><ele>818.0</ele><time>2026-04-24T08:22:29Z</time></trkpt><trkpt lat="43.52951915851071" lon="12.326876235434124"><ele>818.0</ele><time>2026-04-24T08:22:31Z</time></trkpt><trkpt lat="43.52957090619414" lon="12.326807419063243"><ele>814.3333333333334</ele><time>2026-04-24T08:22:32Z</time></trkpt><trkpt lat="43.52960261958044" lon="12.326715707647"><ele>810.6666666666667</ele><time>2026-04-24T08:22:33Z</time></trkpt><trkpt lat="43.52962220072644" lon="12.326611494751969"><ele>807.0</ele><time>2026-04-24T08:22:34Z</time></trkpt><trkpt lat="43.529647394375765" lon="12.326511096393567"><ele>803.3333333333333</ele><time>2026-04-24T08:22:35Z</time></trkpt><trkpt lat="43.529675017022434" lon="12.326392900921599"><ele>799.6666666666666</ele><time>2026-04-24T08:22:36Z</time></trkpt><trkpt lat="43.52970981269864" lon="12.32629530914168"><ele>796.0</ele><time>2026-04-24T08:22:37Z</time></trkpt><trkpt lat="43.52975604197662" lon="12.32619070994991"><ele>795.9999999999999</ele><time>2026-04-24T08:22:38Z</time></trkpt><trkpt lat="43.5298007495296" lon="12.326093519941772"><ele>796.0</ele><time>2026-04-24T08:22:39Z</time></trkpt><trkpt lat="43.52984541328143" lon="12.326008739777416"><ele>796.0</ele><time>2026-04-24T08:22:40Z</time></trkpt><trkpt lat="43.529887939378625" lon="12.325902529588923"><ele>796.0</ele><time>2026-04-24T08:22:41Z</time></trkpt><trkpt lat="43.52993199740515" lon="12.325818223429748"><ele>795.9999999999999</ele><time>2026-04-24T08:22:42Z</time></trkpt><trkpt lat="43.529984646481466" lon="12.325728883850202"><ele>796.0</ele><time>2026-04-24T08:22:43Z</time></trkpt><trkpt lat="43.530052179753" lon="12.325654592912077"><ele>795.9999999999999</ele><time>2026-04-24T08:22:44Z</time></trkpt><trkpt lat="43.53013724701343" lon="12.325608657243214"><ele>796.0</ele><time>2026-04-24T08:22:45Z</time></trkpt><trkpt lat="43.53021391420651" lon="12.325557709126276"><ele>796.0</ele><time>2026-04-24T08:22:46Z</time></trkpt><trkpt lat="43.530290434752665" lon="12.32552390450012"><ele>796.0</ele><time>2026-04-24T08:22:47Z</time></trkpt><trkpt lat="43.53035598195773" lon="12.325504477666204"><ele>795.9999999999999</ele><time>2026-04-24T08:22:48Z</time></trkpt><trkpt lat="43.53043413899524" lon="12.32551069465639"><ele>796.0</ele><time>2026-04-24T08:22:49Z</time></trkpt><trkpt lat="43.530515149899884" lon="12.325503428132727"><ele>792.9999999999999</ele><time>2026-04-24T08:22:50Z</time></trkpt><trkpt lat="43.5305909495691" lon="12.325460952512927"><ele>790.0</ele><time>2026-04-24T08:22:51Z</time></trkpt><trkpt lat="43.53065714277285" lon="12.325390867603424"><ele>787.0</ele><time>2026-04-24T08:22:52Z</time></trkpt><trkpt lat="43.53073224126428" lon="12.325306592440706"><ele>784.0</ele><time>2026-04-24T08:22:53Z</time></trkpt><trkpt lat="43.53081053254495" lon="12.32524847119353"><ele>780.9999999999999</ele><time>2026-04-24T08:22:54Z</time></trkpt><trkpt lat="43.53090234012814" lon="12.32522451145924"><ele>778.0</ele><time>2026-04-24T08:22:55Z</time></trkpt><trkpt lat="43.53100194091956" lon="12.325211521620405"><ele>778.0</ele><time>2026-04-24T08:22:56Z</time></trkpt><trkpt lat="43.53109999093735" lon="12.325196961616935"><ele>778.0</ele><time>2026-04-24T08:22:57Z</time></trkpt><trkpt lat="43.53119497165221" lon="12.325167839093394"><ele>778.0</ele><time>2026-04-24T08:22:58Z</time></trkpt><trkpt lat="43.53130288321751" lon="12.325125863071206"><ele>778.0</ele><time>2026-04-24T08:22:59Z</time></trkpt><trkpt lat="43.53140060386312" lon="12.325087886942669"><ele>778.0</ele><time>2026-04-24T08:23:00Z</time></trkpt><trkpt lat="43.531503999705485" lon="12.325064589152264"><ele>777.8</ele><time>2026-04-24T08:23:01Z</time></trkpt><trkpt lat="43.53160486380062" lon="12.325042669265098"><ele>777.5999999999999</ele><time>2026-04-24T08:23:02Z</time></trkpt><trkpt lat="43.53169465666389" lon="12.325007545814916"><ele>777.4000000000001</ele><time>2026-04-24T08:23:03Z</time></trkpt><trkpt lat="43.53178460455372" lon="12.324972506696104"><ele>777.2</ele><time>2026-04-24T08:23:04Z</time></trkpt><trkpt lat="43.53186753137537" lon="12.324951927676532"><ele>777.0</ele><time>2026-04-24T08:23:05Z</time></trkpt><trkpt lat="43.53196092017964" lon="12.324931280070828"><ele>777.0</ele><time>2026-04-24T08:23:06Z</time></trkpt><trkpt lat="43.5320284296919" lon="12.32491539035381"><ele>777.0</ele><time>2026-04-24T08:23:07Z</time></trkpt><trkpt lat="43.53213880003703" lon="12.324899990302681"><ele>777.0</ele><time>2026-04-24T08:23:08Z</time></trkpt><trkpt lat="43.53222714299736" lon="12.324883833877443"><ele>777.0</ele><time>2026-04-24T08:23:09Z</time></trkpt><trkpt lat="43.53230166408796" lon="12.32484913277782"><ele>777.0</ele><time>2026-04-24T08:23:10Z</time></trkpt><trkpt lat="43.532393365774425" lon="12.324832973862081"><ele>777.0</ele><time>2026-04-24T08:23:11Z</time></trkpt><trkpt lat="43.53249280949889" lon="12.324840548728808"><ele>775.8</ele><time>2026-04-24T08:23:12Z</time></trkpt><trkpt lat="43.53257273671842" lon="12.324800585603285"><ele>774.6</ele><time>2026-04-24T08:23:13Z</time></trkpt><trkpt lat="43.532632241516964" lon="12.324718529505617"><ele>773.4</ele><time>2026-04-24T08:23:14Z</time></trkpt><trkpt lat="43.53269563293844" lon="12.324602640542674"><ele>772.1999999999999</ele><time>2026-04-24T08:23:15Z</time></trkpt><trkpt lat="43.53275708376271" lon="12.324514484635598"><ele>771.0</ele><time>2026-04-24T08:23:16Z</time></trkpt><trkpt lat="43.532832103337505" lon="12.324416629480599"><ele>776.8</ele><time>2026-04-24T08:23:17Z</time></trkpt><trkpt lat="43.532898055800466" lon="12.32431888573723"><ele>782.5999999999999</ele><time>2026-04-24T08:23:18Z</time></trkpt><trkpt lat="43.532955487118606" lon="12.324203765891827"><ele>788.4</ele><time>2026-04-24T08:23:19Z</time></trkpt><trkpt lat="43.533010515687685" lon="12.324095191319074"><ele>794.2</ele><time>2026-04-24T08:23:20Z</time></trkpt><trkpt lat="43.533059549088094" lon="12.323991374914218"><ele>800.0</ele><time>2026-04-24T08:23:21Z</time></trkpt><trkpt lat="43.53307864923278" lon="12.323887978687589"><ele>800.0</ele><time>2026-04-24T08:23:22Z</time></trkpt><trkpt lat="43.53306846835632" lon="12.323771270892786"><ele>800.0</ele><time>2026-04-24T08:23:23Z</time></trkpt><trkpt lat="43.533053937529516" lon="12.323649236822305"><ele>800.0</ele><time>2026-04-24T08:23:24Z</time></trkpt><trkpt lat="43.533075455734334" lon="12.323516845092445"><ele>800.0</ele><time>2026-04-24T08:23:25Z</time></trkpt><trkpt lat="43.53310090753814" lon="12.323372294903285"><ele>800.0</ele><time>2026-04-24T08:23:26Z</time></trkpt><trkpt lat="43.53309399828306" lon="12.32324868729458"><ele>800.0000000000001</ele><time>2026-04-24T08:23:27Z</time></trkpt><trkpt lat="43.533055472124815" lon="12.323117455988406"><ele>800.0</ele><time>2026-04-24T08:23:28Z</time></trkpt><trkpt lat="43.53302343418842" lon="12.323011842494342"><ele>800.0</ele><time>2026-04-24T08:23:29Z</time></trkpt><trkpt lat="43.533000158083375" lon="12.32289962257668"><ele>800.0</ele><time>2026-04-24T08:23:30Z</time></trkpt><trkpt lat="43.53298585916097" lon="12.322797120849033"><ele>800.0000000000001</ele><time>2026-04-24T08:23:31Z</time></trkpt><trkpt lat="43.53298579514673" lon="12.3226845213212"><ele>800.0</ele><time>2026-04-24T08:23:32Z</time></trkpt><trkpt lat="43.53302189806012" lon="12.322558570744425"><ele>800.0000000000001</ele><time>2026-04-24T08:23:34Z</time></trkpt><trkpt lat="43.533096939296264" lon="12.322579518963432"><ele>800.0</ele><time>2026-04-24T08:23:52Z</time></trkpt><trkpt lat="43.53314737022887" lon="12.322694254165082"><ele>800.0</ele><time>2026-04-24T08:23:54Z</time></trkpt><trkpt lat="43.533197668606995" lon="12.3228251917967"><ele>800.0</ele><time>2026-04-24T08:23:56Z</time></trkpt><trkpt lat="43.5332360195835" lon="12.322903519035128"><ele>800.0000000000001</ele><time>2026-04-24T08:23:57Z</time></trkpt><trkpt lat="43.533286712094466" lon="12.322986913019447"><ele>800.0</ele><time>2026-04-24T08:23:58Z</time></trkpt><trkpt lat="43.53333336825473" lon="12.323069162342504"><ele>800.0000000000001</ele><time>2026-04-24T08:23:59Z</time></trkpt><trkpt lat="43.533390445949685" lon="12.323154919253177"><ele>800.0</ele><time>2026-04-24T08:24:00Z</time></trkpt><trkpt lat="43.53344564784584" lon="12.323246935410104"><ele>800.0</ele><time>2026-04-24T08:24:01Z</time></trkpt><trkpt lat="43.53348939066869" lon="12.323344192031053"><ele>800.0</ele><time>2026-04-24T08:24:02Z</time></trkpt><trkpt lat="43.53353624378984" lon="12.323440201139768"><ele>800.0000000000001</ele><time>2026-04-24T08:24:03Z</time></trkpt><trkpt lat="43.53358680995473" lon="12.323532457237254"><ele>800.0</ele><time>2026-04-24T08:24:04Z</time></trkpt><trkpt lat="43.53363413651808" lon="12.323620308044868"><ele>800.0000000000001</ele><time>2026-04-24T08:24:05Z</time></trkpt><trkpt lat="43.533614998874405" lon="12.323721687788396"><ele>800.0</ele><time>2026-04-24T08:24:06Z</time></trkpt><trkpt lat="43.533636075467854" lon="12.32381043675918"><ele>800.0</ele><time>2026-04-24T08:24:07Z</time></trkpt><trkpt lat="43.53366086695181" lon="12.323896035751583"><ele>800.0</ele><time>2026-04-24T08:24:08Z</time></trkpt><trkpt lat="43.53370433573572" lon="12.323980558522766"><ele>800.0000000000001</ele><time>2026-04-24T08:24:09Z</time></trkpt><trkpt lat="43.533768668446555" lon="12.324053989885762"><ele>800.0</ele><time>2026-04-24T08:24:10Z</time></trkpt><trkpt lat="43.533852385932775" lon="12.324112192816242"><ele>805.8333333333334</ele><time>2026-04-24T08:24:11Z</time></trkpt><trkpt lat="43.533930803091366" lon="12.324141000314036"><ele>811.6666666666667</ele><time>2026-04-24T08:24:12Z</time></trkpt><trkpt lat="43.534014687046756" lon="12.324130727286612"><ele>817.5</ele><time>2026-04-24T08:24:13Z</time></trkpt><trkpt lat="43.53410107777161" lon="12.324109614501863"><ele>823.3333333333333</ele><time>2026-04-24T08:24:14Z</time></trkpt><trkpt lat="43.53417610368321" lon="12.324083522071753"><ele>829.1666666666666</ele><time>2026-04-24T08:24:15Z</time></trkpt><trkpt lat="43.53425531053104" lon="12.32404962066947"><ele>835.0</ele><time>2026-04-24T08:24:16Z</time></trkpt><trkpt lat="43.53433974271118" lon="12.32402124252803"><ele>834.9999999999999</ele><time>2026-04-24T08:24:17Z</time></trkpt><trkpt lat="43.5344133558118" lon="12.324012083921652"><ele>835.0</ele><time>2026-04-24T08:24:18Z</time></trkpt><trkpt lat="43.53449812999893" lon="12.32399450529017"><ele>835.0</ele><time>2026-04-24T08:24:19Z</time></trkpt><trkpt lat="43.53458472885069" lon="12.323972879763378"><ele>835.0</ele><time>2026-04-24T08:24:20Z</time></trkpt><trkpt lat="43.53467016961463" lon="12.323952546641765"><ele>834.9999999999999</ele><time>2026-04-24T08:24:21Z</time></trkpt><trkpt lat="43.534746416962705" lon="12.323942205911779"><ele>835.0</ele><time>2026-04-24T08:24:22Z</time></trkpt><trkpt lat="43.53482819503266" lon="12.323947628525689"><ele>836.9999999999999</ele><time>2026-04-24T08:24:23Z</time></trkpt><trkpt lat="43.53491655402786" lon="12.323952249027704"><ele>839.0</ele><time>2026-04-24T08:24:24Z</time></trkpt><trkpt lat="43.534997966167836" lon="12.323939227227806"><ele>841.0</ele><time>2026-04-24T08:24:25Z</time></trkpt><trkpt lat="43.535079082829945" lon="12.323930378481965"><ele>843.0</ele><time>2026-04-24T08:24:26Z</time></trkpt><trkpt lat="43.535142171727294" lon="12.323974154526324"><ele>844.9999999999999</ele><time>2026-04-24T08:24:27Z</time></trkpt><trkpt lat="43.53520170027301" lon="12.324010942930082"><ele>847.0</ele><time>2026-04-24T08:24:28Z</time></trkpt><trkpt lat="43.53528190115566" lon="12.324040228478667"><ele>846.9999999999999</ele><time>2026-04-24T08:24:29Z</time></trkpt><trkpt lat="43.535359955665506" lon="12.32409095000398"><ele>847.0</ele><time>2026-04-24T08:24:30Z</time></trkpt><trkpt lat="43.535438431804565" lon="12.324128118054503"><ele>847.0</ele><time>2026-04-24T08:24:31Z</time></trkpt><trkpt lat="43.53552053699525" lon="12.324161899189077"><ele>847.0</ele><time>2026-04-24T08:24:32Z</time></trkpt><trkpt lat="43.535598716569645" lon="12.324180194393005"><ele>846.9999999999999</ele><time>2026-04-24T08:24:33Z</time></trkpt><trkpt lat="43.53569149580356" lon="12.324174740190012"><ele>847.0</ele><time>2026-04-24T08:24:34Z</time></trkpt><trkpt lat="43.5357901821547" lon="12.324141323473787"><ele>846.8333333333333</ele><time>2026-04-24T08:24:35Z</time></trkpt><trkpt lat="43.53588654609065" lon="12.324095521045235"><ele>846.6666666666666</ele><time>2026-04-24T08:24:36Z</time></trkpt><trkpt lat="43.535969465775246" lon="12.324078914287893"><ele>846.5</ele><time>2026-04-24T08:24:37Z</time></trkpt><trkpt lat="43.536041107971705" lon="12.324054798505715"><ele>846.3333333333333</ele><time>2026-04-24T08:24:38Z</time></trkpt><trkpt lat="43.536107159608164" lon="12.324063743806475"><ele>846.1666666666666</ele><time>2026-04-24T08:24:39Z</time></trkpt><trkpt lat="43.5361922165862" lon="12.324064950258201"><ele>846.0</ele><time>2026-04-24T08:24:40Z</time></trkpt><trkpt lat="43.53627837770497" lon="12.32411987941074"><ele>846.0</ele><time>2026-04-24T08:24:41Z</time></trkpt><trkpt lat="43.5363729243966" lon="12.324155979428163"><ele>846.0</ele><time>2026-04-24T08:24:42Z</time></trkpt><trkpt lat="43.536480184157575" lon="12.324184144977577"><ele>846.0</ele><time>2026-04-24T08:24:43Z</time></trkpt><trkpt lat="43.536579799993966" lon="12.324192564231886"><ele>846.0</ele><time>2026-04-24T08:24:44Z</time></trkpt><trkpt lat="43.53666178196096" lon="12.324234182079769"><ele>846.0</ele><time>2026-04-24T08:24:45Z</time></trkpt><trkpt lat="43.536747335384" lon="12.324268074531124"><ele>846.0</ele><time>2026-04-24T08:24:46Z</time></trkpt><trkpt lat="43.53683612402772" lon="12.324298482581966"><ele>846.0</ele><time>2026-04-24T08:24:47Z</time></trkpt><trkpt lat="43.53691850579023" lon="12.324303672554551"><ele>846.0</ele><time>2026-04-24T08:24:48Z</time></trkpt><trkpt lat="43.537003260380345" lon="12.324331666716548"><ele>846.0</ele><time>2026-04-24T08:24:49Z</time></trkpt><trkpt lat="43.537094169185266" lon="12.324368755441615"><ele>846.0</ele><time>2026-04-24T08:24:50Z</time></trkpt><trkpt lat="43.53719162276403" lon="12.324384416139898"><ele>845.8333333333334</ele><time>2026-04-24T08:24:51Z</time></trkpt><trkpt lat="43.53728155589852" lon="12.32438948378368"><ele>845.6666666666667</ele><time>2026-04-24T08:24:52Z</time></trkpt><trkpt lat="43.537365258175086" lon="12.324384740521815"><ele>845.5</ele><time>2026-04-24T08:24:53Z</time></trkpt><trkpt lat="43.53743753878965" lon="12.324351527029501"><ele>845.3333333333334</ele><time>2026-04-24T08:24:54Z</time></trkpt><trkpt lat="43.537481098727774" lon="12.324255283464002"><ele>845.1666666666667</ele><time>2026-04-24T08:24:55Z</time></trkpt><trkpt lat="43.5375189764107" lon="12.3241663903736"><ele>845.0</ele><time>2026-04-24T08:24:56Z</time></trkpt><trkpt lat="43.53755325810906" lon="12.324066339967919"><ele>845.0</ele><time>2026-04-24T08:24:57Z</time></trkpt><trkpt lat="43.537579173097" lon="12.32398011076212"><ele>845.0</ele><time>2026-04-24T08:24:58Z</time></trkpt><trkpt lat="43.53760768846416" lon="12.323890226597475"><ele>845.0</ele><time>2026-04-24T08:24:59Z</time></trkpt><trkpt lat="43.53763557291389" lon="12.323735284462444"><ele>845.0</ele><time>2026-04-24T08:25:01Z</time></trkpt><trkpt lat="43.53766445540163" lon="12.32365018446616"><ele>845.0</ele><time>2026-04-24T08:25:02Z</time></trkpt><trkpt lat="43.53770625981456" lon="12.323469576135189"><ele>842.8333333333334</ele><time>2026-04-24T08:25:04Z</time></trkpt><trkpt lat="43.5377298675334" lon="12.323367193952025"><ele>840.6666666666667</ele><time>2026-04-24T08:25:05Z</time></trkpt><trkpt lat="43.53775005855227" lon="12.323256766912909"><ele>838.5</ele><time>2026-04-24T08:25:06Z</time></trkpt><trkpt lat="43.537789181147744" lon="12.32315135628508"><ele>836.3333333333333</ele><time>2026-04-24T08:25:07Z</time></trkpt><trkpt lat="43.537828733939726" lon="12.323025797747713"><ele>834.1666666666666</ele><time>2026-04-24T08:25:08Z</time></trkpt><trkpt lat="43.53786466998252" lon="12.322927297298488"><ele>832.0</ele><time>2026-04-24T08:25:09Z</time></trkpt><trkpt lat="43.53790861954465" lon="12.322825016774617"><ele>829.6</ele><time>2026-04-24T08:25:10Z</time></trkpt><trkpt lat="43.5379417915757" lon="12.322709162199114"><ele>827.2</ele><time>2026-04-24T08:25:11Z</time></trkpt><trkpt lat="43.53800494888298" lon="12.322607832406671"><ele>824.8</ele><time>2026-04-24T08:25:12Z</time></trkpt><trkpt lat="43.53806214173478" lon="12.322499518564172"><ele>822.4</ele><time>2026-04-24T08:25:13Z</time></trkpt><trkpt lat="43.53812028560243" lon="12.322401897719114"><ele>820.0</ele><time>2026-04-24T08:25:14Z</time></trkpt><trkpt lat="43.53819143786022" lon="12.322308111344867"><ele>820.4</ele><time>2026-04-24T08:25:15Z</time></trkpt><trkpt lat="43.538258280750405" lon="12.322214552661467"><ele>820.8</ele><time>2026-04-24T08:25:16Z</time></trkpt><trkpt lat="43.538337330284" lon="12.322116710268856"><ele>821.2</ele><time>2026-04-24T08:25:17Z</time></trkpt><trkpt lat="43.53841464906604" lon="12.32201217973144"><ele>821.6</ele><time>2026-04-24T08:25:18Z</time></trkpt><trkpt lat="43.53850455038" lon="12.321920215694158"><ele>822.0</ele><time>2026-04-24T08:25:19Z</time></trkpt><trkpt lat="43.538600463928304" lon="12.321843000358134"><ele>822.0</ele><time>2026-04-24T08:25:20Z</time></trkpt><trkpt lat="43.538691124767766" lon="12.321768917415433"><ele>822.0</ele><time>2026-04-24T08:25:21Z</time></trkpt><trkpt lat="43.53877680858376" lon="12.321693117104912"><ele>822.0</ele><time>2026-04-24T08:25:22Z</time></trkpt><trkpt lat="43.538847713784804" lon="12.321624972518261"><ele>822.0</ele><time>2026-04-24T08:25:23Z</time></trkpt><trkpt lat="43.53891155373913" lon="12.321559015145493"><ele>822.0</ele><time>2026-04-24T08:25:24Z</time></trkpt><trkpt lat="43.538959107892055" lon="12.321478311610084"><ele>822.0</ele><time>2026-04-24T08:25:25Z</time></trkpt><trkpt lat="43.538981727416704" lon="12.321375392488807"><ele>824.4000000000001</ele><time>2026-04-24T08:25:26Z</time></trkpt><trkpt lat="43.5389888259607" lon="12.321253022856745"><ele>826.8000000000001</ele><time>2026-04-24T08:25:27Z</time></trkpt><trkpt lat="43.53897996363618" lon="12.321122047951345"><ele>829.2</ele><time>2026-04-24T08:25:28Z</time></trkpt><trkpt lat="43.53897570981574" lon="12.320995084610525"><ele>831.6</ele><time>2026-04-24T08:25:29Z</time></trkpt><trkpt lat="43.53898836677003" lon="12.320882335486598"><ele>834.0</ele><time>2026-04-24T08:25:30Z</time></trkpt><trkpt lat="43.53903048636146" lon="12.320771277013515"><ele>834.0</ele><time>2026-04-24T08:25:31Z</time></trkpt><trkpt lat="43.53905567714259" lon="12.320666355686027"><ele>834.0</ele><time>2026-04-24T08:25:32Z</time></trkpt><trkpt lat="43.53906622198529" lon="12.320564607199003"><ele>834.0</ele><time>2026-04-24T08:25:33Z</time></trkpt><trkpt lat="43.53908175053989" lon="12.320412323626263"><ele>834.0</ele><time>2026-04-24T08:25:35Z</time></trkpt><trkpt lat="43.53909004565414" lon="12.320302831167572"><ele>834.0</ele><time>2026-04-24T08:25:37Z</time></trkpt><trkpt lat="43.53910404028855" lon="12.320129610036266"><ele>834.1666666666666</ele><time>2026-04-24T08:25:39Z</time></trkpt><trkpt lat="43.53910505846418" lon="12.320029948088417"><ele>834.3333333333333</ele><time>2026-04-24T08:25:40Z</time></trkpt><trkpt lat="43.53909301283101" lon="12.319916593961201"><ele>834.5</ele><time>2026-04-24T08:25:41Z</time></trkpt><trkpt lat="43.53907106565402" lon="12.319790620571203"><ele>834.6666666666666</ele><time>2026-04-24T08:25:42Z</time></trkpt><trkpt lat="43.53903621014316" lon="12.319673049687486"><ele>834.8333333333333</ele><time>2026-04-24T08:25:43Z</time></trkpt><trkpt lat="43.53899918954897" lon="12.319562407174708"><ele>835.0</ele><time>2026-04-24T08:25:44Z</time></trkpt><trkpt lat="43.53897688893575" lon="12.319447082519556"><ele>835.0000000000001</ele><time>2026-04-24T08:25:45Z</time></trkpt><trkpt lat="43.53894464604646" lon="12.31935219082993"><ele>835.0</ele><time>2026-04-24T08:25:46Z</time></trkpt><trkpt lat="43.53891454785525" lon="12.319257431130444"><ele>835.0</ele><time>2026-04-24T08:25:47Z</time></trkpt><trkpt lat="43.53892882668882" lon="12.319165831448865"><ele>835.0</ele><time>2026-04-24T08:25:48Z</time></trkpt><trkpt lat="43.53893450437644" lon="12.319076627102465"><ele>835.0</ele><time>2026-04-24T08:25:49Z</time></trkpt><trkpt lat="43.53894378242333" lon="12.318988838593334"><ele>835.0000000000001</ele><time>2026-04-24T08:25:50Z</time></trkpt><trkpt lat="43.53895493354454" lon="12.3188804272833"><ele>835.0</ele><time>2026-04-24T08:25:51Z</time></trkpt><trkpt lat="43.53899389573933" lon="12.31876686537146"><ele>835.0</ele><time>2026-04-24T08:25:52Z</time></trkpt><trkpt lat="43.539029368427656" lon="12.318631443617413"><ele>835.0</ele><time>2026-04-24T08:25:53Z</time></trkpt><trkpt lat="43.53905076799333" lon="12.318502561651254"><ele>835.0</ele><time>2026-04-24T08:25:54Z</time></trkpt><trkpt lat="43.53908380642549" lon="12.318394269046554"><ele>835.0</ele><time>2026-04-24T08:25:55Z</time></trkpt><trkpt lat="43.5391244546058" lon="12.31828582268902"><ele>835.0</ele><time>2026-04-24T08:25:56Z</time></trkpt><trkpt lat="43.539156050936334" lon="12.318153786631202"><ele>833.8333333333333</ele><time>2026-04-24T08:25:57Z</time></trkpt><trkpt lat="43.53918314740514" lon="12.318026289533744"><ele>832.6666666666666</ele><time>2026-04-24T08:25:58Z</time></trkpt><trkpt lat="43.539206294426464" lon="12.31790078511058"><ele>831.5</ele><time>2026-04-24T08:25:59Z</time></trkpt><trkpt lat="43.53924153119226" lon="12.317787988101083"><ele>830.3333333333333</ele><time>2026-04-24T08:26:00Z</time></trkpt><trkpt lat="43.53928493552492" lon="12.317684329688593"><ele>829.1666666666666</ele><time>2026-04-24T08:26:01Z</time></trkpt><trkpt lat="43.53933552034363" lon="12.317601065320412"><ele>828.0</ele><time>2026-04-24T08:26:02Z</time></trkpt><trkpt lat="43.5393874094988" lon="12.317520809394953"><ele>828.0</ele><time>2026-04-24T08:26:03Z</time></trkpt><trkpt lat="43.539451521364796" lon="12.317456228282223"><ele>828.0</ele><time>2026-04-24T08:26:04Z</time></trkpt><trkpt lat="43.53951735595812" lon="12.317389835345331"><ele>828.0</ele><time>2026-04-24T08:26:05Z</time></trkpt><trkpt lat="43.53958674063042" lon="12.317315717786732"><ele>828.0</ele><time>2026-04-24T08:26:06Z</time></trkpt><trkpt lat="43.539655217698716" lon="12.317243938406842"><ele>828.0</ele><time>2026-04-24T08:26:07Z</time></trkpt><trkpt lat="43.539723355645876" lon="12.317175594100213"><ele>828.0</ele><time>2026-04-24T08:26:08Z</time></trkpt><trkpt lat="43.53977774854102" lon="12.317102001885258"><ele>827.0</ele><time>2026-04-24T08:26:09Z</time></trkpt><trkpt lat="43.539820554349" lon="12.317020167855507"><ele>826.0</ele><time>2026-04-24T08:26:10Z</time></trkpt><trkpt lat="43.53987134148435" lon="12.316935807627521"><ele>825.0</ele><time>2026-04-24T08:26:11Z</time></trkpt><trkpt lat="43.53993618664571" lon="12.316873325189334"><ele>824.0</ele><time>2026-04-24T08:26:12Z</time></trkpt><trkpt lat="43.54000348420846" lon="12.316829404613559"><ele>823.0</ele><time>2026-04-24T08:26:13Z</time></trkpt><trkpt lat="43.54007812221789" lon="12.316770586494064"><ele>822.0</ele><time>2026-04-24T08:26:14Z</time></trkpt><trkpt lat="43.54015681262688" lon="12.316723016121987"><ele>822.0</ele><time>2026-04-24T08:26:15Z</time></trkpt><trkpt lat="43.540235985181" lon="12.316678905691846"><ele>822.0</ele><time>2026-04-24T08:26:16Z</time></trkpt><trkpt lat="43.540313905926595" lon="12.316639249733932"><ele>822.0</ele><time>2026-04-24T08:26:17Z</time></trkpt><trkpt lat="43.54039636944501" lon="12.316589506678522"><ele>822.0</ele><time>2026-04-24T08:26:18Z</time></trkpt><trkpt lat="43.540479396899244" lon="12.316544032818838"><ele>822.0</ele><time>2026-04-24T08:26:19Z</time></trkpt><trkpt lat="43.54055381297218" lon="12.316485360985862"><ele>822.0</ele><time>2026-04-24T08:26:20Z</time></trkpt><trkpt lat="43.540631277619674" lon="12.316419422476411"><ele>824.0</ele><time>2026-04-24T08:26:21Z</time></trkpt><trkpt lat="43.540695692815426" lon="12.316345381745169"><ele>826.0</ele><time>2026-04-24T08:26:22Z</time></trkpt><trkpt lat="43.54074576002305" lon="12.316275620532448"><ele>828.0</ele><time>2026-04-24T08:26:23Z</time></trkpt><trkpt lat="43.54079534412011" lon="12.316202162321028"><ele>830.0</ele><time>2026-04-24T08:26:24Z</time></trkpt><trkpt lat="43.540840717414405" lon="12.31612438432662"><ele>832.0</ele><time>2026-04-24T08:26:25Z</time></trkpt><trkpt lat="43.540884991518055" lon="12.316037982844094"><ele>834.0</ele><time>2026-04-24T08:26:26Z</time></trkpt><trkpt lat="43.54092402999026" lon="12.315934110985651"><ele>834.0</ele><time>2026-04-24T08:26:27Z</time></trkpt><trkpt lat="43.54095277787447" lon="12.315836413936472"><ele>834.0</ele><time>2026-04-24T08:26:28Z</time></trkpt><trkpt lat="43.54098929073893" lon="12.315736404489517"><ele>834.0</ele><time>2026-04-24T08:26:29Z</time></trkpt><trkpt lat="43.54103388786737" lon="12.315626425282336"><ele>834.0</ele><time>2026-04-24T08:26:30Z</time></trkpt><trkpt lat="43.54107408746812" lon="12.315529788587327"><ele>834.0</ele><time>2026-04-24T08:26:31Z</time></trkpt><trkpt lat="43.54112475629855" lon="12.31545051485528"><ele>834.0</ele><time>2026-04-24T08:26:32Z</time></trkpt><trkpt lat="43.5411823692887" lon="12.315402692814908"><ele>836.3333333333334</ele><time>2026-04-24T08:26:33Z</time></trkpt><trkpt lat="43.54124961465104" lon="12.31535664935479"><ele>838.6666666666667</ele><time>2026-04-24T08:26:34Z</time></trkpt><trkpt lat="43.541315643256475" lon="12.315296820851074"><ele>841.0</ele><time>2026-04-24T08:26:35Z</time></trkpt><trkpt lat="43.54137291275998" lon="12.315224546699643"><ele>843.3333333333334</ele><time>2026-04-24T08:26:36Z</time></trkpt><trkpt lat="43.541433687223716" lon="12.315136615824638"><ele>845.6666666666667</ele><time>2026-04-24T08:26:37Z</time></trkpt><trkpt lat="43.54148625198661" lon="12.315054275360108"><ele>848.0</ele><time>2026-04-24T08:26:38Z</time></trkpt><trkpt lat="43.54155110256623" lon="12.31496165781196"><ele>848.0000000000001</ele><time>2026-04-24T08:26:39Z</time></trkpt><trkpt lat="43.541610827515846" lon="12.314868920633565"><ele>848.0</ele><time>2026-04-24T08:26:40Z</time></trkpt><trkpt lat="43.541669314417085" lon="12.314781707695055"><ele>848.0</ele><time>2026-04-24T08:26:41Z</time></trkpt><trkpt lat="43.541727325618915" lon="12.314692705092181"><ele>848.0</ele><time>2026-04-24T08:26:42Z</time></trkpt><trkpt lat="43.54178551434358" lon="12.314606990516777"><ele>848.0000000000001</ele><time>2026-04-24T08:26:43Z</time></trkpt><trkpt lat="43.54184124874599" lon="12.314545336452918"><ele>848.0</ele><time>2026-04-24T08:26:44Z</time></trkpt><trkpt lat="43.5418962703267" lon="12.314487681188204"><ele>848.0000000000001</ele><time>2026-04-24T08:26:45Z</time></trkpt><trkpt lat="43.5419503071789" lon="12.314411248486687"><ele>848.0</ele><time>2026-04-24T08:26:46Z</time></trkpt><trkpt lat="43.541997243107566" lon="12.314323890555642"><ele>848.0</ele><time>2026-04-24T08:26:47Z</time></trkpt><trkpt lat="43.54203212841126" lon="12.31422814030905"><ele>848.0</ele><time>2026-04-24T08:26:48Z</time></trkpt><trkpt lat="43.54204965586653" lon="12.314126224497887"><ele>848.0000000000001</ele><time>2026-04-24T08:26:49Z</time></trkpt><trkpt lat="43.54204841762561" lon="12.314025011802599"><ele>848.0</ele><time>2026-04-24T08:26:50Z</time></trkpt><trkpt lat="43.542062760864304" lon="12.313928992514114"><ele>851.5000000000001</ele><time>2026-04-24T08:26:51Z</time></trkpt><trkpt lat="43.54209878470071" lon="12.313842644753025"><ele>855.0</ele><time>2026-04-24T08:26:52Z</time></trkpt><trkpt lat="43.54214810931015" lon="12.313763523658626"><ele>858.5</ele><time>2026-04-24T08:26:53Z</time></trkpt><trkpt lat="43.54220868843248" lon="12.31369217028805"><ele>862.0</ele><time>2026-04-24T08:26:54Z</time></trkpt><trkpt lat="43.5422661015691" lon="12.313630848339011"><ele>865.5000000000001</ele><time>2026-04-24T08:26:55Z</time></trkpt><trkpt lat="43.54231998071833" lon="12.313563505835694"><ele>869.0</ele><time>2026-04-24T08:26:56Z</time></trkpt><trkpt lat="43.5423773796312" lon="12.3134124972715"><ele>869.0000000000001</ele><time>2026-04-24T08:26:58Z</time></trkpt><trkpt lat="43.54238451650011" lon="12.313323626338997"><ele>869.0</ele><time>2026-04-24T08:26:59Z</time></trkpt><trkpt lat="43.542383206258386" lon="12.313190686646516"><ele>869.0</ele><time>2026-04-24T08:27:01Z</time></trkpt><trkpt lat="43.54243771017811" lon="12.313125940286344"><ele>869.0</ele><time>2026-04-24T08:27:04Z</time></trkpt><trkpt lat="43.54251428114516" lon="12.313127334671673"><ele>869.0000000000001</ele><time>2026-04-24T08:27:06Z</time></trkpt><trkpt lat="43.54256685612771" lon="12.313222512187368"><ele>869.0</ele><time>2026-04-24T08:27:08Z</time></trkpt><trkpt lat="43.54260141356776" lon="12.313358404251703"><ele>869.0</ele><time>2026-04-24T08:27:10Z</time></trkpt><trkpt lat="43.542633583653696" lon="12.313505229405374"><ele>869.0000000000001</ele><time>2026-04-24T08:27:12Z</time></trkpt><trkpt lat="43.542636891761795" lon="12.313591958898712"><ele>869.0000000000001</ele><time>2026-04-24T08:27:13Z</time></trkpt><trkpt lat="43.542672794773566" lon="12.313704404738607"><ele>869.0</ele><time>2026-04-24T08:27:15Z</time></trkpt><trkpt lat="43.54276636797373" lon="12.313756306015474"><ele>869.0</ele><time>2026-04-24T08:27:17Z</time></trkpt><trkpt lat="43.542860837671526" lon="12.313688103082166"><ele>872.8000000000001</ele><time>2026-04-24T08:27:19Z</time></trkpt><trkpt lat="43.542918675200056" lon="12.31356795216478"><ele>876.6000000000001</ele><time>2026-04-24T08:27:21Z</time></trkpt><trkpt lat="43.54299109386422" lon="12.313457236603199"><ele>880.4</ele><time>2026-04-24T08:27:23Z</time></trkpt><trkpt lat="43.54306664317056" lon="12.313328222822593"><ele>884.2</ele><time>2026-04-24T08:27:25Z</time></trkpt><trkpt lat="43.543152266923514" lon="12.313220910583448"><ele>888.0</ele><time>2026-04-24T08:27:27Z</time></trkpt><trkpt lat="43.54322255555015" lon="12.313110365077383"><ele>890.0</ele><time>2026-04-24T08:27:29Z</time></trkpt><trkpt lat="43.543301606051386" lon="12.312998095367952"><ele>892.0</ele><time>2026-04-24T08:27:31Z</time></trkpt><trkpt lat="43.54338426247857" lon="12.312906241973359"><ele>894.0</ele><time>2026-04-24T08:27:33Z</time></trkpt><trkpt lat="43.543437800959055" lon="12.312836811040201"><ele>896.0</ele><time>2026-04-24T08:27:34Z</time></trkpt><trkpt lat="43.54348986173983" lon="12.312770910767789"><ele>898.0</ele><time>2026-04-24T08:27:35Z</time></trkpt><trkpt lat="43.54353765526634" lon="12.312707254770414"><ele>900.0</ele><time>2026-04-24T08:27:36Z</time></trkpt><trkpt lat="43.54364977508215" lon="12.312647221615592"><ele>902.1428571428573</ele><time>2026-04-24T08:27:38Z</time></trkpt><trkpt lat="43.543714447540474" lon="12.31266281719805"><ele>904.2857142857143</ele><time>2026-04-24T08:27:39Z</time></trkpt><trkpt lat="43.5437640458334" lon="12.312728512549953"><ele>906.4285714285716</ele><time>2026-04-24T08:27:40Z</time></trkpt><trkpt lat="43.54380007920307" lon="12.312807362193551"><ele>908.5714285714287</ele><time>2026-04-24T08:27:41Z</time></trkpt><trkpt lat="43.54382133781977" lon="12.312892618332555"><ele>910.7142857142858</ele><time>2026-04-24T08:27:42Z</time></trkpt><trkpt lat="43.543861370108935" lon="12.312979325191735"><ele>912.8571428571429</ele><time>2026-04-24T08:27:43Z</time></trkpt><trkpt lat="43.543907356544906" lon="12.313075487850616"><ele>915.0</ele><time>2026-04-24T08:27:44Z</time></trkpt><trkpt lat="43.54395663354867" lon="12.313171490131793"><ele>915.0</ele><time>2026-04-24T08:27:45Z</time></trkpt><trkpt lat="43.54400111608606" lon="12.313255978711387"><ele>915.0000000000001</ele><time>2026-04-24T08:27:46Z</time></trkpt><trkpt lat="43.54405192511631" lon="12.313330506094006"><ele>915.0</ele><time>2026-04-24T08:27:47Z</time></trkpt><trkpt lat="43.544109115923135" lon="12.313371709810442"><ele>915.0</ele><time>2026-04-24T08:27:48Z</time></trkpt><trkpt lat="43.544174011655464" lon="12.313405699444216"><ele>915.0000000000001</ele><time>2026-04-24T08:27:49Z</time></trkpt><trkpt lat="43.5442399460178" lon="12.313432032042318"><ele>915.0</ele><time>2026-04-24T08:27:50Z</time></trkpt><trkpt lat="43.54431442841641" lon="12.313464383087556"><ele>915.0</ele><time>2026-04-24T08:27:51Z</time></trkpt><trkpt lat="43.544376365611384" lon="12.313499132880384"><ele>915.0</ele><time>2026-04-24T08:27:52Z</time></trkpt><trkpt lat="43.54444295507907" lon="12.313544084880576"><ele>915.0</ele><time>2026-04-24T08:27:53Z</time></trkpt><trkpt lat="43.544519354015236" lon="12.313588051493513"><ele>915.0</ele><time>2026-04-24T08:27:54Z</time></trkpt><trkpt lat="43.54462386304832" lon="12.313638701131948"><ele>915.0</ele><time>2026-04-24T08:27:56Z</time></trkpt><trkpt lat="43.54473126130174" lon="12.313700169127245"><ele>915.0</ele><time>2026-04-24T08:27:57Z</time></trkpt><trkpt lat="43.54480723045189" lon="12.313748498275125"><ele>916.1666666666666</ele><time>2026-04-24T08:27:58Z</time></trkpt><trkpt lat="43.5448732249486" lon="12.313801222394217"><ele>917.3333333333333</ele><time>2026-04-24T08:27:59Z</time></trkpt><trkpt lat="43.5449454338972" lon="12.313854983836642"><ele>918.5</ele><time>2026-04-24T08:28:00Z</time></trkpt><trkpt lat="43.54501787385361" lon="12.313900849228206"><ele>919.6666666666666</ele><time>2026-04-24T08:28:01Z</time></trkpt><trkpt lat="43.54509358609126" lon="12.313941206471219"><ele>920.8333333333333</ele><time>2026-04-24T08:28:02Z</time></trkpt><trkpt lat="43.54520060438313" lon="12.313975789923001"><ele>922.0</ele><time>2026-04-24T08:28:04Z</time></trkpt><trkpt lat="43.54529169269469" lon="12.314011747077556"><ele>919.8333333333333</ele><time>2026-04-24T08:28:06Z</time></trkpt><trkpt lat="43.54539935618572" lon="12.314013729018866"><ele>917.6666666666666</ele><time>2026-04-24T08:28:08Z</time></trkpt><trkpt lat="43.54546791732109" lon="12.313992076269214"><ele>915.5</ele><time>2026-04-24T08:28:09Z</time></trkpt><trkpt lat="43.54552968773744" lon="12.31395408238065"><ele>913.3333333333333</ele><time>2026-04-24T08:28:10Z</time></trkpt><trkpt lat="43.545595256710314" lon="12.31392754738233"><ele>911.1666666666666</ele><time>2026-04-24T08:28:11Z</time></trkpt><trkpt lat="43.545665650861324" lon="12.313898273849448"><ele>909.0</ele><time>2026-04-24T08:28:12Z</time></trkpt><trkpt lat="43.54573193329814" lon="12.31387919162907"><ele>908.4000000000001</ele><time>2026-04-24T08:28:13Z</time></trkpt><trkpt lat="43.54580935240452" lon="12.31387043938581"><ele>907.8000000000001</ele><time>2026-04-24T08:28:14Z</time></trkpt><trkpt lat="43.54592927555039" lon="12.313855586196015"><ele>907.1999999999999</ele><time>2026-04-24T08:28:16Z</time></trkpt><trkpt lat="43.54605151997164" lon="12.313802588010484"><ele>906.5999999999999</ele><time>2026-04-24T08:28:18Z</time></trkpt><trkpt lat="43.546114923264234" lon="12.31376368028155"><ele>906.0</ele><time>2026-04-24T08:28:19Z</time></trkpt><trkpt lat="43.546168010214345" lon="12.313710948508948"><ele>905.8</ele><time>2026-04-24T08:28:20Z</time></trkpt><trkpt lat="43.54626774928238" lon="12.313650861845284"><ele>905.5999999999999</ele><time>2026-04-24T08:28:22Z</time></trkpt><trkpt lat="43.54639093316482" lon="12.313660081380633"><ele>905.4</ele><time>2026-04-24T08:28:24Z</time></trkpt><trkpt lat="43.546497542793404" lon="12.313691137766291"><ele>905.2</ele><time>2026-04-24T08:28:26Z</time></trkpt><trkpt lat="43.54656315186833" lon="12.31370813662856"><ele>905.0</ele><time>2026-04-24T08:28:27Z</time></trkpt><trkpt lat="43.54662839891382" lon="12.313737416745138"><ele>905.0000000000001</ele><time>2026-04-24T08:28:28Z</time></trkpt><trkpt lat="43.546688785718" lon="12.313767767826837"><ele>905.0</ele><time>2026-04-24T08:28:29Z</time></trkpt><trkpt lat="43.54675303903292" lon="12.313795778380705"><ele>905.0</ele><time>2026-04-24T08:28:30Z</time></trkpt><trkpt lat="43.54687436479465" lon="12.313804495891796"><ele>905.0</ele><time>2026-04-24T08:28:32Z</time></trkpt><trkpt lat="43.54699594805623" lon="12.31380690326949"><ele>905.0000000000001</ele><time>2026-04-24T08:28:34Z</time></trkpt><trkpt lat="43.54706615171129" lon="12.313830148758159"><ele>905.0</ele><time>2026-04-24T08:28:35Z</time></trkpt><trkpt lat="43.54717773729149" lon="12.31387364215808"><ele>905.5000000000001</ele><time>2026-04-24T08:28:37Z</time></trkpt><trkpt lat="43.5472581075499" lon="12.313923749885356"><ele>906.0</ele><time>2026-04-24T08:28:39Z</time></trkpt><trkpt lat="43.54731558060859" lon="12.313974670006706"><ele>906.5</ele><time>2026-04-24T08:28:41Z</time></trkpt><trkpt lat="43.547367157826216" lon="12.314041649477629"><ele>907.0</ele><time>2026-04-24T08:28:43Z</time></trkpt><trkpt lat="43.54742653639122" lon="12.314142751239276"><ele>907.5000000000001</ele><time>2026-04-24T08:28:45Z</time></trkpt><trkpt lat="43.54750511552899" lon="12.314239891337643"><ele>908.0</ele><time>2026-04-24T08:28:47Z</time></trkpt><trkpt lat="43.5475903441155" lon="12.31433841533318"><ele>908.0</ele><time>2026-04-24T08:28:49Z</time></trkpt><trkpt lat="43.54763433146385" lon="12.314402345415436"><ele>908.0</ele><time>2026-04-24T08:28:50Z</time></trkpt><trkpt lat="43.547736159526515" lon="12.314494328240079"><ele>908.0</ele><time>2026-04-24T08:28:52Z</time></trkpt><trkpt lat="43.547838133818544" lon="12.314587980501727"><ele>908.0</ele><time>2026-04-24T08:28:54Z</time></trkpt><trkpt lat="43.54789087459929" lon="12.314641830962627"><ele>908.0</ele><time>2026-04-24T08:28:55Z</time></trkpt><trkpt lat="43.547993410856186" lon="12.314706095573769"><ele>908.0</ele><time>2026-04-24T08:28:57Z</time></trkpt><trkpt lat="43.54807673876563" lon="12.31475137554298"><ele>908.0</ele><time>2026-04-24T08:28:59Z</time></trkpt><trkpt lat="43.5481335368248" lon="12.314793726522039"><ele>908.0</ele><time>2026-04-24T08:29:02Z</time></trkpt><trkpt lat="43.54805090120533" lon="12.314715795456861"><ele>908.0</ele><time>2026-04-24T08:29:07Z</time></trkpt><trkpt lat="43.547927323992326" lon="12.314689677067387"><ele>908.0</ele><time>2026-04-24T08:29:09Z</time></trkpt><trkpt lat="43.54786483026079" lon="12.314643344205"><ele>908.0</ele><time>2026-04-24T08:29:10Z</time></trkpt><trkpt lat="43.54779356288945" lon="12.314575328632099"><ele>908.0</ele><time>2026-04-24T08:29:11Z</time></trkpt><trkpt lat="43.54771931308405" lon="12.31450314804413"><ele>908.0</ele><time>2026-04-24T08:29:12Z</time></trkpt><trkpt lat="43.547653243088554" lon="12.314424829069397"><ele>908.0</ele><time>2026-04-24T08:29:13Z</time></trkpt><trkpt lat="43.547578854354406" lon="12.31434260990962"><ele>908.0</ele><time>2026-04-24T08:29:14Z</time></trkpt><trkpt lat="43.54751105801428" lon="12.314249219820237"><ele>908.0000000000001</ele><time>2026-04-24T08:29:15Z</time></trkpt><trkpt lat="43.54744643505115" lon="12.314151499651325"><ele>908.0</ele><time>2026-04-24T08:29:16Z</time></trkpt><trkpt lat="43.547381377018986" lon="12.314058284547142"><ele>908.0</ele><time>2026-04-24T08:29:17Z</time></trkpt><trkpt lat="43.54732618329185" lon="12.313982133459364"><ele>908.0</ele><time>2026-04-24T08:29:18Z</time></trkpt><trkpt lat="43.54726195698904" lon="12.313916072713663"><ele>908.0000000000001</ele><time>2026-04-24T08:29:19Z</time></trkpt><trkpt lat="43.547188699991985" lon="12.313882932764852"><ele>908.0</ele><time>2026-04-24T08:29:20Z</time></trkpt><trkpt lat="43.54710589606424" lon="12.313848483648387"><ele>907.4</ele><time>2026-04-24T08:29:21Z</time></trkpt><trkpt lat="43.547021107768856" lon="12.313832906582151"><ele>906.8</ele><time>2026-04-24T08:29:22Z</time></trkpt><trkpt lat="43.5469277265612" lon="12.313833118531544"><ele>906.2</ele><time>2026-04-24T08:29:23Z</time></trkpt><trkpt lat="43.546839048864065" lon="12.313827138083674"><ele>905.6</ele><time>2026-04-24T08:29:24Z</time></trkpt><trkpt lat="43.54674768420609" lon="12.31380924860925"><ele>905.0</ele><time>2026-04-24T08:29:25Z</time></trkpt><trkpt lat="43.54664943583285" lon="12.313777898505226"><ele>905.0</ele><time>2026-04-24T08:29:26Z</time></trkpt><trkpt lat="43.54655774996614" lon="12.313727161752603"><ele>905.0</ele><time>2026-04-24T08:29:27Z</time></trkpt><trkpt lat="43.546466894341485" lon="12.313700345917532"><ele>905.0</ele><time>2026-04-24T08:29:28Z</time></trkpt><trkpt lat="43.5463827324013" lon="12.313672407855243"><ele>905.0</ele><time>2026-04-24T08:29:29Z</time></trkpt><trkpt lat="43.54628649901256" lon="12.313669345650455"><ele>905.0</ele><time>2026-04-24T08:29:30Z</time></trkpt><trkpt lat="43.54621108211135" lon="12.313676754287133"><ele>905.1666666666667</ele><time>2026-04-24T08:29:31Z</time></trkpt><trkpt lat="43.54612960448279" lon="12.313724761524481"><ele>905.3333333333334</ele><time>2026-04-24T08:29:32Z</time></trkpt><trkpt lat="43.54606072773195" lon="12.313794580894458"><ele>905.5</ele><time>2026-04-24T08:29:33Z</time></trkpt><trkpt lat="43.545976581585116" lon="12.313870979001317"><ele>905.6666666666667</ele><time>2026-04-24T08:29:34Z</time></trkpt><trkpt lat="43.54589915734984" lon="12.313904481856394"><ele>905.8333333333334</ele><time>2026-04-24T08:29:35Z</time></trkpt><trkpt lat="43.54581197494544" lon="12.31391771696572"><ele>906.0</ele><time>2026-04-24T08:29:36Z</time></trkpt><trkpt lat="43.545720279424465" lon="12.313919785764737"><ele>906.5</ele><time>2026-04-24T08:29:37Z</time></trkpt><trkpt lat="43.54563395146607" lon="12.313927442019645"><ele>907.0</ele><time>2026-04-24T08:29:38Z</time></trkpt><trkpt lat="43.54555090557281" lon="12.313948736579606"><ele>907.5</ele><time>2026-04-24T08:29:39Z</time></trkpt><trkpt lat="43.54546226161582" lon="12.3139854237131"><ele>908.0</ele><time>2026-04-24T08:29:40Z</time></trkpt><trkpt lat="43.54538647349575" lon="12.314015318145866"><ele>908.5</ele><time>2026-04-24T08:29:41Z</time></trkpt><trkpt lat="43.545304831093404" lon="12.314044604033963"><ele>909.0</ele><time>2026-04-24T08:29:42Z</time></trkpt><trkpt lat="43.54523782349235" lon="12.314019914475018"><ele>911.1666666666666</ele><time>2026-04-24T08:29:43Z</time></trkpt><trkpt lat="43.545123427110916" lon="12.313957758055794"><ele>913.3333333333333</ele><time>2026-04-24T08:29:45Z</time></trkpt><trkpt lat="43.545057661173225" lon="12.313933772159004"><ele>915.5</ele><time>2026-04-24T08:29:46Z</time></trkpt><trkpt lat="43.544984663665346" lon="12.313897545944398"><ele>917.6666666666666</ele><time>2026-04-24T08:29:47Z</time></trkpt><trkpt lat="43.54491710077011" lon="12.3138507196425"><ele>919.8333333333333</ele><time>2026-04-24T08:29:48Z</time></trkpt><trkpt lat="43.544834837677406" lon="12.313804944501452"><ele>922.0</ele><time>2026-04-24T08:29:49Z</time></trkpt><trkpt lat="43.54477418778954" lon="12.313762145464839"><ele>921.9999999999999</ele><time>2026-04-24T08:29:50Z</time></trkpt><trkpt lat="43.544706521768646" lon="12.313702787065678"><ele>922.0</ele><time>2026-04-24T08:29:51Z</time></trkpt><trkpt lat="43.54462436106375" lon="12.313651581654565"><ele>922.0</ele><time>2026-04-24T08:29:52Z</time></trkpt><trkpt lat="43.54453836193243" lon="12.313606007593698"><ele>922.0</ele><time>2026-04-24T08:29:53Z</time></trkpt><trkpt lat="43.54445751728318" lon="12.313565690212949"><ele>921.9999999999999</ele><time>2026-04-24T08:29:54Z</time></trkpt><trkpt lat="43.5443944995448" lon="12.313526168138601"><ele>922.0</ele><time>2026-04-24T08:29:55Z</time></trkpt><trkpt lat="43.54432633361892" lon="12.31348008959882"><ele>921.0</ele><time>2026-04-24T08:29:56Z</time></trkpt><trkpt lat="43.544263133148455" lon="12.313446946697162"><ele>920.0000000000001</ele><time>2026-04-24T08:29:57Z</time></trkpt><trkpt lat="43.54419574259864" lon="12.313411617057316"><ele>919.0</ele><time>2026-04-24T08:29:58Z</time></trkpt><trkpt lat="43.54413054744147" lon="12.313372958741233"><ele>918.0</ele><time>2026-04-24T08:29:59Z</time></trkpt><trkpt lat="43.544072560702745" lon="12.313335101743748"><ele>917.0000000000001</ele><time>2026-04-24T08:30:00Z</time></trkpt><trkpt lat="43.54401576322484" lon="12.31327303461004"><ele>916.0</ele><time>2026-04-24T08:30:01Z</time></trkpt><trkpt lat="43.543966726426355" lon="12.31320712219918"><ele>915.0</ele><time>2026-04-24T08:30:02Z</time></trkpt><trkpt lat="43.54392336263415" lon="12.313127002206835"><ele>915.3333333333334</ele><time>2026-04-24T08:30:03Z</time></trkpt><trkpt lat="43.54388332365948" lon="12.313040457299389"><ele>915.6666666666667</ele><time>2026-04-24T08:30:04Z</time></trkpt><trkpt lat="43.54384796825889" lon="12.312963439696246"><ele>916.0</ele><time>2026-04-24T08:30:05Z</time></trkpt><trkpt lat="43.54381457876193" lon="12.312874384370854"><ele>916.3333333333334</ele><time>2026-04-24T08:30:06Z</time></trkpt><trkpt lat="43.54377942127629" lon="12.312791171003033"><ele>916.6666666666667</ele><time>2026-04-24T08:30:07Z</time></trkpt><trkpt lat="43.543709752517685" lon="12.312666127345468"><ele>917.0</ele><time>2026-04-24T08:30:09Z</time></trkpt><trkpt lat="43.543601236259" lon="12.312653998985752"><ele>913.6</ele><time>2026-04-24T08:30:11Z</time></trkpt><trkpt lat="43.54349991234705" lon="12.312767323994574"><ele>910.2</ele><time>2026-04-24T08:30:13Z</time></trkpt><trkpt lat="43.543445644913895" lon="12.312845195511493"><ele>906.8</ele><time>2026-04-24T08:30:14Z</time></trkpt><trkpt lat="43.543353886614355" lon="12.312966245344594"><ele>903.4</ele><time>2026-04-24T08:30:16Z</time></trkpt><trkpt lat="43.54329838990952" lon="12.313024960334019"><ele>900.0</ele><time>2026-04-24T08:30:17Z</time></trkpt><trkpt lat="43.54323814715983" lon="12.313089230342062"><ele>898.2857142857144</ele><time>2026-04-24T08:30:18Z</time></trkpt><trkpt lat="43.543186648172345" lon="12.313158487567083"><ele>896.5714285714287</ele><time>2026-04-24T08:30:19Z</time></trkpt><trkpt lat="43.5431346650367" lon="12.31324763141574"><ele>894.8571428571429</ele><time>2026-04-24T08:30:20Z</time></trkpt><trkpt lat="43.54308966801889" lon="12.31332520767036"><ele>893.1428571428572</ele><time>2026-04-24T08:30:21Z</time></trkpt><trkpt lat="43.54303625838718" lon="12.313391075267615"><ele>891.4285714285716</ele><time>2026-04-24T08:30:22Z</time></trkpt><trkpt lat="43.542982213808344" lon="12.313455632770673"><ele>889.7142857142857</ele><time>2026-04-24T08:30:23Z</time></trkpt><trkpt lat="43.54293561171292" lon="12.313529326496138"><ele>888.0</ele><time>2026-04-24T08:30:24Z</time></trkpt><trkpt lat="43.54288579594016" lon="12.313614185063438"><ele>884.2</ele><time>2026-04-24T08:30:25Z</time></trkpt><trkpt lat="43.542844605430304" lon="12.31368714937025"><ele>880.4</ele><time>2026-04-24T08:30:26Z</time></trkpt><trkpt lat="43.542766211641656" lon="12.313759497053898"><ele>876.6000000000001</ele><time>2026-04-24T08:30:28Z</time></trkpt><trkpt lat="43.542680614969804" lon="12.313704490171864"><ele>872.8000000000001</ele><time>2026-04-24T08:30:30Z</time></trkpt><trkpt lat="43.54262017387114" lon="12.313585429088931"><ele>869.0</ele><time>2026-04-24T08:30:32Z</time></trkpt><trkpt lat="43.54260797125667" lon="12.31342580047287"><ele>869.0</ele><time>2026-04-24T08:30:34Z</time></trkpt><trkpt lat="43.54259584820357" lon="12.313285911541463"><ele>869.0000000000001</ele><time>2026-04-24T08:30:36Z</time></trkpt><trkpt lat="43.54254670000763" lon="12.313172573064696"><ele>869.0000000000001</ele><time>2026-04-24T08:30:38Z</time></trkpt><trkpt lat="43.542462320135954" lon="12.313119786646416"><ele>869.0</ele><time>2026-04-24T08:30:40Z</time></trkpt><trkpt lat="43.542381690331595" lon="12.31319617437589"><ele>869.0</ele><time>2026-04-24T08:30:42Z</time></trkpt><trkpt lat="43.54237217746867" lon="12.313364490849201"><ele>869.0000000000001</ele><time>2026-04-24T08:30:44Z</time></trkpt><trkpt lat="43.542363630354046" lon="12.313473368715293"><ele>869.0</ele><time>2026-04-24T08:30:46Z</time></trkpt><trkpt lat="43.542319796563525" lon="12.313571583354166"><ele>869.0</ele><time>2026-04-24T08:30:48Z</time></trkpt><trkpt lat="43.5422706702654" lon="12.313639673978914"><ele>869.0</ele><time>2026-04-24T08:30:50Z</time></trkpt><trkpt lat="43.54220739946399" lon="12.313652562857103"><ele>869.0000000000001</ele><time>2026-04-24T08:30:53Z</time></trkpt><trkpt lat="43.54218984942535" lon="12.313541244216859"><ele>869.0</ele><time>2026-04-24T08:30:55Z</time></trkpt><trkpt lat="43.542239648665785" lon="12.313407709311496"><ele>869.0</ele><time>2026-04-24T08:30:57Z</time></trkpt><trkpt lat="43.54224368812411" lon="12.31323171520906"><ele>869.0000000000001</ele><time>2026-04-24T08:30:59Z</time></trkpt><trkpt lat="43.54222845477002" lon="12.313123042021596"><ele>869.0000000000001</ele><time>2026-04-24T08:31:00Z</time></trkpt><trkpt lat="43.54220744510234" lon="12.313028978969927"><ele>869.0</ele><time>2026-04-24T08:31:01Z</time></trkpt><trkpt lat="43.54218368816276" lon="12.31287494451154"><ele>869.0</ele><time>2026-04-24T08:31:03Z</time></trkpt><trkpt lat="43.54214088109743" lon="12.31270423567442"><ele>869.8333333333334</ele><time>2026-04-24T08:31:05Z</time></trkpt><trkpt lat="43.54211512429202" lon="12.312623432509817"><ele>870.6666666666667</ele><time>2026-04-24T08:31:06Z</time></trkpt><trkpt lat="43.542084089481584" lon="12.31253446573703"><ele>871.5</ele><time>2026-04-24T08:31:07Z</time></trkpt><trkpt lat="43.54205379372316" lon="12.3124490196892"><ele>872.3333333333333</ele><time>2026-04-24T08:31:08Z</time></trkpt><trkpt lat="43.54201570783871" lon="12.312373434985453"><ele>873.1666666666666</ele><time>2026-04-24T08:31:09Z</time></trkpt><trkpt lat="43.541963206721675" lon="12.312212017883986"><ele>874.0</ele><time>2026-04-24T08:31:11Z</time></trkpt><trkpt lat="43.5419108512015" lon="12.312074973211551"><ele>868.6666666666666</ele><time>2026-04-24T08:31:13Z</time></trkpt><trkpt lat="43.54188782505755" lon="12.311930455193691"><ele>863.3333333333333</ele><time>2026-04-24T08:31:15Z</time></trkpt><trkpt lat="43.5418803523214" lon="12.311754809147919"><ele>858.0</ele><time>2026-04-24T08:31:17Z</time></trkpt><trkpt lat="43.541860733850534" lon="12.311657399919193"><ele>852.6666666666667</ele><time>2026-04-24T08:31:18Z</time></trkpt><trkpt lat="43.541849244992825" lon="12.311562666622542"><ele>847.3333333333334</ele><time>2026-04-24T08:31:19Z</time></trkpt><trkpt lat="43.54184790422046" lon="12.311472089820679"><ele>842.0</ele><time>2026-04-24T08:31:20Z</time></trkpt><trkpt lat="43.54185327203652" lon="12.31137933307422"><ele>842.0000000000001</ele><time>2026-04-24T08:31:21Z</time></trkpt><trkpt lat="43.54187058489773" lon="12.311270829331875"><ele>842.0</ele><time>2026-04-24T08:31:22Z</time></trkpt><trkpt lat="43.5418900283981" lon="12.31117476581564"><ele>842.0</ele><time>2026-04-24T08:31:23Z</time></trkpt><trkpt lat="43.54190855240758" lon="12.311088738135801"><ele>842.0</ele><time>2026-04-24T08:31:24Z</time></trkpt><trkpt lat="43.54193009953089" lon="12.311003610525361"><ele>842.0</ele><time>2026-04-24T08:31:25Z</time></trkpt><trkpt lat="43.54194303585751" lon="12.310915990544347"><ele>842.0000000000001</ele><time>2026-04-24T08:31:26Z</time></trkpt><trkpt lat="43.54195396382854" lon="12.31082332693265"><ele>842.0</ele><time>2026-04-24T08:31:27Z</time></trkpt><trkpt lat="43.5419485627842" lon="12.310725487003827"><ele>842.0000000000001</ele><time>2026-04-24T08:31:28Z</time></trkpt><trkpt lat="43.541939421210564" lon="12.310620756836187"><ele>842.0</ele><time>2026-04-24T08:31:29Z</time></trkpt><trkpt lat="43.54192651028047" lon="12.310515873575461"><ele>842.0</ele><time>2026-04-24T08:31:30Z</time></trkpt><trkpt lat="43.54190877190258" lon="12.310413604958493"><ele>842.0</ele><time>2026-04-24T08:31:31Z</time></trkpt><trkpt lat="43.54188631103623" lon="12.310319611283743"><ele>842.0</ele><time>2026-04-24T08:31:32Z</time></trkpt><trkpt lat="43.54184766002705" lon="12.310235717290182"><ele>842.0000000000001</ele><time>2026-04-24T08:31:33Z</time></trkpt><trkpt lat="43.54180350177906" lon="12.310155257709008"><ele>842.0</ele><time>2026-04-24T08:31:34Z</time></trkpt><trkpt lat="43.541763394446136" lon="12.310082385658692"><ele>843.0000000000001</ele><time>2026-04-24T08:31:35Z</time></trkpt><trkpt lat="43.541725551820356" lon="12.31000202549929"><ele>844.0</ele><time>2026-04-24T08:31:36Z</time></trkpt><trkpt lat="43.541699466296286" lon="12.309898745989146"><ele>845.0</ele><time>2026-04-24T08:31:38Z</time></trkpt><trkpt lat="43.54167944564894" lon="12.309751324380976"><ele>846.0</ele><time>2026-04-24T08:31:40Z</time></trkpt><trkpt lat="43.54162004095342" lon="12.309604740741626"><ele>847.0000000000001</ele><time>2026-04-24T08:31:42Z</time></trkpt><trkpt lat="43.54159909574032" lon="12.309518821270684"><ele>848.0</ele><time>2026-04-24T08:31:43Z</time></trkpt><trkpt lat="43.54157837574275" lon="12.309429352143926"><ele>848.3333333333334</ele><time>2026-04-24T08:31:44Z</time></trkpt><trkpt lat="43.54154782305711" lon="12.30934553144307"><ele>848.6666666666667</ele><time>2026-04-24T08:31:45Z</time></trkpt><trkpt lat="43.541520852157404" lon="12.309261376073648"><ele>849.0</ele><time>2026-04-24T08:31:46Z</time></trkpt><trkpt lat="43.54149329891756" lon="12.309175830232954"><ele>849.3333333333333</ele><time>2026-04-24T08:31:47Z</time></trkpt><trkpt lat="43.541462873873535" lon="12.309084021073268"><ele>849.6666666666666</ele><time>2026-04-24T08:31:48Z</time></trkpt><trkpt lat="43.54140495444891" lon="12.308942308172115"><ele>850.0</ele><time>2026-04-24T08:31:50Z</time></trkpt><trkpt lat="43.54134775629729" lon="12.308809700740596"><ele>849.9999999999999</ele><time>2026-04-24T08:31:52Z</time></trkpt><trkpt lat="43.541256401067784" lon="12.308686214572246"><ele>850.0</ele><time>2026-04-24T08:31:54Z</time></trkpt><trkpt lat="43.54120340467907" lon="12.308632635419533"><ele>850.0</ele><time>2026-04-24T08:31:55Z</time></trkpt><trkpt lat="43.54113710276005" lon="12.308560731424356"><ele>850.0</ele><time>2026-04-24T08:31:56Z</time></trkpt><trkpt lat="43.54108159616809" lon="12.308491606179263"><ele>849.9999999999999</ele><time>2026-04-24T08:31:57Z</time></trkpt><trkpt lat="43.541028763835826" lon="12.3083981476076"><ele>850.0</ele><time>2026-04-24T08:31:58Z</time></trkpt><trkpt lat="43.54098800388137" lon="12.308296859800569"><ele>849.6</ele><time>2026-04-24T08:31:59Z</time></trkpt><trkpt lat="43.540958288974224" lon="12.308195162737452"><ele>849.2</ele><time>2026-04-24T08:32:00Z</time></trkpt><trkpt lat="43.540925969207" lon="12.30804039335111"><ele>848.8</ele><time>2026-04-24T08:32:02Z</time></trkpt><trkpt lat="43.540886913936426" lon="12.30796558022575"><ele>848.4</ele><time>2026-04-24T08:32:03Z</time></trkpt><trkpt lat="43.540806163997324" lon="12.307845549272898"><ele>848.0</ele><time>2026-04-24T08:32:05Z</time></trkpt><trkpt lat="43.540765418142946" lon="12.307769574311001"><ele>848.5714285714286</ele><time>2026-04-24T08:32:06Z</time></trkpt><trkpt lat="43.54073869293779" lon="12.307682120499024"><ele>849.1428571428571</ele><time>2026-04-24T08:32:07Z</time></trkpt><trkpt lat="43.540724114917566" lon="12.307590826546518"><ele>849.7142857142857</ele><time>2026-04-24T08:32:08Z</time></trkpt><trkpt lat="43.54070652405749" lon="12.307505000035274"><ele>850.2857142857142</ele><time>2026-04-24T08:32:09Z</time></trkpt><trkpt lat="43.54068733707388" lon="12.30742138903653"><ele>850.8571428571429</ele><time>2026-04-24T08:32:10Z</time></trkpt><trkpt lat="43.540654318676374" lon="12.307271673775277"><ele>851.4285714285713</ele><time>2026-04-24T08:32:12Z</time></trkpt><trkpt lat="43.54063579636787" lon="12.307183550214432"><ele>852.0</ele><time>2026-04-24T08:32:13Z</time></trkpt><trkpt lat="43.54055748007075" lon="12.307025388863376"><ele>850.7142857142857</ele><time>2026-04-24T08:32:15Z</time></trkpt><trkpt lat="43.54047940809313" lon="12.306922214132891"><ele>849.4285714285714</ele><time>2026-04-24T08:32:17Z</time></trkpt><trkpt lat="43.54044448541641" lon="12.306849429651722"><ele>848.1428571428571</ele><time>2026-04-24T08:32:18Z</time></trkpt><trkpt lat="43.540421119078225" lon="12.30676861730449"><ele>846.8571428571429</ele><time>2026-04-24T08:32:19Z</time></trkpt><trkpt lat="43.54040615669751" lon="12.306679807184889"><ele>845.5714285714286</ele><time>2026-04-24T08:32:20Z</time></trkpt><trkpt lat="43.5403757044717" lon="12.30659759497709"><ele>844.2857142857142</ele><time>2026-04-24T08:32:21Z</time></trkpt><trkpt lat="43.54033678777759" lon="12.306513500123067"><ele>843.0</ele><time>2026-04-24T08:32:22Z</time></trkpt><trkpt lat="43.540308553273306" lon="12.30643128465607"><ele>841.6666666666666</ele><time>2026-04-24T08:32:23Z</time></trkpt><trkpt lat="43.5402901455757" lon="12.306343689929516"><ele>840.3333333333333</ele><time>2026-04-24T08:32:24Z</time></trkpt><trkpt lat="43.54027197312062" lon="12.306247226266231"><ele>839.0</ele><time>2026-04-24T08:32:25Z</time></trkpt><trkpt lat="43.540254167209795" lon="12.30613939348267"><ele>837.6666666666666</ele><time>2026-04-24T08:32:26Z</time></trkpt><trkpt lat="43.54023361704562" lon="12.306044716469568"><ele>836.3333333333333</ele><time>2026-04-24T08:32:27Z</time></trkpt><trkpt lat="43.54021597973902" lon="12.305958819979402"><ele>835.0</ele><time>2026-04-24T08:32:28Z</time></trkpt><trkpt lat="43.54018121512842" lon="12.305826519104173"><ele>834.9999999999999</ele><time>2026-04-24T08:32:30Z</time></trkpt><trkpt lat="43.540123248663406" lon="12.305678759618644"><ele>835.0</ele><time>2026-04-24T08:32:32Z</time></trkpt><trkpt lat="43.540079124508075" lon="12.305613089902279"><ele>835.0</ele><time>2026-04-24T08:32:33Z</time></trkpt><trkpt lat="43.54003662069245" lon="12.30554226160411"><ele>835.0</ele><time>2026-04-24T08:32:34Z</time></trkpt><trkpt lat="43.53998979061111" lon="12.305458286299444"><ele>834.9999999999999</ele><time>2026-04-24T08:32:35Z</time></trkpt><trkpt lat="43.53995617451541" lon="12.305382194419778"><ele>835.0</ele><time>2026-04-24T08:32:36Z</time></trkpt><trkpt lat="43.53991099473522" lon="12.305298666333984"><ele>833.8333333333333</ele><time>2026-04-24T08:32:37Z</time></trkpt><trkpt lat="43.539875779605566" lon="12.305210096322591"><ele>832.6666666666666</ele><time>2026-04-24T08:32:38Z</time></trkpt><trkpt lat="43.539858941546946" lon="12.305026984523021"><ele>831.5</ele><time>2026-04-24T08:32:40Z</time></trkpt><trkpt lat="43.539828961368364" lon="12.30492479470119"><ele>830.3333333333333</ele><time>2026-04-24T08:32:41Z</time></trkpt><trkpt lat="43.53979157136907" lon="12.30482675315221"><ele>829.1666666666666</ele><time>2026-04-24T08:32:42Z</time></trkpt><trkpt lat="43.53975365103539" lon="12.304734329756654"><ele>828.0</ele><time>2026-04-24T08:32:43Z</time></trkpt><trkpt lat="43.53971473417597" lon="12.304652928013857"><ele>827.0</ele><time>2026-04-24T08:32:44Z</time></trkpt><trkpt lat="43.53961221029189" lon="12.30451964417414"><ele>826.0</ele><time>2026-04-24T08:32:46Z</time></trkpt><trkpt lat="43.53954676052999" lon="12.304442617252983"><ele>825.0</ele><time>2026-04-24T08:32:47Z</time></trkpt><trkpt lat="43.539481720917955" lon="12.304349929102598"><ele>824.0</ele><time>2026-04-24T08:32:48Z</time></trkpt><trkpt lat="43.539425369910816" lon="12.304243033284987"><ele>823.0</ele><time>2026-04-24T08:32:49Z</time></trkpt><trkpt lat="43.53938087268333" lon="12.304163902574464"><ele>822.9999999999999</ele><time>2026-04-24T08:32:50Z</time></trkpt><trkpt lat="43.53930657994833" lon="12.304036127918017"><ele>823.0</ele><time>2026-04-24T08:32:52Z</time></trkpt><trkpt lat="43.539283489112925" lon="12.303949748352911"><ele>823.0</ele><time>2026-04-24T08:32:53Z</time></trkpt><trkpt lat="43.539272598058595" lon="12.303852514442994"><ele>823.0</ele><time>2026-04-24T08:32:54Z</time></trkpt><trkpt lat="43.53925697866752" lon="12.303763984803307"><ele>822.9999999999999</ele><time>2026-04-24T08:32:55Z</time></trkpt><trkpt lat="43.53919044785057" lon="12.30362625025241"><ele>823.0</ele><time>2026-04-24T08:32:57Z</time></trkpt><trkpt lat="43.5391333695248" lon="12.303493382854928"><ele>823.2</ele><time>2026-04-24T08:32:59Z</time></trkpt><trkpt lat="43.5391083719432" lon="12.303374691306384"><ele>823.4</ele><time>2026-04-24T08:33:01Z</time></trkpt><trkpt lat="43.53903863635184" lon="12.303282567499108"><ele>823.6</ele><time>2026-04-24T08:33:03Z</time></trkpt><trkpt lat="43.538973861802724" lon="12.30317534786469"><ele>823.8000000000001</ele><time>2026-04-24T08:33:05Z</time></trkpt><trkpt lat="43.538943989840604" lon="12.303098437169789"><ele>824.0</ele><time>2026-04-24T08:33:06Z</time></trkpt><trkpt lat="43.53886141867754" lon="12.303000649055166"><ele>819.4000000000001</ele><time>2026-04-24T08:33:08Z</time></trkpt><trkpt lat="43.53877799193707" lon="12.302917857542905"><ele>814.8</ele><time>2026-04-24T08:33:10Z</time></trkpt><trkpt lat="43.53870928377051" lon="12.302792023437028"><ele>810.2</ele><time>2026-04-24T08:33:12Z</time></trkpt><trkpt lat="43.53866978846829" lon="12.302693767684234"><ele>805.5999999999999</ele><time>2026-04-24T08:33:14Z</time></trkpt><trkpt lat="43.53862589889889" lon="12.302592742625095"><ele>801.0</ele><time>2026-04-24T08:33:16Z</time></trkpt><trkpt lat="43.538559784134556" lon="12.302479093874384"><ele>800.4</ele><time>2026-04-24T08:33:18Z</time></trkpt><trkpt lat="43.53850237733782" lon="12.302388083877748"><ele>799.8</ele><time>2026-04-24T08:33:20Z</time></trkpt><trkpt lat="43.53845755552882" lon="12.302283742655401"><ele>799.1999999999999</ele><time>2026-04-24T08:33:22Z</time></trkpt><trkpt lat="43.53841245104458" lon="12.302192607410928"><ele>798.5999999999999</ele><time>2026-04-24T08:33:24Z</time></trkpt><trkpt lat="43.53835475647243" lon="12.302085287897565"><ele>798.0</ele><time>2026-04-24T08:33:26Z</time></trkpt><trkpt lat="43.53829206991651" lon="12.301953477654894"><ele>795.5</ele><time>2026-04-24T08:33:29Z</time></trkpt><trkpt lat="43.5381959545279" lon="12.301871656240202"><ele>793.0</ele><time>2026-04-24T08:33:31Z</time></trkpt><trkpt lat="43.53813347193717" lon="12.301833286049558"><ele>790.5</ele><time>2026-04-24T08:33:32Z</time></trkpt><trkpt lat="43.538086761022655" lon="12.301769216393826"><ele>788.0</ele><time>2026-04-24T08:33:33Z</time></trkpt><trkpt lat="43.538054232862706" lon="12.301690526777568"><ele>785.5</ele><time>2026-04-24T08:33:34Z</time></trkpt><trkpt lat="43.53801041918905" lon="12.301612541080297"><ele>783.0</ele><time>2026-04-24T08:33:35Z</time></trkpt><trkpt lat="43.537960603630175" lon="12.301536536106916"><ele>783.0</ele><time>2026-04-24T08:33:36Z</time></trkpt><trkpt lat="43.537891818003715" lon="12.301450432774162"><ele>783.0</ele><time>2026-04-24T08:33:37Z</time></trkpt><trkpt lat="43.53782937403693" lon="12.301371536047434"><ele>783.0</ele><time>2026-04-24T08:33:38Z</time></trkpt><trkpt lat="43.53777603024794" lon="12.301291002941742"><ele>783.0</ele><time>2026-04-24T08:33:39Z</time></trkpt><trkpt lat="43.53772858665069" lon="12.301197635389993"><ele>783.0</ele><time>2026-04-24T08:33:40Z</time></trkpt><trkpt lat="43.5376740383048" lon="12.301108806593662"><ele>783.0</ele><time>2026-04-24T08:33:41Z</time></trkpt><trkpt lat="43.537620850613024" lon="12.30103716619438"><ele>781.6666666666666</ele><time>2026-04-24T08:33:42Z</time></trkpt><trkpt lat="43.53754682146271" lon="12.300949132000259"><ele>780.3333333333333</ele><time>2026-04-24T08:33:43Z</time></trkpt><trkpt lat="43.53748805408496" lon="12.300874692220045"><ele>779.0</ele><time>2026-04-24T08:33:44Z</time></trkpt><trkpt lat="43.537427017223216" lon="12.300804563949075"><ele>777.6666666666666</ele><time>2026-04-24T08:33:45Z</time></trkpt><trkpt lat="43.537363584248595" lon="12.300740059103836"><ele>776.3333333333333</ele><time>2026-04-24T08:33:46Z</time></trkpt><trkpt lat="43.53730521180338" lon="12.30067481427823"><ele>775.0</ele><time>2026-04-24T08:33:47Z</time></trkpt><trkpt lat="43.53724742683724" lon="12.300606575770392"><ele>773.1666666666666</ele><time>2026-04-24T08:33:48Z</time></trkpt><trkpt lat="43.537177491204" lon="12.300552065052964"><ele>771.3333333333333</ele><time>2026-04-24T08:33:49Z</time></trkpt><trkpt lat="43.537102601943666" lon="12.300517659660295"><ele>769.5</ele><time>2026-04-24T08:33:50Z</time></trkpt><trkpt lat="43.53704006192556" lon="12.300471268981065"><ele>767.6666666666666</ele><time>2026-04-24T08:33:51Z</time></trkpt><trkpt lat="43.53699103832236" lon="12.30040727569035"><ele>765.8333333333333</ele><time>2026-04-24T08:33:52Z</time></trkpt><trkpt lat="43.5369356516606" lon="12.300331433259043"><ele>764.0</ele><time>2026-04-24T08:33:53Z</time></trkpt><trkpt lat="43.536877760621316" lon="12.300254143925471"><ele>764.0</ele><time>2026-04-24T08:33:54Z</time></trkpt><trkpt lat="43.53678448120642" lon="12.300123157853335"><ele>764.0</ele><time>2026-04-24T08:33:56Z</time></trkpt><trkpt lat="43.53674176662091" lon="12.300051266034583"><ele>764.0</ele><time>2026-04-24T08:33:57Z</time></trkpt><trkpt lat="43.53668807183035" lon="12.299957544588976"><ele>764.0</ele><time>2026-04-24T08:33:58Z</time></trkpt><trkpt lat="43.5366446570708" lon="12.299880089616158"><ele>764.0</ele><time>2026-04-24T08:33:59Z</time></trkpt><trkpt lat="43.5365909859228" lon="12.299744708622018"><ele>762.6</ele><time>2026-04-24T08:34:01Z</time></trkpt><trkpt lat="43.53649608720371" lon="12.299680874271498"><ele>761.2</ele><time>2026-04-24T08:34:03Z</time></trkpt><trkpt lat="43.53638787639631" lon="12.299598492891322"><ele>759.8000000000001</ele><time>2026-04-24T08:34:05Z</time></trkpt><trkpt lat="43.53633879687687" lon="12.299514729747195"><ele>758.4000000000001</ele><time>2026-04-24T08:34:06Z</time></trkpt><trkpt lat="43.53629592015059" lon="12.29942100413598"><ele>757.0</ele><time>2026-04-24T08:34:07Z</time></trkpt><trkpt lat="43.53625292445524" lon="12.29933385155143"><ele>756.3333333333334</ele><time>2026-04-24T08:34:08Z</time></trkpt><trkpt lat="43.53621403467122" lon="12.299252079491573"><ele>755.6666666666667</ele><time>2026-04-24T08:34:09Z</time></trkpt><trkpt lat="43.53618014356256" lon="12.299115469138059"><ele>755.0</ele><time>2026-04-24T08:34:11Z</time></trkpt><trkpt lat="43.536162973614914" lon="12.29900327713204"><ele>754.3333333333334</ele><time>2026-04-24T08:34:13Z</time></trkpt><trkpt lat="43.5361214015838" lon="12.298883292873064"><ele>753.6666666666666</ele><time>2026-04-24T08:34:15Z</time></trkpt><trkpt lat="43.53608677737245" lon="12.298780496125794"><ele>753.0</ele><time>2026-04-24T08:34:17Z</time></trkpt><trkpt lat="43.53605967634082" lon="12.298694081616263"><ele>751.6666666666666</ele><time>2026-04-24T08:34:18Z</time></trkpt><trkpt lat="43.53604820713796" lon="12.298576488953703"><ele>750.3333333333334</ele><time>2026-04-24T08:34:20Z</time></trkpt><trkpt lat="43.53602630638392" lon="12.298433485223741"><ele>749.0</ele><time>2026-04-24T08:34:23Z</time></trkpt><trkpt lat="43.535999718471174" lon="12.298335672463296"><ele>747.6666666666667</ele><time>2026-04-24T08:34:25Z</time></trkpt><trkpt lat="43.53595892565698" lon="12.298228215770537"><ele>746.3333333333334</ele><time>2026-04-24T08:34:27Z</time></trkpt><trkpt lat="43.53591375118661" lon="12.298117119579521"><ele>745.0</ele><time>2026-04-24T08:34:29Z</time></trkpt><trkpt lat="43.53588114944911" lon="12.298002649013357"><ele>742.0</ele><time>2026-04-24T08:34:32Z</time></trkpt><trkpt lat="43.53584497168545" lon="12.297924523526396"><ele>739.0</ele><time>2026-04-24T08:34:34Z</time></trkpt><trkpt lat="43.53579866652163" lon="12.297860763156415"><ele>736.0</ele><time>2026-04-24T08:34:36Z</time></trkpt><trkpt lat="43.53575748746635" lon="12.297789683482423"><ele>733.0</ele><time>2026-04-24T08:34:38Z</time></trkpt><trkpt lat="43.5356963112299" lon="12.297682202218853"><ele>730.0</ele><time>2026-04-24T08:34:41Z</time></trkpt><trkpt lat="43.53565138079754" lon="12.297617302719095"><ele>727.0</ele><time>2026-04-24T08:34:43Z</time></trkpt><trkpt lat="43.53557384595323" lon="12.297535375607664"><ele>727.0</ele><time>2026-04-24T08:34:46Z</time></trkpt><trkpt lat="43.53551730431441" lon="12.297433145129416"><ele>727.0</ele><time>2026-04-24T08:34:49Z</time></trkpt><trkpt lat="43.535509266376415" lon="12.297250627767536"><ele>727.0</ele><time>2026-04-24T08:34:52Z</time></trkpt><trkpt lat="43.53551051168409" lon="12.2971394092809"><ele>727.0</ele><time>2026-04-24T08:34:53Z</time></trkpt><trkpt lat="43.53551139726615" lon="12.297028201150495"><ele>727.0</ele><time>2026-04-24T08:34:54Z</time></trkpt><trkpt lat="43.53551547746576" lon="12.296923038883923"><ele>724.7142857142857</ele><time>2026-04-24T08:34:55Z</time></trkpt><trkpt lat="43.53552710395723" lon="12.296813381116564"><ele>722.4285714285714</ele><time>2026-04-24T08:34:56Z</time></trkpt><trkpt lat="43.53553727323955" lon="12.296719906982178"><ele>720.1428571428571</ele><time>2026-04-24T08:34:57Z</time></trkpt><trkpt lat="43.535549678022676" lon="12.296618580372341"><ele>717.8571428571429</ele><time>2026-04-24T08:34:58Z</time></trkpt><trkpt lat="43.53555066424418" lon="12.296518737070317"><ele>715.5714285714286</ele><time>2026-04-24T08:34:59Z</time></trkpt><trkpt lat="43.535531485479325" lon="12.296422446333112"><ele>713.2857142857143</ele><time>2026-04-24T08:35:00Z</time></trkpt><trkpt lat="43.535512002509044" lon="12.296314960376796"><ele>711.0</ele><time>2026-04-24T08:35:01Z</time></trkpt><trkpt lat="43.535499828565165" lon="12.296204487997823"><ele>710.5714285714286</ele><time>2026-04-24T08:35:02Z</time></trkpt><trkpt lat="43.535491942361" lon="12.29610709191292"><ele>710.1428571428571</ele><time>2026-04-24T08:35:03Z</time></trkpt><trkpt lat="43.53548143464687" lon="12.296004738413147"><ele>709.7142857142858</ele><time>2026-04-24T08:35:04Z</time></trkpt><trkpt lat="43.53545952872638" lon="12.29589810048191"><ele>709.2857142857142</ele><time>2026-04-24T08:35:05Z</time></trkpt><trkpt lat="43.53543542328334" lon="12.295804552431584"><ele>708.8571428571428</ele><time>2026-04-24T08:35:06Z</time></trkpt><trkpt lat="43.53541304116048" lon="12.295700773466422"><ele>708.4285714285714</ele><time>2026-04-24T08:35:07Z</time></trkpt><trkpt lat="43.53538600990121" lon="12.295621455016457"><ele>708.0</ele><time>2026-04-24T08:35:08Z</time></trkpt><trkpt lat="43.535345031013804" lon="12.295462130201608"><ele>707.8</ele><time>2026-04-24T08:35:10Z</time></trkpt><trkpt lat="43.53530890273272" lon="12.295304901296348"><ele>707.5999999999999</ele><time>2026-04-24T08:35:12Z</time></trkpt><trkpt lat="43.53530930638423" lon="12.295216568542592"><ele>707.4000000000001</ele><time>2026-04-24T08:35:13Z</time></trkpt><trkpt lat="43.535304964394264" lon="12.295048979132165"><ele>707.2</ele><time>2026-04-24T08:35:15Z</time></trkpt><trkpt lat="43.5352458758233" lon="12.294920783680798"><ele>707.0</ele><time>2026-04-24T08:35:17Z</time></trkpt><trkpt lat="43.535209499376" lon="12.294822983238511"><ele>704.6</ele><time>2026-04-24T08:35:19Z</time></trkpt><trkpt lat="43.535172545707546" lon="12.29469949545537"><ele>702.2</ele><time>2026-04-24T08:35:21Z</time></trkpt><trkpt lat="43.53514381972431" lon="12.294552988394976"><ele>699.8</ele><time>2026-04-24T08:35:23Z</time></trkpt><trkpt lat="43.535098713168324" lon="12.294432823187822"><ele>697.4</ele><time>2026-04-24T08:35:25Z</time></trkpt><trkpt lat="43.535067928055014" lon="12.294294091462234"><ele>695.0</ele><time>2026-04-24T08:35:27Z</time></trkpt><trkpt lat="43.53503918726388" lon="12.294209637211225"><ele>695.0</ele><time>2026-04-24T08:35:28Z</time></trkpt><trkpt lat="43.53500005243045" lon="12.294140878479606"><ele>695.0</ele><time>2026-04-24T08:35:29Z</time></trkpt><trkpt lat="43.53495287951193" lon="12.293988091497727"><ele>695.0</ele><time>2026-04-24T08:35:31Z</time></trkpt><trkpt lat="43.53494593822372" lon="12.293876163481116"><ele>695.0</ele><time>2026-04-24T08:35:32Z</time></trkpt><trkpt lat="43.534944159085995" lon="12.293749467181128"><ele>695.0</ele><time>2026-04-24T08:35:33Z</time></trkpt><trkpt lat="43.534939605118495" lon="12.29362773817011"><ele>695.0</ele><time>2026-04-24T08:35:34Z</time></trkpt><trkpt lat="43.53493186228895" lon="12.293486615310595"><ele>692.6666666666666</ele><time>2026-04-24T08:35:35Z</time></trkpt><trkpt lat="43.53492875399344" lon="12.293367134040132"><ele>690.3333333333333</ele><time>2026-04-24T08:35:36Z</time></trkpt><trkpt lat="43.53491815198417" lon="12.293264369601811"><ele>688.0</ele><time>2026-04-24T08:35:37Z</time></trkpt><trkpt lat="43.53488881838126" lon="12.293151381461858"><ele>685.6666666666666</ele><time>2026-04-24T08:35:38Z</time></trkpt><trkpt lat="43.534850556082084" lon="12.293045883591361"><ele>683.3333333333334</ele><time>2026-04-24T08:35:39Z</time></trkpt><trkpt lat="43.53480592614025" lon="12.29294989519616"><ele>681.0</ele><time>2026-04-24T08:35:40Z</time></trkpt><trkpt lat="43.53476391415812" lon="12.292859884336464"><ele>680.0000000000001</ele><time>2026-04-24T08:35:41Z</time></trkpt><trkpt lat="43.53473419566083" lon="12.292773082880808"><ele>679.0</ele><time>2026-04-24T08:35:42Z</time></trkpt><trkpt lat="43.53472802871361" lon="12.292680438884002"><ele>678.0</ele><time>2026-04-24T08:35:43Z</time></trkpt><trkpt lat="43.53472992504525" lon="12.292577188464117"><ele>677.0</ele><time>2026-04-24T08:35:44Z</time></trkpt><trkpt lat="43.53473349320347" lon="12.29247821978499"><ele>676.0</ele><time>2026-04-24T08:35:45Z</time></trkpt><trkpt lat="43.534710289231754" lon="12.292388915442181"><ele>675.0000000000001</ele><time>2026-04-24T08:35:46Z</time></trkpt><trkpt lat="43.534665996461875" lon="12.29230951271926"><ele>674.0</ele><time>2026-04-24T08:35:47Z</time></trkpt><trkpt lat="43.53461192976902" lon="12.292242203726794"><ele>672.3333333333333</ele><time>2026-04-24T08:35:48Z</time></trkpt><trkpt lat="43.53456267077184" lon="12.292115218528846"><ele>670.6666666666666</ele><time>2026-04-24T08:35:50Z</time></trkpt><trkpt lat="43.534552025777685" lon="12.29202413456362"><ele>669.0</ele><time>2026-04-24T08:35:51Z</time></trkpt><trkpt lat="43.53454362313502" lon="12.291914087063546"><ele>667.3333333333334</ele><time>2026-04-24T08:35:52Z</time></trkpt><trkpt lat="43.53452592011391" lon="12.291797921335192"><ele>665.6666666666667</ele><time>2026-04-24T08:35:53Z</time></trkpt><trkpt lat="43.53448907723851" lon="12.291698557978844"><ele>664.0</ele><time>2026-04-24T08:35:54Z</time></trkpt><trkpt lat="43.53444446531424" lon="12.291619595247374"><ele>663.0</ele><time>2026-04-24T08:35:55Z</time></trkpt><trkpt lat="43.53439719161142" lon="12.291551748210901"><ele>662.0</ele><time>2026-04-24T08:35:56Z</time></trkpt><trkpt lat="43.53435175050848" lon="12.291460670987483"><ele>661.0</ele><time>2026-04-24T08:35:57Z</time></trkpt><trkpt lat="43.534303193675804" lon="12.291366950058253"><ele>660.0</ele><time>2026-04-24T08:35:58Z</time></trkpt><trkpt lat="43.53424929929724" lon="12.291302604783226"><ele>659.0</ele><time>2026-04-24T08:35:59Z</time></trkpt><trkpt lat="43.53419050471932" lon="12.291244315487528"><ele>658.0</ele><time>2026-04-24T08:36:00Z</time></trkpt><trkpt lat="43.53412854867697" lon="12.291189172672032"><ele>657.0</ele><time>2026-04-24T08:36:01Z</time></trkpt><trkpt lat="43.53407313320853" lon="12.291132786746715"><ele>657.0</ele><time>2026-04-24T08:36:02Z</time></trkpt><trkpt lat="43.53400536746443" lon="12.29100850739157"><ele>657.0</ele><time>2026-04-24T08:36:04Z</time></trkpt><trkpt lat="43.5339262315143" lon="12.29088794005828"><ele>657.0</ele><time>2026-04-24T08:36:06Z</time></trkpt><trkpt lat="43.5338591431323" lon="12.290808754611557"><ele>657.0</ele><time>2026-04-24T08:36:08Z</time></trkpt><trkpt lat="43.53384502441991" lon="12.290679043668257"><ele>657.0</ele><time>2026-04-24T08:36:10Z</time></trkpt><trkpt lat="43.53383491644439" lon="12.290506498046405"><ele>656.1428571428571</ele><time>2026-04-24T08:36:12Z</time></trkpt><trkpt lat="43.53383332420237" lon="12.29040191971895"><ele>655.2857142857143</ele><time>2026-04-24T08:36:13Z</time></trkpt><trkpt lat="43.53383669658629" lon="12.290297798105778"><ele>654.4285714285714</ele><time>2026-04-24T08:36:14Z</time></trkpt><trkpt lat="43.53384112472082" lon="12.29018601626481"><ele>653.5714285714286</ele><time>2026-04-24T08:36:15Z</time></trkpt><trkpt lat="43.533848974624426" lon="12.290092475690235"><ele>652.7142857142858</ele><time>2026-04-24T08:36:16Z</time></trkpt><trkpt lat="43.533851481912656" lon="12.290003866581014"><ele>651.8571428571429</ele><time>2026-04-24T08:36:17Z</time></trkpt><trkpt lat="43.53384120973757" lon="12.289911947726397"><ele>651.0</ele><time>2026-04-24T08:36:18Z</time></trkpt><trkpt lat="43.53381971488593" lon="12.289818365730051"><ele>647.75</ele><time>2026-04-24T08:36:19Z</time></trkpt><trkpt lat="43.53377967285675" lon="12.289628998408663"><ele>644.5</ele><time>2026-04-24T08:36:21Z</time></trkpt><trkpt lat="43.533749028831664" lon="12.28944676439243"><ele>641.25</ele><time>2026-04-24T08:36:23Z</time></trkpt><trkpt lat="43.53374188393856" lon="12.289269757892347"><ele>638.0</ele><time>2026-04-24T08:36:25Z</time></trkpt><trkpt lat="43.53371951153774" lon="12.289105067973766"><ele>637.0</ele><time>2026-04-24T08:36:27Z</time></trkpt><trkpt lat="43.53367971904059" lon="12.289027523336191"><ele>636.0</ele><time>2026-04-24T08:36:28Z</time></trkpt><trkpt lat="43.53359943211552" lon="12.288909689711781"><ele>635.0</ele><time>2026-04-24T08:36:30Z</time></trkpt><trkpt lat="43.533514736294585" lon="12.288808538078984"><ele>634.0</ele><time>2026-04-24T08:36:32Z</time></trkpt><trkpt lat="43.53349093798422" lon="12.28863942546118"><ele>633.0</ele><time>2026-04-24T08:36:34Z</time></trkpt><trkpt lat="43.53349119225601" lon="12.288548792640471"><ele>631.1999999999999</ele><time>2026-04-24T08:36:35Z</time></trkpt><trkpt lat="43.53347769955412" lon="12.288455446752986"><ele>629.4</ele><time>2026-04-24T08:36:36Z</time></trkpt><trkpt lat="43.53340750302107" lon="12.288339302394242"><ele>627.5999999999999</ele><time>2026-04-24T08:36:38Z</time></trkpt><trkpt lat="43.533331741002115" lon="12.288241360446838"><ele>625.8</ele><time>2026-04-24T08:36:40Z</time></trkpt><trkpt lat="43.533276711629156" lon="12.288119277144247"><ele>624.0</ele><time>2026-04-24T08:36:42Z</time></trkpt><trkpt lat="43.53323758316306" lon="12.28801286758561"><ele>620.8</ele><time>2026-04-24T08:36:44Z</time></trkpt><trkpt lat="43.53318532251386" lon="12.287882318201678"><ele>617.5999999999999</ele><time>2026-04-24T08:36:46Z</time></trkpt><trkpt lat="43.5331430194292" lon="12.287724515621385"><ele>614.4</ele><time>2026-04-24T08:36:48Z</time></trkpt><trkpt lat="43.53308745481799" lon="12.287600321395727"><ele>611.1999999999999</ele><time>2026-04-24T08:36:50Z</time></trkpt><trkpt lat="43.533030317635586" lon="12.287508309868981"><ele>608.0</ele><time>2026-04-24T08:36:52Z</time></trkpt><trkpt lat="43.53298630912115" lon="12.287441895254753"><ele>608.0</ele><time>2026-04-24T08:36:54Z</time></trkpt><trkpt lat="43.53300674908566" lon="12.28734876823779"><ele>608.0</ele><time>2026-04-24T08:36:56Z</time></trkpt><trkpt lat="43.533064257086586" lon="12.287257520895109"><ele>608.0</ele><time>2026-04-24T08:36:58Z</time></trkpt><trkpt lat="43.53314019087817" lon="12.287264628726202"><ele>608.0</ele><time>2026-04-24T08:37:00Z</time></trkpt><trkpt lat="43.53324220770388" lon="12.287299880745946"><ele>608.0</ele><time>2026-04-24T08:37:02Z</time></trkpt><trkpt lat="43.533308606121686" lon="12.28731937540022"><ele>608.0</ele><time>2026-04-24T08:37:03Z</time></trkpt><trkpt lat="43.53341254190827" lon="12.287309310342389"><ele>608.0</ele><time>2026-04-24T08:37:05Z</time></trkpt><trkpt lat="43.533528911007764" lon="12.287337092404526"><ele>608.0</ele><time>2026-04-24T08:37:07Z</time></trkpt><trkpt lat="43.533619710850004" lon="12.287348883758884"><ele>608.0</ele><time>2026-04-24T08:37:09Z</time></trkpt><trkpt lat="43.53369215125452" lon="12.287293044909635"><ele>608.0</ele><time>2026-04-24T08:37:11Z</time></trkpt><trkpt lat="43.53374558286542" lon="12.287234647744185"><ele>608.0</ele><time>2026-04-24T08:37:12Z</time></trkpt><trkpt lat="43.53379899626665" lon="12.287118622668062"><ele>601.4</ele><time>2026-04-24T08:37:14Z</time></trkpt><trkpt lat="43.53381380951636" lon="12.286961019481597"><ele>594.8</ele><time>2026-04-24T08:37:16Z</time></trkpt><trkpt lat="43.53381202952197" lon="12.2868040885798"><ele>588.2</ele><time>2026-04-24T08:37:18Z</time></trkpt><trkpt lat="43.533870705785375" lon="12.286688117667484"><ele>581.6</ele><time>2026-04-24T08:37:20Z</time></trkpt><trkpt lat="43.533913258871415" lon="12.286621047215048"><ele>575.0</ele><time>2026-04-24T08:37:21Z</time></trkpt><trkpt lat="43.53397195690297" lon="12.286493033499447"><ele>573.4</ele><time>2026-04-24T08:37:23Z</time></trkpt><trkpt lat="43.53404675178042" lon="12.286420590434572"><ele>571.8</ele><time>2026-04-24T08:37:25Z</time></trkpt><trkpt lat="43.53413151582846" lon="12.286403172347809"><ele>570.2</ele><time>2026-04-24T08:37:27Z</time></trkpt><trkpt lat="43.534228871098335" lon="12.286385671080494"><ele>568.6</ele><time>2026-04-24T08:37:29Z</time></trkpt><trkpt lat="43.534254325827376" lon="12.286268859050617"><ele>567.0</ele><time>2026-04-24T08:37:31Z</time></trkpt><trkpt lat="43.53420025308852" lon="12.286135302520616"><ele>567.0</ele><time>2026-04-24T08:37:33Z</time></trkpt><trkpt lat="43.53416210638299" lon="12.28605886195915"><ele>567.0</ele><time>2026-04-24T08:37:34Z</time></trkpt><trkpt lat="43.534122264367916" lon="12.285989790520112"><ele>567.0</ele><time>2026-04-24T08:37:35Z</time></trkpt><trkpt lat="43.534091607072384" lon="12.2859132909225"><ele>567.0</ele><time>2026-04-24T08:37:36Z</time></trkpt><trkpt lat="43.53405144808166" lon="12.285836502718384"><ele>567.0</ele><time>2026-04-24T08:37:37Z</time></trkpt><trkpt lat="43.533977513630944" lon="12.285727559292393"><ele>567.0</ele><time>2026-04-24T08:37:39Z</time></trkpt><trkpt lat="43.533946607249746" lon="12.285594350222691"><ele>564.3333333333334</ele><time>2026-04-24T08:37:41Z</time></trkpt><trkpt lat="43.53395934490601" lon="12.285505706751987"><ele>561.6666666666666</ele><time>2026-04-24T08:37:42Z</time></trkpt><trkpt lat="43.53397447137673" lon="12.285420251115118"><ele>559.0</ele><time>2026-04-24T08:37:43Z</time></trkpt><trkpt lat="43.53397849161667" lon="12.285254132668008"><ele>556.3333333333333</ele><time>2026-04-24T08:37:45Z</time></trkpt><trkpt lat="43.53397244777907" lon="12.285154633280627"><ele>553.6666666666666</ele><time>2026-04-24T08:37:46Z</time></trkpt><trkpt lat="43.53396253616925" lon="12.284986393557046"><ele>551.0</ele><time>2026-04-24T08:37:48Z</time></trkpt><trkpt lat="43.53396041455379" lon="12.284898475861633"><ele>546.75</ele><time>2026-04-24T08:37:49Z</time></trkpt><trkpt lat="43.53398545240538" lon="12.284743222165208"><ele>542.5</ele><time>2026-04-24T08:37:51Z</time></trkpt><trkpt lat="43.5340727802917" lon="12.284633037467595"><ele>538.25</ele><time>2026-04-24T08:37:53Z</time></trkpt><trkpt lat="43.53415128029362" lon="12.284495405537116"><ele>534.0</ele><time>2026-04-24T08:37:55Z</time></trkpt><trkpt lat="43.53411683850033" lon="12.284349227393527"><ele>534.0000000000001</ele><time>2026-04-24T08:37:57Z</time></trkpt><trkpt lat="43.53407283617053" lon="12.284267757136513"><ele>534.0</ele><time>2026-04-24T08:37:58Z</time></trkpt><trkpt lat="43.53404069435701" lon="12.284181723333699"><ele>534.0</ele><time>2026-04-24T08:37:59Z</time></trkpt><trkpt lat="43.53401198613396" lon="12.284097192570925"><ele>534.0</ele><time>2026-04-24T08:38:00Z</time></trkpt><trkpt lat="43.53397685500104" lon="12.284002855842676"><ele>534.0</ele><time>2026-04-24T08:38:01Z</time></trkpt><trkpt lat="43.533949536793294" lon="12.28392157550405"><ele>534.0000000000001</ele><time>2026-04-24T08:38:02Z</time></trkpt><trkpt lat="43.533917688899315" lon="12.283832430964994"><ele>534.0</ele><time>2026-04-24T08:38:03Z</time></trkpt><trkpt lat="43.533886217193725" lon="12.28374851449656"><ele>530.6</ele><time>2026-04-24T08:38:04Z</time></trkpt><trkpt lat="43.53379828169772" lon="12.283641853496412"><ele>527.2</ele><time>2026-04-24T08:38:06Z</time></trkpt><trkpt lat="43.53368542886631" lon="12.28358423651489"><ele>523.8000000000001</ele><time>2026-04-24T08:38:08Z</time></trkpt><trkpt lat="43.533624483648865" lon="12.283551014359052"><ele>520.4</ele><time>2026-04-24T08:38:09Z</time></trkpt><trkpt lat="43.533565815304804" lon="12.283518811798226"><ele>517.0</ele><time>2026-04-24T08:38:10Z</time></trkpt><trkpt lat="43.53344587072216" lon="12.283454107304683"><ele>517.0</ele><time>2026-04-24T08:38:12Z</time></trkpt><trkpt lat="43.53338570899268" lon="12.283426620653488"><ele>517.0</ele><time>2026-04-24T08:38:13Z</time></trkpt><trkpt lat="43.5333218901475" lon="12.28339959921297"><ele>517.0</ele><time>2026-04-24T08:38:14Z</time></trkpt><trkpt lat="43.53322648601411" lon="12.28334037884761"><ele>517.0</ele><time>2026-04-24T08:38:16Z</time></trkpt><trkpt lat="43.53319765829671" lon="12.283210719537815"><ele>517.0</ele><time>2026-04-24T08:38:18Z</time></trkpt><trkpt lat="43.53323121461733" lon="12.283076693890063"><ele>517.0</ele><time>2026-04-24T08:38:20Z</time></trkpt><trkpt lat="43.53328965522331" lon="12.282955785510563"><ele>513.6</ele><time>2026-04-24T08:38:22Z</time></trkpt><trkpt lat="43.53330277933964" lon="12.282811240574857"><ele>510.20000000000005</ele><time>2026-04-24T08:38:24Z</time></trkpt><trkpt lat="43.53332563281871" lon="12.282664702883773"><ele>506.8</ele><time>2026-04-24T08:38:26Z</time></trkpt><trkpt lat="43.53334064718652" lon="12.282515550998756"><ele>503.4</ele><time>2026-04-24T08:38:28Z</time></trkpt><trkpt lat="43.533362546332754" lon="12.282391885281116"><ele>500.0</ele><time>2026-04-24T08:38:30Z</time></trkpt><trkpt lat="43.533391087089946" lon="12.282313236730227"><ele>495.5</ele><time>2026-04-24T08:38:31Z</time></trkpt><trkpt lat="43.53343079734055" lon="12.282195330642958"><ele>491.0</ele><time>2026-04-24T08:38:33Z</time></trkpt><trkpt lat="43.53350744669944" lon="12.282063083970671"><ele>486.5</ele><time>2026-04-24T08:38:35Z</time></trkpt><trkpt lat="43.533589694218065" lon="12.281951557656267"><ele>482.0</ele><time>2026-04-24T08:38:37Z</time></trkpt><trkpt lat="43.53367942654423" lon="12.281847002751487"><ele>481.40000000000003</ele><time>2026-04-24T08:38:39Z</time></trkpt><trkpt lat="43.53378303377785" lon="12.281772890956438"><ele>480.80000000000007</ele><time>2026-04-24T08:38:41Z</time></trkpt><trkpt lat="43.533871637053416" lon="12.281688804783748"><ele>480.2</ele><time>2026-04-24T08:38:43Z</time></trkpt><trkpt lat="43.53394552075126" lon="12.28159456276499"><ele>479.6</ele><time>2026-04-24T08:38:45Z</time></trkpt><trkpt lat="43.53399770271768" lon="12.28144780183915"><ele>479.0</ele><time>2026-04-24T08:38:47Z</time></trkpt><trkpt lat="43.534024035300746" lon="12.28129502304056"><ele>476.79999999999995</ele><time>2026-04-24T08:38:49Z</time></trkpt><trkpt lat="43.5340743344079" lon="12.281173334698678"><ele>474.59999999999997</ele><time>2026-04-24T08:38:51Z</time></trkpt><trkpt lat="43.53414806007173" lon="12.281069392750368"><ele>472.4</ele><time>2026-04-24T08:38:53Z</time></trkpt><trkpt lat="43.53416482536098" lon="12.280952074476357"><ele>470.2</ele><time>2026-04-24T08:38:55Z</time></trkpt><trkpt lat="43.534108047462496" lon="12.280809701905802"><ele>468.0</ele><time>2026-04-24T08:38:57Z</time></trkpt><trkpt lat="43.53404572379279" lon="12.280674085407657"><ele>468.4</ele><time>2026-04-24T08:38:59Z</time></trkpt><trkpt lat="43.53400654290787" lon="12.280529006546196"><ele>468.79999999999995</ele><time>2026-04-24T08:39:01Z</time></trkpt><trkpt lat="43.53397132943999" lon="12.280406317939207"><ele>469.2</ele><time>2026-04-24T08:39:03Z</time></trkpt><trkpt lat="43.53394322349036" lon="12.280303926361663"><ele>469.6</ele><time>2026-04-24T08:39:05Z</time></trkpt><trkpt lat="43.533907888112054" lon="12.280202817545844"><ele>470.0</ele><time>2026-04-24T08:39:07Z</time></trkpt><trkpt lat="43.53388174625503" lon="12.280077190737211"><ele>469.99999999999994</ele><time>2026-04-24T08:39:09Z</time></trkpt><trkpt lat="43.53384845297429" lon="12.279961186201689"><ele>470.0</ele><time>2026-04-24T08:39:11Z</time></trkpt><trkpt lat="43.533795296661324" lon="12.279885708325684"><ele>470.0</ele><time>2026-04-24T08:39:13Z</time></trkpt><trkpt lat="43.533734596389955" lon="12.279860845308907"><ele>470.0</ele><time>2026-04-24T08:39:14Z</time></trkpt><trkpt lat="43.53366800872635" lon="12.279830161210787"><ele>469.99999999999994</ele><time>2026-04-24T08:39:15Z</time></trkpt><trkpt lat="43.53354828270591" lon="12.27979033867691"><ele>470.0</ele><time>2026-04-24T08:39:17Z</time></trkpt><trkpt lat="43.53346657166953" lon="12.279779603010647"><ele>469.99999999999994</ele><time>2026-04-24T08:39:18Z</time></trkpt><trkpt lat="43.53340093327993" lon="12.2797736118942"><ele>470.0</ele><time>2026-04-24T08:39:19Z</time></trkpt><trkpt lat="43.53334347347234" lon="12.279707634737589"><ele>470.0</ele><time>2026-04-24T08:39:21Z</time></trkpt><trkpt lat="43.533378047292366" lon="12.279548659264627"><ele>470.0</ele><time>2026-04-24T08:39:23Z</time></trkpt><trkpt lat="43.53339052912301" lon="12.279453318176085"><ele>469.99999999999994</ele><time>2026-04-24T08:39:25Z</time></trkpt><trkpt lat="43.533351782658414" lon="12.279381297205449"><ele>470.0</ele><time>2026-04-24T08:39:27Z</time></trkpt><trkpt lat="43.53325654149304" lon="12.2793466874418"><ele>469.99999999999994</ele><time>2026-04-24T08:39:29Z</time></trkpt><trkpt lat="43.53315173338257" lon="12.279323515667548"><ele>470.0</ele><time>2026-04-24T08:39:31Z</time></trkpt><trkpt lat="43.53309101261182" lon="12.27929279694214"><ele>470.0</ele><time>2026-04-24T08:39:32Z</time></trkpt><trkpt lat="43.53301906063792" lon="12.279254034761873"><ele>470.0</ele><time>2026-04-24T08:39:33Z</time></trkpt><trkpt lat="43.53294799172528" lon="12.279225810526928"><ele>469.99999999999994</ele><time>2026-04-24T08:39:34Z</time></trkpt><trkpt lat="43.53288507243678" lon="12.27920097940073"><ele>470.0</ele><time>2026-04-24T08:39:35Z</time></trkpt><trkpt lat="43.53276597212081" lon="12.279165140370024"><ele>467.8</ele><time>2026-04-24T08:39:37Z</time></trkpt><trkpt lat="43.53263680640246" lon="12.279204379665964"><ele>465.6</ele><time>2026-04-24T08:39:39Z</time></trkpt><trkpt lat="43.532566568773866" lon="12.27925947049409"><ele>463.4</ele><time>2026-04-24T08:39:40Z</time></trkpt><trkpt lat="43.53249787802781" lon="12.279320516228747"><ele>461.2</ele><time>2026-04-24T08:39:41Z</time></trkpt><trkpt lat="43.532416879747295" lon="12.279364622487027"><ele>459.0</ele><time>2026-04-24T08:39:42Z</time></trkpt><trkpt lat="43.53234524405896" lon="12.279380791086348"><ele>459.0</ele><time>2026-04-24T08:39:43Z</time></trkpt><trkpt lat="43.53227491935673" lon="12.279378772034459"><ele>459.0</ele><time>2026-04-24T08:39:44Z</time></trkpt><trkpt lat="43.532199608687485" lon="12.27935166870387"><ele>459.0</ele><time>2026-04-24T08:39:45Z</time></trkpt><trkpt lat="43.53213772067054" lon="12.279308897218886"><ele>459.0</ele><time>2026-04-24T08:39:46Z</time></trkpt><trkpt lat="43.532081104514525" lon="12.279241872305574"><ele>459.0</ele><time>2026-04-24T08:39:47Z</time></trkpt><trkpt lat="43.53202792216818" lon="12.279144845944266"><ele>459.0</ele><time>2026-04-24T08:39:48Z</time></trkpt><trkpt lat="43.53198501804845" lon="12.279045419727588"><ele>460.2</ele><time>2026-04-24T08:39:49Z</time></trkpt><trkpt lat="43.53192259308586" lon="12.27896904430232"><ele>461.4</ele><time>2026-04-24T08:39:50Z</time></trkpt><trkpt lat="43.53184491900159" lon="12.278903388094594"><ele>462.6</ele><time>2026-04-24T08:39:51Z</time></trkpt><trkpt lat="43.53177292421251" lon="12.278833386361018"><ele>463.8</ele><time>2026-04-24T08:39:52Z</time></trkpt><trkpt lat="43.531701182505394" lon="12.278730171405758"><ele>465.0</ele><time>2026-04-24T08:39:53Z</time></trkpt><trkpt lat="43.531646470304075" lon="12.278624722875096"><ele>465.0</ele><time>2026-04-24T08:39:54Z</time></trkpt><trkpt lat="43.53159654127995" lon="12.278518957159323"><ele>465.0</ele><time>2026-04-24T08:39:55Z</time></trkpt><trkpt lat="43.53154805182157" lon="12.278403666814405"><ele>465.0</ele><time>2026-04-24T08:39:56Z</time></trkpt><trkpt lat="43.53150220109374" lon="12.278299218032403"><ele>465.0</ele><time>2026-04-24T08:39:57Z</time></trkpt><trkpt lat="43.5314571451625" lon="12.27820181050942"><ele>465.0</ele><time>2026-04-24T08:39:58Z</time></trkpt><trkpt lat="43.53140962302122" lon="12.278127069786406"><ele>465.0</ele><time>2026-04-24T08:39:59Z</time></trkpt><trkpt lat="43.53134059841085" lon="12.278084894697963"><ele>465.6666666666667</ele><time>2026-04-24T08:40:00Z</time></trkpt><trkpt lat="43.53126076734181" lon="12.278075831472833"><ele>466.33333333333337</ele><time>2026-04-24T08:40:01Z</time></trkpt><trkpt lat="43.531182024158085" lon="12.278097979233173"><ele>467.0</ele><time>2026-04-24T08:40:02Z</time></trkpt><trkpt lat="43.53109545905773" lon="12.27814506233227"><ele>467.6666666666667</ele><time>2026-04-24T08:40:03Z</time></trkpt><trkpt lat="43.531008345813056" lon="12.278192668155002"><ele>468.33333333333337</ele><time>2026-04-24T08:40:04Z</time></trkpt><trkpt lat="43.53091042093963" lon="12.278224881260874"><ele>469.0</ele><time>2026-04-24T08:40:05Z</time></trkpt><trkpt lat="43.530815116603584" lon="12.27824775666111"><ele>474.1666666666667</ele><time>2026-04-24T08:40:06Z</time></trkpt><trkpt lat="43.53072170612061" lon="12.278259146484325"><ele>479.33333333333337</ele><time>2026-04-24T08:40:07Z</time></trkpt><trkpt lat="43.53064397717542" lon="12.278254402484851"><ele>484.5</ele><time>2026-04-24T08:40:08Z</time></trkpt><trkpt lat="43.5305698133538" lon="12.278268946282239"><ele>489.66666666666663</ele><time>2026-04-24T08:40:09Z</time></trkpt><trkpt lat="43.53050390166978" lon="12.278324301869656"><ele>494.8333333333333</ele><time>2026-04-24T08:40:10Z</time></trkpt><trkpt lat="43.530449915144466" lon="12.278402082611322"><ele>500.0</ele><time>2026-04-24T08:40:11Z</time></trkpt><trkpt lat="43.53034855161955" lon="12.278431608556396"><ele>502.6</ele><time>2026-04-24T08:40:13Z</time></trkpt><trkpt lat="43.530311341570346" lon="12.27825883202244"><ele>505.2</ele><time>2026-04-24T08:40:15Z</time></trkpt><trkpt lat="43.530333342770554" lon="12.278160172257854"><ele>507.79999999999995</ele><time>2026-04-24T08:40:16Z</time></trkpt><trkpt lat="43.53035266350959" lon="12.278054769309582"><ele>510.4</ele><time>2026-04-24T08:40:17Z</time></trkpt><trkpt lat="43.530340407720495" lon="12.277957688607717"><ele>513.0</ele><time>2026-04-24T08:40:18Z</time></trkpt><trkpt lat="43.53025078542354" lon="12.277866141800372"><ele>513.0</ele><time>2026-04-24T08:40:20Z</time></trkpt><trkpt lat="43.53018575735855" lon="12.27789232360253"><ele>513.0</ele><time>2026-04-24T08:40:21Z</time></trkpt><trkpt lat="43.53011143929981" lon="12.277947312198402"><ele>513.0</ele><time>2026-04-24T08:40:22Z</time></trkpt><trkpt lat="43.53003810877786" lon="12.278011430936813"><ele>513.0</ele><time>2026-04-24T08:40:23Z</time></trkpt><trkpt lat="43.52997299086786" lon="12.278099909087175"><ele>513.0</ele><time>2026-04-24T08:40:24Z</time></trkpt><trkpt lat="43.52991841060129" lon="12.278199570774216"><ele>513.0</ele><time>2026-04-24T08:40:25Z</time></trkpt><trkpt lat="43.52985538426523" lon="12.27827699625434"><ele>513.0</ele><time>2026-04-24T08:40:26Z</time></trkpt><trkpt lat="43.52977757291152" lon="12.27834941495144"><ele>513.0</ele><time>2026-04-24T08:40:27Z</time></trkpt><trkpt lat="43.52969503838331" lon="12.278417200752525"><ele>513.0</ele><time>2026-04-24T08:40:28Z</time></trkpt><trkpt lat="43.52961766609734" lon="12.2784832844699"><ele>513.0</ele><time>2026-04-24T08:40:29Z</time></trkpt><trkpt lat="43.529541318866244" lon="12.278549696149403"><ele>513.0</ele><time>2026-04-24T08:40:30Z</time></trkpt><trkpt lat="43.52945570878237" lon="12.278590051304707"><ele>515.8</ele><time>2026-04-24T08:40:31Z</time></trkpt><trkpt lat="43.52937313122053" lon="12.278586013166587"><ele>518.5999999999999</ele><time>2026-04-24T08:40:32Z</time></trkpt><trkpt lat="43.529282948577965" lon="12.278551009480287"><ele>521.4000000000001</ele><time>2026-04-24T08:40:33Z</time></trkpt><trkpt lat="43.52918495027863" lon="12.27851138495731"><ele>524.2</ele><time>2026-04-24T08:40:34Z</time></trkpt><trkpt lat="43.52909668084803" lon="12.278495622588187"><ele>527.0</ele><time>2026-04-24T08:40:35Z</time></trkpt><trkpt lat="43.529005399301035" lon="12.27846897784008"><ele>527.0</ele><time>2026-04-24T08:40:36Z</time></trkpt><trkpt lat="43.52893506990791" lon="12.278460557066118"><ele>527.0</ele><time>2026-04-24T08:40:37Z</time></trkpt><trkpt lat="43.52882860430299" lon="12.278510737652423"><ele>527.0</ele><time>2026-04-24T08:40:39Z</time></trkpt><trkpt lat="43.528789644639176" lon="12.278593554402843"><ele>527.0</ele><time>2026-04-24T08:40:40Z</time></trkpt><trkpt lat="43.528763808197034" lon="12.278701593405218"><ele>527.0</ele><time>2026-04-24T08:40:41Z</time></trkpt><trkpt lat="43.52874003448493" lon="12.278833363586202"><ele>527.0</ele><time>2026-04-24T08:40:42Z</time></trkpt><trkpt lat="43.52871396829637" lon="12.27896344744312"><ele>525.0</ele><time>2026-04-24T08:40:43Z</time></trkpt><trkpt lat="43.52867939404183" lon="12.279102390324207"><ele>523.0</ele><time>2026-04-24T08:40:44Z</time></trkpt><trkpt lat="43.52864722401533" lon="12.279240086255363"><ele>521.0</ele><time>2026-04-24T08:40:45Z</time></trkpt><trkpt lat="43.528605733184484" lon="12.279364935859844"><ele>519.0</ele><time>2026-04-24T08:40:46Z</time></trkpt><trkpt lat="43.52856037231084" lon="12.279462151641393"><ele>517.0</ele><time>2026-04-24T08:40:47Z</time></trkpt><trkpt lat="43.52850841589995" lon="12.279553544088886"><ele>517.0</ele><time>2026-04-24T08:40:48Z</time></trkpt><trkpt lat="43.52845442749522" lon="12.279624358929533"><ele>517.0</ele><time>2026-04-24T08:40:49Z</time></trkpt><trkpt lat="43.52832625220006" lon="12.279689125875022"><ele>517.0</ele><time>2026-04-24T08:40:51Z</time></trkpt><trkpt lat="43.52824867729318" lon="12.2796975270467"><ele>517.0</ele><time>2026-04-24T08:40:52Z</time></trkpt><trkpt lat="43.52817222339433" lon="12.27967408937458"><ele>517.0</ele><time>2026-04-24T08:40:53Z</time></trkpt><trkpt lat="43.52809657673416" lon="12.279663369500424"><ele>517.0</ele><time>2026-04-24T08:40:54Z</time></trkpt><trkpt lat="43.52802049796043" lon="12.279676875187256"><ele>517.0</ele><time>2026-04-24T08:40:55Z</time></trkpt><trkpt lat="43.52794135123299" lon="12.279708427402674"><ele>517.0</ele><time>2026-04-24T08:40:56Z</time></trkpt><trkpt lat="43.52785539233119" lon="12.2797364280353"><ele>517.0</ele><time>2026-04-24T08:40:57Z</time></trkpt><trkpt lat="43.52776643158249" lon="12.279759506174594"><ele>517.0</ele><time>2026-04-24T08:40:58Z</time></trkpt><trkpt lat="43.52768999802592" lon="12.279798083564934"><ele>517.0</ele><time>2026-04-24T08:40:59Z</time></trkpt><trkpt lat="43.527604888585294" lon="12.279833115287214"><ele>517.0</ele><time>2026-04-24T08:41:00Z</time></trkpt><trkpt lat="43.527518095014614" lon="12.279870585736605"><ele>517.6666666666667</ele><time>2026-04-24T08:41:01Z</time></trkpt><trkpt lat="43.52744698387893" lon="12.27990222237981"><ele>518.3333333333334</ele><time>2026-04-24T08:41:02Z</time></trkpt><trkpt lat="43.52736442899116" lon="12.279929490104964"><ele>519.0</ele><time>2026-04-24T08:41:04Z</time></trkpt><trkpt lat="43.52730132031715" lon="12.27994209462156"><ele>519.6666666666666</ele><time>2026-04-24T08:41:06Z</time></trkpt><trkpt lat="43.52738257748043" lon="12.27999393408688"><ele>520.3333333333333</ele><time>2026-04-24T08:41:12Z</time></trkpt><trkpt lat="43.5274936553331" lon="12.279983615365278"><ele>521.0</ele><time>2026-04-24T08:41:14Z</time></trkpt><trkpt lat="43.527558793326385" lon="12.280002881723304"><ele>521.0</ele><time>2026-04-24T08:41:15Z</time></trkpt><trkpt lat="43.52763189968018" lon="12.280021740928456"><ele>521.0</ele><time>2026-04-24T08:41:16Z</time></trkpt><trkpt lat="43.52770926595507" lon="12.28004018751194"><ele>521.0</ele><time>2026-04-24T08:41:17Z</time></trkpt><trkpt lat="43.52778243530998" lon="12.280065280613563"><ele>521.0</ele><time>2026-04-24T08:41:18Z</time></trkpt><trkpt lat="43.52784598483342" lon="12.280099918901954"><ele>521.0</ele><time>2026-04-24T08:41:19Z</time></trkpt><trkpt lat="43.52792254307598" lon="12.28013940538945"><ele>521.0</ele><time>2026-04-24T08:41:20Z</time></trkpt><trkpt lat="43.52798678152506" lon="12.280206892326904"><ele>522.0</ele><time>2026-04-24T08:41:21Z</time></trkpt><trkpt lat="43.52804643447728" lon="12.280264638088976"><ele>523.0</ele><time>2026-04-24T08:41:22Z</time></trkpt><trkpt lat="43.52810360521181" lon="12.280343577522782"><ele>524.0</ele><time>2026-04-24T08:41:23Z</time></trkpt><trkpt lat="43.52814522835343" lon="12.280431018172564"><ele>525.0</ele><time>2026-04-24T08:41:24Z</time></trkpt><trkpt lat="43.52818873111667" lon="12.280534245525022"><ele>526.0</ele><time>2026-04-24T08:41:25Z</time></trkpt><trkpt lat="43.528251940525664" lon="12.280631204888238"><ele>527.0</ele><time>2026-04-24T08:41:26Z</time></trkpt><trkpt lat="43.52831630872505" lon="12.280718452660997"><ele>528.3333333333333</ele><time>2026-04-24T08:41:27Z</time></trkpt><trkpt lat="43.528394297512726" lon="12.280792444605977"><ele>529.6666666666666</ele><time>2026-04-24T08:41:28Z</time></trkpt><trkpt lat="43.52847543188441" lon="12.280836675471193"><ele>531.0</ele><time>2026-04-24T08:41:29Z</time></trkpt><trkpt lat="43.528570657167926" lon="12.280862527310461"><ele>532.3333333333334</ele><time>2026-04-24T08:41:30Z</time></trkpt><trkpt lat="43.52864544121381" lon="12.280887039250521"><ele>533.6666666666667</ele><time>2026-04-24T08:41:31Z</time></trkpt><trkpt lat="43.52870117590585" lon="12.280939425361353"><ele>535.0</ele><time>2026-04-24T08:41:32Z</time></trkpt><trkpt lat="43.528732479139315" lon="12.281015065675646"><ele>537.0</ele><time>2026-04-24T08:41:33Z</time></trkpt><trkpt lat="43.52875133883795" lon="12.281128634539757"><ele>539.0</ele><time>2026-04-24T08:41:34Z</time></trkpt><trkpt lat="43.52875466506484" lon="12.281248184633116"><ele>541.0</ele><time>2026-04-24T08:41:35Z</time></trkpt><trkpt lat="43.52875876704644" lon="12.281360095489676"><ele>543.0</ele><time>2026-04-24T08:41:36Z</time></trkpt><trkpt lat="43.52877217496687" lon="12.281485261525308"><ele>545.0</ele><time>2026-04-24T08:41:37Z</time></trkpt><trkpt lat="43.52879609867669" lon="12.28159586335355"><ele>547.0</ele><time>2026-04-24T08:41:38Z</time></trkpt><trkpt lat="43.52880805734313" lon="12.281690564231306"><ele>546.6666666666667</ele><time>2026-04-24T08:41:39Z</time></trkpt><trkpt lat="43.52879706185999" lon="12.281809490087143"><ele>546.3333333333334</ele><time>2026-04-24T08:41:40Z</time></trkpt><trkpt lat="43.528769041735984" lon="12.281931867204838"><ele>546.0</ele><time>2026-04-24T08:41:41Z</time></trkpt><trkpt lat="43.52873705055088" lon="12.282052040536849"><ele>545.6666666666666</ele><time>2026-04-24T08:41:42Z</time></trkpt><trkpt lat="43.528718807291" lon="12.28217027845414"><ele>545.3333333333333</ele><time>2026-04-24T08:41:43Z</time></trkpt><trkpt lat="43.5287229565826" lon="12.28226988757457"><ele>545.0</ele><time>2026-04-24T08:41:44Z</time></trkpt><trkpt lat="43.52873878205871" lon="12.282361504761818"><ele>547.0</ele><time>2026-04-24T08:41:45Z</time></trkpt><trkpt lat="43.52877096592983" lon="12.282473282282107"><ele>549.0</ele><time>2026-04-24T08:41:46Z</time></trkpt><trkpt lat="43.5288031031886" lon="12.282580487496304"><ele>551.0</ele><time>2026-04-24T08:41:47Z</time></trkpt><trkpt lat="43.52882412800155" lon="12.282679275014914"><ele>553.0</ele><time>2026-04-24T08:41:48Z</time></trkpt><trkpt lat="43.528767125305855" lon="12.282810750066192"><ele>555.0</ele><time>2026-04-24T08:41:50Z</time></trkpt><trkpt lat="43.528704534560525" lon="12.282830491548628"><ele>557.0</ele><time>2026-04-24T08:41:51Z</time></trkpt><trkpt lat="43.528625300861066" lon="12.28283116139689"><ele>557.0</ele><time>2026-04-24T08:41:52Z</time></trkpt><trkpt lat="43.5285276262594" lon="12.282820620887659"><ele>557.0</ele><time>2026-04-24T08:41:53Z</time></trkpt><trkpt lat="43.528421246234174" lon="12.282831944383764"><ele>557.0</ele><time>2026-04-24T08:41:54Z</time></trkpt><trkpt lat="43.528306787615115" lon="12.28284849023667"><ele>557.0</ele><time>2026-04-24T08:41:55Z</time></trkpt><trkpt lat="43.52820272253584" lon="12.282864473430044"><ele>557.0</ele><time>2026-04-24T08:41:56Z</time></trkpt><trkpt lat="43.52810239465489" lon="12.282880324442853"><ele>557.0</ele><time>2026-04-24T08:41:57Z</time></trkpt><trkpt lat="43.528010309033526" lon="12.282899236220473"><ele>557.0</ele><time>2026-04-24T08:41:58Z</time></trkpt><trkpt lat="43.52792159339073" lon="12.28291080821979"><ele>557.0</ele><time>2026-04-24T08:41:59Z</time></trkpt><trkpt lat="43.527830977523756" lon="12.282952606946413"><ele>557.0</ele><time>2026-04-24T08:42:00Z</time></trkpt><trkpt lat="43.527744689100885" lon="12.283015431015404"><ele>557.0</ele><time>2026-04-24T08:42:01Z</time></trkpt><trkpt lat="43.52765683778274" lon="12.283049693242528"><ele>555.5</ele><time>2026-04-24T08:42:02Z</time></trkpt><trkpt lat="43.52756790766808" lon="12.28305904336342"><ele>554.0</ele><time>2026-04-24T08:42:03Z</time></trkpt><trkpt lat="43.527487979069306" lon="12.283028945561023"><ele>552.5</ele><time>2026-04-24T08:42:04Z</time></trkpt><trkpt lat="43.52741069619439" lon="12.282991995566446"><ele>551.0</ele><time>2026-04-24T08:42:05Z</time></trkpt><trkpt lat="43.52734528185825" lon="12.282982230581304"><ele>549.5</ele><time>2026-04-24T08:42:06Z</time></trkpt><trkpt lat="43.5272725435289" lon="12.282986946772311"><ele>548.0</ele><time>2026-04-24T08:42:07Z</time></trkpt><trkpt lat="43.52721561793993" lon="12.28304942729778"><ele>550.8</ele><time>2026-04-24T08:42:08Z</time></trkpt><trkpt lat="43.52717902753851" lon="12.283156050427337"><ele>553.5999999999999</ele><time>2026-04-24T08:42:09Z</time></trkpt><trkpt lat="43.52714111921489" lon="12.283284517120535"><ele>556.4000000000001</ele><time>2026-04-24T08:42:10Z</time></trkpt><trkpt lat="43.52708007423283" lon="12.283381434332055"><ele>559.2</ele><time>2026-04-24T08:42:11Z</time></trkpt><trkpt lat="43.52699934528211" lon="12.283441444705973"><ele>562.0</ele><time>2026-04-24T08:42:12Z</time></trkpt><trkpt lat="43.526903309047505" lon="12.283490863206191"><ele>562.0</ele><time>2026-04-24T08:42:13Z</time></trkpt><trkpt lat="43.52680326403487" lon="12.283503242130429"><ele>562.0</ele><time>2026-04-24T08:42:14Z</time></trkpt><trkpt lat="43.5267068334981" lon="12.28349559483686"><ele>562.0</ele><time>2026-04-24T08:42:15Z</time></trkpt><trkpt lat="43.52663253963904" lon="12.283493992945507"><ele>562.0</ele><time>2026-04-24T08:42:16Z</time></trkpt><trkpt lat="43.526527463957535" lon="12.283608588669562"><ele>562.0</ele><time>2026-04-24T08:42:18Z</time></trkpt><trkpt lat="43.52645826182692" lon="12.283675438132116"><ele>562.0</ele><time>2026-04-24T08:42:19Z</time></trkpt><trkpt lat="43.52639383967926" lon="12.283723451451234"><ele>562.0</ele><time>2026-04-24T08:42:20Z</time></trkpt><trkpt lat="43.5263157456012" lon="12.283740868536016"><ele>562.0</ele><time>2026-04-24T08:42:21Z</time></trkpt><trkpt lat="43.52622636967391" lon="12.28372756699038"><ele>562.0</ele><time>2026-04-24T08:42:22Z</time></trkpt><trkpt lat="43.5261426194643" lon="12.283697981928025"><ele>562.0</ele><time>2026-04-24T08:42:23Z</time></trkpt><trkpt lat="43.52605391471649" lon="12.283684304385964"><ele>562.0</ele><time>2026-04-24T08:42:24Z</time></trkpt><trkpt lat="43.525966238941294" lon="12.283677695362126"><ele>561.8333333333334</ele><time>2026-04-24T08:42:25Z</time></trkpt><trkpt lat="43.525891613579546" lon="12.283681007408747"><ele>561.6666666666667</ele><time>2026-04-24T08:42:26Z</time></trkpt><trkpt lat="43.52581118674947" lon="12.283699767662883"><ele>561.5</ele><time>2026-04-24T08:42:27Z</time></trkpt><trkpt lat="43.52574164806458" lon="12.283736503963386"><ele>561.3333333333334</ele><time>2026-04-24T08:42:28Z</time></trkpt><trkpt lat="43.52565900559667" lon="12.283771560907237"><ele>561.1666666666666</ele><time>2026-04-24T08:42:29Z</time></trkpt><trkpt lat="43.525571292123026" lon="12.283787301241379"><ele>561.0</ele><time>2026-04-24T08:42:30Z</time></trkpt><trkpt lat="43.52548623045792" lon="12.283781941653213"><ele>561.0</ele><time>2026-04-24T08:42:31Z</time></trkpt><trkpt lat="43.52540814676645" lon="12.283792282617094"><ele>561.0</ele><time>2026-04-24T08:42:32Z</time></trkpt><trkpt lat="43.52534015126767" lon="12.283824739880137"><ele>561.0</ele><time>2026-04-24T08:42:33Z</time></trkpt><trkpt lat="43.52526565375197" lon="12.28387497023446"><ele>561.0</ele><time>2026-04-24T08:42:34Z</time></trkpt><trkpt lat="43.52518949528412" lon="12.283909883603844"><ele>561.0</ele><time>2026-04-24T08:42:35Z</time></trkpt><trkpt lat="43.52511643759541" lon="12.283920762187465"><ele>561.0</ele><time>2026-04-24T08:42:36Z</time></trkpt><trkpt lat="43.525002368959164" lon="12.283958527718992"><ele>563.6666666666666</ele><time>2026-04-24T08:42:38Z</time></trkpt><trkpt lat="43.524942128617894" lon="12.284091780133739"><ele>566.3333333333334</ele><time>2026-04-24T08:42:40Z</time></trkpt><trkpt lat="43.52493350917015" lon="12.28419467393994"><ele>569.0</ele><time>2026-04-24T08:42:41Z</time></trkpt><trkpt lat="43.52491213478735" lon="12.284289944042781"><ele>571.6666666666667</ele><time>2026-04-24T08:42:42Z</time></trkpt><trkpt lat="43.524881006831706" lon="12.28438627402474"><ele>574.3333333333334</ele><time>2026-04-24T08:42:43Z</time></trkpt><trkpt lat="43.52484376055455" lon="12.284483239135465"><ele>577.0</ele><time>2026-04-24T08:42:44Z</time></trkpt><trkpt lat="43.52480030230499" lon="12.284582283246596"><ele>577.0</ele><time>2026-04-24T08:42:45Z</time></trkpt><trkpt lat="43.52473780805098" lon="12.284660056435023"><ele>577.0</ele><time>2026-04-24T08:42:46Z</time></trkpt><trkpt lat="43.52465437584269" lon="12.284726698421604"><ele>577.0</ele><time>2026-04-24T08:42:47Z</time></trkpt><trkpt lat="43.52455447813937" lon="12.284782621488175"><ele>577.0</ele><time>2026-04-24T08:42:48Z</time></trkpt><trkpt lat="43.5244727382111" lon="12.28483395105253"><ele>577.0</ele><time>2026-04-24T08:42:49Z</time></trkpt><trkpt lat="43.52439222742141" lon="12.28490065753488"><ele>574.8333333333334</ele><time>2026-04-24T08:42:50Z</time></trkpt><trkpt lat="43.524312832695905" lon="12.28495838063052"><ele>572.6666666666667</ele><time>2026-04-24T08:42:51Z</time></trkpt><trkpt lat="43.524231659513475" lon="12.285010782566331"><ele>570.5</ele><time>2026-04-24T08:42:52Z</time></trkpt><trkpt lat="43.524154969892884" lon="12.285059902260567"><ele>568.3333333333334</ele><time>2026-04-24T08:42:53Z</time></trkpt><trkpt lat="43.5240828318739" lon="12.285105476022682"><ele>566.1666666666666</ele><time>2026-04-24T08:42:54Z</time></trkpt><trkpt lat="43.52400148290734" lon="12.285124749552642"><ele>564.0</ele><time>2026-04-24T08:42:55Z</time></trkpt><trkpt lat="43.52391019440643" lon="12.285116623541835"><ele>564.0</ele><time>2026-04-24T08:42:56Z</time></trkpt><trkpt lat="43.52382322192942" lon="12.285062025356265"><ele>564.0</ele><time>2026-04-24T08:42:57Z</time></trkpt><trkpt lat="43.52373502530455" lon="12.2849655456567"><ele>564.0</ele><time>2026-04-24T08:42:58Z</time></trkpt><trkpt lat="43.52365482116375" lon="12.284852025320989"><ele>564.0</ele><time>2026-04-24T08:42:59Z</time></trkpt><trkpt lat="43.52356282409383" lon="12.284743384315734"><ele>564.0</ele><time>2026-04-24T08:43:00Z</time></trkpt><trkpt lat="43.52347579719177" lon="12.284649208329132"><ele>562.0</ele><time>2026-04-24T08:43:01Z</time></trkpt><trkpt lat="43.52338884628503" lon="12.28455708628384"><ele>560.0</ele><time>2026-04-24T08:43:02Z</time></trkpt><trkpt lat="43.52329989295704" lon="12.284467291222631"><ele>558.0</ele><time>2026-04-24T08:43:03Z</time></trkpt><trkpt lat="43.52320661515401" lon="12.284373157315452"><ele>556.0</ele><time>2026-04-24T08:43:04Z</time></trkpt><trkpt lat="43.523119054943884" lon="12.284268623330027"><ele>556.0</ele><time>2026-04-24T08:43:05Z</time></trkpt><trkpt lat="43.52302656821734" lon="12.284175650356474"><ele>556.0</ele><time>2026-04-24T08:43:06Z</time></trkpt><trkpt lat="43.52292979064327" lon="12.284077481103502"><ele>556.0</ele><time>2026-04-24T08:43:07Z</time></trkpt><trkpt lat="43.522843454021995" lon="12.28398936807366"><ele>556.0</ele><time>2026-04-24T08:43:08Z</time></trkpt><trkpt lat="43.522749440964894" lon="12.283894356585506"><ele>556.25</ele><time>2026-04-24T08:43:09Z</time></trkpt><trkpt lat="43.5226603276602" lon="12.283798602183301"><ele>556.5</ele><time>2026-04-24T08:43:10Z</time></trkpt><trkpt lat="43.522567460587844" lon="12.283692453853178"><ele>556.75</ele><time>2026-04-24T08:43:11Z</time></trkpt><trkpt lat="43.522473138186626" lon="12.283584378383605"><ele>557.0</ele><time>2026-04-24T08:43:12Z</time></trkpt><trkpt lat="43.52237047563818" lon="12.283484553102053"><ele>557.0</ele><time>2026-04-24T08:43:13Z</time></trkpt><trkpt lat="43.52226934750842" lon="12.283379868104758"><ele>557.0</ele><time>2026-04-24T08:43:14Z</time></trkpt><trkpt lat="43.522175126545875" lon="12.28327397968401"><ele>557.0</ele><time>2026-04-24T08:43:15Z</time></trkpt><trkpt lat="43.52208381556898" lon="12.283168138886651"><ele>557.0</ele><time>2026-04-24T08:43:16Z</time></trkpt><trkpt lat="43.52199573919204" lon="12.283070788503053"><ele>556.8000000000001</ele><time>2026-04-24T08:43:17Z</time></trkpt><trkpt lat="43.52190134281497" lon="12.282977219357921"><ele>556.6</ele><time>2026-04-24T08:43:18Z</time></trkpt><trkpt lat="43.521812819906586" lon="12.28288144034388"><ele>556.4000000000001</ele><time>2026-04-24T08:43:19Z</time></trkpt><trkpt lat="43.521732556623945" lon="12.28278607466454"><ele>556.2</ele><time>2026-04-24T08:43:20Z</time></trkpt><trkpt lat="43.52166499579059" lon="12.28269024349232"><ele>556.0</ele><time>2026-04-24T08:43:21Z</time></trkpt><trkpt lat="43.521583824029136" lon="12.282595881320573"><ele>556.0</ele><time>2026-04-24T08:43:22Z</time></trkpt><trkpt lat="43.52150807056533" lon="12.282499697608879"><ele>556.0</ele><time>2026-04-24T08:43:23Z</time></trkpt><trkpt lat="43.52143063052959" lon="12.28240532357254"><ele>556.0</ele><time>2026-04-24T08:43:24Z</time></trkpt><trkpt lat="43.52134970500226" lon="12.282319092420714"><ele>556.0</ele><time>2026-04-24T08:43:25Z</time></trkpt><trkpt lat="43.5212716721935" lon="12.282234465377098"><ele>556.0</ele><time>2026-04-24T08:43:26Z</time></trkpt><trkpt lat="43.52119020582692" lon="12.282142309785993"><ele>555.4</ele><time>2026-04-24T08:43:27Z</time></trkpt><trkpt lat="43.52110521359636" lon="12.282055770220976"><ele>554.8</ele><time>2026-04-24T08:43:28Z</time></trkpt><trkpt lat="43.52101407635229" lon="12.281984958713045"><ele>554.1999999999999</ele><time>2026-04-24T08:43:29Z</time></trkpt><trkpt lat="43.52091952432435" lon="12.281918346796177"><ele>553.6</ele><time>2026-04-24T08:43:30Z</time></trkpt><trkpt lat="43.5208280706015" lon="12.281837066098465"><ele>553.0</ele><time>2026-04-24T08:43:31Z</time></trkpt><trkpt lat="43.52074377442581" lon="12.281763166310526"><ele>553.0</ele><time>2026-04-24T08:43:32Z</time></trkpt><trkpt lat="43.52065582089137" lon="12.281674407958166"><ele>553.0</ele><time>2026-04-24T08:43:33Z</time></trkpt><trkpt lat="43.52057417293748" lon="12.281579265587139"><ele>553.0</ele><time>2026-04-24T08:43:34Z</time></trkpt><trkpt lat="43.520489795631974" lon="12.281490296566362"><ele>553.0</ele><time>2026-04-24T08:43:35Z</time></trkpt><trkpt lat="43.52041982085981" lon="12.2814202187067"><ele>553.0</ele><time>2026-04-24T08:43:36Z</time></trkpt><trkpt lat="43.52033816246217" lon="12.281347509053688"><ele>552.4</ele><time>2026-04-24T08:43:37Z</time></trkpt><trkpt lat="43.52025847564925" lon="12.281276158064497"><ele>551.8</ele><time>2026-04-24T08:43:38Z</time></trkpt><trkpt lat="43.52018580469959" lon="12.281200956523888"><ele>551.2</ele><time>2026-04-24T08:43:39Z</time></trkpt><trkpt lat="43.52011252121061" lon="12.281094080105177"><ele>550.6</ele><time>2026-04-24T08:43:40Z</time></trkpt><trkpt lat="43.520052141510725" lon="12.280990925110856"><ele>550.0</ele><time>2026-04-24T08:43:41Z</time></trkpt><trkpt lat="43.51998295530652" lon="12.280910674072578"><ele>550.0</ele><time>2026-04-24T08:43:42Z</time></trkpt><trkpt lat="43.51990455942493" lon="12.280853786975184"><ele>550.0</ele><time>2026-04-24T08:43:43Z</time></trkpt><trkpt lat="43.51981716093414" lon="12.280821146061825"><ele>550.0</ele><time>2026-04-24T08:43:44Z</time></trkpt><trkpt lat="43.519723620367756" lon="12.280800743516552"><ele>550.0</ele><time>2026-04-24T08:43:45Z</time></trkpt><trkpt lat="43.519630189457075" lon="12.280785366574626"><ele>550.0</ele><time>2026-04-24T08:43:46Z</time></trkpt><trkpt lat="43.519537632003754" lon="12.280766839101062"><ele>548.3333333333334</ele><time>2026-04-24T08:43:47Z</time></trkpt><trkpt lat="43.51943798827924" lon="12.280751600551573"><ele>546.6666666666667</ele><time>2026-04-24T08:43:48Z</time></trkpt><trkpt lat="43.519348054035135" lon="12.280730274941714"><ele>545.0</ele><time>2026-04-24T08:43:49Z</time></trkpt><trkpt lat="43.51926712951938" lon="12.28070967976346"><ele>543.3333333333334</ele><time>2026-04-24T08:43:50Z</time></trkpt><trkpt lat="43.5192022761077" lon="12.280691572868692"><ele>541.6666666666666</ele><time>2026-04-24T08:43:51Z</time></trkpt><trkpt lat="43.519140510237364" lon="12.280613391589668"><ele>540.0</ele><time>2026-04-24T08:43:53Z</time></trkpt><trkpt lat="43.5191385483374" lon="12.280520854220079"><ele>540.0</ele><time>2026-04-24T08:43:54Z</time></trkpt><trkpt lat="43.519149424841224" lon="12.280414509186267"><ele>540.0</ele><time>2026-04-24T08:43:55Z</time></trkpt><trkpt lat="43.51916421717713" lon="12.280288944000304"><ele>540.0</ele><time>2026-04-24T08:43:56Z</time></trkpt><trkpt lat="43.51917389116944" lon="12.280154701369042"><ele>540.0</ele><time>2026-04-24T08:43:57Z</time></trkpt><trkpt lat="43.51918610843427" lon="12.280012009253799"><ele>540.0</ele><time>2026-04-24T08:43:58Z</time></trkpt><trkpt lat="43.51920447582825" lon="12.279878338444478"><ele>539.6</ele><time>2026-04-24T08:43:59Z</time></trkpt><trkpt lat="43.51920208886274" lon="12.279726519979869"><ele>539.2</ele><time>2026-04-24T08:44:00Z</time></trkpt><trkpt lat="43.51918403418406" lon="12.279604125380464"><ele>538.8</ele><time>2026-04-24T08:44:01Z</time></trkpt><trkpt lat="43.51916105016381" lon="12.279484966468562"><ele>538.4</ele><time>2026-04-24T08:44:02Z</time></trkpt><trkpt lat="43.519129971700444" lon="12.279358957541186"><ele>538.0</ele><time>2026-04-24T08:44:03Z</time></trkpt><trkpt lat="43.51908162813571" lon="12.279238440424336"><ele>538.0</ele><time>2026-04-24T08:44:04Z</time></trkpt><trkpt lat="43.51901977108932" lon="12.279129364157638"><ele>538.0</ele><time>2026-04-24T08:44:05Z</time></trkpt><trkpt lat="43.51894583543504" lon="12.279050972338398"><ele>538.0</ele><time>2026-04-24T08:44:06Z</time></trkpt><trkpt lat="43.518865489571205" lon="12.278975945392721"><ele>538.0</ele><time>2026-04-24T08:44:07Z</time></trkpt><trkpt lat="43.51879870905463" lon="12.278886852175486"><ele>538.0</ele><time>2026-04-24T08:44:08Z</time></trkpt><trkpt lat="43.51873857737226" lon="12.27879311978767"><ele>538.4</ele><time>2026-04-24T08:44:09Z</time></trkpt><trkpt lat="43.51866531511786" lon="12.278699409594568"><ele>538.8</ele><time>2026-04-24T08:44:10Z</time></trkpt><trkpt lat="43.51860380174827" lon="12.27860225497947"><ele>539.2</ele><time>2026-04-24T08:44:11Z</time></trkpt><trkpt lat="43.51854753430236" lon="12.278489522334068"><ele>539.6</ele><time>2026-04-24T08:44:12Z</time></trkpt><trkpt lat="43.51848729219299" lon="12.2783830353928"><ele>540.0</ele><time>2026-04-24T08:44:13Z</time></trkpt><trkpt lat="43.51843064077148" lon="12.278281512832185"><ele>540.0</ele><time>2026-04-24T08:44:14Z</time></trkpt><trkpt lat="43.518382764506" lon="12.278186749582533"><ele>540.0</ele><time>2026-04-24T08:44:15Z</time></trkpt><trkpt lat="43.518333786972896" lon="12.278086309249177"><ele>540.0</ele><time>2026-04-24T08:44:16Z</time></trkpt><trkpt lat="43.51827700111466" lon="12.278013663049666"><ele>540.0</ele><time>2026-04-24T08:44:17Z</time></trkpt><trkpt lat="43.518218359298906" lon="12.277938011975008"><ele>540.0</ele><time>2026-04-24T08:44:18Z</time></trkpt><trkpt lat="43.5181708304681" lon="12.277837051919711"><ele>540.0</ele><time>2026-04-24T08:44:19Z</time></trkpt><trkpt lat="43.51814050367795" lon="12.277734320351003"><ele>540.6666666666666</ele><time>2026-04-24T08:44:20Z</time></trkpt><trkpt lat="43.518140833418464" lon="12.277627434845389"><ele>541.3333333333334</ele><time>2026-04-24T08:44:21Z</time></trkpt><trkpt lat="43.51813266956782" lon="12.277507526850728"><ele>542.0</ele><time>2026-04-24T08:44:22Z</time></trkpt><trkpt lat="43.518109684451645" lon="12.277387680473291"><ele>542.6666666666667</ele><time>2026-04-24T08:44:23Z</time></trkpt><trkpt lat="43.51808462493864" lon="12.277279760987005"><ele>543.3333333333334</ele><time>2026-04-24T08:44:24Z</time></trkpt><trkpt lat="43.518054866226" lon="12.277177281453561"><ele>544.0</ele><time>2026-04-24T08:44:25Z</time></trkpt><trkpt lat="43.517997045263435" lon="12.277061806587135"><ele>544.0</ele><time>2026-04-24T08:44:27Z</time></trkpt><trkpt lat="43.51796040100679" lon="12.276954926620878"><ele>544.0</ele><time>2026-04-24T08:44:29Z</time></trkpt><trkpt lat="43.51791934030315" lon="12.276886287741322"><ele>544.0</ele><time>2026-04-24T08:44:30Z</time></trkpt><trkpt lat="43.51785832173006" lon="12.276804006558674"><ele>544.0</ele><time>2026-04-24T08:44:31Z</time></trkpt><trkpt lat="43.51779445068581" lon="12.276708611458032"><ele>544.0</ele><time>2026-04-24T08:44:32Z</time></trkpt><trkpt lat="43.51773787617013" lon="12.276614015234246"><ele>544.0</ele><time>2026-04-24T08:44:33Z</time></trkpt><trkpt lat="43.51768520394063" lon="12.276537825934456"><ele>542.8333333333334</ele><time>2026-04-24T08:44:34Z</time></trkpt><trkpt lat="43.517628907065635" lon="12.276474250613262"><ele>541.6666666666667</ele><time>2026-04-24T08:44:35Z</time></trkpt><trkpt lat="43.5175637451993" lon="12.276410988602887"><ele>540.5</ele><time>2026-04-24T08:44:36Z</time></trkpt><trkpt lat="43.51749728790023" lon="12.27636342391602"><ele>539.3333333333334</ele><time>2026-04-24T08:44:37Z</time></trkpt><trkpt lat="43.51742531911396" lon="12.276324283557816"><ele>538.1666666666666</ele><time>2026-04-24T08:44:38Z</time></trkpt><trkpt lat="43.517352247440975" lon="12.2762743708579"><ele>537.0</ele><time>2026-04-24T08:44:39Z</time></trkpt><trkpt lat="43.51726574525795" lon="12.276209472676815"><ele>536.8000000000001</ele><time>2026-04-24T08:44:40Z</time></trkpt><trkpt lat="43.51719257627229" lon="12.276156618482522"><ele>536.6</ele><time>2026-04-24T08:44:41Z</time></trkpt><trkpt lat="43.51712712161419" lon="12.276102491631317"><ele>536.4000000000001</ele><time>2026-04-24T08:44:42Z</time></trkpt><trkpt lat="43.51705982597906" lon="12.276043111807397"><ele>536.2</ele><time>2026-04-24T08:44:43Z</time></trkpt><trkpt lat="43.51699583895714" lon="12.275978618106583"><ele>536.0</ele><time>2026-04-24T08:44:44Z</time></trkpt><trkpt lat="43.51688616502176" lon="12.27585183166896"><ele>535.6</ele><time>2026-04-24T08:44:46Z</time></trkpt><trkpt lat="43.51682573679057" lon="12.275798897566931"><ele>535.2</ele><time>2026-04-24T08:44:47Z</time></trkpt><trkpt lat="43.516771571626165" lon="12.275725679856878"><ele>534.8</ele><time>2026-04-24T08:44:48Z</time></trkpt><trkpt lat="43.51672663383455" lon="12.275649522969578"><ele>534.4</ele><time>2026-04-24T08:44:49Z</time></trkpt><trkpt lat="43.51663545166179" lon="12.27555710966985"><ele>534.0</ele><time>2026-04-24T08:44:51Z</time></trkpt><trkpt lat="43.51654461590124" lon="12.275444665092513"><ele>532.4</ele><time>2026-04-24T08:44:53Z</time></trkpt><trkpt lat="43.516504595204296" lon="12.275352556041"><ele>530.8</ele><time>2026-04-24T08:44:54Z</time></trkpt><trkpt lat="43.51641324714925" lon="12.275244270976124"><ele>529.2</ele><time>2026-04-24T08:44:56Z</time></trkpt><trkpt lat="43.51630138814562" lon="12.275168466325777"><ele>527.6</ele><time>2026-04-24T08:44:58Z</time></trkpt><trkpt lat="43.516199558024155" lon="12.275093829948952"><ele>526.0</ele><time>2026-04-24T08:45:00Z</time></trkpt><trkpt lat="43.516143183565134" lon="12.275046295208888"><ele>524.6</ele><time>2026-04-24T08:45:01Z</time></trkpt><trkpt lat="43.516017307938405" lon="12.274963052943415"><ele>523.2</ele><time>2026-04-24T08:45:03Z</time></trkpt><trkpt lat="43.51595932523243" lon="12.274913470598506"><ele>521.8</ele><time>2026-04-24T08:45:04Z</time></trkpt><trkpt lat="43.51586830535239" lon="12.274821246235982"><ele>520.4</ele><time>2026-04-24T08:45:06Z</time></trkpt><trkpt lat="43.51581051235188" lon="12.274773895902008"><ele>519.0</ele><time>2026-04-24T08:45:07Z</time></trkpt><trkpt lat="43.515748549957145" lon="12.274756958893718"><ele>516.0</ele><time>2026-04-24T08:45:08Z</time></trkpt><trkpt lat="43.515685308081004" lon="12.274745255733945"><ele>513.0</ele><time>2026-04-24T08:45:09Z</time></trkpt><trkpt lat="43.515622987626294" lon="12.274722024833322"><ele>510.0</ele><time>2026-04-24T08:45:10Z</time></trkpt><trkpt lat="43.51553276609615" lon="12.274628697320198"><ele>507.0</ele><time>2026-04-24T08:45:12Z</time></trkpt><trkpt lat="43.51541817334491" lon="12.27452450915422"><ele>504.0</ele><time>2026-04-24T08:45:14Z</time></trkpt><trkpt lat="43.515342876700814" lon="12.274457551154013"><ele>503.6666666666667</ele><time>2026-04-24T08:45:15Z</time></trkpt><trkpt lat="43.515270676063025" lon="12.27437570221789"><ele>503.33333333333337</ele><time>2026-04-24T08:45:16Z</time></trkpt><trkpt lat="43.51520025768121" lon="12.274297529724729"><ele>503.0</ele><time>2026-04-24T08:45:17Z</time></trkpt><trkpt lat="43.515136130231554" lon="12.27422408909772"><ele>502.6666666666667</ele><time>2026-04-24T08:45:18Z</time></trkpt><trkpt lat="43.51507443124523" lon="12.274164340457391"><ele>502.33333333333337</ele><time>2026-04-24T08:45:19Z</time></trkpt><trkpt lat="43.515012035173804" lon="12.274098933399733"><ele>502.0</ele><time>2026-04-24T08:45:20Z</time></trkpt><trkpt lat="43.51495325948206" lon="12.27402307981144"><ele>500.33333333333337</ele><time>2026-04-24T08:45:21Z</time></trkpt><trkpt lat="43.514893096404805" lon="12.273936386880585"><ele>498.6666666666667</ele><time>2026-04-24T08:45:22Z</time></trkpt><trkpt lat="43.514836622075386" lon="12.273857386339834"><ele>497.0</ele><time>2026-04-24T08:45:23Z</time></trkpt><trkpt lat="43.514777418204076" lon="12.273782459088888"><ele>495.33333333333337</ele><time>2026-04-24T08:45:24Z</time></trkpt><trkpt lat="43.51468838991347" lon="12.273700698404737"><ele>493.6666666666667</ele><time>2026-04-24T08:45:26Z</time></trkpt><trkpt lat="43.51459905449424" lon="12.273676412256693"><ele>492.0</ele><time>2026-04-24T08:45:28Z</time></trkpt><trkpt lat="43.51452471640414" lon="12.273640734694556"><ele>492.0</ele><time>2026-04-24T08:45:30Z</time></trkpt><trkpt lat="43.514444814477585" lon="12.273501598833283"><ele>492.00000000000006</ele><time>2026-04-24T08:45:32Z</time></trkpt><trkpt lat="43.51440893910805" lon="12.2734127766829"><ele>492.00000000000006</ele><time>2026-04-24T08:45:33Z</time></trkpt><trkpt lat="43.514357273299126" lon="12.273275250977559"><ele>492.0</ele><time>2026-04-24T08:45:35Z</time></trkpt><trkpt lat="43.514274006707915" lon="12.273188705935066"><ele>492.0</ele><time>2026-04-24T08:45:37Z</time></trkpt><trkpt lat="43.51417550910688" lon="12.273095905295746"><ele>490.0</ele><time>2026-04-24T08:45:39Z</time></trkpt><trkpt lat="43.51413220940693" lon="12.273027873609202"><ele>488.00000000000006</ele><time>2026-04-24T08:45:40Z</time></trkpt><trkpt lat="43.51407985518757" lon="12.272974861927555"><ele>486.00000000000006</ele><time>2026-04-24T08:45:41Z</time></trkpt><trkpt lat="43.51398726545885" lon="12.272864456440542"><ele>484.0</ele><time>2026-04-24T08:45:43Z</time></trkpt><trkpt lat="43.51388785637014" lon="12.272742381850126"><ele>482.0</ele><time>2026-04-24T08:45:45Z</time></trkpt><trkpt lat="43.51383873509383" lon="12.272682673960086"><ele>481.99999999999994</ele><time>2026-04-24T08:45:46Z</time></trkpt><trkpt lat="43.51377582635782" lon="12.272630187079885"><ele>482.0</ele><time>2026-04-24T08:45:47Z</time></trkpt><trkpt lat="43.51366716818964" lon="12.2725343657277"><ele>482.0</ele><time>2026-04-24T08:45:49Z</time></trkpt><trkpt lat="43.51360743172245" lon="12.272469139213287"><ele>482.0</ele><time>2026-04-24T08:45:50Z</time></trkpt><trkpt lat="43.5135549748426" lon="12.272401360858943"><ele>481.99999999999994</ele><time>2026-04-24T08:45:51Z</time></trkpt><trkpt lat="43.513500584749906" lon="12.272352247670392"><ele>482.0</ele><time>2026-04-24T08:45:52Z</time></trkpt><trkpt lat="43.51341363002897" lon="12.27227452246525"><ele>480.8</ele><time>2026-04-24T08:45:54Z</time></trkpt><trkpt lat="43.513328462236" lon="12.27218086557596"><ele>479.6</ele><time>2026-04-24T08:45:56Z</time></trkpt><trkpt lat="43.51323088981341" lon="12.27207644782605"><ele>478.40000000000003</ele><time>2026-04-24T08:45:58Z</time></trkpt><trkpt lat="43.513137102134266" lon="12.271960664268335"><ele>477.20000000000005</ele><time>2026-04-24T08:46:00Z</time></trkpt><trkpt lat="43.51308057005579" lon="12.271916175576594"><ele>476.0</ele><time>2026-04-24T08:46:01Z</time></trkpt><trkpt lat="43.513016618820465" lon="12.271890224990265"><ele>475.4</ele><time>2026-04-24T08:46:02Z</time></trkpt><trkpt lat="43.51290326868353" lon="12.271821296801889"><ele>474.8</ele><time>2026-04-24T08:46:04Z</time></trkpt><trkpt lat="43.51285092355817" lon="12.271769411303621"><ele>474.19999999999993</ele><time>2026-04-24T08:46:05Z</time></trkpt><trkpt lat="43.512798316039664" lon="12.271708362143949"><ele>473.59999999999997</ele><time>2026-04-24T08:46:06Z</time></trkpt><trkpt lat="43.512705719145146" lon="12.271586996857206"><ele>473.0</ele><time>2026-04-24T08:46:08Z</time></trkpt><trkpt lat="43.51263033030162" lon="12.271482816574085"><ele>471.4</ele><time>2026-04-24T08:46:10Z</time></trkpt><trkpt lat="43.51256121215852" lon="12.271425632029212"><ele>469.79999999999995</ele><time>2026-04-24T08:46:12Z</time></trkpt><trkpt lat="43.51247166267783" lon="12.271349550349603"><ele>468.2</ele><time>2026-04-24T08:46:14Z</time></trkpt><trkpt lat="43.51238102430548" lon="12.271283793594346"><ele>466.6</ele><time>2026-04-24T08:46:16Z</time></trkpt><trkpt lat="43.51230888111269" lon="12.271172536913511"><ele>465.0</ele><time>2026-04-24T08:46:18Z</time></trkpt><trkpt lat="43.51218878235679" lon="12.271134861759746"><ele>465.0</ele><time>2026-04-24T08:46:20Z</time></trkpt><trkpt lat="43.512118675887955" lon="12.271112741635351"><ele>465.0</ele><time>2026-04-24T08:46:21Z</time></trkpt><trkpt lat="43.51200174404903" lon="12.271069228070338"><ele>465.0</ele><time>2026-04-24T08:46:23Z</time></trkpt><trkpt lat="43.51188681261764" lon="12.27101543907953"><ele>465.0</ele><time>2026-04-24T08:46:25Z</time></trkpt><trkpt lat="43.511819773391" lon="12.270977482948481"><ele>465.0</ele><time>2026-04-24T08:46:26Z</time></trkpt><trkpt lat="43.511756621980595" lon="12.270941108839162"><ele>465.0</ele><time>2026-04-24T08:46:27Z</time></trkpt><trkpt lat="43.51170070260152" lon="12.270897752171507"><ele>465.0</ele><time>2026-04-24T08:46:28Z</time></trkpt><trkpt lat="43.511589174239354" lon="12.270826166545572"><ele>465.0</ele><time>2026-04-24T08:46:30Z</time></trkpt><trkpt lat="43.51147097413304" lon="12.27077804154821"><ele>465.0</ele><time>2026-04-24T08:46:32Z</time></trkpt><trkpt lat="43.51136608318969" lon="12.27077391864684"><ele>465.0</ele><time>2026-04-24T08:46:34Z</time></trkpt><trkpt lat="43.51129289659455" lon="12.270750771307716"><ele>462.4</ele><time>2026-04-24T08:46:36Z</time></trkpt><trkpt lat="43.51119633370471" lon="12.270737589688581"><ele>459.8</ele><time>2026-04-24T08:46:38Z</time></trkpt><trkpt lat="43.511101143137935" lon="12.270769771744531"><ele>457.20000000000005</ele><time>2026-04-24T08:46:40Z</time></trkpt><trkpt lat="43.51099908685149" lon="12.27078632702045"><ele>454.6</ele><time>2026-04-24T08:46:42Z</time></trkpt><trkpt lat="43.510888998208074" lon="12.270776679336628"><ele>452.0</ele><time>2026-04-24T08:46:44Z</time></trkpt><trkpt lat="43.510796208005296" lon="12.270722731063595"><ele>452.0</ele><time>2026-04-24T08:46:46Z</time></trkpt><trkpt lat="43.510701608210155" lon="12.270659518838183"><ele>452.00000000000006</ele><time>2026-04-24T08:46:48Z</time></trkpt><trkpt lat="43.51062679206796" lon="12.270618631496239"><ele>452.00000000000006</ele><time>2026-04-24T08:46:50Z</time></trkpt><trkpt lat="43.510555000426315" lon="12.270528723551111"><ele>452.0</ele><time>2026-04-24T08:46:52Z</time></trkpt><trkpt lat="43.5104461853834" lon="12.270468648270466"><ele>452.0</ele><time>2026-04-24T08:46:54Z</time></trkpt><trkpt lat="43.510341178134645" lon="12.27046525134384"><ele>450.0</ele><time>2026-04-24T08:46:56Z</time></trkpt><trkpt lat="43.51024295389104" lon="12.27040759482278"><ele>448.00000000000006</ele><time>2026-04-24T08:46:58Z</time></trkpt><trkpt lat="43.51013394069414" lon="12.270359731017646"><ele>446.00000000000006</ele><time>2026-04-24T08:47:00Z</time></trkpt><trkpt lat="43.51004763001125" lon="12.270308986960748"><ele>444.0</ele><time>2026-04-24T08:47:02Z</time></trkpt><trkpt lat="43.50993651858982" lon="12.270256673175524"><ele>442.0</ele><time>2026-04-24T08:47:04Z</time></trkpt><trkpt lat="43.509822467106396" lon="12.270229344119603"><ele>442.0</ele><time>2026-04-24T08:47:06Z</time></trkpt><trkpt lat="43.50972899398997" lon="12.270183118813852"><ele>442.00000000000006</ele><time>2026-04-24T08:47:08Z</time></trkpt><trkpt lat="43.50966595279585" lon="12.270173065014259"><ele>442.00000000000006</ele><time>2026-04-24T08:47:09Z</time></trkpt><trkpt lat="43.50955235281823" lon="12.270166382918726"><ele>442.0</ele><time>2026-04-24T08:47:11Z</time></trkpt><trkpt lat="43.509465296098206" lon="12.27018016406615"><ele>442.0</ele><time>2026-04-24T08:47:13Z</time></trkpt><trkpt lat="43.50937759358304" lon="12.270163693704387"><ele>440.20000000000005</ele><time>2026-04-24T08:47:15Z</time></trkpt><trkpt lat="43.509266609332336" lon="12.270142745823707"><ele>438.40000000000003</ele><time>2026-04-24T08:47:17Z</time></trkpt><trkpt lat="43.50916572952928" lon="12.270158398611565"><ele>436.59999999999997</ele><time>2026-04-24T08:47:19Z</time></trkpt><trkpt lat="43.509068068696116" lon="12.270206624324894"><ele>434.79999999999995</ele><time>2026-04-24T08:47:21Z</time></trkpt><trkpt lat="43.50897339608356" lon="12.270229715298749"><ele>433.0</ele><time>2026-04-24T08:47:23Z</time></trkpt><trkpt lat="43.50887137402854" lon="12.270164492465543"><ele>433.0</ele><time>2026-04-24T08:47:25Z</time></trkpt><trkpt lat="43.50875577724783" lon="12.270172532524475"><ele>433.0</ele><time>2026-04-24T08:47:27Z</time></trkpt><trkpt lat="43.50864708722439" lon="12.270176219830295"><ele>433.0</ele><time>2026-04-24T08:47:29Z</time></trkpt><trkpt lat="43.508552061989604" lon="12.270094972941736"><ele>433.0</ele><time>2026-04-24T08:47:31Z</time></trkpt><trkpt lat="43.50846760703134" lon="12.269983093312115"><ele>430.33333333333337</ele><time>2026-04-24T08:47:33Z</time></trkpt><trkpt lat="43.5084138018975" lon="12.269926388726425"><ele>427.6666666666667</ele><time>2026-04-24T08:47:34Z</time></trkpt><trkpt lat="43.508312832520396" lon="12.26988561063833"><ele>425.0</ele><time>2026-04-24T08:47:36Z</time></trkpt><trkpt lat="43.50823277625503" lon="12.26981383366664"><ele>422.33333333333337</ele><time>2026-04-24T08:47:38Z</time></trkpt><trkpt lat="43.508189339114764" lon="12.269746935700727"><ele>419.6666666666667</ele><time>2026-04-24T08:47:44Z</time></trkpt><trkpt lat="43.50812908387246" lon="12.26967403051061"><ele>417.0</ele><time>2026-04-24T08:48:01Z</time></trkpt><trkpt lat="43.508070133962036" lon="12.269624653310773"><ele>416.5714285714286</ele><time>2026-04-24T08:48:03Z</time></trkpt><trkpt lat="43.50800638486489" lon="12.26959100320367"><ele>416.1428571428571</ele><time>2026-04-24T08:48:05Z</time></trkpt><trkpt lat="43.507940038267044" lon="12.269565638734601"><ele>415.7142857142857</ele><time>2026-04-24T08:48:07Z</time></trkpt><trkpt lat="43.50785699373459" lon="12.269545125848957"><ele>415.28571428571433</ele><time>2026-04-24T08:48:09Z</time></trkpt><trkpt lat="43.50778873337804" lon="12.269524999164409"><ele>414.8571428571429</ele><time>2026-04-24T08:48:11Z</time></trkpt><trkpt lat="43.50771938394209" lon="12.269492978020244"><ele>414.42857142857144</ele><time>2026-04-24T08:48:14Z</time></trkpt><trkpt lat="43.50764873511959" lon="12.269461815367766"><ele>414.0</ele><time>2026-04-24T08:48:17Z</time></trkpt><trkpt lat="43.507618370743586" lon="12.268255851071446"><ele>405.79999999999995</ele><time>2026-04-24T08:53:38Z</time></trkpt><trkpt lat="43.50763785885847" lon="12.268154211563468"><ele>397.59999999999997</ele><time>2026-04-24T08:53:57Z</time></trkpt><trkpt lat="43.50765649207028" lon="12.267977584959214"><ele>389.4</ele><time>2026-04-24T08:53:59Z</time></trkpt><trkpt lat="43.50769977883444" lon="12.267862434592775"><ele>381.2</ele><time>2026-04-24T08:54:00Z</time></trkpt><trkpt lat="43.50772173420319" lon="12.267742640098177"><ele>373.0</ele><time>2026-04-24T08:54:01Z</time></trkpt><trkpt lat="43.50773790203899" lon="12.267639755878589"><ele>371.79999999999995</ele><time>2026-04-24T08:54:02Z</time></trkpt><trkpt lat="43.50775295506749" lon="12.267492727524251"><ele>370.6</ele><time>2026-04-24T08:54:03Z</time></trkpt><trkpt lat="43.507777948188675" lon="12.267347700274865"><ele>369.4</ele><time>2026-04-24T08:54:04Z</time></trkpt><trkpt lat="43.5077858589316" lon="12.267196264538219"><ele>368.20000000000005</ele><time>2026-04-24T08:54:05Z</time></trkpt><trkpt lat="43.50778352995929" lon="12.267038101230044"><ele>367.0</ele><time>2026-04-24T08:54:06Z</time></trkpt><trkpt lat="43.50777658548791" lon="12.266882410110961"><ele>365.8</ele><time>2026-04-24T08:54:07Z</time></trkpt><trkpt lat="43.50776456827351" lon="12.266733019395854"><ele>364.6</ele><time>2026-04-24T08:54:08Z</time></trkpt><trkpt lat="43.50775648095514" lon="12.266587677861587"><ele>363.40000000000003</ele><time>2026-04-24T08:54:09Z</time></trkpt><trkpt lat="43.50777359152982" lon="12.26643828484238"><ele>362.20000000000005</ele><time>2026-04-24T08:54:10Z</time></trkpt><trkpt lat="43.50777913697319" lon="12.266282045334286"><ele>361.0</ele><time>2026-04-24T08:54:11Z</time></trkpt><trkpt lat="43.50779713722807" lon="12.266124294891991"><ele>360.75</ele><time>2026-04-24T08:54:12Z</time></trkpt><trkpt lat="43.50781687808636" lon="12.265961637698492"><ele>360.5</ele><time>2026-04-24T08:54:13Z</time></trkpt><trkpt lat="43.50783766488049" lon="12.265797706054212"><ele>360.25</ele><time>2026-04-24T08:54:14Z</time></trkpt><trkpt lat="43.50785971593361" lon="12.265633713663282"><ele>360.0</ele><time>2026-04-24T08:54:15Z</time></trkpt><trkpt lat="43.50788169049911" lon="12.265465535719906"><ele>359.5</ele><time>2026-04-24T08:54:16Z</time></trkpt><trkpt lat="43.50790190858921" lon="12.265296229850797"><ele>359.0</ele><time>2026-04-24T08:54:17Z</time></trkpt><trkpt lat="43.50792401256314" lon="12.265128999616183"><ele>358.5</ele><time>2026-04-24T08:54:18Z</time></trkpt><trkpt lat="43.507946114996564" lon="12.264957885604087"><ele>358.0</ele><time>2026-04-24T08:54:19Z</time></trkpt><trkpt lat="43.50797123673367" lon="12.264788154783583"><ele>360.2</ele><time>2026-04-24T08:54:20Z</time></trkpt><trkpt lat="43.50799577075677" lon="12.264632108462669"><ele>362.4</ele><time>2026-04-24T08:54:21Z</time></trkpt><trkpt lat="43.50801546217331" lon="12.264488898078296"><ele>364.59999999999997</ele><time>2026-04-24T08:54:22Z</time></trkpt><trkpt lat="43.508036055462206" lon="12.264348179363457"><ele>366.79999999999995</ele><time>2026-04-24T08:54:23Z</time></trkpt><trkpt lat="43.50807643090758" lon="12.26421328947058"><ele>369.0</ele><time>2026-04-24T08:54:24Z</time></trkpt><trkpt lat="43.50812362756267" lon="12.264085377439587"><ele>369.0</ele><time>2026-04-24T08:54:25Z</time></trkpt><trkpt lat="43.50818617383317" lon="12.263956577814481"><ele>369.0</ele><time>2026-04-24T08:54:26Z</time></trkpt><trkpt lat="43.5082582771462" lon="12.26383969321011"><ele>369.0</ele><time>2026-04-24T08:54:27Z</time></trkpt><trkpt lat="43.508333603855206" lon="12.263725029385522"><ele>369.0</ele><time>2026-04-24T08:54:28Z</time></trkpt><trkpt lat="43.50839888326653" lon="12.263603789542893"><ele>369.0</ele><time>2026-04-24T08:54:29Z</time></trkpt><trkpt lat="43.50843352677556" lon="12.263455030297212"><ele>367.75</ele><time>2026-04-24T08:54:30Z</time></trkpt><trkpt lat="43.508481274025115" lon="12.263326820587155"><ele>366.5</ele><time>2026-04-24T08:54:31Z</time></trkpt><trkpt lat="43.50847133145539" lon="12.263175368793192"><ele>365.25</ele><time>2026-04-24T08:54:32Z</time></trkpt><trkpt lat="43.508446804674115" lon="12.263022210455976"><ele>364.0</ele><time>2026-04-24T08:54:33Z</time></trkpt><trkpt lat="43.50844689657961" lon="12.262852773190405"><ele>364.0</ele><time>2026-04-24T08:54:34Z</time></trkpt><trkpt lat="43.508432952619884" lon="12.262687313544433"><ele>364.0</ele><time>2026-04-24T08:54:35Z</time></trkpt><trkpt lat="43.50841887376536" lon="12.262517307703895"><ele>364.0</ele><time>2026-04-24T08:54:36Z</time></trkpt><trkpt lat="43.50841918139849" lon="12.262344371630288"><ele>364.0</ele><time>2026-04-24T08:54:37Z</time></trkpt><trkpt lat="43.50841276704654" lon="12.262160843924057"><ele>363.75</ele><time>2026-04-24T08:54:38Z</time></trkpt><trkpt lat="43.508424708973294" lon="12.261985609163156"><ele>363.5</ele><time>2026-04-24T08:54:39Z</time></trkpt><trkpt lat="43.50841503178937" lon="12.261812623735171"><ele>363.25</ele><time>2026-04-24T08:54:40Z</time></trkpt><trkpt lat="43.50841009079701" lon="12.261636180744768"><ele>363.0</ele><time>2026-04-24T08:54:41Z</time></trkpt><trkpt lat="43.50839841633311" lon="12.26146048738209"><ele>362.59999999999997</ele><time>2026-04-24T08:54:42Z</time></trkpt><trkpt lat="43.508357018646215" lon="12.261289900520703"><ele>362.2</ele><time>2026-04-24T08:54:43Z</time></trkpt><trkpt lat="43.50829072889842" lon="12.261136189635925"><ele>361.8</ele><time>2026-04-24T08:54:44Z</time></trkpt><trkpt lat="43.508243545438084" lon="12.26098730730211"><ele>361.4</ele><time>2026-04-24T08:54:45Z</time></trkpt><trkpt lat="43.50821908369414" lon="12.260895156605672"><ele>361.0</ele><time>2026-04-24T08:54:46Z</time></trkpt><trkpt lat="43.508208188756754" lon="12.260737810787813"><ele>360.75</ele><time>2026-04-24T08:54:47Z</time></trkpt><trkpt lat="43.50817883411117" lon="12.260536631898646"><ele>360.5</ele><time>2026-04-24T08:54:48Z</time></trkpt><trkpt lat="43.508161254562125" lon="12.260355699031654"><ele>360.25</ele><time>2026-04-24T08:54:49Z</time></trkpt><trkpt lat="43.508167111550044" lon="12.26025998390157"><ele>360.0</ele><time>2026-04-24T08:54:50Z</time></trkpt><trkpt lat="43.50794556552501" lon="12.260198338414856"><ele>357.5</ele><time>2026-04-24T08:54:52Z</time></trkpt><trkpt lat="43.50781754783407" lon="12.260209683543833"><ele>355.0</ele><time>2026-04-24T08:54:53Z</time></trkpt><trkpt lat="43.507691394081874" lon="12.260249280859961"><ele>352.5</ele><time>2026-04-24T08:54:54Z</time></trkpt><trkpt lat="43.50757028982724" lon="12.2603088200009"><ele>350.0</ele><time>2026-04-24T08:54:55Z</time></trkpt><trkpt lat="43.50747295413385" lon="12.260389285069365"><ele>350.0</ele><time>2026-04-24T08:54:56Z</time></trkpt><trkpt lat="43.507386696008396" lon="12.260480344041524"><ele>350.0</ele><time>2026-04-24T08:54:57Z</time></trkpt><trkpt lat="43.507296979805446" lon="12.260538918727338"><ele>350.0</ele><time>2026-04-24T08:54:58Z</time></trkpt><trkpt lat="43.5071887906836" lon="12.260566871458009"><ele>350.0</ele><time>2026-04-24T08:54:59Z</time></trkpt><trkpt lat="43.507080907516816" lon="12.260566941140295"><ele>350.0</ele><time>2026-04-24T08:55:00Z</time></trkpt><trkpt lat="43.50698117676301" lon="12.260551594014386"><ele>353.6</ele><time>2026-04-24T08:55:01Z</time></trkpt><trkpt lat="43.50690132432867" lon="12.260493659494907"><ele>357.2</ele><time>2026-04-24T08:55:02Z</time></trkpt><trkpt lat="43.50685401417939" lon="12.260380334920903"><ele>360.79999999999995</ele><time>2026-04-24T08:55:03Z</time></trkpt><trkpt lat="43.506849713417" lon="12.260218765150446"><ele>364.4</ele><time>2026-04-24T08:55:04Z</time></trkpt><trkpt lat="43.50684796577058" lon="12.260059446429986"><ele>368.0</ele><time>2026-04-24T08:55:05Z</time></trkpt><trkpt lat="43.506835609199065" lon="12.25989064571326"><ele>365.25</ele><time>2026-04-24T08:55:06Z</time></trkpt><trkpt lat="43.506815965968" lon="12.259711939847826"><ele>362.5</ele><time>2026-04-24T08:55:07Z</time></trkpt><trkpt lat="43.50677497036825" lon="12.259539744137586"><ele>359.75</ele><time>2026-04-24T08:55:08Z</time></trkpt><trkpt lat="43.50670932275728" lon="12.25937899490303"><ele>357.0</ele><time>2026-04-24T08:55:09Z</time></trkpt><trkpt lat="43.506641253167224" lon="12.259201047355505"><ele>357.0</ele><time>2026-04-24T08:55:10Z</time></trkpt><trkpt lat="43.506596612108694" lon="12.259046388725936"><ele>357.0</ele><time>2026-04-24T08:55:11Z</time></trkpt><trkpt lat="43.50657740420415" lon="12.258870270405401"><ele>357.0</ele><time>2026-04-24T08:55:12Z</time></trkpt><trkpt lat="43.50657624847993" lon="12.258687765433171"><ele>357.0</ele><time>2026-04-24T08:55:13Z</time></trkpt><trkpt lat="43.5065819808445" lon="12.258509748113523"><ele>355.5</ele><time>2026-04-24T08:55:14Z</time></trkpt><trkpt lat="43.506617758804126" lon="12.258332426505053"><ele>354.0</ele><time>2026-04-24T08:55:15Z</time></trkpt><trkpt lat="43.506675988450695" lon="12.258154029487686"><ele>352.5</ele><time>2026-04-24T08:55:16Z</time></trkpt><trkpt lat="43.50670164957633" lon="12.257986047598449"><ele>351.0</ele><time>2026-04-24T08:55:17Z</time></trkpt><trkpt lat="43.506684087513314" lon="12.257817150835429"><ele>350.25</ele><time>2026-04-24T08:55:18Z</time></trkpt><trkpt lat="43.50662809046171" lon="12.25765862112051"><ele>349.5</ele><time>2026-04-24T08:55:19Z</time></trkpt><trkpt lat="43.50655134199981" lon="12.257488119927512"><ele>348.75</ele><time>2026-04-24T08:55:20Z</time></trkpt><trkpt lat="43.50646504658193" lon="12.257305766737014"><ele>348.0</ele><time>2026-04-24T08:55:21Z</time></trkpt><trkpt lat="43.506378102708645" lon="12.257121760730456"><ele>348.3333333333333</ele><time>2026-04-24T08:55:22Z</time></trkpt><trkpt lat="43.5062920461233" lon="12.256930125742356"><ele>348.66666666666663</ele><time>2026-04-24T08:55:23Z</time></trkpt><trkpt lat="43.50621399828582" lon="12.256741509953539"><ele>349.0</ele><time>2026-04-24T08:55:24Z</time></trkpt><trkpt lat="43.506135041537455" lon="12.256552251185964"><ele>347.3333333333333</ele><time>2026-04-24T08:55:25Z</time></trkpt><trkpt lat="43.50604819642341" lon="12.256358943217993"><ele>345.6666666666667</ele><time>2026-04-24T08:55:26Z</time></trkpt><trkpt lat="43.50596090408318" lon="12.25617873240807"><ele>344.0</ele><time>2026-04-24T08:55:27Z</time></trkpt><trkpt lat="43.505862125898645" lon="12.256019725764165"><ele>344.0</ele><time>2026-04-24T08:55:28Z</time></trkpt><trkpt lat="43.50574479059788" lon="12.255879644455534"><ele>344.0</ele><time>2026-04-24T08:55:29Z</time></trkpt><trkpt lat="43.5056174513414" lon="12.255754386674631"><ele>344.0</ele><time>2026-04-24T08:55:30Z</time></trkpt><trkpt lat="43.505487445686235" lon="12.25563638228464"><ele>343.6666666666667</ele><time>2026-04-24T08:55:31Z</time></trkpt><trkpt lat="43.50535264782735" lon="12.2555181076291"><ele>343.3333333333333</ele><time>2026-04-24T08:55:32Z</time></trkpt><trkpt lat="43.50520995659477" lon="12.255406093298586"><ele>343.0</ele><time>2026-04-24T08:55:33Z</time></trkpt><trkpt lat="43.50506560132343" lon="12.255280060883011"><ele>343.0</ele><time>2026-04-24T08:55:34Z</time></trkpt><trkpt lat="43.50491942496858" lon="12.255153718837034"><ele>343.0</ele><time>2026-04-24T08:55:35Z</time></trkpt><trkpt lat="43.504777480909375" lon="12.255032763373729"><ele>343.0</ele><time>2026-04-24T08:55:36Z</time></trkpt><trkpt lat="43.50464015261259" lon="12.254914004574026"><ele>343.5</ele><time>2026-04-24T08:55:37Z</time></trkpt><trkpt lat="43.50451502450068" lon="12.25480084378155"><ele>344.0</ele><time>2026-04-24T08:55:38Z</time></trkpt><trkpt lat="43.50440665805003" lon="12.25467234636321"><ele>344.5</ele><time>2026-04-24T08:55:39Z</time></trkpt><trkpt lat="43.504316208703685" lon="12.254534628274085"><ele>345.0</ele><time>2026-04-24T08:55:40Z</time></trkpt><trkpt lat="43.50423526117637" lon="12.254387892243999"><ele>345.0</ele><time>2026-04-24T08:55:41Z</time></trkpt><trkpt lat="43.504159396099325" lon="12.254242379459521"><ele>345.0</ele><time>2026-04-24T08:55:42Z</time></trkpt><trkpt lat="43.50408561274317" lon="12.254108048575068"><ele>345.0</ele><time>2026-04-24T08:55:43Z</time></trkpt><trkpt lat="43.50401329875515" lon="12.253983182056999"><ele>345.0</ele><time>2026-04-24T08:55:44Z</time></trkpt><trkpt lat="43.50395446392951" lon="12.253873219226653"><ele>343.8</ele><time>2026-04-24T08:55:45Z</time></trkpt><trkpt lat="43.50388682501457" lon="12.25375633006428"><ele>342.6</ele><time>2026-04-24T08:55:46Z</time></trkpt><trkpt lat="43.503826247935955" lon="12.253648912251057"><ele>341.4</ele><time>2026-04-24T08:55:47Z</time></trkpt><trkpt lat="43.503777880713145" lon="12.253562235106873"><ele>340.2</ele><time>2026-04-24T08:55:48Z</time></trkpt><trkpt lat="43.50371154824958" lon="12.253471155733378"><ele>339.0</ele><time>2026-04-24T08:55:50Z</time></trkpt><trkpt lat="43.50363220507654" lon="12.253474589157602"><ele>339.0</ele><time>2026-04-24T08:55:52Z</time></trkpt><trkpt lat="43.50354654618941" lon="12.253515174513069"><ele>339.0</ele><time>2026-04-24T08:55:54Z</time></trkpt><trkpt lat="43.5034449162886" lon="12.253524749654115"><ele>339.0</ele><time>2026-04-24T08:55:56Z</time></trkpt><trkpt lat="43.50336711841485" lon="12.253510535684542"><ele>339.0</ele><time>2026-04-24T08:55:59Z</time></trkpt><trkpt lat="43.50335173910999" lon="12.253619318368825"><ele>339.0</ele><time>2026-04-24T08:56:02Z</time></trkpt><trkpt lat="43.503286445330616" lon="12.253675225159956"><ele>339.0</ele><time>2026-04-24T08:56:04Z</time></trkpt><trkpt lat="43.5031994553056" lon="12.253766095269063"><ele>339.0</ele><time>2026-04-24T08:56:06Z</time></trkpt><trkpt lat="43.503167840259366" lon="12.25389077271877"><ele>339.0</ele><time>2026-04-24T08:56:08Z</time></trkpt><trkpt lat="43.50315692176149" lon="12.253986970500284"><ele>339.0</ele><time>2026-04-24T08:56:09Z</time></trkpt><trkpt lat="43.50316167102571" lon="12.254074248016707"><ele>339.0</ele><time>2026-04-24T08:56:10Z</time></trkpt><trkpt lat="43.503157552060685" lon="12.254187430350697"><ele>339.0</ele><time>2026-04-24T08:56:11Z</time></trkpt><trkpt lat="43.50312722513078" lon="12.25428177247763"><ele>339.0</ele><time>2026-04-24T08:56:12Z</time></trkpt><trkpt lat="43.50309858253898" lon="12.254435695581279"><ele>340.79999999999995</ele><time>2026-04-24T08:56:14Z</time></trkpt><trkpt lat="43.503095905800656" lon="12.254618388593917"><ele>342.59999999999997</ele><time>2026-04-24T08:56:15.999Z</time></trkpt><trkpt lat="43.50308513867137" lon="12.254721399273452"><ele>344.4</ele><time>2026-04-24T08:56:16.999Z</time></trkpt><trkpt lat="43.503059638375966" lon="12.254810138884613"><ele>346.2</ele><time>2026-04-24T08:56:17.999Z</time></trkpt><trkpt lat="43.50303737837143" lon="12.254906232370033"><ele>348.0</ele><time>2026-04-24T08:56:18.999Z</time></trkpt><trkpt lat="43.50300878985449" lon="12.255080456875215"><ele>350.0</ele><time>2026-04-24T08:56:20.999Z</time></trkpt><trkpt lat="43.50296498307548" lon="12.255237205466816"><ele>352.0</ele><time>2026-04-24T08:56:22.999Z</time></trkpt><trkpt lat="43.5029303536892" lon="12.255363497369624"><ele>354.0</ele><time>2026-04-24T08:56:24.999Z</time></trkpt><trkpt lat="43.50289995285057" lon="12.255538645035948"><ele>356.0</ele><time>2026-04-24T08:56:26.999Z</time></trkpt><trkpt lat="43.502873491523786" lon="12.255627518248561"><ele>358.0</ele><time>2026-04-24T08:56:27.999Z</time></trkpt><trkpt lat="43.5028079798613" lon="12.25578541521425"><ele>358.5</ele><time>2026-04-24T08:56:29.999Z</time></trkpt><trkpt lat="43.502782697620425" lon="12.255866373956952"><ele>359.0</ele><time>2026-04-24T08:56:30.999Z</time></trkpt><trkpt lat="43.502744654906124" lon="12.256012994289236"><ele>359.5</ele><time>2026-04-24T08:56:32.999Z</time></trkpt><trkpt lat="43.50272420087841" lon="12.256098510066282"><ele>360.0</ele><time>2026-04-24T08:56:33.999Z</time></trkpt><trkpt lat="43.50266499161051" lon="12.256256876094454"><ele>360.5</ele><time>2026-04-24T08:56:35.999Z</time></trkpt><trkpt lat="43.50263245411565" lon="12.25633422590555"><ele>361.0</ele><time>2026-04-24T08:56:36.999Z</time></trkpt><trkpt lat="43.50259346398636" lon="12.256419770034446"><ele>362.0</ele><time>2026-04-24T08:56:37.999Z</time></trkpt><trkpt lat="43.50254648988246" lon="12.256562199160568"><ele>363.0</ele><time>2026-04-24T08:56:39.999Z</time></trkpt><trkpt lat="43.50252383842805" lon="12.256717983657321"><ele>364.0</ele><time>2026-04-24T08:56:41.999Z</time></trkpt><trkpt lat="43.50252648369365" lon="12.256813898290984"><ele>365.0</ele><time>2026-04-24T08:56:42.999Z</time></trkpt><trkpt lat="43.502512213955626" lon="12.256916949233668"><ele>366.0</ele><time>2026-04-24T08:56:43.999Z</time></trkpt><trkpt lat="43.502520568211274" lon="12.257084922656201"><ele>366.0</ele><time>2026-04-24T08:56:45.999Z</time></trkpt><trkpt lat="43.502516212248246" lon="12.257175987671218"><ele>366.0</ele><time>2026-04-24T08:56:46.999Z</time></trkpt><trkpt lat="43.50253978847553" lon="12.25731801361084"><ele>366.0</ele><time>2026-04-24T08:56:48.999Z</time></trkpt><trkpt lat="43.502586623231245" lon="12.257401693967736"><ele>366.0</ele><time>2026-04-24T08:56:49.999Z</time></trkpt><trkpt lat="43.50257441527806" lon="12.257565580230146"><ele>366.0</ele><time>2026-04-24T08:56:51.999Z</time></trkpt><trkpt lat="43.50256065255698" lon="12.257652044663978"><ele>366.0</ele><time>2026-04-24T08:56:52.999Z</time></trkpt><trkpt lat="43.5025553071649" lon="12.257745590941955"><ele>366.8</ele><time>2026-04-24T08:56:53.999Z</time></trkpt><trkpt lat="43.502577360778616" lon="12.257881626555463"><ele>367.6</ele><time>2026-04-24T08:56:55.999Z</time></trkpt><trkpt lat="43.50261134818067" lon="12.25801732132019"><ele>368.4</ele><time>2026-04-24T08:56:57.999Z</time></trkpt><trkpt lat="43.502601367105626" lon="12.258112645462603"><ele>369.2</ele><time>2026-04-24T08:56:58.999Z</time></trkpt><trkpt lat="43.50259306555986" lon="12.258201399960937"><ele>370.0</ele><time>2026-04-24T08:56:59.999Z</time></trkpt><trkpt lat="43.50258628241553" lon="12.258355655908172"><ele>371.16666666666663</ele><time>2026-04-24T08:57:01.999Z</time></trkpt><trkpt lat="43.50250209970949" lon="12.258448766375155"><ele>372.3333333333333</ele><time>2026-04-24T08:57:03.999Z</time></trkpt><trkpt lat="43.50246346317697" lon="12.258524295729018"><ele>373.5</ele><time>2026-04-24T08:57:04.999Z</time></trkpt><trkpt lat="43.50243994226365" lon="12.258664040480468"><ele>374.6666666666667</ele><time>2026-04-24T08:57:06.999Z</time></trkpt><trkpt lat="43.502460042785046" lon="12.25875764513105"><ele>375.83333333333337</ele><time>2026-04-24T08:57:07.999Z</time></trkpt><trkpt lat="43.50247964264802" lon="12.258858125022456"><ele>377.0</ele><time>2026-04-24T08:57:08.999Z</time></trkpt><trkpt lat="43.502484474166316" lon="12.258950611639355"><ele>377.40000000000003</ele><time>2026-04-24T08:57:09.999Z</time></trkpt><trkpt lat="43.5025506441765" lon="12.25910377145709"><ele>377.8</ele><time>2026-04-24T08:57:11.999Z</time></trkpt><trkpt lat="43.5026224744577" lon="12.259246206992167"><ele>378.2</ele><time>2026-04-24T08:57:13.999Z</time></trkpt><trkpt lat="43.50262383335092" lon="12.259336252714027"><ele>378.6</ele><time>2026-04-24T08:57:14.999Z</time></trkpt><trkpt lat="43.50262997150549" lon="12.25942532167178"><ele>379.0</ele><time>2026-04-24T08:57:15.999Z</time></trkpt><trkpt lat="43.50265487665499" lon="12.259523033430892"><ele>379.0</ele><time>2026-04-24T08:57:16.999Z</time></trkpt><trkpt lat="43.502660068246904" lon="12.259619286606753"><ele>379.0</ele><time>2026-04-24T08:57:17.999Z</time></trkpt><trkpt lat="43.502650074209356" lon="12.259735772416162"><ele>379.0</ele><time>2026-04-24T08:57:18.999Z</time></trkpt><trkpt lat="43.50265310640715" lon="12.259841263746539"><ele>379.0</ele><time>2026-04-24T08:57:19.999Z</time></trkpt><trkpt lat="43.5026537994788" lon="12.259952530594198"><ele>379.0</ele><time>2026-04-24T08:57:20.999Z</time></trkpt><trkpt lat="43.502667420871965" lon="12.260060026698223"><ele>379.0</ele><time>2026-04-24T08:57:21.999Z</time></trkpt><trkpt lat="43.50268176323862" lon="12.260181163113032"><ele>380.4</ele><time>2026-04-24T08:57:22.999Z</time></trkpt><trkpt lat="43.50269151117384" lon="12.2602861999212"><ele>381.79999999999995</ele><time>2026-04-24T08:57:23.999Z</time></trkpt><trkpt lat="43.50269229664864" lon="12.260379747838584"><ele>383.20000000000005</ele><time>2026-04-24T08:57:24.999Z</time></trkpt><trkpt lat="43.50271118148774" lon="12.260504826095303"><ele>384.6</ele><time>2026-04-24T08:57:26.999Z</time></trkpt><trkpt lat="43.502714626335155" lon="12.260693522500953"><ele>386.0</ele><time>2026-04-24T08:57:28.999Z</time></trkpt><trkpt lat="43.5026675201194" lon="12.260848394982188"><ele>387.16666666666663</ele><time>2026-04-24T08:57:30.999Z</time></trkpt><trkpt lat="43.50264500289836" lon="12.261018699068737"><ele>388.3333333333333</ele><time>2026-04-24T08:57:32.999Z</time></trkpt><trkpt lat="43.5026559273326" lon="12.261141202227646"><ele>389.5</ele><time>2026-04-24T08:57:33.999Z</time></trkpt><trkpt lat="43.50267277643829" lon="12.261234405658216"><ele>390.66666666666663</ele><time>2026-04-24T08:57:34.999Z</time></trkpt><trkpt lat="43.50269496618425" lon="12.261320606762412"><ele>391.8333333333333</ele><time>2026-04-24T08:57:35.999Z</time></trkpt><trkpt lat="43.50272527302868" lon="12.26139834843004"><ele>393.0</ele><time>2026-04-24T08:57:36.999Z</time></trkpt><trkpt lat="43.502775482463434" lon="12.261566371996643"><ele>393.8333333333333</ele><time>2026-04-24T08:57:38.999Z</time></trkpt><trkpt lat="43.50285191505908" lon="12.261713479376011"><ele>394.66666666666663</ele><time>2026-04-24T08:57:40.999Z</time></trkpt><trkpt lat="43.50288058438903" lon="12.261792275545172"><ele>395.5</ele><time>2026-04-24T08:57:41.999Z</time></trkpt><trkpt lat="43.50291492126316" lon="12.261874910792846"><ele>396.3333333333333</ele><time>2026-04-24T08:57:42.999Z</time></trkpt><trkpt lat="43.50296374236727" lon="12.261944194198897"><ele>397.16666666666663</ele><time>2026-04-24T08:57:43.999Z</time></trkpt><trkpt lat="43.503011186700654" lon="12.262005728482734"><ele>398.0</ele><time>2026-04-24T08:57:44.999Z</time></trkpt><trkpt lat="43.503068210001906" lon="12.262086255323185"><ele>399.99999999999994</ele><time>2026-04-24T08:57:45.999Z</time></trkpt><trkpt lat="43.503114508148215" lon="12.26217768672667"><ele>402.0</ele><time>2026-04-24T08:57:46.999Z</time></trkpt><trkpt lat="43.50315832940117" lon="12.262249345553803"><ele>404.0</ele><time>2026-04-24T08:57:47.999Z</time></trkpt><trkpt lat="43.50319483629926" lon="12.262329603389722"><ele>406.0</ele><time>2026-04-24T08:57:48.999Z</time></trkpt><trkpt lat="43.50322968444164" lon="12.262402026576227"><ele>408.0</ele><time>2026-04-24T08:57:49.999Z</time></trkpt><trkpt lat="43.50328058057544" lon="12.262470044602928"><ele>409.99999999999994</ele><time>2026-04-24T08:57:50.999Z</time></trkpt><trkpt lat="43.50332648260462" lon="12.262537053946321"><ele>412.0</ele><time>2026-04-24T08:57:51.999Z</time></trkpt><trkpt lat="43.5033790149075" lon="12.262630364329715"><ele>412.1666666666667</ele><time>2026-04-24T08:57:52.999Z</time></trkpt><trkpt lat="43.5034249235263" lon="12.262709706799264"><ele>412.33333333333337</ele><time>2026-04-24T08:57:53.999Z</time></trkpt><trkpt lat="43.50346319355754" lon="12.262789473379732"><ele>412.5</ele><time>2026-04-24T08:57:54.999Z</time></trkpt><trkpt lat="43.50354551051405" lon="12.262886476493954"><ele>412.66666666666663</ele><time>2026-04-24T08:57:56.999Z</time></trkpt><trkpt lat="43.503648377244645" lon="12.262961663004493"><ele>412.8333333333333</ele><time>2026-04-24T08:57:58.999Z</time></trkpt><trkpt lat="43.503705838945564" lon="12.263015350392974"><ele>413.0</ele><time>2026-04-24T08:57:59.999Z</time></trkpt><trkpt lat="43.503767625335094" lon="12.263076372824296"><ele>415.49999999999994</ele><time>2026-04-24T08:58:00.999Z</time></trkpt><trkpt lat="43.50383231840166" lon="12.263134558448636"><ele>418.0</ele><time>2026-04-24T08:58:01.999Z</time></trkpt><trkpt lat="43.50390573140636" lon="12.263199925236181"><ele>420.5</ele><time>2026-04-24T08:58:02.999Z</time></trkpt><trkpt lat="43.50398325839522" lon="12.263267630002291"><ele>423.0</ele><time>2026-04-24T08:58:03.999Z</time></trkpt><trkpt lat="43.50405867223314" lon="12.263329703196977"><ele>425.49999999999994</ele><time>2026-04-24T08:58:04.999Z</time></trkpt><trkpt lat="43.504133493623264" lon="12.263387071993114"><ele>428.0</ele><time>2026-04-24T08:58:05.999Z</time></trkpt><trkpt lat="43.504205745181565" lon="12.263440227467482"><ele>427.99999999999994</ele><time>2026-04-24T08:58:06.999Z</time></trkpt><trkpt lat="43.50427709898693" lon="12.263498406530584"><ele>428.0</ele><time>2026-04-24T08:58:07.999Z</time></trkpt><trkpt lat="43.504343376733715" lon="12.263557479000674"><ele>428.0</ele><time>2026-04-24T08:58:08.999Z</time></trkpt><trkpt lat="43.50441107817227" lon="12.263628306334356"><ele>428.0</ele><time>2026-04-24T08:58:09.999Z</time></trkpt><trkpt lat="43.50446693151128" lon="12.263693161954981"><ele>427.99999999999994</ele><time>2026-04-24T08:58:10.999Z</time></trkpt><trkpt lat="43.504536990909735" lon="12.263771987872223"><ele>428.0</ele><time>2026-04-24T08:58:11.999Z</time></trkpt><trkpt lat="43.50459368798799" lon="12.263840607928948"><ele>428.3333333333333</ele><time>2026-04-24T08:58:12.999Z</time></trkpt><trkpt lat="43.50465442968339" lon="12.263912327832637"><ele>428.66666666666663</ele><time>2026-04-24T08:58:13.999Z</time></trkpt><trkpt lat="43.50470388258468" lon="12.26396988998299"><ele>429.0</ele><time>2026-04-24T08:58:14.999Z</time></trkpt><trkpt lat="43.504726106273374" lon="12.264126208835302"><ele>429.33333333333337</ele><time>2026-04-24T08:58:16.999Z</time></trkpt><trkpt lat="43.504682202583226" lon="12.264220350919159"><ele>429.6666666666667</ele><time>2026-04-24T08:58:17.999Z</time></trkpt><trkpt lat="43.50462031807019" lon="12.264302678464025"><ele>430.0</ele><time>2026-04-24T08:58:18.999Z</time></trkpt><trkpt lat="43.50454301826695" lon="12.264380755791324"><ele>430.0</ele><time>2026-04-24T08:58:19.999Z</time></trkpt><trkpt lat="43.504450805126474" lon="12.264455331632341"><ele>430.0</ele><time>2026-04-24T08:58:20.999Z</time></trkpt><trkpt lat="43.504369834048305" lon="12.264510829381397"><ele>430.0</ele><time>2026-04-24T08:58:21.999Z</time></trkpt><trkpt lat="43.504287899050816" lon="12.264574825852257"><ele>430.0</ele><time>2026-04-24T08:58:22.999Z</time></trkpt><trkpt lat="43.50421821084112" lon="12.264643177846597"><ele>430.0</ele><time>2026-04-24T08:58:23.999Z</time></trkpt><trkpt lat="43.50414964464939" lon="12.26470722962202"><ele>430.00000000000006</ele><time>2026-04-24T08:58:24.999Z</time></trkpt><trkpt lat="43.50406767906093" lon="12.264757739284054"><ele>430.0</ele><time>2026-04-24T08:58:25.999Z</time></trkpt><trkpt lat="43.50398919369643" lon="12.26481014604409"><ele>430.0</ele><time>2026-04-24T08:58:26.999Z</time></trkpt><trkpt lat="43.50391419907402" lon="12.26483502361762"><ele>430.0</ele><time>2026-04-24T08:58:27.999Z</time></trkpt><trkpt lat="43.503835426353156" lon="12.264828873409963"><ele>430.00000000000006</ele><time>2026-04-24T08:58:28.999Z</time></trkpt><trkpt lat="43.50377079231456" lon="12.2647604371431"><ele>430.0</ele><time>2026-04-24T08:58:29.999Z</time></trkpt><trkpt lat="43.503708392864894" lon="12.264683624040318"><ele>431.1666666666667</ele><time>2026-04-24T08:58:30.999Z</time></trkpt><trkpt lat="43.50364457756136" lon="12.264650205209447"><ele>432.33333333333337</ele><time>2026-04-24T08:58:31.999Z</time></trkpt><trkpt lat="43.50358106843449" lon="12.264655378358693"><ele>433.5</ele><time>2026-04-24T08:58:32.999Z</time></trkpt><trkpt lat="43.50348318102392" lon="12.264662126371624"><ele>434.66666666666663</ele><time>2026-04-24T08:58:33.999Z</time></trkpt><trkpt lat="43.503386613805" lon="12.264632085577205"><ele>435.8333333333333</ele><time>2026-04-24T08:58:34.999Z</time></trkpt><trkpt lat="43.50330858571029" lon="12.264588121386575"><ele>437.0</ele><time>2026-04-24T08:58:35.999Z</time></trkpt><trkpt lat="43.50324627107623" lon="12.264540542230048"><ele>436.99999999999994</ele><time>2026-04-24T08:58:36.999Z</time></trkpt><trkpt lat="43.50314766818371" lon="12.264417717162797"><ele>437.0</ele><time>2026-04-24T08:58:38.999Z</time></trkpt><trkpt lat="43.503070068378065" lon="12.264380834043685"><ele>437.0</ele><time>2026-04-24T08:58:39.999Z</time></trkpt><trkpt lat="43.502998606029315" lon="12.264354615011152"><ele>437.0</ele><time>2026-04-24T08:58:40.999Z</time></trkpt><trkpt lat="43.502934046323354" lon="12.264360742160928"><ele>436.99999999999994</ele><time>2026-04-24T08:58:41.999Z</time></trkpt><trkpt lat="43.502860398161566" lon="12.26438266836836"><ele>437.0</ele><time>2026-04-24T08:58:42.999Z</time></trkpt><trkpt lat="43.502782300760174" lon="12.26437618234695"><ele>436.8333333333333</ele><time>2026-04-24T08:58:43.999Z</time></trkpt><trkpt lat="43.50271550358179" lon="12.264390472303578"><ele>436.66666666666663</ele><time>2026-04-24T08:58:44.999Z</time></trkpt><trkpt lat="43.50265211423139" lon="12.264460788367684"><ele>436.5</ele><time>2026-04-24T08:58:45.999Z</time></trkpt><trkpt lat="43.50258574520757" lon="12.264541250906419"><ele>436.33333333333337</ele><time>2026-04-24T08:58:46.999Z</time></trkpt><trkpt lat="43.50251928874877" lon="12.264628764508592"><ele>436.1666666666667</ele><time>2026-04-24T08:58:47.999Z</time></trkpt><trkpt lat="43.5024593644654" lon="12.264722291857101"><ele>436.0</ele><time>2026-04-24T08:58:48.999Z</time></trkpt><trkpt lat="43.502408734438816" lon="12.264795819320485"><ele>435.83333333333337</ele><time>2026-04-24T08:58:49.999Z</time></trkpt><trkpt lat="43.50234991198675" lon="12.264889911509503"><ele>435.6666666666667</ele><time>2026-04-24T08:58:50.999Z</time></trkpt><trkpt lat="43.50229002101844" lon="12.264960848432652"><ele>435.5</ele><time>2026-04-24T08:58:51.999Z</time></trkpt><trkpt lat="43.502222457209065" lon="12.265024484410146"><ele>435.33333333333337</ele><time>2026-04-24T08:58:52.999Z</time></trkpt><trkpt lat="43.50215852005986" lon="12.26510904588045"><ele>435.1666666666667</ele><time>2026-04-24T08:58:53.999Z</time></trkpt><trkpt lat="43.50209934833804" lon="12.265197831998817"><ele>435.0</ele><time>2026-04-24T08:58:54.999Z</time></trkpt><trkpt lat="43.502049167647826" lon="12.265309865687435"><ele>434.5</ele><time>2026-04-24T08:58:55.999Z</time></trkpt><trkpt lat="43.502023077376954" lon="12.26541493034217"><ele>434.0</ele><time>2026-04-24T08:58:56.999Z</time></trkpt><trkpt lat="43.50199104827827" lon="12.265531488632673"><ele>433.5</ele><time>2026-04-24T08:58:57.999Z</time></trkpt><trkpt lat="43.501972939052905" lon="12.265621284864308"><ele>433.0</ele><time>2026-04-24T08:58:58.999Z</time></trkpt><trkpt lat="43.50196000339119" lon="12.265727742473707"><ele>432.5</ele><time>2026-04-24T08:58:59.999Z</time></trkpt><trkpt lat="43.50196984737998" lon="12.265896442024335"><ele>432.0</ele><time>2026-04-24T08:59:01.999Z</time></trkpt><trkpt lat="43.501979655591505" lon="12.266000456903502"><ele>433.40000000000003</ele><time>2026-04-24T08:59:03Z</time></trkpt><trkpt lat="43.502002170657605" lon="12.266091268497226"><ele>434.80000000000007</ele><time>2026-04-24T08:59:04Z</time></trkpt><trkpt lat="43.502000696643876" lon="12.266197687413982"><ele>436.2</ele><time>2026-04-24T08:59:05Z</time></trkpt><trkpt lat="43.50198176748182" lon="12.26632612948787"><ele>437.6</ele><time>2026-04-24T08:59:06Z</time></trkpt><trkpt lat="43.501983154509475" lon="12.266476154167878"><ele>439.0</ele><time>2026-04-24T08:59:07Z</time></trkpt><trkpt lat="43.501999047943976" lon="12.266647366056027"><ele>439.00000000000006</ele><time>2026-04-24T08:59:08Z</time></trkpt><trkpt lat="43.50201055386496" lon="12.266786612058382"><ele>439.0</ele><time>2026-04-24T08:59:09Z</time></trkpt><trkpt lat="43.501997471414064" lon="12.26690073495962"><ele>439.0</ele><time>2026-04-24T08:59:10Z</time></trkpt><trkpt lat="43.501996516445374" lon="12.26699464004004"><ele>439.0</ele><time>2026-04-24T08:59:11Z</time></trkpt><trkpt lat="43.5020293521279" lon="12.267086618552103"><ele>439.00000000000006</ele><time>2026-04-24T08:59:12Z</time></trkpt><trkpt lat="43.502096968257675" lon="12.267187479517741"><ele>439.0</ele><time>2026-04-24T08:59:13Z</time></trkpt><trkpt lat="43.50216141401712" lon="12.267303766177811"><ele>440.2</ele><time>2026-04-24T08:59:14Z</time></trkpt><trkpt lat="43.5022145907225" lon="12.267428030359607"><ele>441.4</ele><time>2026-04-24T08:59:15Z</time></trkpt><trkpt lat="43.502269589707225" lon="12.267551823371583"><ele>442.6</ele><time>2026-04-24T08:59:16Z</time></trkpt><trkpt lat="43.502318392702314" lon="12.267657815624771"><ele>443.8</ele><time>2026-04-24T08:59:17Z</time></trkpt><trkpt lat="43.50236473552486" lon="12.267761981459739"><ele>445.0</ele><time>2026-04-24T08:59:18Z</time></trkpt><trkpt lat="43.50239267617413" lon="12.26786027781313"><ele>445.00000000000006</ele><time>2026-04-24T08:59:19Z</time></trkpt><trkpt lat="43.502338849007984" lon="12.267982762927902"><ele>445.0</ele><time>2026-04-24T08:59:21Z</time></trkpt><trkpt lat="43.50227362802815" lon="12.267954789119413"><ele>445.0</ele><time>2026-04-24T08:59:22Z</time></trkpt><trkpt lat="43.502228095409215" lon="12.267880180034414"><ele>445.0</ele><time>2026-04-24T08:59:23Z</time></trkpt><trkpt lat="43.502119779859" lon="12.26780898455326"><ele>445.00000000000006</ele><time>2026-04-24T08:59:25Z</time></trkpt><trkpt lat="43.50203934647352" lon="12.26777801403252"><ele>445.0</ele><time>2026-04-24T08:59:26Z</time></trkpt><trkpt lat="43.50197210145345" lon="12.267777849224919"><ele>447.6</ele><time>2026-04-24T08:59:27Z</time></trkpt><trkpt lat="43.50192320597022" lon="12.267928924330871"><ele>450.2</ele><time>2026-04-24T08:59:29Z</time></trkpt><trkpt lat="43.50192119459115" lon="12.268020986844387"><ele>452.79999999999995</ele><time>2026-04-24T08:59:30Z</time></trkpt><trkpt lat="43.501948488541764" lon="12.268213325884155"><ele>455.4</ele><time>2026-04-24T08:59:32Z</time></trkpt><trkpt lat="43.50190135455848" lon="12.268355026440087"><ele>458.0</ele><time>2026-04-24T08:59:34Z</time></trkpt><trkpt lat="43.50183685924523" lon="12.268392259365108"><ele>458.0</ele><time>2026-04-24T08:59:35Z</time></trkpt><trkpt lat="43.50170666274272" lon="12.26837877711571"><ele>457.99999999999994</ele><time>2026-04-24T08:59:37Z</time></trkpt><trkpt lat="43.50163547174313" lon="12.26825113714781"><ele>457.99999999999994</ele><time>2026-04-24T08:59:39Z</time></trkpt><trkpt lat="43.501602963017156" lon="12.268147966631991"><ele>458.0</ele><time>2026-04-24T08:59:40Z</time></trkpt><trkpt lat="43.501531150849935" lon="12.268033318359434"><ele>458.0</ele><time>2026-04-24T08:59:41Z</time></trkpt><trkpt lat="43.50146687037952" lon="12.267921717085201"><ele>458.0</ele><time>2026-04-24T08:59:42Z</time></trkpt><trkpt lat="43.50141485158114" lon="12.267812357396982"><ele>457.99999999999994</ele><time>2026-04-24T08:59:43Z</time></trkpt><trkpt lat="43.50135187111666" lon="12.267729923663662"><ele>457.99999999999994</ele><time>2026-04-24T08:59:44Z</time></trkpt><trkpt lat="43.50126976880096" lon="12.267696740747645"><ele>458.0</ele><time>2026-04-24T08:59:45Z</time></trkpt><trkpt lat="43.50117342796161" lon="12.267656474553055"><ele>458.0</ele><time>2026-04-24T08:59:46Z</time></trkpt><trkpt lat="43.501097149939355" lon="12.267613983605012"><ele>458.49999999999994</ele><time>2026-04-24T08:59:47Z</time></trkpt><trkpt lat="43.50105307075734" lon="12.267517527367456"><ele>459.0</ele><time>2026-04-24T08:59:48Z</time></trkpt><trkpt lat="43.501030542093524" lon="12.267417530960339"><ele>459.5</ele><time>2026-04-24T08:59:49Z</time></trkpt><trkpt lat="43.50098073154727" lon="12.267339128529327"><ele>460.0</ele><time>2026-04-24T08:59:50Z</time></trkpt><trkpt lat="43.500899900790564" lon="12.267282773651282"><ele>460.49999999999994</ele><time>2026-04-24T08:59:51Z</time></trkpt><trkpt lat="43.50082745572405" lon="12.267227212717842"><ele>461.0</ele><time>2026-04-24T08:59:52Z</time></trkpt><trkpt lat="43.50072952057264" lon="12.267129556727852"><ele>462.20000000000005</ele><time>2026-04-24T08:59:54Z</time></trkpt><trkpt lat="43.500654242223845" lon="12.267108512118767"><ele>463.40000000000003</ele><time>2026-04-24T08:59:55Z</time></trkpt><trkpt lat="43.50056912762175" lon="12.267109390554772"><ele>464.6</ele><time>2026-04-24T08:59:56Z</time></trkpt><trkpt lat="43.500481362540455" lon="12.267140295566843"><ele>465.8</ele><time>2026-04-24T08:59:57Z</time></trkpt><trkpt lat="43.50039671865432" lon="12.267174767415927"><ele>467.0</ele><time>2026-04-24T08:59:58Z</time></trkpt><trkpt lat="43.500274066769414" lon="12.267172108909781"><ele>466.99999999999994</ele><time>2026-04-24T09:00:00Z</time></trkpt><trkpt lat="43.50020609307481" lon="12.267120028820164"><ele>467.0</ele><time>2026-04-24T09:00:01Z</time></trkpt><trkpt lat="43.50013849177379" lon="12.267057510711147"><ele>467.0</ele><time>2026-04-24T09:00:02Z</time></trkpt><trkpt lat="43.50007951276029" lon="12.266998608368416"><ele>467.0</ele><time>2026-04-24T09:00:03Z</time></trkpt><trkpt lat="43.50002417602859" lon="12.266933165095685"><ele>466.99999999999994</ele><time>2026-04-24T09:00:04Z</time></trkpt><trkpt lat="43.499963730769956" lon="12.266831810387451"><ele>467.0</ele><time>2026-04-24T09:00:05Z</time></trkpt><trkpt lat="43.49993563694365" lon="12.266744698669548"><ele>466.99999999999994</ele><time>2026-04-24T09:00:06Z</time></trkpt><trkpt lat="43.49990157799248" lon="12.266639044074783"><ele>467.0</ele><time>2026-04-24T09:00:07Z</time></trkpt><trkpt lat="43.499867462938184" lon="12.266544230503564"><ele>467.0</ele><time>2026-04-24T09:00:08Z</time></trkpt><trkpt lat="43.49982167288718" lon="12.266452748250622"><ele>467.0</ele><time>2026-04-24T09:00:09Z</time></trkpt><trkpt lat="43.49976880127189" lon="12.266343757031946"><ele>466.99999999999994</ele><time>2026-04-24T09:00:10Z</time></trkpt><trkpt lat="43.4997363127211" lon="12.266244444971477"><ele>467.0</ele><time>2026-04-24T09:00:11Z</time></trkpt><trkpt lat="43.49969452592106" lon="12.266134349353576"><ele>466.0</ele><time>2026-04-24T09:00:12Z</time></trkpt><trkpt lat="43.49965180778502" lon="12.266045890841669"><ele>465.00000000000006</ele><time>2026-04-24T09:00:13Z</time></trkpt><trkpt lat="43.49958971878858" lon="12.265948857420405"><ele>464.00000000000006</ele><time>2026-04-24T09:00:14Z</time></trkpt><trkpt lat="43.49950639248183" lon="12.265855266841317"><ele>463.0</ele><time>2026-04-24T09:00:15Z</time></trkpt><trkpt lat="43.49942914966389" lon="12.265793250458307"><ele>462.0</ele><time>2026-04-24T09:00:16Z</time></trkpt><trkpt lat="43.49934169298055" lon="12.265715288282387"><ele>463.8333333333333</ele><time>2026-04-24T09:00:17Z</time></trkpt><trkpt lat="43.49927650871424" lon="12.26564560297934"><ele>465.66666666666663</ele><time>2026-04-24T09:00:18Z</time></trkpt><trkpt lat="43.49922560265242" lon="12.265554545563813"><ele>467.5</ele><time>2026-04-24T09:00:19Z</time></trkpt><trkpt lat="43.499184586615286" lon="12.265466127414511"><ele>469.3333333333333</ele><time>2026-04-24T09:00:20Z</time></trkpt><trkpt lat="43.49912036975569" lon="12.265362102564506"><ele>471.16666666666663</ele><time>2026-04-24T09:00:21Z</time></trkpt><trkpt lat="43.49905248505825" lon="12.265249839971412"><ele>473.0</ele><time>2026-04-24T09:00:22Z</time></trkpt><trkpt lat="43.49898650541212" lon="12.265142458389438"><ele>473.0</ele><time>2026-04-24T09:00:23Z</time></trkpt><trkpt lat="43.4989294496186" lon="12.26505329391246"><ele>472.99999999999994</ele><time>2026-04-24T09:00:24Z</time></trkpt><trkpt lat="43.498869221725016" lon="12.264950922276851"><ele>472.99999999999994</ele><time>2026-04-24T09:00:25Z</time></trkpt><trkpt lat="43.49881254739434" lon="12.264834510643027"><ele>473.0</ele><time>2026-04-24T09:00:25.999Z</time></trkpt><trkpt lat="43.49876662889357" lon="12.264720816613467"><ele>473.0</ele><time>2026-04-24T09:00:26.999Z</time></trkpt><trkpt lat="43.49872671102927" lon="12.264610180949106"><ele>473.59999999999997</ele><time>2026-04-24T09:00:27.999Z</time></trkpt><trkpt lat="43.498694048718704" lon="12.264489126174217"><ele>474.19999999999993</ele><time>2026-04-24T09:00:28.999Z</time></trkpt><trkpt lat="43.49866411014037" lon="12.264362778301917"><ele>474.8</ele><time>2026-04-24T09:00:29.999Z</time></trkpt><trkpt lat="43.498637647053954" lon="12.264228565804009"><ele>475.4</ele><time>2026-04-24T09:00:30.999Z</time></trkpt><trkpt lat="43.498592700047396" lon="12.264125636166906"><ele>476.0</ele><time>2026-04-24T09:00:31.999Z</time></trkpt><trkpt lat="43.498523193234696" lon="12.26404839681146"><ele>476.0</ele><time>2026-04-24T09:00:32.999Z</time></trkpt><trkpt lat="43.498451745391925" lon="12.26397899052307"><ele>476.0</ele><time>2026-04-24T09:00:33.999Z</time></trkpt><trkpt lat="43.498397740654624" lon="12.263885984139044"><ele>476.0</ele><time>2026-04-24T09:00:34.999Z</time></trkpt><trkpt lat="43.49832944883408" lon="12.263772549540375"><ele>476.0</ele><time>2026-04-24T09:00:35.999Z</time></trkpt><trkpt lat="43.49824418348347" lon="12.263671659215408"><ele>476.0</ele><time>2026-04-24T09:00:36.999Z</time></trkpt><trkpt lat="43.49814462285214" lon="12.263615783619231"><ele>476.6</ele><time>2026-04-24T09:00:37.999Z</time></trkpt><trkpt lat="43.49804986097721" lon="12.26358103244374"><ele>477.20000000000005</ele><time>2026-04-24T09:00:38.999Z</time></trkpt><trkpt lat="43.49796195176096" lon="12.263571065492258"><ele>477.79999999999995</ele><time>2026-04-24T09:00:39.999Z</time></trkpt><trkpt lat="43.497869576930974" lon="12.263571540856159"><ele>478.4</ele><time>2026-04-24T09:00:40.999Z</time></trkpt><trkpt lat="43.49777226077364" lon="12.263571708900365"><ele>479.0</ele><time>2026-04-24T09:00:41.999Z</time></trkpt><trkpt lat="43.49768289437863" lon="12.263582119396974"><ele>479.66666666666663</ele><time>2026-04-24T09:00:42.999Z</time></trkpt><trkpt lat="43.497586387302505" lon="12.26359504719273"><ele>480.3333333333333</ele><time>2026-04-24T09:00:43.999Z</time></trkpt><trkpt lat="43.497506520267386" lon="12.263589012334574"><ele>481.0</ele><time>2026-04-24T09:00:44.999Z</time></trkpt><trkpt lat="43.49742744952565" lon="12.263548341073903"><ele>481.66666666666663</ele><time>2026-04-24T09:00:45.999Z</time></trkpt><trkpt lat="43.497361645073184" lon="12.263495096359545"><ele>482.3333333333333</ele><time>2026-04-24T09:00:46.999Z</time></trkpt><trkpt lat="43.49726828861982" lon="12.263444560666889"><ele>483.0</ele><time>2026-04-24T09:00:47.999Z</time></trkpt><trkpt lat="43.4971702203237" lon="12.263424192035265"><ele>482.3333333333333</ele><time>2026-04-24T09:00:48.999Z</time></trkpt><trkpt lat="43.49708061478981" lon="12.263461381676649"><ele>481.66666666666663</ele><time>2026-04-24T09:00:49.999Z</time></trkpt><trkpt lat="43.496994736069254" lon="12.263514762183783"><ele>481.0</ele><time>2026-04-24T09:00:51Z</time></trkpt><trkpt lat="43.49692144949681" lon="12.26355453191857"><ele>480.3333333333333</ele><time>2026-04-24T09:00:52Z</time></trkpt><trkpt lat="43.496854221109736" lon="12.263569986794055"><ele>479.66666666666663</ele><time>2026-04-24T09:00:53Z</time></trkpt><trkpt lat="43.49677713476016" lon="12.26355773612042"><ele>479.0</ele><time>2026-04-24T09:00:54Z</time></trkpt><trkpt lat="43.496689748174276" lon="12.263548041492495"><ele>478.99999999999994</ele><time>2026-04-24T09:00:55Z</time></trkpt><trkpt lat="43.4965972322092" lon="12.26353341616717"><ele>479.0</ele><time>2026-04-24T09:00:56Z</time></trkpt><trkpt lat="43.496505866663135" lon="12.263496368554296"><ele>479.0</ele><time>2026-04-24T09:00:57Z</time></trkpt><trkpt lat="43.49642745688715" lon="12.263440859396944"><ele>479.0</ele><time>2026-04-24T09:00:58Z</time></trkpt><trkpt lat="43.49636388380841" lon="12.263364434435385"><ele>478.99999999999994</ele><time>2026-04-24T09:00:59Z</time></trkpt><trkpt lat="43.49631256157879" lon="12.263277979315042"><ele>479.0</ele><time>2026-04-24T09:01:00Z</time></trkpt><trkpt lat="43.4962775346714" lon="12.263175371342502"><ele>479.79999999999995</ele><time>2026-04-24T09:01:01Z</time></trkpt><trkpt lat="43.496253260046984" lon="12.26304289908968"><ele>480.59999999999997</ele><time>2026-04-24T09:01:02Z</time></trkpt><trkpt lat="43.4962375796834" lon="12.262892790279297"><ele>481.4</ele><time>2026-04-24T09:01:03Z</time></trkpt><trkpt lat="43.49621268509927" lon="12.262737551173256"><ele>482.2</ele><time>2026-04-24T09:01:04Z</time></trkpt><trkpt lat="43.49617628630669" lon="12.262585331482423"><ele>483.0</ele><time>2026-04-24T09:01:05Z</time></trkpt><trkpt lat="43.49613789642266" lon="12.262444357035754"><ele>480.1666666666667</ele><time>2026-04-24T09:01:06Z</time></trkpt><trkpt lat="43.496088356571924" lon="12.262305460932865"><ele>477.33333333333337</ele><time>2026-04-24T09:01:07Z</time></trkpt><trkpt lat="43.4960397043609" lon="12.262214754554307"><ele>474.5</ele><time>2026-04-24T09:01:08Z</time></trkpt><trkpt lat="43.495995024662676" lon="12.262118138539176"><ele>471.6666666666667</ele><time>2026-04-24T09:01:09Z</time></trkpt><trkpt lat="43.49594018501088" lon="12.262033355808333"><ele>468.83333333333337</ele><time>2026-04-24T09:01:10Z</time></trkpt><trkpt lat="43.49587337343236" lon="12.261956618057082"><ele>466.0</ele><time>2026-04-24T09:01:11Z</time></trkpt><trkpt lat="43.49581578466932" lon="12.261874708350685"><ele>465.83333333333337</ele><time>2026-04-24T09:01:12Z</time></trkpt><trkpt lat="43.495756342656954" lon="12.261778083617179"><ele>465.6666666666667</ele><time>2026-04-24T09:01:13Z</time></trkpt><trkpt lat="43.49569362097686" lon="12.261689670099445"><ele>465.5</ele><time>2026-04-24T09:01:14Z</time></trkpt><trkpt lat="43.495625510835076" lon="12.261620615141862"><ele>465.33333333333337</ele><time>2026-04-24T09:01:15Z</time></trkpt><trkpt lat="43.495552738895086" lon="12.261551687174233"><ele>465.1666666666667</ele><time>2026-04-24T09:01:16Z</time></trkpt><trkpt lat="43.49547785219075" lon="12.26147996816632"><ele>465.0</ele><time>2026-04-24T09:01:17Z</time></trkpt><trkpt lat="43.49538953888573" lon="12.261412079703378"><ele>463.8333333333333</ele><time>2026-04-24T09:01:18Z</time></trkpt><trkpt lat="43.495307794370206" lon="12.261357241145438"><ele>462.66666666666663</ele><time>2026-04-24T09:01:19Z</time></trkpt><trkpt lat="43.495218574002514" lon="12.261317957392754"><ele>461.5</ele><time>2026-04-24T09:01:20Z</time></trkpt><trkpt lat="43.49515210325024" lon="12.2612747073178"><ele>460.3333333333333</ele><time>2026-04-24T09:01:21Z</time></trkpt><trkpt lat="43.4951243719143" lon="12.261120298798195"><ele>459.16666666666663</ele><time>2026-04-24T09:01:23Z</time></trkpt><trkpt lat="43.495144119683914" lon="12.261022558976713"><ele>458.0</ele><time>2026-04-24T09:01:24Z</time></trkpt><trkpt lat="43.49511602722703" lon="12.260871746817179"><ele>458.0</ele><time>2026-04-24T09:01:26Z</time></trkpt><trkpt lat="43.49506023986406" lon="12.260805123470604"><ele>457.99999999999994</ele><time>2026-04-24T09:01:27Z</time></trkpt><trkpt lat="43.49499373694731" lon="12.260731142406685"><ele>457.99999999999994</ele><time>2026-04-24T09:01:28Z</time></trkpt><trkpt lat="43.494926037839754" lon="12.260649157706878"><ele>458.0</ele><time>2026-04-24T09:01:29Z</time></trkpt><trkpt lat="43.49484810133363" lon="12.260563578575933"><ele>458.0</ele><time>2026-04-24T09:01:30Z</time></trkpt><trkpt lat="43.49476671441129" lon="12.260473722458977"><ele>455.59999999999997</ele><time>2026-04-24T09:01:31Z</time></trkpt><trkpt lat="43.494688136645216" lon="12.260384161419468"><ele>453.19999999999993</ele><time>2026-04-24T09:01:32Z</time></trkpt><trkpt lat="43.49461950524065" lon="12.260290603386819"><ele>450.8</ele><time>2026-04-24T09:01:33Z</time></trkpt><trkpt lat="43.4945524971425" lon="12.260202519420362"><ele>448.4</ele><time>2026-04-24T09:01:34Z</time></trkpt><trkpt lat="43.49448052932239" lon="12.260122133124456"><ele>446.0</ele><time>2026-04-24T09:01:35Z</time></trkpt><trkpt lat="43.49440461847775" lon="12.26003437042352"><ele>445.99999999999994</ele><time>2026-04-24T09:01:36Z</time></trkpt><trkpt lat="43.49434627154961" lon="12.259945772845368"><ele>446.0</ele><time>2026-04-24T09:01:37Z</time></trkpt><trkpt lat="43.49431330666973" lon="12.25984399719822"><ele>446.0</ele><time>2026-04-24T09:01:38Z</time></trkpt><trkpt lat="43.49430132581971" lon="12.259725721063052"><ele>446.0</ele><time>2026-04-24T09:01:39Z</time></trkpt><trkpt lat="43.494267935602956" lon="12.259644579966055"><ele>445.99999999999994</ele><time>2026-04-24T09:01:40Z</time></trkpt><trkpt lat="43.494209476556364" lon="12.259549174304782"><ele>446.0</ele><time>2026-04-24T09:01:41Z</time></trkpt><trkpt lat="43.494134394892974" lon="12.25947740742849"><ele>445.8</ele><time>2026-04-24T09:01:42Z</time></trkpt><trkpt lat="43.4940397827149" lon="12.259432639916966"><ele>445.6</ele><time>2026-04-24T09:01:43Z</time></trkpt><trkpt lat="43.493938102279394" lon="12.259412145637075"><ele>445.4</ele><time>2026-04-24T09:01:44Z</time></trkpt><trkpt lat="43.49382920378977" lon="12.259405260282398"><ele>445.2</ele><time>2026-04-24T09:01:45Z</time></trkpt><trkpt lat="43.493721658339524" lon="12.259398895017803"><ele>445.0</ele><time>2026-04-24T09:01:46Z</time></trkpt><trkpt lat="43.4936215773253" lon="12.259380520806788"><ele>445.00000000000006</ele><time>2026-04-24T09:01:47Z</time></trkpt><trkpt lat="43.49352496711073" lon="12.259365463933321"><ele>445.0</ele><time>2026-04-24T09:01:48Z</time></trkpt><trkpt lat="43.49343687059078" lon="12.25935796569634"><ele>445.0</ele><time>2026-04-24T09:01:49Z</time></trkpt><trkpt lat="43.49335281478684" lon="12.259344554624716"><ele>445.0</ele><time>2026-04-24T09:01:50Z</time></trkpt><trkpt lat="43.49328226097928" lon="12.259338027545231"><ele>445.00000000000006</ele><time>2026-04-24T09:01:51Z</time></trkpt><trkpt lat="43.49320823322843" lon="12.25934000739494"><ele>445.0</ele><time>2026-04-24T09:01:52Z</time></trkpt><trkpt lat="43.4931215514332" lon="12.259342437080159"><ele>445.0</ele><time>2026-04-24T09:01:53Z</time></trkpt><trkpt lat="43.49302577842573" lon="12.259332707622848"><ele>445.0</ele><time>2026-04-24T09:01:54Z</time></trkpt><trkpt lat="43.49292142585173" lon="12.259287712793698"><ele>445.0</ele><time>2026-04-24T09:01:55Z</time></trkpt><trkpt lat="43.49281925350065" lon="12.259229224283493"><ele>445.0</ele><time>2026-04-24T09:01:56Z</time></trkpt><trkpt lat="43.49271087340513" lon="12.259181895608938"><ele>445.0</ele><time>2026-04-24T09:01:57Z</time></trkpt><trkpt lat="43.49260427464277" lon="12.259155422028362"><ele>443.0</ele><time>2026-04-24T09:01:58Z</time></trkpt><trkpt lat="43.49249579772158" lon="12.259157794610848"><ele>441.0</ele><time>2026-04-24T09:01:59Z</time></trkpt><trkpt lat="43.492386448389055" lon="12.259188672422523"><ele>439.0</ele><time>2026-04-24T09:02:00Z</time></trkpt><trkpt lat="43.49227637455345" lon="12.2592095549314"><ele>437.0</ele><time>2026-04-24T09:02:01Z</time></trkpt><trkpt lat="43.49216890623343" lon="12.259237107022452"><ele>435.0</ele><time>2026-04-24T09:02:02Z</time></trkpt><trkpt lat="43.492060521820335" lon="12.259266834255714"><ele>433.0</ele><time>2026-04-24T09:02:03Z</time></trkpt><trkpt lat="43.49194380783492" lon="12.259277551798247"><ele>431.0</ele><time>2026-04-24T09:02:04Z</time></trkpt><trkpt lat="43.49183078819992" lon="12.259285591520454"><ele>429.0</ele><time>2026-04-24T09:02:05Z</time></trkpt><trkpt lat="43.491714897662646" lon="12.259302290094688"><ele>427.0</ele><time>2026-04-24T09:02:06Z</time></trkpt><trkpt lat="43.49160524443748" lon="12.25932996907814"><ele>427.0</ele><time>2026-04-24T09:02:07Z</time></trkpt><trkpt lat="43.49149446232909" lon="12.259366897068"><ele>427.0</ele><time>2026-04-24T09:02:08Z</time></trkpt><trkpt lat="43.49138582587428" lon="12.259417713935463"><ele>427.0</ele><time>2026-04-24T09:02:09Z</time></trkpt><trkpt lat="43.49127135839079" lon="12.259472988428666"><ele>427.0</ele><time>2026-04-24T09:02:10Z</time></trkpt><trkpt lat="43.49116517288623" lon="12.25952389090315"><ele>428.5</ele><time>2026-04-24T09:02:11Z</time></trkpt><trkpt lat="43.49105082537294" lon="12.259576801917314"><ele>430.0</ele><time>2026-04-24T09:02:12Z</time></trkpt><trkpt lat="43.490941520770775" lon="12.259628795116946"><ele>431.5</ele><time>2026-04-24T09:02:13Z</time></trkpt><trkpt lat="43.49083120815788" lon="12.259684097635498"><ele>433.0</ele><time>2026-04-24T09:02:14Z</time></trkpt><trkpt lat="43.49072606070667" lon="12.25973708625447"><ele>432.25</ele><time>2026-04-24T09:02:15Z</time></trkpt><trkpt lat="43.4906106443497" lon="12.259792303885664"><ele>431.5</ele><time>2026-04-24T09:02:16Z</time></trkpt><trkpt lat="43.49049294094871" lon="12.259843431445914"><ele>430.75</ele><time>2026-04-24T09:02:17Z</time></trkpt><trkpt lat="43.49037232191069" lon="12.259896423941148"><ele>430.0</ele><time>2026-04-24T09:02:18Z</time></trkpt><trkpt lat="43.49024883567787" lon="12.259945004341755"><ele>432.75</ele><time>2026-04-24T09:02:19Z</time></trkpt><trkpt lat="43.49013387707576" lon="12.259995778571293"><ele>435.5</ele><time>2026-04-24T09:02:20Z</time></trkpt><trkpt lat="43.490018235383765" lon="12.260058818122532"><ele>438.25</ele><time>2026-04-24T09:02:21Z</time></trkpt><trkpt lat="43.48990279516097" lon="12.260132430403797"><ele>441.0</ele><time>2026-04-24T09:02:22Z</time></trkpt><trkpt lat="43.48979687492283" lon="12.260219994881774"><ele>441.0</ele><time>2026-04-24T09:02:23Z</time></trkpt><trkpt lat="43.48970690241922" lon="12.260307683747014"><ele>441.0</ele><time>2026-04-24T09:02:24Z</time></trkpt><trkpt lat="43.489631699755854" lon="12.260388442429441"><ele>441.0</ele><time>2026-04-24T09:02:25Z</time></trkpt><trkpt lat="43.48954702037013" lon="12.260454617548708"><ele>441.0</ele><time>2026-04-24T09:02:26Z</time></trkpt><trkpt lat="43.48945591967703" lon="12.260500117782357"><ele>441.0</ele><time>2026-04-24T09:02:27Z</time></trkpt><trkpt lat="43.4893577987419" lon="12.260532605509916"><ele>440.25</ele><time>2026-04-24T09:02:28Z</time></trkpt><trkpt lat="43.48925333081421" lon="12.260546119917622"><ele>439.5</ele><time>2026-04-24T09:02:29Z</time></trkpt><trkpt lat="43.48914484606122" lon="12.260543323002082"><ele>438.75</ele><time>2026-04-24T09:02:30Z</time></trkpt><trkpt lat="43.48902551363735" lon="12.260530530438983"><ele>438.0</ele><time>2026-04-24T09:02:31Z</time></trkpt><trkpt lat="43.48890620291912" lon="12.260534371538379"><ele>438.0</ele><time>2026-04-24T09:02:31.999Z</time></trkpt><trkpt lat="43.488792892693795" lon="12.260565382565105"><ele>438.0</ele><time>2026-04-24T09:02:32.999Z</time></trkpt><trkpt lat="43.48867994575327" lon="12.260601503386159"><ele>438.0</ele><time>2026-04-24T09:02:33.999Z</time></trkpt><trkpt lat="43.488571489723434" lon="12.260641243735316"><ele>438.0</ele><time>2026-04-24T09:02:34.999Z</time></trkpt><trkpt lat="43.48846724163787" lon="12.260667624596682"><ele>436.5</ele><time>2026-04-24T09:02:35.999Z</time></trkpt><trkpt lat="43.48835065809932" lon="12.260668355112484"><ele>435.0</ele><time>2026-04-24T09:02:36.999Z</time></trkpt><trkpt lat="43.48823569818179" lon="12.260649566870121"><ele>433.5</ele><time>2026-04-24T09:02:37.999Z</time></trkpt><trkpt lat="43.4881154167215" lon="12.26063642102844"><ele>432.0</ele><time>2026-04-24T09:02:38.999Z</time></trkpt><trkpt lat="43.488002683168226" lon="12.260622304838273"><ele>431.6</ele><time>2026-04-24T09:02:39.999Z</time></trkpt><trkpt lat="43.487900032579496" lon="12.260599414934433"><ele>431.20000000000005</ele><time>2026-04-24T09:02:40.999Z</time></trkpt><trkpt lat="43.487787920992034" lon="12.260606733063804"><ele>430.8</ele><time>2026-04-24T09:02:41.999Z</time></trkpt><trkpt lat="43.48767058378511" lon="12.260629178695924"><ele>430.4</ele><time>2026-04-24T09:02:42.999Z</time></trkpt><trkpt lat="43.48756209658357" lon="12.260656015184843"><ele>430.0</ele><time>2026-04-24T09:02:43.999Z</time></trkpt><trkpt lat="43.48745326097121" lon="12.260691213661136"><ele>430.0</ele><time>2026-04-24T09:02:44.999Z</time></trkpt><trkpt lat="43.487346574326324" lon="12.260688182758257"><ele>430.0</ele><time>2026-04-24T09:02:45.999Z</time></trkpt><trkpt lat="43.487232938113685" lon="12.260668597549527"><ele>430.0</ele><time>2026-04-24T09:02:46.999Z</time></trkpt><trkpt lat="43.48711810092149" lon="12.260620077546573"><ele>430.0</ele><time>2026-04-24T09:02:47.999Z</time></trkpt><trkpt lat="43.48701454120112" lon="12.260570793407956"><ele>427.2</ele><time>2026-04-24T09:02:48.999Z</time></trkpt><trkpt lat="43.48690219848015" lon="12.260514869812566"><ele>424.4</ele><time>2026-04-24T09:02:49.999Z</time></trkpt><trkpt lat="43.486798837454714" lon="12.26045548589157"><ele>421.6</ele><time>2026-04-24T09:02:50.999Z</time></trkpt><trkpt lat="43.486707875699295" lon="12.260407118994834"><ele>418.8</ele><time>2026-04-24T09:02:52Z</time></trkpt><trkpt lat="43.48665329552549" lon="12.260360082945821"><ele>416.0</ele><time>2026-04-24T09:02:53Z</time></trkpt><trkpt lat="43.48661185778678" lon="12.260214570616492"><ele>416.0</ele><time>2026-04-24T09:02:55Z</time></trkpt><trkpt lat="43.48667507595338" lon="12.260099893095376"><ele>416.0</ele><time>2026-04-24T09:02:57Z</time></trkpt><trkpt lat="43.486808607639766" lon="12.26010118428201"><ele>416.0</ele><time>2026-04-24T09:02:59Z</time></trkpt><trkpt lat="43.486889923572875" lon="12.260157429159174"><ele>416.0</ele><time>2026-04-24T09:03:00Z</time></trkpt><trkpt lat="43.486987778537035" lon="12.260209511002136"><ele>416.0</ele><time>2026-04-24T09:03:01Z</time></trkpt><trkpt lat="43.487081903161055" lon="12.260229324566867"><ele>415.4</ele><time>2026-04-24T09:03:02Z</time></trkpt><trkpt lat="43.48718174171219" lon="12.260249624158025"><ele>414.8</ele><time>2026-04-24T09:03:03Z</time></trkpt><trkpt lat="43.4872872980998" lon="12.260257558214523"><ele>414.2</ele><time>2026-04-24T09:03:04Z</time></trkpt><trkpt lat="43.487375105304935" lon="12.26023583680464"><ele>413.59999999999997</ele><time>2026-04-24T09:03:05Z</time></trkpt><trkpt lat="43.48745714642098" lon="12.260196001218858"><ele>413.0</ele><time>2026-04-24T09:03:06Z</time></trkpt><trkpt lat="43.48755010965931" lon="12.26011995305756"><ele>413.0</ele><time>2026-04-24T09:03:07Z</time></trkpt><trkpt lat="43.48763722529088" lon="12.260048788887971"><ele>413.0</ele><time>2026-04-24T09:03:08Z</time></trkpt><trkpt lat="43.48772637530388" lon="12.259973274716033"><ele>413.0</ele><time>2026-04-24T09:03:09Z</time></trkpt><trkpt lat="43.48779741679761" lon="12.259888762294912"><ele>413.0</ele><time>2026-04-24T09:03:10Z</time></trkpt><trkpt lat="43.48785863328476" lon="12.259799748560043"><ele>413.0</ele><time>2026-04-24T09:03:11Z</time></trkpt><trkpt lat="43.48790464730728" lon="12.259725415789372"><ele>411.49999999999994</ele><time>2026-04-24T09:03:12Z</time></trkpt><trkpt lat="43.487936690909656" lon="12.259573252793691"><ele>410.0</ele><time>2026-04-24T09:03:14Z</time></trkpt><trkpt lat="43.48793206526151" lon="12.25945497344086"><ele>408.5</ele><time>2026-04-24T09:03:16Z</time></trkpt><trkpt lat="43.48790698793726" lon="12.25936500512465"><ele>407.0</ele><time>2026-04-24T09:03:18Z</time></trkpt><trkpt lat="43.48783984702911" lon="12.259403491363951"><ele>405.49999999999994</ele><time>2026-04-24T09:03:21Z</time></trkpt><trkpt lat="43.48780418957335" lon="12.259491732494947"><ele>404.0</ele><time>2026-04-24T09:03:22Z</time></trkpt><trkpt lat="43.48778236412636" lon="12.259603677682941"><ele>403.99999999999994</ele><time>2026-04-24T09:03:23Z</time></trkpt><trkpt lat="43.48773954454757" lon="12.259696870113306"><ele>404.0</ele><time>2026-04-24T09:03:24Z</time></trkpt><trkpt lat="43.48768204597919" lon="12.259786841858602"><ele>404.0</ele><time>2026-04-24T09:03:25Z</time></trkpt><trkpt lat="43.487620457971886" lon="12.259849181657458"><ele>404.0</ele><time>2026-04-24T09:03:26Z</time></trkpt><trkpt lat="43.48753979095056" lon="12.259900044810967"><ele>403.99999999999994</ele><time>2026-04-24T09:03:27Z</time></trkpt><trkpt lat="43.487472706490856" lon="12.259934648999586"><ele>404.0</ele><time>2026-04-24T09:03:28Z</time></trkpt><trkpt lat="43.48738637471524" lon="12.259963584225046"><ele>405.79999999999995</ele><time>2026-04-24T09:03:29Z</time></trkpt><trkpt lat="43.48729447594409" lon="12.259989171200788"><ele>407.59999999999997</ele><time>2026-04-24T09:03:30Z</time></trkpt><trkpt lat="43.487207670895614" lon="12.259992078613745"><ele>409.4</ele><time>2026-04-24T09:03:31Z</time></trkpt><trkpt lat="43.487107148546585" lon="12.259964426294426"><ele>411.2</ele><time>2026-04-24T09:03:32Z</time></trkpt><trkpt lat="43.487015874337565" lon="12.259899880371385"><ele>413.0</ele><time>2026-04-24T09:03:33Z</time></trkpt><trkpt lat="43.4869128081762" lon="12.259814271131651"><ele>408.0</ele><time>2026-04-24T09:03:34Z</time></trkpt><trkpt lat="43.486798433481326" lon="12.259732773699875"><ele>403.0</ele><time>2026-04-24T09:03:35Z</time></trkpt><trkpt lat="43.486693782532576" lon="12.25966581294071"><ele>398.0</ele><time>2026-04-24T09:03:36Z</time></trkpt><trkpt lat="43.486598965584996" lon="12.259612774340484"><ele>393.0</ele><time>2026-04-24T09:03:37Z</time></trkpt><trkpt lat="43.486495527798084" lon="12.259568630892767"><ele>393.0</ele><time>2026-04-24T09:03:38Z</time></trkpt><trkpt lat="43.48638198660958" lon="12.25953307999872"><ele>393.0</ele><time>2026-04-24T09:03:39Z</time></trkpt><trkpt lat="43.4862718594287" lon="12.259502292678281"><ele>393.0</ele><time>2026-04-24T09:03:40Z</time></trkpt><trkpt lat="43.48617876848358" lon="12.259499836684206"><ele>393.0</ele><time>2026-04-24T09:03:41Z</time></trkpt><trkpt lat="43.486092676915156" lon="12.259492947450747"><ele>393.0</ele><time>2026-04-24T09:03:42Z</time></trkpt><trkpt lat="43.485992543942466" lon="12.259489083918062"><ele>394.79999999999995</ele><time>2026-04-24T09:03:43Z</time></trkpt><trkpt lat="43.485892734289706" lon="12.259473136201885"><ele>396.6</ele><time>2026-04-24T09:03:44Z</time></trkpt><trkpt lat="43.48578905308552" lon="12.259466246355649"><ele>398.4</ele><time>2026-04-24T09:03:45Z</time></trkpt><trkpt lat="43.485694014481666" lon="12.259472061487358"><ele>400.20000000000005</ele><time>2026-04-24T09:03:46Z</time></trkpt><trkpt lat="43.48560101852834" lon="12.259477035521915"><ele>402.0</ele><time>2026-04-24T09:03:47Z</time></trkpt><trkpt lat="43.48552579164992" lon="12.259501374134919"><ele>402.0</ele><time>2026-04-24T09:03:48Z</time></trkpt><trkpt lat="43.485459526228205" lon="12.259533869828193"><ele>402.0</ele><time>2026-04-24T09:03:49Z</time></trkpt><trkpt lat="43.48536762099963" lon="12.259443064901637"><ele>402.0</ele><time>2026-04-24T09:03:52Z</time></trkpt><trkpt lat="43.485308130990035" lon="12.259379383385271"><ele>402.0</ele><time>2026-04-24T09:03:53Z</time></trkpt><trkpt lat="43.48524523323081" lon="12.259341923850245"><ele>402.0</ele><time>2026-04-24T09:03:54Z</time></trkpt><trkpt lat="43.485176826489564" lon="12.259322512431702"><ele>402.0</ele><time>2026-04-24T09:03:55Z</time></trkpt><trkpt lat="43.485076506138896" lon="12.259288821685958"><ele>401.20000000000005</ele><time>2026-04-24T09:03:57Z</time></trkpt><trkpt lat="43.485014663393585" lon="12.2592523056202"><ele>400.4</ele><time>2026-04-24T09:03:58Z</time></trkpt><trkpt lat="43.484911792306505" lon="12.259186740172444"><ele>399.6</ele><time>2026-04-24T09:04:00Z</time></trkpt><trkpt lat="43.48480491375954" lon="12.259113378317506"><ele>398.79999999999995</ele><time>2026-04-24T09:04:02Z</time></trkpt><trkpt lat="43.48469676452068" lon="12.259095327953586"><ele>398.0</ele><time>2026-04-24T09:04:04Z</time></trkpt><trkpt lat="43.4845692560813" lon="12.259132530937011"><ele>395.99999999999994</ele><time>2026-04-24T09:04:06Z</time></trkpt><trkpt lat="43.484514047565256" lon="12.259195122685664"><ele>394.0</ele><time>2026-04-24T09:04:07Z</time></trkpt><trkpt lat="43.4844585881786" lon="12.259254330611764"><ele>392.0</ele><time>2026-04-24T09:04:08Z</time></trkpt><trkpt lat="43.4843982657478" lon="12.259301537299566"><ele>390.0</ele><time>2026-04-24T09:04:09Z</time></trkpt><trkpt lat="43.48434787609512" lon="12.259363221045344"><ele>388.0</ele><time>2026-04-24T09:04:10Z</time></trkpt><trkpt lat="43.484298197039415" lon="12.259418058229917"><ele>385.99999999999994</ele><time>2026-04-24T09:04:11Z</time></trkpt><trkpt lat="43.48424372879877" lon="12.259472080336256"><ele>384.0</ele><time>2026-04-24T09:04:12Z</time></trkpt><trkpt lat="43.484169044981066" lon="12.259594004643654"><ele>384.0</ele><time>2026-04-24T09:04:14Z</time></trkpt><trkpt lat="43.484086936770716" lon="12.259669861398134"><ele>384.0</ele><time>2026-04-24T09:04:16Z</time></trkpt><trkpt lat="43.48399448310351" lon="12.259674597113063"><ele>384.0</ele><time>2026-04-24T09:04:18Z</time></trkpt><trkpt lat="43.483940305664504" lon="12.259624030478099"><ele>384.0</ele><time>2026-04-24T09:04:19Z</time></trkpt><trkpt lat="43.483912627974746" lon="12.259538016898812"><ele>384.0</ele><time>2026-04-24T09:04:20Z</time></trkpt><trkpt lat="43.483867758898526" lon="12.259420603119947"><ele>384.0</ele><time>2026-04-24T09:04:21Z</time></trkpt><trkpt lat="43.48381860568251" lon="12.259313735943534"><ele>384.0</ele><time>2026-04-24T09:04:22Z</time></trkpt><trkpt lat="43.48377757604561" lon="12.259197887228241"><ele>384.0</ele><time>2026-04-24T09:04:23Z</time></trkpt><trkpt lat="43.483736004323006" lon="12.25909162393512"><ele>384.0</ele><time>2026-04-24T09:04:24Z</time></trkpt><trkpt lat="43.48370299512569" lon="12.259005360279744"><ele>384.0</ele><time>2026-04-24T09:04:25Z</time></trkpt><trkpt lat="43.48365780665955" lon="12.258915021298613"><ele>384.0</ele><time>2026-04-24T09:04:26Z</time></trkpt><trkpt lat="43.483600342852284" lon="12.258827464917717"><ele>384.0</ele><time>2026-04-24T09:04:27Z</time></trkpt><trkpt lat="43.483549123254434" lon="12.25873269142867"><ele>379.2</ele><time>2026-04-24T09:04:28Z</time></trkpt><trkpt lat="43.48349169667781" lon="12.258631280383266"><ele>374.4</ele><time>2026-04-24T09:04:29Z</time></trkpt><trkpt lat="43.483430593585794" lon="12.258533728923572"><ele>369.6</ele><time>2026-04-24T09:04:30Z</time></trkpt><trkpt lat="43.483363726769916" lon="12.258418229971944"><ele>364.8</ele><time>2026-04-24T09:04:31Z</time></trkpt><trkpt lat="43.48329618280558" lon="12.258298891054237"><ele>360.0</ele><time>2026-04-24T09:04:32Z</time></trkpt><trkpt lat="43.483230988258065" lon="12.25818587156163"><ele>357.2</ele><time>2026-04-24T09:04:33Z</time></trkpt><trkpt lat="43.48316862640393" lon="12.258065470379831"><ele>354.4</ele><time>2026-04-24T09:04:34Z</time></trkpt><trkpt lat="43.48311519048995" lon="12.257958208704457"><ele>351.6</ele><time>2026-04-24T09:04:35Z</time></trkpt><trkpt lat="43.48306373419868" lon="12.257862189404275"><ele>348.8</ele><time>2026-04-24T09:04:36Z</time></trkpt><trkpt lat="43.48300223697495" lon="12.257760493839534"><ele>346.0</ele><time>2026-04-24T09:04:37Z</time></trkpt><trkpt lat="43.482947121467525" lon="12.257651022832931"><ele>346.16666666666663</ele><time>2026-04-24T09:04:38Z</time></trkpt><trkpt lat="43.482890145717455" lon="12.257544154722346"><ele>346.3333333333333</ele><time>2026-04-24T09:04:39Z</time></trkpt><trkpt lat="43.4828369824681" lon="12.25746014374379"><ele>346.5</ele><time>2026-04-24T09:04:40Z</time></trkpt><trkpt lat="43.48277734567821" lon="12.257395243431844"><ele>346.6666666666667</ele><time>2026-04-24T09:04:41Z</time></trkpt><trkpt lat="43.482701653689396" lon="12.257358560442313"><ele>346.83333333333337</ele><time>2026-04-24T09:04:42Z</time></trkpt><trkpt lat="43.48262570652236" lon="12.25736245939071"><ele>347.0</ele><time>2026-04-24T09:04:43Z</time></trkpt><trkpt lat="43.48254827084583" lon="12.257412888081735"><ele>347.0</ele><time>2026-04-24T09:04:44Z</time></trkpt><trkpt lat="43.48247650149195" lon="12.257484581786048"><ele>347.0</ele><time>2026-04-24T09:04:45Z</time></trkpt><trkpt lat="43.4824049322564" lon="12.25756389220511"><ele>347.0</ele><time>2026-04-24T09:04:46Z</time></trkpt><trkpt lat="43.4823428124458" lon="12.257632915113563"><ele>347.0</ele><time>2026-04-24T09:04:47Z</time></trkpt><trkpt lat="43.48228776217652" lon="12.257689032849912"><ele>347.0</ele><time>2026-04-24T09:04:48Z</time></trkpt><trkpt lat="43.48221678338899" lon="12.257751544070922"><ele>347.0</ele><time>2026-04-24T09:04:49Z</time></trkpt><trkpt lat="43.482138373799465" lon="12.257824391918748"><ele>345.6</ele><time>2026-04-24T09:04:50Z</time></trkpt><trkpt lat="43.482063564855615" lon="12.257913668003676"><ele>344.20000000000005</ele><time>2026-04-24T09:04:51Z</time></trkpt><trkpt lat="43.48199483000303" lon="12.257996847546295"><ele>342.8</ele><time>2026-04-24T09:04:52Z</time></trkpt><trkpt lat="43.481927928339296" lon="12.258088255780665"><ele>341.4</ele><time>2026-04-24T09:04:53Z</time></trkpt><trkpt lat="43.48186434054492" lon="12.258179545397683"><ele>340.0</ele><time>2026-04-24T09:04:54Z</time></trkpt><trkpt lat="43.4818010704001" lon="12.258262672965408"><ele>340.0</ele><time>2026-04-24T09:04:55Z</time></trkpt><trkpt lat="43.48174080337594" lon="12.258347650554"><ele>340.0</ele><time>2026-04-24T09:04:56Z</time></trkpt><trkpt lat="43.481692430321424" lon="12.25841294566704"><ele>340.0</ele><time>2026-04-24T09:04:57Z</time></trkpt><trkpt lat="43.481600035249095" lon="12.258521411424963"><ele>340.0</ele><time>2026-04-24T09:04:59Z</time></trkpt><trkpt lat="43.481483938964" lon="12.258515043861983"><ele>340.0</ele><time>2026-04-24T09:05:01Z</time></trkpt><trkpt lat="43.48142344146052" lon="12.258453525601968"><ele>340.0</ele><time>2026-04-24T09:05:02Z</time></trkpt><trkpt lat="43.48136657509358" lon="12.258379733540242"><ele>340.0</ele><time>2026-04-24T09:05:03Z</time></trkpt><trkpt lat="43.481324553098226" lon="12.258309942139558"><ele>340.0</ele><time>2026-04-24T09:05:04Z</time></trkpt><trkpt lat="43.481274855298864" lon="12.258213566331857"><ele>340.0</ele><time>2026-04-24T09:05:06Z</time></trkpt><trkpt lat="43.48116988947244" lon="12.258073459119064"><ele>340.0</ele><time>2026-04-24T09:11:03.002Z</time></trkpt><trkpt lat="43.48110729378385" lon="12.2580844192795"><ele>340.0</ele><time>2026-04-24T09:11:05.001Z</time></trkpt><trkpt lat="43.4810255355181" lon="12.258159456911505"><ele>337.8</ele><time>2026-04-24T09:11:07.001Z</time></trkpt><trkpt lat="43.48092610589837" lon="12.258217659265158"><ele>335.6</ele><time>2026-04-24T09:11:09.001Z</time></trkpt><trkpt lat="43.480820151888125" lon="12.258156955288081"><ele>333.4</ele><time>2026-04-24T09:11:11.001Z</time></trkpt><trkpt lat="43.480719576847115" lon="12.258121912911685"><ele>331.2</ele><time>2026-04-24T09:11:13.001Z</time></trkpt><trkpt lat="43.48066209933919" lon="12.258170444361713"><ele>329.0</ele><time>2026-04-24T09:11:14.001Z</time></trkpt><trkpt lat="43.48060584245939" lon="12.258236090944699"><ele>329.0</ele><time>2026-04-24T09:11:15.001Z</time></trkpt><trkpt lat="43.48055420510348" lon="12.25830236361658"><ele>329.0</ele><time>2026-04-24T09:11:16.001Z</time></trkpt><trkpt lat="43.48048839523028" lon="12.258382423218633"><ele>329.0</ele><time>2026-04-24T09:11:17.001Z</time></trkpt><trkpt lat="43.48042499227899" lon="12.25845680316591"><ele>329.0</ele><time>2026-04-24T09:11:18.001Z</time></trkpt><trkpt lat="43.48035793956375" lon="12.25853815715506"><ele>329.0</ele><time>2026-04-24T09:11:19.001Z</time></trkpt><trkpt lat="43.48029123275313" lon="12.25861669581529"><ele>329.0</ele><time>2026-04-24T09:11:20.001Z</time></trkpt><trkpt lat="43.48022142224726" lon="12.258703649534509"><ele>328.0</ele><time>2026-04-24T09:11:21.001Z</time></trkpt><trkpt lat="43.48015069508086" lon="12.25879006825876"><ele>327.0</ele><time>2026-04-24T09:11:22.001Z</time></trkpt><trkpt lat="43.48008350547205" lon="12.2588637704735"><ele>326.0</ele><time>2026-04-24T09:11:23.001Z</time></trkpt><trkpt lat="43.480013340062236" lon="12.258935310400545"><ele>325.0</ele><time>2026-04-24T09:11:24.001Z</time></trkpt><trkpt lat="43.479943754128044" lon="12.259018643315946"><ele>324.0</ele><time>2026-04-24T09:11:25.001Z</time></trkpt><trkpt lat="43.47986865758505" lon="12.259106839109014"><ele>323.6</ele><time>2026-04-24T09:11:26.001Z</time></trkpt><trkpt lat="43.47979459415307" lon="12.259193810640276"><ele>323.2</ele><time>2026-04-24T09:11:27.001Z</time></trkpt><trkpt lat="43.479723687058836" lon="12.259279744045031"><ele>322.8</ele><time>2026-04-24T09:11:28.001Z</time></trkpt><trkpt lat="43.47965140434763" lon="12.259361623442803"><ele>322.40000000000003</ele><time>2026-04-24T09:11:29.001Z</time></trkpt><trkpt lat="43.47958318190405" lon="12.2594435777045"><ele>322.0</ele><time>2026-04-24T09:11:30.001Z</time></trkpt><trkpt lat="43.47951397886203" lon="12.25953060968608"><ele>320.20000000000005</ele><time>2026-04-24T09:11:31.001Z</time></trkpt><trkpt lat="43.47943141953531" lon="12.259607024712528"><ele>318.40000000000003</ele><time>2026-04-24T09:11:32.001Z</time></trkpt><trkpt lat="43.47936184315179" lon="12.259687907817542"><ele>316.6</ele><time>2026-04-24T09:11:33.001Z</time></trkpt><trkpt lat="43.4792930856971" lon="12.259767838948353"><ele>314.8</ele><time>2026-04-24T09:11:34.001Z</time></trkpt><trkpt lat="43.479224873186965" lon="12.259847136502795"><ele>313.0</ele><time>2026-04-24T09:11:35.001Z</time></trkpt><trkpt lat="43.47915060792831" lon="12.259936995952485"><ele>312.8</ele><time>2026-04-24T09:11:36.001Z</time></trkpt><trkpt lat="43.47908168628602" lon="12.260020310343535"><ele>312.6</ele><time>2026-04-24T09:11:37.001Z</time></trkpt><trkpt lat="43.47901488463873" lon="12.260101062016133"><ele>312.4</ele><time>2026-04-24T09:11:38.001Z</time></trkpt><trkpt lat="43.47894965128694" lon="12.260179397664746"><ele>312.2</ele><time>2026-04-24T09:11:39.001Z</time></trkpt><trkpt lat="43.47888153109101" lon="12.260270693657194"><ele>312.0</ele><time>2026-04-24T09:11:40.001Z</time></trkpt><trkpt lat="43.47880012410172" lon="12.26033317712151"><ele>312.2</ele><time>2026-04-24T09:11:41.001Z</time></trkpt><trkpt lat="43.47872378536551" lon="12.260389111519967"><ele>312.4</ele><time>2026-04-24T09:11:42.001Z</time></trkpt><trkpt lat="43.47864625496638" lon="12.260432141030787"><ele>312.6</ele><time>2026-04-24T09:11:43.001Z</time></trkpt><trkpt lat="43.47855928271109" lon="12.260487711238444"><ele>312.8</ele><time>2026-04-24T09:11:44.001Z</time></trkpt><trkpt lat="43.47845542018853" lon="12.260516100646605"><ele>313.0</ele><time>2026-04-24T09:11:45.001Z</time></trkpt><trkpt lat="43.47835384938056" lon="12.260531214036186"><ele>313.0</ele><time>2026-04-24T09:11:46.001Z</time></trkpt><trkpt lat="43.478252039501776" lon="12.26054613204465"><ele>313.0</ele><time>2026-04-24T09:11:47Z</time></trkpt><trkpt lat="43.47815726246033" lon="12.260564734704403"><ele>313.0</ele><time>2026-04-24T09:11:48Z</time></trkpt><trkpt lat="43.47805449059562" lon="12.260576927973588"><ele>313.0</ele><time>2026-04-24T09:11:49Z</time></trkpt><trkpt lat="43.47795308722103" lon="12.260596039346947"><ele>313.0</ele><time>2026-04-24T09:11:50Z</time></trkpt><trkpt lat="43.47786289943545" lon="12.260634038680875"><ele>314.8333333333333</ele><time>2026-04-24T09:11:51Z</time></trkpt><trkpt lat="43.47777471845085" lon="12.26065207025705"><ele>316.66666666666663</ele><time>2026-04-24T09:11:52Z</time></trkpt><trkpt lat="43.477690988529275" lon="12.260675058550643"><ele>318.5</ele><time>2026-04-24T09:11:53Z</time></trkpt><trkpt lat="43.47761455958763" lon="12.260714303724098"><ele>320.3333333333333</ele><time>2026-04-24T09:11:54Z</time></trkpt><trkpt lat="43.47752569567275" lon="12.26075917163506"><ele>322.1666666666667</ele><time>2026-04-24T09:11:55Z</time></trkpt><trkpt lat="43.47743003502828" lon="12.260787569898614"><ele>324.0</ele><time>2026-04-24T09:11:56Z</time></trkpt><trkpt lat="43.47733580027929" lon="12.260825079183302"><ele>324.0</ele><time>2026-04-24T09:11:57Z</time></trkpt><trkpt lat="43.47725412451209" lon="12.260853913722306"><ele>324.0</ele><time>2026-04-24T09:11:58Z</time></trkpt><trkpt lat="43.47718678638754" lon="12.260898952588814"><ele>324.0</ele><time>2026-04-24T09:11:59Z</time></trkpt><trkpt lat="43.477122873521054" lon="12.260909344305519"><ele>324.0</ele><time>2026-04-24T09:12:00Z</time></trkpt><trkpt lat="43.47716193099211" lon="12.26099121963137"><ele>324.0</ele><time>2026-04-24T09:12:05Z</time></trkpt><trkpt lat="43.47723670163052" lon="12.2609798605111"><ele>324.0</ele><time>2026-04-24T09:12:06Z</time></trkpt><trkpt lat="43.477308565963455" lon="12.260996467101338"><ele>324.0</ele><time>2026-04-24T09:12:07Z</time></trkpt><trkpt lat="43.477380984532694" lon="12.260988540304583"><ele>324.0</ele><time>2026-04-24T09:12:08Z</time></trkpt><trkpt lat="43.47747025631193" lon="12.261031355294088"><ele>324.0</ele><time>2026-04-24T09:12:09Z</time></trkpt><trkpt lat="43.47756318070572" lon="12.261088958907276"><ele>324.0</ele><time>2026-04-24T09:12:10Z</time></trkpt><trkpt lat="43.4776645031169" lon="12.261143022411458"><ele>324.0</ele><time>2026-04-24T09:12:11Z</time></trkpt><trkpt lat="43.477758261167956" lon="12.26120468917836"><ele>324.0</ele><time>2026-04-24T09:12:12Z</time></trkpt><trkpt lat="43.47783926197087" lon="12.261248998943406"><ele>324.0</ele><time>2026-04-24T09:12:13Z</time></trkpt><trkpt lat="43.477927933217394" lon="12.261292039161205"><ele>324.0</ele><time>2026-04-24T09:12:14Z</time></trkpt><trkpt lat="43.47800870347384" lon="12.261327075642168"><ele>324.0</ele><time>2026-04-24T09:12:15Z</time></trkpt><trkpt lat="43.47807784147318" lon="12.261349062120392"><ele>324.0</ele><time>2026-04-24T09:12:16Z</time></trkpt><trkpt lat="43.478144222295676" lon="12.261379674092323"><ele>324.0</ele><time>2026-04-24T09:12:17Z</time></trkpt><trkpt lat="43.47818796167124" lon="12.261511832950124"><ele>324.0</ele><time>2026-04-24T09:12:19Z</time></trkpt><trkpt lat="43.47818891761562" lon="12.261665738811702"><ele>326.3333333333333</ele><time>2026-04-24T09:12:21Z</time></trkpt><trkpt lat="43.478271996349235" lon="12.261761314661424"><ele>328.6666666666667</ele><time>2026-04-24T09:12:23Z</time></trkpt><trkpt lat="43.47835094336353" lon="12.26173585281537"><ele>331.0</ele><time>2026-04-24T09:12:24Z</time></trkpt><trkpt lat="43.47842052485602" lon="12.26172505534964"><ele>333.33333333333337</ele><time>2026-04-24T09:12:25Z</time></trkpt><trkpt lat="43.47849084489827" lon="12.261723390691488"><ele>335.6666666666667</ele><time>2026-04-24T09:12:26Z</time></trkpt><trkpt lat="43.47856477311373" lon="12.261777508043059"><ele>338.0</ele><time>2026-04-24T09:12:27Z</time></trkpt><trkpt lat="43.478643296538124" lon="12.261789272702659"><ele>338.0</ele><time>2026-04-24T09:12:28Z</time></trkpt><trkpt lat="43.478722362961406" lon="12.261822704616266"><ele>338.0</ele><time>2026-04-24T09:12:29Z</time></trkpt><trkpt lat="43.47879491716953" lon="12.261857785583217"><ele>338.0</ele><time>2026-04-24T09:12:30Z</time></trkpt><trkpt lat="43.47889233321878" lon="12.261913863522107"><ele>338.0</ele><time>2026-04-24T09:12:32Z</time></trkpt><trkpt lat="43.47894319041094" lon="12.26197038039244"><ele>338.0</ele><time>2026-04-24T09:12:33Z</time></trkpt><trkpt lat="43.47900043607649" lon="12.262012033334614"><ele>338.0</ele><time>2026-04-24T09:12:34Z</time></trkpt><trkpt lat="43.479090989591356" lon="12.262072367046569"><ele>341.0</ele><time>2026-04-24T09:12:36Z</time></trkpt><trkpt lat="43.47918743996762" lon="12.2621439226844"><ele>344.0</ele><time>2026-04-24T09:12:38Z</time></trkpt><trkpt lat="43.47925090883885" lon="12.262196414316325"><ele>347.0</ele><time>2026-04-24T09:12:39Z</time></trkpt><trkpt lat="43.479021455807455" lon="12.262599973561027"><ele>347.0</ele><time>2026-04-24T09:12:42Z</time></trkpt><trkpt lat="43.47895032739014" lon="12.26262995805641"><ele>347.0</ele><time>2026-04-24T09:12:43Z</time></trkpt><trkpt lat="43.47888715456904" lon="12.262698614528068"><ele>347.0</ele><time>2026-04-24T09:12:44Z</time></trkpt><trkpt lat="43.47884179111687" lon="12.262762976621826"><ele>347.0</ele><time>2026-04-24T09:12:45Z</time></trkpt><trkpt lat="43.47878351294069" lon="12.262820169938184"><ele>347.0</ele><time>2026-04-24T09:12:46Z</time></trkpt><trkpt lat="43.47872010292998" lon="12.26289061499186"><ele>347.0</ele><time>2026-04-24T09:12:47Z</time></trkpt><trkpt lat="43.4786476596348" lon="12.26296744798968"><ele>347.83333333333337</ele><time>2026-04-24T09:12:49Z</time></trkpt><trkpt lat="43.47860126054519" lon="12.263030841534576"><ele>348.6666666666667</ele><time>2026-04-24T09:12:50Z</time></trkpt><trkpt lat="43.47852828840243" lon="12.263081376647017"><ele>349.5</ele><time>2026-04-24T09:12:51Z</time></trkpt><trkpt lat="43.478454562664076" lon="12.263130201301937"><ele>350.3333333333333</ele><time>2026-04-24T09:12:52Z</time></trkpt><trkpt lat="43.47837051661206" lon="12.263152939018145"><ele>351.16666666666663</ele><time>2026-04-24T09:12:53Z</time></trkpt><trkpt lat="43.47828103205969" lon="12.263187475397823"><ele>352.0</ele><time>2026-04-24T09:12:54Z</time></trkpt><trkpt lat="43.47818068008554" lon="12.263220750443132"><ele>355.8</ele><time>2026-04-24T09:12:55Z</time></trkpt><trkpt lat="43.47807218124112" lon="12.263253284964073"><ele>359.6</ele><time>2026-04-24T09:12:56Z</time></trkpt><trkpt lat="43.47796931428051" lon="12.2632869603283"><ele>363.40000000000003</ele><time>2026-04-24T09:12:57Z</time></trkpt><trkpt lat="43.477875697258135" lon="12.263313980643051"><ele>367.20000000000005</ele><time>2026-04-24T09:12:58Z</time></trkpt><trkpt lat="43.47777655523739" lon="12.263334982197293"><ele>371.0</ele><time>2026-04-24T09:12:59Z</time></trkpt><trkpt lat="43.47765797379378" lon="12.263359786727094"><ele>371.20000000000005</ele><time>2026-04-24T09:13:00Z</time></trkpt><trkpt lat="43.47754151008844" lon="12.263377191762613"><ele>371.40000000000003</ele><time>2026-04-24T09:13:01Z</time></trkpt><trkpt lat="43.47743632194381" lon="12.26337701288125"><ele>371.6</ele><time>2026-04-24T09:13:02Z</time></trkpt><trkpt lat="43.47733599753449" lon="12.263367677555244"><ele>371.8</ele><time>2026-04-24T09:13:03Z</time></trkpt><trkpt lat="43.47724432444282" lon="12.2633468762564"><ele>372.0</ele><time>2026-04-24T09:13:04Z</time></trkpt><trkpt lat="43.477156165365635" lon="12.263308156860504"><ele>371.6</ele><time>2026-04-24T09:13:05Z</time></trkpt><trkpt lat="43.47706967101112" lon="12.26326199665641"><ele>371.20000000000005</ele><time>2026-04-24T09:13:06Z</time></trkpt><trkpt lat="43.47697044317161" lon="12.26320368339596"><ele>370.8</ele><time>2026-04-24T09:13:07Z</time></trkpt><trkpt lat="43.47688380285239" lon="12.263142113555547"><ele>370.4</ele><time>2026-04-24T09:13:08Z</time></trkpt><trkpt lat="43.47679211660672" lon="12.263106431174602"><ele>370.0</ele><time>2026-04-24T09:13:09Z</time></trkpt><trkpt lat="43.47669677505323" lon="12.263071591428528"><ele>366.0</ele><time>2026-04-24T09:13:10Z</time></trkpt><trkpt lat="43.47660166392356" lon="12.26303927257313"><ele>362.0</ele><time>2026-04-24T09:13:11Z</time></trkpt><trkpt lat="43.476511868446934" lon="12.26301823489036"><ele>358.0</ele><time>2026-04-24T09:13:12Z</time></trkpt><trkpt lat="43.47643165771831" lon="12.263002425879662"><ele>354.0</ele><time>2026-04-24T09:13:13Z</time></trkpt><trkpt lat="43.476350393445635" lon="12.263018121093832"><ele>350.0</ele><time>2026-04-24T09:13:14Z</time></trkpt><trkpt lat="43.4762645021793" lon="12.263008297323813"><ele>346.0</ele><time>2026-04-24T09:13:15Z</time></trkpt><trkpt lat="43.47618561117685" lon="12.26299866556417"><ele>345.3333333333333</ele><time>2026-04-24T09:13:16Z</time></trkpt><trkpt lat="43.47611383935008" lon="12.26298658149644"><ele>344.66666666666663</ele><time>2026-04-24T09:13:17Z</time></trkpt><trkpt lat="43.47598434646408" lon="12.262954930456166"><ele>344.0</ele><time>2026-04-24T09:13:19Z</time></trkpt><trkpt lat="43.47593320012034" lon="12.262902037791957"><ele>343.3333333333333</ele><time>2026-04-24T09:13:20Z</time></trkpt><trkpt lat="43.47591751780407" lon="12.262813410185608"><ele>342.6666666666667</ele><time>2026-04-24T09:13:21Z</time></trkpt><trkpt lat="43.47591269071499" lon="12.262724166717172"><ele>342.0</ele><time>2026-04-24T09:13:22Z</time></trkpt><trkpt lat="43.47590117839887" lon="12.262637234436154"><ele>342.0</ele><time>2026-04-24T09:13:23Z</time></trkpt><trkpt lat="43.47585772708059" lon="12.262564799045917"><ele>342.0</ele><time>2026-04-24T09:13:24Z</time></trkpt><trkpt lat="43.4757503925394" lon="12.262552187739905"><ele>342.0</ele><time>2026-04-24T09:13:25Z</time></trkpt><trkpt lat="43.47563459573319" lon="12.262682941170654"><ele>342.0</ele><time>2026-04-24T09:13:26Z</time></trkpt><trkpt lat="43.47552389516672" lon="12.26274724184474"><ele>342.0</ele><time>2026-04-24T09:13:27Z</time></trkpt><trkpt lat="43.47540389371137" lon="12.262814833766244"><ele>340.0</ele><time>2026-04-24T09:13:28Z</time></trkpt><trkpt lat="43.47527864320557" lon="12.26288454426824"><ele>338.0</ele><time>2026-04-24T09:13:29Z</time></trkpt><trkpt lat="43.47515912964682" lon="12.262947723108978"><ele>336.0</ele><time>2026-04-24T09:13:30Z</time></trkpt><trkpt lat="43.475064348078035" lon="12.263014860056035"><ele>334.0</ele><time>2026-04-24T09:13:31Z</time></trkpt><trkpt lat="43.47498193102015" lon="12.263022624336127"><ele>334.0</ele><time>2026-04-24T09:13:32Z</time></trkpt><trkpt lat="43.4749158351229" lon="12.263056355162904"><ele>334.0</ele><time>2026-04-24T09:13:33Z</time></trkpt><trkpt lat="43.47482499798957" lon="12.263058026848123"><ele>334.0</ele><time>2026-04-24T09:13:35Z</time></trkpt><trkpt lat="43.47477021577232" lon="12.263112487719244"><ele>334.0</ele><time>2026-04-24T09:13:37Z</time></trkpt><trkpt lat="43.47475902472337" lon="12.263275808519095"><ele>334.0</ele><time>2026-04-24T09:13:39Z</time></trkpt><trkpt lat="43.47473581363044" lon="12.263365526913711"><ele>334.0</ele><time>2026-04-24T09:13:40Z</time></trkpt><trkpt lat="43.47467347703375" lon="12.263426973939108"><ele>334.3333333333333</ele><time>2026-04-24T09:13:41Z</time></trkpt><trkpt lat="43.47460164792574" lon="12.263467853254276"><ele>334.66666666666663</ele><time>2026-04-24T09:13:42Z</time></trkpt><trkpt lat="43.47452121324418" lon="12.263536058504092"><ele>335.0</ele><time>2026-04-24T09:13:43Z</time></trkpt><trkpt lat="43.474441436141035" lon="12.263615596980964"><ele>335.3333333333333</ele><time>2026-04-24T09:13:44Z</time></trkpt><trkpt lat="43.47437010527188" lon="12.263693417113195"><ele>335.6666666666667</ele><time>2026-04-24T09:13:45Z</time></trkpt><trkpt lat="43.47430134615191" lon="12.263765652895776"><ele>336.0</ele><time>2026-04-24T09:13:46Z</time></trkpt><trkpt lat="43.47424160222771" lon="12.26382708140552"><ele>336.0</ele><time>2026-04-24T09:13:47Z</time></trkpt><trkpt lat="43.4741745898584" lon="12.263891964688357"><ele>336.0</ele><time>2026-04-24T09:13:48Z</time></trkpt><trkpt lat="43.474117072134966" lon="12.263952106321318"><ele>336.0</ele><time>2026-04-24T09:13:49Z</time></trkpt><trkpt lat="43.47403934170096" lon="12.264053796715896"><ele>336.0</ele><time>2026-04-24T09:13:51Z</time></trkpt><trkpt lat="43.47398847317149" lon="12.264115935506446"><ele>336.0</ele><time>2026-04-24T09:13:55Z</time></trkpt><trkpt lat="43.473932305010116" lon="12.264175412228179"><ele>336.0</ele><time>2026-04-24T09:13:59Z</time></trkpt><trkpt lat="43.473970097991334" lon="12.264247251647218"><ele>338.0</ele><time>2026-04-24T09:14:06Z</time></trkpt></trkseg></trk></gpx>